<?xml version="1.0" encoding="utf-8"?>
<gpx xmlns:xsi="http://www.w3.org/2001/XMLSchema-instance" xmlns:xsd="http://www.w3.org/2001/XMLSchema" version="1.1" creator="Shapelink.com" xmlns="http://www.topografix.com/GPX/1/1" xmlns:gpxtpx="http://www.garmin.com/xmlschemas/TrackPointExtension/v1">
  <metadata>
    <name>Ciclismo 21.73 km, 2020-01-22</name>
    <desc></desc>
    <author><name>Peter Littke</name></author> 
    <time>2020-01-22T07:46:00Z</time>
  </metadata>
  <trk>
    <name>Ciclismo 21.73 km, 2020-01-22</name>
    <trkseg>
      <trkpt lat="59.340156" lon="18.084898">
        <ele>28</ele>
        <time>2020-01-22T07:46:00Z</time>
      </trkpt>
      <trkpt lat="59.340152" lon="18.084794">
        <ele>29</ele>
        <time>2020-01-22T07:46:09Z</time>
      </trkpt>
      <trkpt lat="59.340157" lon="18.084752">
        <ele>29</ele>
        <time>2020-01-22T07:46:09Z</time>
      </trkpt>
      <trkpt lat="59.340166" lon="18.084706">
        <ele>29</ele>
        <time>2020-01-22T07:46:10Z</time>
      </trkpt>
      <trkpt lat="59.340176" lon="18.084656">
        <ele>29</ele>
        <time>2020-01-22T07:46:11Z</time>
      </trkpt>
      <trkpt lat="59.340192" lon="18.084604">
        <ele>29</ele>
        <time>2020-01-22T07:46:12Z</time>
      </trkpt>
      <trkpt lat="59.340215" lon="18.084548">
        <ele>29</ele>
        <time>2020-01-22T07:46:13Z</time>
      </trkpt>
      <trkpt lat="59.340251" lon="18.08449">
        <ele>28</ele>
        <time>2020-01-22T07:46:14Z</time>
      </trkpt>
      <trkpt lat="59.340284" lon="18.084418">
        <ele>28</ele>
        <time>2020-01-22T07:46:15Z</time>
      </trkpt>
      <trkpt lat="59.340313" lon="18.084338">
        <ele>28</ele>
        <time>2020-01-22T07:46:16Z</time>
      </trkpt>
      <trkpt lat="59.340337" lon="18.084252">
        <ele>28</ele>
        <time>2020-01-22T07:46:17Z</time>
      </trkpt>
      <trkpt lat="59.340361" lon="18.084164">
        <ele>28</ele>
        <time>2020-01-22T07:46:18Z</time>
      </trkpt>
      <trkpt lat="59.340385" lon="18.084076">
        <ele>28</ele>
        <time>2020-01-22T07:46:19Z</time>
      </trkpt>
      <trkpt lat="59.340408" lon="18.083992">
        <ele>28</ele>
        <time>2020-01-22T07:46:20Z</time>
      </trkpt>
      <trkpt lat="59.34043" lon="18.08391">
        <ele>28</ele>
        <time>2020-01-22T07:46:21Z</time>
      </trkpt>
      <trkpt lat="59.340444" lon="18.083842">
        <ele>28</ele>
        <time>2020-01-22T07:46:22Z</time>
      </trkpt>
      <trkpt lat="59.340454" lon="18.083784">
        <ele>29</ele>
        <time>2020-01-22T07:46:23Z</time>
      </trkpt>
      <trkpt lat="59.34047" lon="18.083738">
        <ele>29</ele>
        <time>2020-01-22T07:46:24Z</time>
      </trkpt>
      <trkpt lat="59.340486" lon="18.083692">
        <ele>29</ele>
        <time>2020-01-22T07:46:25Z</time>
      </trkpt>
      <trkpt lat="59.340507" lon="18.083646">
        <ele>29</ele>
        <time>2020-01-22T07:46:26Z</time>
      </trkpt>
      <trkpt lat="59.340531" lon="18.083608">
        <ele>29</ele>
        <time>2020-01-22T07:46:27Z</time>
      </trkpt>
      <trkpt lat="59.340528" lon="18.083554">
        <ele>29</ele>
        <time>2020-01-22T07:46:28Z</time>
      </trkpt>
      <trkpt lat="59.340506" lon="18.083505">
        <ele>29</ele>
        <time>2020-01-22T07:46:29Z</time>
      </trkpt>
      <trkpt lat="59.34048" lon="18.083462">
        <ele>30</ele>
        <time>2020-01-22T07:46:30Z</time>
      </trkpt>
      <trkpt lat="59.340449" lon="18.083422">
        <ele>30</ele>
        <time>2020-01-22T07:46:31Z</time>
      </trkpt>
      <trkpt lat="59.340415" lon="18.083384">
        <ele>30</ele>
        <time>2020-01-22T07:46:32Z</time>
      </trkpt>
      <trkpt lat="59.34038" lon="18.083346">
        <ele>30</ele>
        <time>2020-01-22T07:46:33Z</time>
      </trkpt>
      <trkpt lat="59.340339" lon="18.083312">
        <ele>30</ele>
        <time>2020-01-22T07:46:34Z</time>
      </trkpt>
      <trkpt lat="59.340248" lon="18.083244">
        <ele>31</ele>
        <time>2020-01-22T07:46:36Z</time>
      </trkpt>
      <trkpt lat="59.340129" lon="18.083202">
        <ele>31</ele>
        <time>2020-01-22T07:46:38Z</time>
      </trkpt>
      <trkpt lat="59.340009" lon="18.083136">
        <ele>31</ele>
        <time>2020-01-22T07:46:40Z</time>
      </trkpt>
      <trkpt lat="59.339958" lon="18.0831">
        <ele>31</ele>
        <time>2020-01-22T07:46:41Z</time>
      </trkpt>
      <trkpt lat="59.339909" lon="18.083056">
        <ele>31</ele>
        <time>2020-01-22T07:46:42Z</time>
      </trkpt>
      <trkpt lat="59.339813" lon="18.082976">
        <ele>31</ele>
        <time>2020-01-22T07:46:44Z</time>
      </trkpt>
      <trkpt lat="59.339769" lon="18.082936">
        <ele>32</ele>
        <time>2020-01-22T07:46:45Z</time>
      </trkpt>
      <trkpt lat="59.339722" lon="18.0829">
        <ele>32</ele>
        <time>2020-01-22T07:46:46Z</time>
      </trkpt>
      <trkpt lat="59.339672" lon="18.082866">
        <ele>32</ele>
        <time>2020-01-22T07:46:47Z</time>
      </trkpt>
      <trkpt lat="59.339624" lon="18.082832">
        <ele>33</ele>
        <time>2020-01-22T07:46:48Z</time>
      </trkpt>
      <trkpt lat="59.33958" lon="18.082794">
        <ele>33</ele>
        <time>2020-01-22T07:46:49Z</time>
      </trkpt>
      <trkpt lat="59.339534" lon="18.08276">
        <ele>33</ele>
        <time>2020-01-22T07:46:50Z</time>
      </trkpt>
      <trkpt lat="59.339495" lon="18.082722">
        <ele>34</ele>
        <time>2020-01-22T07:46:51Z</time>
      </trkpt>
      <trkpt lat="59.339438" lon="18.082692">
        <ele>34</ele>
        <time>2020-01-22T07:46:52Z</time>
      </trkpt>
      <trkpt lat="59.339403" lon="18.082684">
        <ele>35</ele>
        <time>2020-01-22T07:46:53Z</time>
      </trkpt>
      <trkpt lat="59.33938" lon="18.08268">
        <ele>35</ele>
        <time>2020-01-22T07:46:54Z</time>
      </trkpt>
      <trkpt lat="59.33936" lon="18.08268">
        <ele>35</ele>
        <time>2020-01-22T07:46:55Z</time>
      </trkpt>
      <trkpt lat="59.339336" lon="18.08266">
        <ele>35</ele>
        <time>2020-01-22T07:46:57Z</time>
      </trkpt>
      <trkpt lat="59.339316" lon="18.08264">
        <ele>34</ele>
        <time>2020-01-22T07:46:58Z</time>
      </trkpt>
      <trkpt lat="59.339291" lon="18.082612">
        <ele>33</ele>
        <time>2020-01-22T07:46:59Z</time>
      </trkpt>
      <trkpt lat="59.339272" lon="18.082572">
        <ele>33</ele>
        <time>2020-01-22T07:47:00Z</time>
      </trkpt>
      <trkpt lat="59.339246" lon="18.082536">
        <ele>33</ele>
        <time>2020-01-22T07:47:01Z</time>
      </trkpt>
      <trkpt lat="59.339216" lon="18.082501">
        <ele>32</ele>
        <time>2020-01-22T07:47:02Z</time>
      </trkpt>
      <trkpt lat="59.339186" lon="18.082468">
        <ele>31</ele>
        <time>2020-01-22T07:47:03Z</time>
      </trkpt>
      <trkpt lat="59.339155" lon="18.082436">
        <ele>31</ele>
        <time>2020-01-22T07:47:04Z</time>
      </trkpt>
      <trkpt lat="59.339126" lon="18.082406">
        <ele>30</ele>
        <time>2020-01-22T07:47:05Z</time>
      </trkpt>
      <trkpt lat="59.339099" lon="18.082385">
        <ele>30</ele>
        <time>2020-01-22T07:47:06Z</time>
      </trkpt>
      <trkpt lat="59.339074" lon="18.082369">
        <ele>30</ele>
        <time>2020-01-22T07:47:07Z</time>
      </trkpt>
      <trkpt lat="59.339052" lon="18.082354">
        <ele>30</ele>
        <time>2020-01-22T07:47:08Z</time>
      </trkpt>
      <trkpt lat="59.339021" lon="18.082322">
        <ele>30</ele>
        <time>2020-01-22T07:47:09Z</time>
      </trkpt>
      <trkpt lat="59.338988" lon="18.082292">
        <ele>30</ele>
        <time>2020-01-22T07:47:10Z</time>
      </trkpt>
      <trkpt lat="59.33894" lon="18.082254">
        <ele>30</ele>
        <time>2020-01-22T07:47:11Z</time>
      </trkpt>
      <trkpt lat="59.338898" lon="18.082217">
        <ele>30</ele>
        <time>2020-01-22T07:47:12Z</time>
      </trkpt>
      <trkpt lat="59.338854" lon="18.082182">
        <ele>31</ele>
        <time>2020-01-22T07:47:13Z</time>
      </trkpt>
      <trkpt lat="59.338804" lon="18.082155">
        <ele>31</ele>
        <time>2020-01-22T07:47:14Z</time>
      </trkpt>
      <trkpt lat="59.338752" lon="18.082119">
        <ele>31</ele>
        <time>2020-01-22T07:47:15Z</time>
      </trkpt>
      <trkpt lat="59.338703" lon="18.08209">
        <ele>31</ele>
        <time>2020-01-22T07:47:16Z</time>
      </trkpt>
      <trkpt lat="59.33866" lon="18.082059">
        <ele>31</ele>
        <time>2020-01-22T07:47:17Z</time>
      </trkpt>
      <trkpt lat="59.338614" lon="18.082027">
        <ele>31</ele>
        <time>2020-01-22T07:47:18Z</time>
      </trkpt>
      <trkpt lat="59.338569" lon="18.081994">
        <ele>32</ele>
        <time>2020-01-22T07:47:19Z</time>
      </trkpt>
      <trkpt lat="59.338522" lon="18.081964">
        <ele>32</ele>
        <time>2020-01-22T07:47:20Z</time>
      </trkpt>
      <trkpt lat="59.338482" lon="18.081935">
        <ele>32</ele>
        <time>2020-01-22T07:47:21Z</time>
      </trkpt>
      <trkpt lat="59.338454" lon="18.081911">
        <ele>33</ele>
        <time>2020-01-22T07:47:22Z</time>
      </trkpt>
      <trkpt lat="59.338432" lon="18.081895">
        <ele>33</ele>
        <time>2020-01-22T07:47:23Z</time>
      </trkpt>
      <trkpt lat="59.338412" lon="18.081883">
        <ele>33</ele>
        <time>2020-01-22T07:47:24Z</time>
      </trkpt>
      <trkpt lat="59.338391" lon="18.081873">
        <ele>34</ele>
        <time>2020-01-22T07:47:25Z</time>
      </trkpt>
      <trkpt lat="59.33837" lon="18.081863">
        <ele>34</ele>
        <time>2020-01-22T07:47:26Z</time>
      </trkpt>
      <trkpt lat="59.33835" lon="18.081848">
        <ele>35</ele>
        <time>2020-01-22T07:47:27Z</time>
      </trkpt>
      <trkpt lat="59.338326" lon="18.081825">
        <ele>36</ele>
        <time>2020-01-22T07:47:28Z</time>
      </trkpt>
      <trkpt lat="59.3383" lon="18.0818">
        <ele>36</ele>
        <time>2020-01-22T07:47:29Z</time>
      </trkpt>
      <trkpt lat="59.338276" lon="18.081775">
        <ele>36</ele>
        <time>2020-01-22T07:47:30Z</time>
      </trkpt>
      <trkpt lat="59.338259" lon="18.081746">
        <ele>36</ele>
        <time>2020-01-22T07:47:31Z</time>
      </trkpt>
      <trkpt lat="59.338245" lon="18.081722">
        <ele>36</ele>
        <time>2020-01-22T07:47:32Z</time>
      </trkpt>
      <trkpt lat="59.338226" lon="18.081698">
        <ele>36</ele>
        <time>2020-01-22T07:47:33Z</time>
      </trkpt>
      <trkpt lat="59.338209" lon="18.081672">
        <ele>36</ele>
        <time>2020-01-22T07:47:34Z</time>
      </trkpt>
      <trkpt lat="59.33819" lon="18.081644">
        <ele>35</ele>
        <time>2020-01-22T07:47:35Z</time>
      </trkpt>
      <trkpt lat="59.338171" lon="18.081613">
        <ele>35</ele>
        <time>2020-01-22T07:47:36Z</time>
      </trkpt>
      <trkpt lat="59.338142" lon="18.081578">
        <ele>35</ele>
        <time>2020-01-22T07:47:37Z</time>
      </trkpt>
      <trkpt lat="59.338108" lon="18.081542">
        <ele>35</ele>
        <time>2020-01-22T07:47:38Z</time>
      </trkpt>
      <trkpt lat="59.338068" lon="18.081506">
        <ele>35</ele>
        <time>2020-01-22T07:47:39Z</time>
      </trkpt>
      <trkpt lat="59.338028" lon="18.081471">
        <ele>35</ele>
        <time>2020-01-22T07:47:40Z</time>
      </trkpt>
      <trkpt lat="59.337984" lon="18.081435">
        <ele>35</ele>
        <time>2020-01-22T07:47:41Z</time>
      </trkpt>
      <trkpt lat="59.337936" lon="18.0814">
        <ele>35</ele>
        <time>2020-01-22T07:47:42Z</time>
      </trkpt>
      <trkpt lat="59.337885" lon="18.081365">
        <ele>36</ele>
        <time>2020-01-22T07:47:43Z</time>
      </trkpt>
      <trkpt lat="59.337834" lon="18.081332">
        <ele>36</ele>
        <time>2020-01-22T07:47:44Z</time>
      </trkpt>
      <trkpt lat="59.337784" lon="18.081296">
        <ele>36</ele>
        <time>2020-01-22T07:47:45Z</time>
      </trkpt>
      <trkpt lat="59.337732" lon="18.081263">
        <ele>36</ele>
        <time>2020-01-22T07:47:46Z</time>
      </trkpt>
      <trkpt lat="59.33768" lon="18.081228">
        <ele>36</ele>
        <time>2020-01-22T07:47:47Z</time>
      </trkpt>
      <trkpt lat="59.33763" lon="18.081194">
        <ele>36</ele>
        <time>2020-01-22T07:47:48Z</time>
      </trkpt>
      <trkpt lat="59.337576" lon="18.081162">
        <ele>37</ele>
        <time>2020-01-22T07:47:49Z</time>
      </trkpt>
      <trkpt lat="59.337526" lon="18.081132">
        <ele>37</ele>
        <time>2020-01-22T07:47:50Z</time>
      </trkpt>
      <trkpt lat="59.337478" lon="18.0811">
        <ele>37</ele>
        <time>2020-01-22T07:47:51Z</time>
      </trkpt>
      <trkpt lat="59.337434" lon="18.081065">
        <ele>37</ele>
        <time>2020-01-22T07:47:52Z</time>
      </trkpt>
      <trkpt lat="59.337396" lon="18.081032">
        <ele>37</ele>
        <time>2020-01-22T07:47:53Z</time>
      </trkpt>
      <trkpt lat="59.337351" lon="18.081006">
        <ele>37</ele>
        <time>2020-01-22T07:47:54Z</time>
      </trkpt>
      <trkpt lat="59.337316" lon="18.080982">
        <ele>37</ele>
        <time>2020-01-22T07:47:55Z</time>
      </trkpt>
      <trkpt lat="59.337289" lon="18.080956">
        <ele>37</ele>
        <time>2020-01-22T07:47:56Z</time>
      </trkpt>
      <trkpt lat="59.337262" lon="18.080938">
        <ele>38</ele>
        <time>2020-01-22T07:47:57Z</time>
      </trkpt>
      <trkpt lat="59.337238" lon="18.080921">
        <ele>37</ele>
        <time>2020-01-22T07:47:58Z</time>
      </trkpt>
      <trkpt lat="59.337222" lon="18.080899">
        <ele>38</ele>
        <time>2020-01-22T07:47:59Z</time>
      </trkpt>
      <trkpt lat="59.3372" lon="18.080888">
        <ele>38</ele>
        <time>2020-01-22T07:48:01Z</time>
      </trkpt>
      <trkpt lat="59.337199" lon="18.080882">
        <ele>0</ele>
        <time>2020-01-22T07:48:09Z</time>
      </trkpt>
      <trkpt lat="59.337178" lon="18.080804">
        <ele>38</ele>
        <time>2020-01-22T07:48:24Z</time>
      </trkpt>
      <trkpt lat="59.337157" lon="18.080768">
        <ele>38</ele>
        <time>2020-01-22T07:48:25Z</time>
      </trkpt>
      <trkpt lat="59.337136" lon="18.080728">
        <ele>38</ele>
        <time>2020-01-22T07:48:26Z</time>
      </trkpt>
      <trkpt lat="59.337107" lon="18.080694">
        <ele>38</ele>
        <time>2020-01-22T07:48:27Z</time>
      </trkpt>
      <trkpt lat="59.33708" lon="18.080656">
        <ele>38</ele>
        <time>2020-01-22T07:48:28Z</time>
      </trkpt>
      <trkpt lat="59.337044" lon="18.08062">
        <ele>38</ele>
        <time>2020-01-22T07:48:29Z</time>
      </trkpt>
      <trkpt lat="59.337002" lon="18.080584">
        <ele>38</ele>
        <time>2020-01-22T07:48:30Z</time>
      </trkpt>
      <trkpt lat="59.336958" lon="18.080552">
        <ele>38</ele>
        <time>2020-01-22T07:48:31Z</time>
      </trkpt>
      <trkpt lat="59.336918" lon="18.080516">
        <ele>38</ele>
        <time>2020-01-22T07:48:32Z</time>
      </trkpt>
      <trkpt lat="59.336874" lon="18.080482">
        <ele>38</ele>
        <time>2020-01-22T07:48:33Z</time>
      </trkpt>
      <trkpt lat="59.336822" lon="18.080454">
        <ele>38</ele>
        <time>2020-01-22T07:48:34Z</time>
      </trkpt>
      <trkpt lat="59.336772" lon="18.080422">
        <ele>38</ele>
        <time>2020-01-22T07:48:35Z</time>
      </trkpt>
      <trkpt lat="59.33672" lon="18.080392">
        <ele>38</ele>
        <time>2020-01-22T07:48:36Z</time>
      </trkpt>
      <trkpt lat="59.336674" lon="18.080356">
        <ele>39</ele>
        <time>2020-01-22T07:48:37Z</time>
      </trkpt>
      <trkpt lat="59.336636" lon="18.080312">
        <ele>39</ele>
        <time>2020-01-22T07:48:38Z</time>
      </trkpt>
      <trkpt lat="59.336586" lon="18.080276">
        <ele>39</ele>
        <time>2020-01-22T07:48:39Z</time>
      </trkpt>
      <trkpt lat="59.336534" lon="18.08024">
        <ele>39</ele>
        <time>2020-01-22T07:48:40Z</time>
      </trkpt>
      <trkpt lat="59.33648" lon="18.080208">
        <ele>39</ele>
        <time>2020-01-22T07:48:41Z</time>
      </trkpt>
      <trkpt lat="59.33643" lon="18.080176">
        <ele>40</ele>
        <time>2020-01-22T07:48:42Z</time>
      </trkpt>
      <trkpt lat="59.336384" lon="18.080138">
        <ele>40</ele>
        <time>2020-01-22T07:48:43Z</time>
      </trkpt>
      <trkpt lat="59.336334" lon="18.080108">
        <ele>40</ele>
        <time>2020-01-22T07:48:44Z</time>
      </trkpt>
      <trkpt lat="59.336291" lon="18.080074">
        <ele>41</ele>
        <time>2020-01-22T07:48:45Z</time>
      </trkpt>
      <trkpt lat="59.336249" lon="18.080044">
        <ele>41</ele>
        <time>2020-01-22T07:48:46Z</time>
      </trkpt>
      <trkpt lat="59.336214" lon="18.08001">
        <ele>41</ele>
        <time>2020-01-22T07:48:47Z</time>
      </trkpt>
      <trkpt lat="59.336182" lon="18.079976">
        <ele>41</ele>
        <time>2020-01-22T07:48:48Z</time>
      </trkpt>
      <trkpt lat="59.336138" lon="18.079944">
        <ele>41</ele>
        <time>2020-01-22T07:48:49Z</time>
      </trkpt>
      <trkpt lat="59.336096" lon="18.079912">
        <ele>41</ele>
        <time>2020-01-22T07:48:50Z</time>
      </trkpt>
      <trkpt lat="59.336054" lon="18.079876">
        <ele>41</ele>
        <time>2020-01-22T07:48:51Z</time>
      </trkpt>
      <trkpt lat="59.336014" lon="18.079838">
        <ele>41</ele>
        <time>2020-01-22T07:48:52Z</time>
      </trkpt>
      <trkpt lat="59.335984" lon="18.0798">
        <ele>41</ele>
        <time>2020-01-22T07:48:53Z</time>
      </trkpt>
      <trkpt lat="59.33595" lon="18.079762">
        <ele>41</ele>
        <time>2020-01-22T07:48:54Z</time>
      </trkpt>
      <trkpt lat="59.33591" lon="18.079726">
        <ele>40</ele>
        <time>2020-01-22T07:48:55Z</time>
      </trkpt>
      <trkpt lat="59.335858" lon="18.079706">
        <ele>40</ele>
        <time>2020-01-22T07:48:56Z</time>
      </trkpt>
      <trkpt lat="59.335806" lon="18.079686">
        <ele>40</ele>
        <time>2020-01-22T07:48:57Z</time>
      </trkpt>
      <trkpt lat="59.335756" lon="18.079662">
        <ele>38</ele>
        <time>2020-01-22T07:48:58Z</time>
      </trkpt>
      <trkpt lat="59.335702" lon="18.079638">
        <ele>38</ele>
        <time>2020-01-22T07:48:59Z</time>
      </trkpt>
      <trkpt lat="59.33566" lon="18.079604">
        <ele>38</ele>
        <time>2020-01-22T07:49:00Z</time>
      </trkpt>
      <trkpt lat="59.335621" lon="18.079565">
        <ele>37</ele>
        <time>2020-01-22T07:49:01Z</time>
      </trkpt>
      <trkpt lat="59.33558" lon="18.079526">
        <ele>36</ele>
        <time>2020-01-22T07:49:02Z</time>
      </trkpt>
      <trkpt lat="59.33554" lon="18.079496">
        <ele>36</ele>
        <time>2020-01-22T07:49:03Z</time>
      </trkpt>
      <trkpt lat="59.335505" lon="18.079474">
        <ele>35</ele>
        <time>2020-01-22T07:49:04Z</time>
      </trkpt>
      <trkpt lat="59.33546" lon="18.079454">
        <ele>34</ele>
        <time>2020-01-22T07:49:05Z</time>
      </trkpt>
      <trkpt lat="59.335395" lon="18.079415">
        <ele>34</ele>
        <time>2020-01-22T07:49:06Z</time>
      </trkpt>
      <trkpt lat="59.335335" lon="18.079375">
        <ele>33</ele>
        <time>2020-01-22T07:49:07Z</time>
      </trkpt>
      <trkpt lat="59.335275" lon="18.079336">
        <ele>33</ele>
        <time>2020-01-22T07:49:08Z</time>
      </trkpt>
      <trkpt lat="59.335213" lon="18.079288">
        <ele>32</ele>
        <time>2020-01-22T07:49:09Z</time>
      </trkpt>
      <trkpt lat="59.335152" lon="18.079239">
        <ele>32</ele>
        <time>2020-01-22T07:49:10Z</time>
      </trkpt>
      <trkpt lat="59.335088" lon="18.07919">
        <ele>32</ele>
        <time>2020-01-22T07:49:11Z</time>
      </trkpt>
      <trkpt lat="59.335024" lon="18.079139">
        <ele>31</ele>
        <time>2020-01-22T07:49:12Z</time>
      </trkpt>
      <trkpt lat="59.334957" lon="18.079088">
        <ele>31</ele>
        <time>2020-01-22T07:49:13Z</time>
      </trkpt>
      <trkpt lat="59.334886" lon="18.079034">
        <ele>31</ele>
        <time>2020-01-22T07:49:14Z</time>
      </trkpt>
      <trkpt lat="59.334816" lon="18.078979">
        <ele>30</ele>
        <time>2020-01-22T07:49:15Z</time>
      </trkpt>
      <trkpt lat="59.334754" lon="18.078925">
        <ele>30</ele>
        <time>2020-01-22T07:49:16Z</time>
      </trkpt>
      <trkpt lat="59.334696" lon="18.07887">
        <ele>29</ele>
        <time>2020-01-22T07:49:17Z</time>
      </trkpt>
      <trkpt lat="59.334645" lon="18.078814">
        <ele>28</ele>
        <time>2020-01-22T07:49:18Z</time>
      </trkpt>
      <trkpt lat="59.334595" lon="18.07876">
        <ele>28</ele>
        <time>2020-01-22T07:49:19Z</time>
      </trkpt>
      <trkpt lat="59.334546" lon="18.078706">
        <ele>28</ele>
        <time>2020-01-22T07:49:20Z</time>
      </trkpt>
      <trkpt lat="59.334496" lon="18.078655">
        <ele>28</ele>
        <time>2020-01-22T07:49:21Z</time>
      </trkpt>
      <trkpt lat="59.334453" lon="18.078603">
        <ele>28</ele>
        <time>2020-01-22T07:49:22Z</time>
      </trkpt>
      <trkpt lat="59.334413" lon="18.078555">
        <ele>28</ele>
        <time>2020-01-22T07:49:23Z</time>
      </trkpt>
      <trkpt lat="59.334379" lon="18.078512">
        <ele>28</ele>
        <time>2020-01-22T07:49:24Z</time>
      </trkpt>
      <trkpt lat="59.334349" lon="18.078473">
        <ele>28</ele>
        <time>2020-01-22T07:49:25Z</time>
      </trkpt>
      <trkpt lat="59.334263" lon="18.078402">
        <ele>28</ele>
        <time>2020-01-22T07:49:28Z</time>
      </trkpt>
      <trkpt lat="59.334234" lon="18.078379">
        <ele>27</ele>
        <time>2020-01-22T07:49:32Z</time>
      </trkpt>
      <trkpt lat="59.334206" lon="18.078368">
        <ele>26</ele>
        <time>2020-01-22T07:49:33Z</time>
      </trkpt>
      <trkpt lat="59.334173" lon="18.078351">
        <ele>26</ele>
        <time>2020-01-22T07:49:34Z</time>
      </trkpt>
      <trkpt lat="59.334143" lon="18.078338">
        <ele>26</ele>
        <time>2020-01-22T07:49:35Z</time>
      </trkpt>
      <trkpt lat="59.334111" lon="18.078319">
        <ele>26</ele>
        <time>2020-01-22T07:49:36Z</time>
      </trkpt>
      <trkpt lat="59.334072" lon="18.078281">
        <ele>26</ele>
        <time>2020-01-22T07:49:37Z</time>
      </trkpt>
      <trkpt lat="59.33403" lon="18.078234">
        <ele>25</ele>
        <time>2020-01-22T07:49:38Z</time>
      </trkpt>
      <trkpt lat="59.333984" lon="18.078185">
        <ele>25</ele>
        <time>2020-01-22T07:49:39Z</time>
      </trkpt>
      <trkpt lat="59.333939" lon="18.078126">
        <ele>25</ele>
        <time>2020-01-22T07:49:40Z</time>
      </trkpt>
      <trkpt lat="59.33389" lon="18.078065">
        <ele>25</ele>
        <time>2020-01-22T07:49:41Z</time>
      </trkpt>
      <trkpt lat="59.333838" lon="18.078008">
        <ele>25</ele>
        <time>2020-01-22T07:49:42Z</time>
      </trkpt>
      <trkpt lat="59.333779" lon="18.077957">
        <ele>25</ele>
        <time>2020-01-22T07:49:43Z</time>
      </trkpt>
      <trkpt lat="59.333714" lon="18.07791">
        <ele>25</ele>
        <time>2020-01-22T07:49:44Z</time>
      </trkpt>
      <trkpt lat="59.333661" lon="18.077859">
        <ele>25</ele>
        <time>2020-01-22T07:49:45Z</time>
      </trkpt>
      <trkpt lat="59.333609" lon="18.077806">
        <ele>25</ele>
        <time>2020-01-22T07:49:46Z</time>
      </trkpt>
      <trkpt lat="59.333567" lon="18.077751">
        <ele>25</ele>
        <time>2020-01-22T07:49:47Z</time>
      </trkpt>
      <trkpt lat="59.333519" lon="18.077694">
        <ele>25</ele>
        <time>2020-01-22T07:49:48Z</time>
      </trkpt>
      <trkpt lat="59.333391" lon="18.077607">
        <ele>25</ele>
        <time>2020-01-22T07:49:50Z</time>
      </trkpt>
      <trkpt lat="59.333319" lon="18.077565">
        <ele>24</ele>
        <time>2020-01-22T07:49:51Z</time>
      </trkpt>
      <trkpt lat="59.333242" lon="18.077523">
        <ele>24</ele>
        <time>2020-01-22T07:49:52Z</time>
      </trkpt>
      <trkpt lat="59.333168" lon="18.077481">
        <ele>23</ele>
        <time>2020-01-22T07:49:53Z</time>
      </trkpt>
      <trkpt lat="59.333099" lon="18.077441">
        <ele>22</ele>
        <time>2020-01-22T07:49:54Z</time>
      </trkpt>
      <trkpt lat="59.333041" lon="18.077394">
        <ele>21</ele>
        <time>2020-01-22T07:49:55Z</time>
      </trkpt>
      <trkpt lat="59.332977" lon="18.077343">
        <ele>21</ele>
        <time>2020-01-22T07:49:56Z</time>
      </trkpt>
      <trkpt lat="59.332925" lon="18.077315">
        <ele>20</ele>
        <time>2020-01-22T07:49:57Z</time>
      </trkpt>
      <trkpt lat="59.332889" lon="18.077281">
        <ele>20</ele>
        <time>2020-01-22T07:49:58Z</time>
      </trkpt>
      <trkpt lat="59.332868" lon="18.077249">
        <ele>20</ele>
        <time>2020-01-22T07:49:59Z</time>
      </trkpt>
      <trkpt lat="59.332855" lon="18.077218">
        <ele>19</ele>
        <time>2020-01-22T07:50:00Z</time>
      </trkpt>
      <trkpt lat="59.332841" lon="18.077188">
        <ele>18</ele>
        <time>2020-01-22T07:50:01Z</time>
      </trkpt>
      <trkpt lat="59.332829" lon="18.077151">
        <ele>18</ele>
        <time>2020-01-22T07:50:02Z</time>
      </trkpt>
      <trkpt lat="59.332822" lon="18.077102">
        <ele>18</ele>
        <time>2020-01-22T07:50:03Z</time>
      </trkpt>
      <trkpt lat="59.33283" lon="18.077047">
        <ele>18</ele>
        <time>2020-01-22T07:50:04Z</time>
      </trkpt>
      <trkpt lat="59.332834" lon="18.076993">
        <ele>18</ele>
        <time>2020-01-22T07:50:05Z</time>
      </trkpt>
      <trkpt lat="59.332839" lon="18.076941">
        <ele>17</ele>
        <time>2020-01-22T07:50:06Z</time>
      </trkpt>
      <trkpt lat="59.332848" lon="18.076891">
        <ele>17</ele>
        <time>2020-01-22T07:50:07Z</time>
      </trkpt>
      <trkpt lat="59.33286" lon="18.076848">
        <ele>17</ele>
        <time>2020-01-22T07:50:08Z</time>
      </trkpt>
      <trkpt lat="59.332872" lon="18.076791">
        <ele>17</ele>
        <time>2020-01-22T07:50:09Z</time>
      </trkpt>
      <trkpt lat="59.332885" lon="18.076738">
        <ele>17</ele>
        <time>2020-01-22T07:50:10Z</time>
      </trkpt>
      <trkpt lat="59.332902" lon="18.076679">
        <ele>16</ele>
        <time>2020-01-22T07:50:11Z</time>
      </trkpt>
      <trkpt lat="59.332923" lon="18.076611">
        <ele>16</ele>
        <time>2020-01-22T07:50:12Z</time>
      </trkpt>
      <trkpt lat="59.332939" lon="18.076547">
        <ele>15</ele>
        <time>2020-01-22T07:50:13Z</time>
      </trkpt>
      <trkpt lat="59.332956" lon="18.076481">
        <ele>15</ele>
        <time>2020-01-22T07:50:14Z</time>
      </trkpt>
      <trkpt lat="59.33298" lon="18.076423">
        <ele>15</ele>
        <time>2020-01-22T07:50:15Z</time>
      </trkpt>
      <trkpt lat="59.333005" lon="18.076372">
        <ele>15</ele>
        <time>2020-01-22T07:50:16Z</time>
      </trkpt>
      <trkpt lat="59.333028" lon="18.076324">
        <ele>15</ele>
        <time>2020-01-22T07:50:17Z</time>
      </trkpt>
      <trkpt lat="59.333048" lon="18.076279">
        <ele>15</ele>
        <time>2020-01-22T07:50:18Z</time>
      </trkpt>
      <trkpt lat="59.333063" lon="18.076241">
        <ele>15</ele>
        <time>2020-01-22T07:50:19Z</time>
      </trkpt>
      <trkpt lat="59.333084" lon="18.076205">
        <ele>15</ele>
        <time>2020-01-22T07:50:20Z</time>
      </trkpt>
      <trkpt lat="59.333107" lon="18.076169">
        <ele>14</ele>
        <time>2020-01-22T07:50:21Z</time>
      </trkpt>
      <trkpt lat="59.333124" lon="18.076138">
        <ele>14</ele>
        <time>2020-01-22T07:50:22Z</time>
      </trkpt>
      <trkpt lat="59.333135" lon="18.076094">
        <ele>14</ele>
        <time>2020-01-22T07:50:24Z</time>
      </trkpt>
      <trkpt lat="59.333132" lon="18.076083">
        <ele>0</ele>
        <time>2020-01-22T07:50:29Z</time>
      </trkpt>
      <trkpt lat="59.333076" lon="18.076055">
        <ele>12</ele>
        <time>2020-01-22T07:51:12Z</time>
      </trkpt>
      <trkpt lat="59.333051" lon="18.076035">
        <ele>11</ele>
        <time>2020-01-22T07:51:13Z</time>
      </trkpt>
      <trkpt lat="59.333025" lon="18.076015">
        <ele>11</ele>
        <time>2020-01-22T07:51:14Z</time>
      </trkpt>
      <trkpt lat="59.332998" lon="18.075994">
        <ele>11</ele>
        <time>2020-01-22T07:51:15Z</time>
      </trkpt>
      <trkpt lat="59.332971" lon="18.075974">
        <ele>11</ele>
        <time>2020-01-22T07:51:16Z</time>
      </trkpt>
      <trkpt lat="59.332946" lon="18.075956">
        <ele>10</ele>
        <time>2020-01-22T07:51:17Z</time>
      </trkpt>
      <trkpt lat="59.332922" lon="18.075938">
        <ele>10</ele>
        <time>2020-01-22T07:51:18Z</time>
      </trkpt>
      <trkpt lat="59.332895" lon="18.075921">
        <ele>10</ele>
        <time>2020-01-22T07:51:19Z</time>
      </trkpt>
      <trkpt lat="59.332867" lon="18.075904">
        <ele>10</ele>
        <time>2020-01-22T07:51:20Z</time>
      </trkpt>
      <trkpt lat="59.332834" lon="18.075881">
        <ele>10</ele>
        <time>2020-01-22T07:51:21Z</time>
      </trkpt>
      <trkpt lat="59.332801" lon="18.07586">
        <ele>10</ele>
        <time>2020-01-22T07:51:22Z</time>
      </trkpt>
      <trkpt lat="59.332764" lon="18.07584">
        <ele>10</ele>
        <time>2020-01-22T07:51:23Z</time>
      </trkpt>
      <trkpt lat="59.332723" lon="18.075814">
        <ele>10</ele>
        <time>2020-01-22T07:51:24Z</time>
      </trkpt>
      <trkpt lat="59.332683" lon="18.075784">
        <ele>10</ele>
        <time>2020-01-22T07:51:25Z</time>
      </trkpt>
      <trkpt lat="59.332641" lon="18.07575">
        <ele>10</ele>
        <time>2020-01-22T07:51:26Z</time>
      </trkpt>
      <trkpt lat="59.332597" lon="18.075716">
        <ele>10</ele>
        <time>2020-01-22T07:51:27Z</time>
      </trkpt>
      <trkpt lat="59.332553" lon="18.075684">
        <ele>10</ele>
        <time>2020-01-22T07:51:28Z</time>
      </trkpt>
      <trkpt lat="59.332509" lon="18.075655">
        <ele>10</ele>
        <time>2020-01-22T07:51:29Z</time>
      </trkpt>
      <trkpt lat="59.33246" lon="18.075625">
        <ele>10</ele>
        <time>2020-01-22T07:51:30Z</time>
      </trkpt>
      <trkpt lat="59.332411" lon="18.075594">
        <ele>10</ele>
        <time>2020-01-22T07:51:31Z</time>
      </trkpt>
      <trkpt lat="59.332366" lon="18.075557">
        <ele>10</ele>
        <time>2020-01-22T07:51:32Z</time>
      </trkpt>
      <trkpt lat="59.332319" lon="18.075514">
        <ele>10</ele>
        <time>2020-01-22T07:51:33Z</time>
      </trkpt>
      <trkpt lat="59.332273" lon="18.075472">
        <ele>10</ele>
        <time>2020-01-22T07:51:34Z</time>
      </trkpt>
      <trkpt lat="59.332226" lon="18.07543">
        <ele>10</ele>
        <time>2020-01-22T07:51:35Z</time>
      </trkpt>
      <trkpt lat="59.332178" lon="18.075392">
        <ele>10</ele>
        <time>2020-01-22T07:51:36Z</time>
      </trkpt>
      <trkpt lat="59.332129" lon="18.075356">
        <ele>9</ele>
        <time>2020-01-22T07:51:37Z</time>
      </trkpt>
      <trkpt lat="59.332081" lon="18.075322">
        <ele>9</ele>
        <time>2020-01-22T07:51:38Z</time>
      </trkpt>
      <trkpt lat="59.332032" lon="18.075286">
        <ele>9</ele>
        <time>2020-01-22T07:51:39Z</time>
      </trkpt>
      <trkpt lat="59.331983" lon="18.075252">
        <ele>9</ele>
        <time>2020-01-22T07:51:40Z</time>
      </trkpt>
      <trkpt lat="59.331934" lon="18.075217">
        <ele>9</ele>
        <time>2020-01-22T07:51:41Z</time>
      </trkpt>
      <trkpt lat="59.331886" lon="18.075184">
        <ele>9</ele>
        <time>2020-01-22T07:51:42Z</time>
      </trkpt>
      <trkpt lat="59.331839" lon="18.075151">
        <ele>9</ele>
        <time>2020-01-22T07:51:43Z</time>
      </trkpt>
      <trkpt lat="59.331791" lon="18.075117">
        <ele>9</ele>
        <time>2020-01-22T07:51:44Z</time>
      </trkpt>
      <trkpt lat="59.331742" lon="18.07508">
        <ele>9</ele>
        <time>2020-01-22T07:51:45Z</time>
      </trkpt>
      <trkpt lat="59.331694" lon="18.075047">
        <ele>9</ele>
        <time>2020-01-22T07:51:46Z</time>
      </trkpt>
      <trkpt lat="59.331646" lon="18.075013">
        <ele>9</ele>
        <time>2020-01-22T07:51:47Z</time>
      </trkpt>
      <trkpt lat="59.331599" lon="18.07498">
        <ele>9</ele>
        <time>2020-01-22T07:51:48Z</time>
      </trkpt>
      <trkpt lat="59.331554" lon="18.074947">
        <ele>9</ele>
        <time>2020-01-22T07:51:49Z</time>
      </trkpt>
      <trkpt lat="59.331503" lon="18.074917">
        <ele>9</ele>
        <time>2020-01-22T07:51:50Z</time>
      </trkpt>
      <trkpt lat="59.331459" lon="18.074881">
        <ele>9</ele>
        <time>2020-01-22T07:51:51Z</time>
      </trkpt>
      <trkpt lat="59.331356" lon="18.074768">
        <ele>10</ele>
        <time>2020-01-22T07:51:54Z</time>
      </trkpt>
      <trkpt lat="59.331274" lon="18.07465">
        <ele>10</ele>
        <time>2020-01-22T07:51:57Z</time>
      </trkpt>
      <trkpt lat="59.331183" lon="18.074523">
        <ele>10</ele>
        <time>2020-01-22T07:52:00Z</time>
      </trkpt>
      <trkpt lat="59.331086" lon="18.07448">
        <ele>10</ele>
        <time>2020-01-22T07:52:02Z</time>
      </trkpt>
      <trkpt lat="59.331046" lon="18.074456">
        <ele>10</ele>
        <time>2020-01-22T07:52:03Z</time>
      </trkpt>
      <trkpt lat="59.331012" lon="18.074426">
        <ele>10</ele>
        <time>2020-01-22T07:52:04Z</time>
      </trkpt>
      <trkpt lat="59.33098" lon="18.07439">
        <ele>10</ele>
        <time>2020-01-22T07:52:05Z</time>
      </trkpt>
      <trkpt lat="59.330952" lon="18.074348">
        <ele>10</ele>
        <time>2020-01-22T07:52:06Z</time>
      </trkpt>
      <trkpt lat="59.33093" lon="18.074288">
        <ele>10</ele>
        <time>2020-01-22T07:52:07Z</time>
      </trkpt>
      <trkpt lat="59.330912" lon="18.074218">
        <ele>10</ele>
        <time>2020-01-22T07:52:08Z</time>
      </trkpt>
      <trkpt lat="59.330902" lon="18.07414">
        <ele>10</ele>
        <time>2020-01-22T07:52:09Z</time>
      </trkpt>
      <trkpt lat="59.330884" lon="18.074052">
        <ele>10</ele>
        <time>2020-01-22T07:52:10Z</time>
      </trkpt>
      <trkpt lat="59.330863" lon="18.07396">
        <ele>10</ele>
        <time>2020-01-22T07:52:11Z</time>
      </trkpt>
      <trkpt lat="59.330846" lon="18.073866">
        <ele>10</ele>
        <time>2020-01-22T07:52:12Z</time>
      </trkpt>
      <trkpt lat="59.330828" lon="18.073772">
        <ele>10</ele>
        <time>2020-01-22T07:52:13Z</time>
      </trkpt>
      <trkpt lat="59.3308" lon="18.07368">
        <ele>10</ele>
        <time>2020-01-22T07:52:14Z</time>
      </trkpt>
      <trkpt lat="59.330775" lon="18.07358">
        <ele>9</ele>
        <time>2020-01-22T07:52:15Z</time>
      </trkpt>
      <trkpt lat="59.330752" lon="18.073482">
        <ele>9</ele>
        <time>2020-01-22T07:52:16Z</time>
      </trkpt>
      <trkpt lat="59.330726" lon="18.073384">
        <ele>9</ele>
        <time>2020-01-22T07:52:17Z</time>
      </trkpt>
      <trkpt lat="59.330704" lon="18.07329">
        <ele>9</ele>
        <time>2020-01-22T07:52:18Z</time>
      </trkpt>
      <trkpt lat="59.330681" lon="18.073196">
        <ele>9</ele>
        <time>2020-01-22T07:52:19Z</time>
      </trkpt>
      <trkpt lat="59.330661" lon="18.07311">
        <ele>9</ele>
        <time>2020-01-22T07:52:20Z</time>
      </trkpt>
      <trkpt lat="59.330644" lon="18.073036">
        <ele>9</ele>
        <time>2020-01-22T07:52:21Z</time>
      </trkpt>
      <trkpt lat="59.330636" lon="18.072986">
        <ele>9</ele>
        <time>2020-01-22T07:52:22Z</time>
      </trkpt>
      <trkpt lat="59.330623" lon="18.072928">
        <ele>9</ele>
        <time>2020-01-22T07:52:24Z</time>
      </trkpt>
      <trkpt lat="59.330618" lon="18.07289">
        <ele>9</ele>
        <time>2020-01-22T07:52:25Z</time>
      </trkpt>
      <trkpt lat="59.330609" lon="18.07284">
        <ele>10</ele>
        <time>2020-01-22T07:52:26Z</time>
      </trkpt>
      <trkpt lat="59.330597" lon="18.072782">
        <ele>10</ele>
        <time>2020-01-22T07:52:27Z</time>
      </trkpt>
      <trkpt lat="59.330585" lon="18.072722">
        <ele>10</ele>
        <time>2020-01-22T07:52:28Z</time>
      </trkpt>
      <trkpt lat="59.330564" lon="18.072674">
        <ele>10</ele>
        <time>2020-01-22T07:52:29Z</time>
      </trkpt>
      <trkpt lat="59.330527" lon="18.072652">
        <ele>10</ele>
        <time>2020-01-22T07:52:30Z</time>
      </trkpt>
      <trkpt lat="59.330486" lon="18.072648">
        <ele>11</ele>
        <time>2020-01-22T07:52:31Z</time>
      </trkpt>
      <trkpt lat="59.330436" lon="18.07266">
        <ele>11</ele>
        <time>2020-01-22T07:52:32Z</time>
      </trkpt>
      <trkpt lat="59.330388" lon="18.072684">
        <ele>11</ele>
        <time>2020-01-22T07:52:33Z</time>
      </trkpt>
      <trkpt lat="59.330332" lon="18.072714">
        <ele>11</ele>
        <time>2020-01-22T07:52:34Z</time>
      </trkpt>
      <trkpt lat="59.330277" lon="18.072746">
        <ele>11</ele>
        <time>2020-01-22T07:52:35Z</time>
      </trkpt>
      <trkpt lat="59.330223" lon="18.072778">
        <ele>12</ele>
        <time>2020-01-22T07:52:36Z</time>
      </trkpt>
      <trkpt lat="59.330168" lon="18.07281">
        <ele>12</ele>
        <time>2020-01-22T07:52:37Z</time>
      </trkpt>
      <trkpt lat="59.330111" lon="18.072844">
        <ele>12</ele>
        <time>2020-01-22T07:52:38Z</time>
      </trkpt>
      <trkpt lat="59.330063" lon="18.072878">
        <ele>12</ele>
        <time>2020-01-22T07:52:39Z</time>
      </trkpt>
      <trkpt lat="59.33002" lon="18.072912">
        <ele>12</ele>
        <time>2020-01-22T07:52:40Z</time>
      </trkpt>
      <trkpt lat="59.329978" lon="18.072948">
        <ele>12</ele>
        <time>2020-01-22T07:52:41Z</time>
      </trkpt>
      <trkpt lat="59.329933" lon="18.072982">
        <ele>12</ele>
        <time>2020-01-22T07:52:42Z</time>
      </trkpt>
      <trkpt lat="59.329888" lon="18.07302">
        <ele>12</ele>
        <time>2020-01-22T07:52:43Z</time>
      </trkpt>
      <trkpt lat="59.329844" lon="18.073052">
        <ele>11</ele>
        <time>2020-01-22T07:52:44Z</time>
      </trkpt>
      <trkpt lat="59.329806" lon="18.073086">
        <ele>11</ele>
        <time>2020-01-22T07:52:45Z</time>
      </trkpt>
      <trkpt lat="59.329769" lon="18.07311">
        <ele>11</ele>
        <time>2020-01-22T07:52:46Z</time>
      </trkpt>
      <trkpt lat="59.329739" lon="18.07313">
        <ele>11</ele>
        <time>2020-01-22T07:52:47Z</time>
      </trkpt>
      <trkpt lat="59.329714" lon="18.073146">
        <ele>11</ele>
        <time>2020-01-22T07:52:48Z</time>
      </trkpt>
      <trkpt lat="59.329702" lon="18.073162">
        <ele>0</ele>
        <time>2020-01-22T07:52:55Z</time>
      </trkpt>
      <trkpt lat="59.329635" lon="18.073152">
        <ele>9</ele>
        <time>2020-01-22T07:52:58Z</time>
      </trkpt>
      <trkpt lat="59.329592" lon="18.073148">
        <ele>9</ele>
        <time>2020-01-22T07:52:59Z</time>
      </trkpt>
      <trkpt lat="59.329542" lon="18.073144">
        <ele>9</ele>
        <time>2020-01-22T07:53:00Z</time>
      </trkpt>
      <trkpt lat="59.329491" lon="18.073142">
        <ele>8</ele>
        <time>2020-01-22T07:53:01Z</time>
      </trkpt>
      <trkpt lat="59.329437" lon="18.073141">
        <ele>8</ele>
        <time>2020-01-22T07:53:02Z</time>
      </trkpt>
      <trkpt lat="59.329384" lon="18.073139">
        <ele>8</ele>
        <time>2020-01-22T07:53:03Z</time>
      </trkpt>
      <trkpt lat="59.32933" lon="18.073133">
        <ele>8</ele>
        <time>2020-01-22T07:53:04Z</time>
      </trkpt>
      <trkpt lat="59.329277" lon="18.07312">
        <ele>8</ele>
        <time>2020-01-22T07:53:05Z</time>
      </trkpt>
      <trkpt lat="59.329223" lon="18.073108">
        <ele>8</ele>
        <time>2020-01-22T07:53:06Z</time>
      </trkpt>
      <trkpt lat="59.32917" lon="18.073098">
        <ele>8</ele>
        <time>2020-01-22T07:53:07Z</time>
      </trkpt>
      <trkpt lat="59.329118" lon="18.07309">
        <ele>8</ele>
        <time>2020-01-22T07:53:08Z</time>
      </trkpt>
      <trkpt lat="59.329065" lon="18.073077">
        <ele>8</ele>
        <time>2020-01-22T07:53:09Z</time>
      </trkpt>
      <trkpt lat="59.329011" lon="18.073063">
        <ele>8</ele>
        <time>2020-01-22T07:53:10Z</time>
      </trkpt>
      <trkpt lat="59.328957" lon="18.073048">
        <ele>7</ele>
        <time>2020-01-22T07:53:11Z</time>
      </trkpt>
      <trkpt lat="59.328904" lon="18.073034">
        <ele>7</ele>
        <time>2020-01-22T07:53:12Z</time>
      </trkpt>
      <trkpt lat="59.328852" lon="18.07302">
        <ele>7</ele>
        <time>2020-01-22T07:53:13Z</time>
      </trkpt>
      <trkpt lat="59.3288" lon="18.073009">
        <ele>7</ele>
        <time>2020-01-22T07:53:14Z</time>
      </trkpt>
      <trkpt lat="59.32875" lon="18.072997">
        <ele>7</ele>
        <time>2020-01-22T07:53:15Z</time>
      </trkpt>
      <trkpt lat="59.328702" lon="18.072986">
        <ele>7</ele>
        <time>2020-01-22T07:53:16Z</time>
      </trkpt>
      <trkpt lat="59.328655" lon="18.072975">
        <ele>7</ele>
        <time>2020-01-22T07:53:17Z</time>
      </trkpt>
      <trkpt lat="59.32861" lon="18.072966">
        <ele>7</ele>
        <time>2020-01-22T07:53:18Z</time>
      </trkpt>
      <trkpt lat="59.328567" lon="18.072956">
        <ele>7</ele>
        <time>2020-01-22T07:53:19Z</time>
      </trkpt>
      <trkpt lat="59.328525" lon="18.072946">
        <ele>7</ele>
        <time>2020-01-22T07:53:20Z</time>
      </trkpt>
      <trkpt lat="59.328485" lon="18.072936">
        <ele>7</ele>
        <time>2020-01-22T07:53:21Z</time>
      </trkpt>
      <trkpt lat="59.328447" lon="18.072927">
        <ele>7</ele>
        <time>2020-01-22T07:53:22Z</time>
      </trkpt>
      <trkpt lat="59.328411" lon="18.072917">
        <ele>7</ele>
        <time>2020-01-22T07:53:23Z</time>
      </trkpt>
      <trkpt lat="59.328376" lon="18.072907">
        <ele>7</ele>
        <time>2020-01-22T07:53:24Z</time>
      </trkpt>
      <trkpt lat="59.328343" lon="18.072898">
        <ele>7</ele>
        <time>2020-01-22T07:53:25Z</time>
      </trkpt>
      <trkpt lat="59.328311" lon="18.072891">
        <ele>6</ele>
        <time>2020-01-22T07:53:26Z</time>
      </trkpt>
      <trkpt lat="59.32828" lon="18.072884">
        <ele>6</ele>
        <time>2020-01-22T07:53:27Z</time>
      </trkpt>
      <trkpt lat="59.328255" lon="18.072878">
        <ele>6</ele>
        <time>2020-01-22T07:53:28Z</time>
      </trkpt>
      <trkpt lat="59.328235" lon="18.072873">
        <ele>6</ele>
        <time>2020-01-22T07:53:29Z</time>
      </trkpt>
      <trkpt lat="59.328213" lon="18.072869">
        <ele>6</ele>
        <time>2020-01-22T07:53:30Z</time>
      </trkpt>
      <trkpt lat="59.328185" lon="18.072864">
        <ele>6</ele>
        <time>2020-01-22T07:53:31Z</time>
      </trkpt>
      <trkpt lat="59.328149" lon="18.072857">
        <ele>6</ele>
        <time>2020-01-22T07:53:32Z</time>
      </trkpt>
      <trkpt lat="59.328107" lon="18.072847">
        <ele>6</ele>
        <time>2020-01-22T07:53:33Z</time>
      </trkpt>
      <trkpt lat="59.328062" lon="18.072836">
        <ele>6</ele>
        <time>2020-01-22T07:53:34Z</time>
      </trkpt>
      <trkpt lat="59.328014" lon="18.072831">
        <ele>6</ele>
        <time>2020-01-22T07:53:35Z</time>
      </trkpt>
      <trkpt lat="59.327965" lon="18.072836">
        <ele>6</ele>
        <time>2020-01-22T07:53:36Z</time>
      </trkpt>
      <trkpt lat="59.327916" lon="18.072851">
        <ele>6</ele>
        <time>2020-01-22T07:53:37Z</time>
      </trkpt>
      <trkpt lat="59.327868" lon="18.072874">
        <ele>6</ele>
        <time>2020-01-22T07:53:38Z</time>
      </trkpt>
      <trkpt lat="59.32782" lon="18.072909">
        <ele>5</ele>
        <time>2020-01-22T07:53:39Z</time>
      </trkpt>
      <trkpt lat="59.327773" lon="18.072957">
        <ele>5</ele>
        <time>2020-01-22T07:53:40Z</time>
      </trkpt>
      <trkpt lat="59.327727" lon="18.073011">
        <ele>5</ele>
        <time>2020-01-22T07:53:41Z</time>
      </trkpt>
      <trkpt lat="59.327682" lon="18.073066">
        <ele>5</ele>
        <time>2020-01-22T07:53:42Z</time>
      </trkpt>
      <trkpt lat="59.327636" lon="18.073122">
        <ele>5</ele>
        <time>2020-01-22T07:53:43Z</time>
      </trkpt>
      <trkpt lat="59.32759" lon="18.073179">
        <ele>5</ele>
        <time>2020-01-22T07:53:44Z</time>
      </trkpt>
      <trkpt lat="59.327545" lon="18.073235">
        <ele>5</ele>
        <time>2020-01-22T07:53:45Z</time>
      </trkpt>
      <trkpt lat="59.327499" lon="18.073291">
        <ele>5</ele>
        <time>2020-01-22T07:53:46Z</time>
      </trkpt>
      <trkpt lat="59.327453" lon="18.073347">
        <ele>5</ele>
        <time>2020-01-22T07:53:47Z</time>
      </trkpt>
      <trkpt lat="59.327407" lon="18.073403">
        <ele>5</ele>
        <time>2020-01-22T07:53:48Z</time>
      </trkpt>
      <trkpt lat="59.327361" lon="18.073459">
        <ele>5</ele>
        <time>2020-01-22T07:53:49Z</time>
      </trkpt>
      <trkpt lat="59.327314" lon="18.073514">
        <ele>5</ele>
        <time>2020-01-22T07:53:50Z</time>
      </trkpt>
      <trkpt lat="59.327266" lon="18.073568">
        <ele>5</ele>
        <time>2020-01-22T07:53:51Z</time>
      </trkpt>
      <trkpt lat="59.32722" lon="18.073623">
        <ele>5</ele>
        <time>2020-01-22T07:53:52Z</time>
      </trkpt>
      <trkpt lat="59.327174" lon="18.073678">
        <ele>5</ele>
        <time>2020-01-22T07:53:53Z</time>
      </trkpt>
      <trkpt lat="59.327129" lon="18.073731">
        <ele>5</ele>
        <time>2020-01-22T07:53:54Z</time>
      </trkpt>
      <trkpt lat="59.327085" lon="18.073781">
        <ele>5</ele>
        <time>2020-01-22T07:53:55Z</time>
      </trkpt>
      <trkpt lat="59.327042" lon="18.073833">
        <ele>5</ele>
        <time>2020-01-22T07:53:56Z</time>
      </trkpt>
      <trkpt lat="59.326997" lon="18.073888">
        <ele>5</ele>
        <time>2020-01-22T07:53:57Z</time>
      </trkpt>
      <trkpt lat="59.326951" lon="18.073946">
        <ele>5</ele>
        <time>2020-01-22T07:53:58Z</time>
      </trkpt>
      <trkpt lat="59.326905" lon="18.074006">
        <ele>5</ele>
        <time>2020-01-22T07:53:59Z</time>
      </trkpt>
      <trkpt lat="59.326857" lon="18.074068">
        <ele>5</ele>
        <time>2020-01-22T07:54:00Z</time>
      </trkpt>
      <trkpt lat="59.326808" lon="18.074129">
        <ele>5</ele>
        <time>2020-01-22T07:54:01Z</time>
      </trkpt>
      <trkpt lat="59.32676" lon="18.074189">
        <ele>5</ele>
        <time>2020-01-22T07:54:02Z</time>
      </trkpt>
      <trkpt lat="59.326712" lon="18.074246">
        <ele>5</ele>
        <time>2020-01-22T07:54:03Z</time>
      </trkpt>
      <trkpt lat="59.326664" lon="18.074302">
        <ele>5</ele>
        <time>2020-01-22T07:54:04Z</time>
      </trkpt>
      <trkpt lat="59.326616" lon="18.074359">
        <ele>5</ele>
        <time>2020-01-22T07:54:05Z</time>
      </trkpt>
      <trkpt lat="59.326568" lon="18.074417">
        <ele>5</ele>
        <time>2020-01-22T07:54:06Z</time>
      </trkpt>
      <trkpt lat="59.32652" lon="18.074479">
        <ele>5</ele>
        <time>2020-01-22T07:54:07Z</time>
      </trkpt>
      <trkpt lat="59.326472" lon="18.074542">
        <ele>5</ele>
        <time>2020-01-22T07:54:08Z</time>
      </trkpt>
      <trkpt lat="59.326424" lon="18.074609">
        <ele>5</ele>
        <time>2020-01-22T07:54:09Z</time>
      </trkpt>
      <trkpt lat="59.326374" lon="18.074679">
        <ele>5</ele>
        <time>2020-01-22T07:54:10Z</time>
      </trkpt>
      <trkpt lat="59.32632" lon="18.074748">
        <ele>5</ele>
        <time>2020-01-22T07:54:11Z</time>
      </trkpt>
      <trkpt lat="59.326266" lon="18.074814">
        <ele>5</ele>
        <time>2020-01-22T07:54:12Z</time>
      </trkpt>
      <trkpt lat="59.326206" lon="18.074877">
        <ele>5</ele>
        <time>2020-01-22T07:54:13Z</time>
      </trkpt>
      <trkpt lat="59.326146" lon="18.074939">
        <ele>5</ele>
        <time>2020-01-22T07:54:14Z</time>
      </trkpt>
      <trkpt lat="59.326085" lon="18.074999">
        <ele>5</ele>
        <time>2020-01-22T07:54:15Z</time>
      </trkpt>
      <trkpt lat="59.326022" lon="18.07506">
        <ele>5</ele>
        <time>2020-01-22T07:54:16Z</time>
      </trkpt>
      <trkpt lat="59.32596" lon="18.075122">
        <ele>5</ele>
        <time>2020-01-22T07:54:17Z</time>
      </trkpt>
      <trkpt lat="59.325898" lon="18.075184">
        <ele>5</ele>
        <time>2020-01-22T07:54:18Z</time>
      </trkpt>
      <trkpt lat="59.325836" lon="18.075245">
        <ele>5</ele>
        <time>2020-01-22T07:54:19Z</time>
      </trkpt>
      <trkpt lat="59.325773" lon="18.075306">
        <ele>5</ele>
        <time>2020-01-22T07:54:20Z</time>
      </trkpt>
      <trkpt lat="59.325712" lon="18.075365">
        <ele>5</ele>
        <time>2020-01-22T07:54:21Z</time>
      </trkpt>
      <trkpt lat="59.325651" lon="18.075428">
        <ele>5</ele>
        <time>2020-01-22T07:54:22Z</time>
      </trkpt>
      <trkpt lat="59.32559" lon="18.07549">
        <ele>5</ele>
        <time>2020-01-22T07:54:23Z</time>
      </trkpt>
      <trkpt lat="59.32553" lon="18.075539">
        <ele>5</ele>
        <time>2020-01-22T07:54:24Z</time>
      </trkpt>
      <trkpt lat="59.325464" lon="18.075561">
        <ele>5</ele>
        <time>2020-01-22T07:54:26Z</time>
      </trkpt>
      <trkpt lat="59.325396" lon="18.075566">
        <ele>5</ele>
        <time>2020-01-22T07:54:26Z</time>
      </trkpt>
      <trkpt lat="59.32533" lon="18.075577">
        <ele>5</ele>
        <time>2020-01-22T07:54:27Z</time>
      </trkpt>
      <trkpt lat="59.325264" lon="18.075594">
        <ele>5</ele>
        <time>2020-01-22T07:54:28Z</time>
      </trkpt>
      <trkpt lat="59.3252" lon="18.075611">
        <ele>5</ele>
        <time>2020-01-22T07:54:29Z</time>
      </trkpt>
      <trkpt lat="59.325134" lon="18.075623">
        <ele>5</ele>
        <time>2020-01-22T07:54:30Z</time>
      </trkpt>
      <trkpt lat="59.325068" lon="18.075626">
        <ele>5</ele>
        <time>2020-01-22T07:54:31Z</time>
      </trkpt>
      <trkpt lat="59.325001" lon="18.075626">
        <ele>4</ele>
        <time>2020-01-22T07:54:32Z</time>
      </trkpt>
      <trkpt lat="59.324936" lon="18.075623">
        <ele>4</ele>
        <time>2020-01-22T07:54:33Z</time>
      </trkpt>
      <trkpt lat="59.324869" lon="18.075614">
        <ele>4</ele>
        <time>2020-01-22T07:54:34Z</time>
      </trkpt>
      <trkpt lat="59.324804" lon="18.075601">
        <ele>4</ele>
        <time>2020-01-22T07:54:35Z</time>
      </trkpt>
      <trkpt lat="59.32474" lon="18.075586">
        <ele>3</ele>
        <time>2020-01-22T07:54:36Z</time>
      </trkpt>
      <trkpt lat="59.324676" lon="18.075557">
        <ele>3</ele>
        <time>2020-01-22T07:54:37Z</time>
      </trkpt>
      <trkpt lat="59.324612" lon="18.075524">
        <ele>3</ele>
        <time>2020-01-22T07:54:38Z</time>
      </trkpt>
      <trkpt lat="59.32455" lon="18.075496">
        <ele>3</ele>
        <time>2020-01-22T07:54:39Z</time>
      </trkpt>
      <trkpt lat="59.324486" lon="18.075474">
        <ele>3</ele>
        <time>2020-01-22T07:54:40Z</time>
      </trkpt>
      <trkpt lat="59.324424" lon="18.075453">
        <ele>3</ele>
        <time>2020-01-22T07:54:41Z</time>
      </trkpt>
      <trkpt lat="59.32436" lon="18.075433">
        <ele>3</ele>
        <time>2020-01-22T07:54:42Z</time>
      </trkpt>
      <trkpt lat="59.324294" lon="18.075416">
        <ele>3</ele>
        <time>2020-01-22T07:54:43Z</time>
      </trkpt>
      <trkpt lat="59.32423" lon="18.075395">
        <ele>3</ele>
        <time>2020-01-22T07:54:44Z</time>
      </trkpt>
      <trkpt lat="59.324164" lon="18.07537">
        <ele>3</ele>
        <time>2020-01-22T07:54:45Z</time>
      </trkpt>
      <trkpt lat="59.324098" lon="18.075346">
        <ele>3</ele>
        <time>2020-01-22T07:54:46Z</time>
      </trkpt>
      <trkpt lat="59.324031" lon="18.075325">
        <ele>3</ele>
        <time>2020-01-22T07:54:47Z</time>
      </trkpt>
      <trkpt lat="59.323964" lon="18.075306">
        <ele>3</ele>
        <time>2020-01-22T07:54:48Z</time>
      </trkpt>
      <trkpt lat="59.323897" lon="18.075286">
        <ele>3</ele>
        <time>2020-01-22T07:54:49Z</time>
      </trkpt>
      <trkpt lat="59.323832" lon="18.075264">
        <ele>3</ele>
        <time>2020-01-22T07:54:50Z</time>
      </trkpt>
      <trkpt lat="59.323765" lon="18.07524">
        <ele>3</ele>
        <time>2020-01-22T07:54:51Z</time>
      </trkpt>
      <trkpt lat="59.3237" lon="18.075217">
        <ele>3</ele>
        <time>2020-01-22T07:54:52Z</time>
      </trkpt>
      <trkpt lat="59.323635" lon="18.075193">
        <ele>3</ele>
        <time>2020-01-22T07:54:53Z</time>
      </trkpt>
      <trkpt lat="59.32357" lon="18.075169">
        <ele>3</ele>
        <time>2020-01-22T07:54:54Z</time>
      </trkpt>
      <trkpt lat="59.323506" lon="18.075145">
        <ele>3</ele>
        <time>2020-01-22T07:54:55Z</time>
      </trkpt>
      <trkpt lat="59.323444" lon="18.075122">
        <ele>3</ele>
        <time>2020-01-22T07:54:56Z</time>
      </trkpt>
      <trkpt lat="59.32338" lon="18.075097">
        <ele>3</ele>
        <time>2020-01-22T07:54:57Z</time>
      </trkpt>
      <trkpt lat="59.323318" lon="18.075073">
        <ele>3</ele>
        <time>2020-01-22T07:54:58Z</time>
      </trkpt>
      <trkpt lat="59.323258" lon="18.075051">
        <ele>3</ele>
        <time>2020-01-22T07:54:59Z</time>
      </trkpt>
      <trkpt lat="59.323204" lon="18.075029">
        <ele>3</ele>
        <time>2020-01-22T07:55:00Z</time>
      </trkpt>
      <trkpt lat="59.323155" lon="18.075006">
        <ele>3</ele>
        <time>2020-01-22T07:55:01Z</time>
      </trkpt>
      <trkpt lat="59.323104" lon="18.074982">
        <ele>3</ele>
        <time>2020-01-22T07:55:02Z</time>
      </trkpt>
      <trkpt lat="59.323049" lon="18.074956">
        <ele>3</ele>
        <time>2020-01-22T07:55:03Z</time>
      </trkpt>
      <trkpt lat="59.322993" lon="18.074927">
        <ele>3</ele>
        <time>2020-01-22T07:55:04Z</time>
      </trkpt>
      <trkpt lat="59.322935" lon="18.074891">
        <ele>3</ele>
        <time>2020-01-22T07:55:05Z</time>
      </trkpt>
      <trkpt lat="59.322876" lon="18.074848">
        <ele>3</ele>
        <time>2020-01-22T07:55:06Z</time>
      </trkpt>
      <trkpt lat="59.322817" lon="18.074798">
        <ele>3</ele>
        <time>2020-01-22T07:55:07Z</time>
      </trkpt>
      <trkpt lat="59.322758" lon="18.074739">
        <ele>3</ele>
        <time>2020-01-22T07:55:08Z</time>
      </trkpt>
      <trkpt lat="59.3227" lon="18.074674">
        <ele>3</ele>
        <time>2020-01-22T07:55:09Z</time>
      </trkpt>
      <trkpt lat="59.322642" lon="18.074605">
        <ele>3</ele>
        <time>2020-01-22T07:55:10Z</time>
      </trkpt>
      <trkpt lat="59.322584" lon="18.074539">
        <ele>3</ele>
        <time>2020-01-22T07:55:11Z</time>
      </trkpt>
      <trkpt lat="59.322525" lon="18.074476">
        <ele>3</ele>
        <time>2020-01-22T07:55:12Z</time>
      </trkpt>
      <trkpt lat="59.322466" lon="18.074418">
        <ele>3</ele>
        <time>2020-01-22T07:55:13Z</time>
      </trkpt>
      <trkpt lat="59.322407" lon="18.07436">
        <ele>3</ele>
        <time>2020-01-22T07:55:14Z</time>
      </trkpt>
      <trkpt lat="59.322352" lon="18.074301">
        <ele>3</ele>
        <time>2020-01-22T07:55:15Z</time>
      </trkpt>
      <trkpt lat="59.322297" lon="18.074244">
        <ele>3</ele>
        <time>2020-01-22T07:55:16Z</time>
      </trkpt>
      <trkpt lat="59.322244" lon="18.074189">
        <ele>3</ele>
        <time>2020-01-22T07:55:17Z</time>
      </trkpt>
      <trkpt lat="59.322193" lon="18.074137">
        <ele>4</ele>
        <time>2020-01-22T07:55:18Z</time>
      </trkpt>
      <trkpt lat="59.322143" lon="18.074087">
        <ele>4</ele>
        <time>2020-01-22T07:55:19Z</time>
      </trkpt>
      <trkpt lat="59.322094" lon="18.074037">
        <ele>4</ele>
        <time>2020-01-22T07:55:20Z</time>
      </trkpt>
      <trkpt lat="59.322046" lon="18.07399">
        <ele>4</ele>
        <time>2020-01-22T07:55:21Z</time>
      </trkpt>
      <trkpt lat="59.322002" lon="18.073947">
        <ele>4</ele>
        <time>2020-01-22T07:55:22Z</time>
      </trkpt>
      <trkpt lat="59.321964" lon="18.073903">
        <ele>5</ele>
        <time>2020-01-22T07:55:23Z</time>
      </trkpt>
      <trkpt lat="59.321937" lon="18.073848">
        <ele>5</ele>
        <time>2020-01-22T07:55:24Z</time>
      </trkpt>
      <trkpt lat="59.321925" lon="18.073779">
        <ele>5</ele>
        <time>2020-01-22T07:55:25Z</time>
      </trkpt>
      <trkpt lat="59.321927" lon="18.07371">
        <ele>5</ele>
        <time>2020-01-22T07:55:26Z</time>
      </trkpt>
      <trkpt lat="59.321935" lon="18.073636">
        <ele>5</ele>
        <time>2020-01-22T07:55:27Z</time>
      </trkpt>
      <trkpt lat="59.321943" lon="18.073567">
        <ele>5</ele>
        <time>2020-01-22T07:55:28Z</time>
      </trkpt>
      <trkpt lat="59.321952" lon="18.073497">
        <ele>5</ele>
        <time>2020-01-22T07:55:29Z</time>
      </trkpt>
      <trkpt lat="59.321963" lon="18.073434">
        <ele>5</ele>
        <time>2020-01-22T07:55:30Z</time>
      </trkpt>
      <trkpt lat="59.321978" lon="18.073372">
        <ele>5</ele>
        <time>2020-01-22T07:55:31Z</time>
      </trkpt>
      <trkpt lat="59.321994" lon="18.073313">
        <ele>5</ele>
        <time>2020-01-22T07:55:32Z</time>
      </trkpt>
      <trkpt lat="59.32201" lon="18.073255">
        <ele>6</ele>
        <time>2020-01-22T07:55:33Z</time>
      </trkpt>
      <trkpt lat="59.322025" lon="18.073199">
        <ele>6</ele>
        <time>2020-01-22T07:55:34Z</time>
      </trkpt>
      <trkpt lat="59.322039" lon="18.073144">
        <ele>6</ele>
        <time>2020-01-22T07:55:35Z</time>
      </trkpt>
      <trkpt lat="59.322053" lon="18.0731">
        <ele>6</ele>
        <time>2020-01-22T07:55:36Z</time>
      </trkpt>
      <trkpt lat="59.322061" lon="18.073067">
        <ele>6</ele>
        <time>2020-01-22T07:55:37Z</time>
      </trkpt>
      <trkpt lat="59.322073" lon="18.07304">
        <ele>7</ele>
        <time>2020-01-22T07:55:39Z</time>
      </trkpt>
      <trkpt lat="59.322059" lon="18.073064">
        <ele>7</ele>
        <time>2020-01-22T07:55:40Z</time>
      </trkpt>
      <trkpt lat="59.322068" lon="18.073032">
        <ele>7</ele>
        <time>2020-01-22T07:55:44Z</time>
      </trkpt>
      <trkpt lat="59.32208" lon="18.072962">
        <ele>7</ele>
        <time>2020-01-22T07:55:46Z</time>
      </trkpt>
      <trkpt lat="59.322087" lon="18.072913">
        <ele>7</ele>
        <time>2020-01-22T07:55:47Z</time>
      </trkpt>
      <trkpt lat="59.322095" lon="18.072861">
        <ele>7</ele>
        <time>2020-01-22T07:55:48Z</time>
      </trkpt>
      <trkpt lat="59.322101" lon="18.072796">
        <ele>6</ele>
        <time>2020-01-22T07:55:49Z</time>
      </trkpt>
      <trkpt lat="59.322102" lon="18.072734">
        <ele>6</ele>
        <time>2020-01-22T07:55:50Z</time>
      </trkpt>
      <trkpt lat="59.322099" lon="18.072674">
        <ele>6</ele>
        <time>2020-01-22T07:55:51Z</time>
      </trkpt>
      <trkpt lat="59.322095" lon="18.072612">
        <ele>6</ele>
        <time>2020-01-22T07:55:52Z</time>
      </trkpt>
      <trkpt lat="59.322089" lon="18.072552">
        <ele>6</ele>
        <time>2020-01-22T07:55:53Z</time>
      </trkpt>
      <trkpt lat="59.322081" lon="18.072496">
        <ele>6</ele>
        <time>2020-01-22T07:55:54Z</time>
      </trkpt>
      <trkpt lat="59.322075" lon="18.072443">
        <ele>6</ele>
        <time>2020-01-22T07:55:55Z</time>
      </trkpt>
      <trkpt lat="59.322058" lon="18.072389">
        <ele>6</ele>
        <time>2020-01-22T07:55:56Z</time>
      </trkpt>
      <trkpt lat="59.322035" lon="18.072344">
        <ele>6</ele>
        <time>2020-01-22T07:55:57Z</time>
      </trkpt>
      <trkpt lat="59.322005" lon="18.072319">
        <ele>7</ele>
        <time>2020-01-22T07:55:58Z</time>
      </trkpt>
      <trkpt lat="59.321968" lon="18.072308">
        <ele>7</ele>
        <time>2020-01-22T07:55:59Z</time>
      </trkpt>
      <trkpt lat="59.321933" lon="18.072298">
        <ele>7</ele>
        <time>2020-01-22T07:56:00Z</time>
      </trkpt>
      <trkpt lat="59.321896" lon="18.072276">
        <ele>7</ele>
        <time>2020-01-22T07:56:01Z</time>
      </trkpt>
      <trkpt lat="59.32186" lon="18.072254">
        <ele>8</ele>
        <time>2020-01-22T07:56:02Z</time>
      </trkpt>
      <trkpt lat="59.321827" lon="18.072236">
        <ele>8</ele>
        <time>2020-01-22T07:56:03Z</time>
      </trkpt>
      <trkpt lat="59.321792" lon="18.072226">
        <ele>8</ele>
        <time>2020-01-22T07:56:04Z</time>
      </trkpt>
      <trkpt lat="59.321758" lon="18.072226">
        <ele>8</ele>
        <time>2020-01-22T07:56:05Z</time>
      </trkpt>
      <trkpt lat="59.321722" lon="18.072233">
        <ele>8</ele>
        <time>2020-01-22T07:56:06Z</time>
      </trkpt>
      <trkpt lat="59.321684" lon="18.072239">
        <ele>9</ele>
        <time>2020-01-22T07:56:07Z</time>
      </trkpt>
      <trkpt lat="59.321644" lon="18.072232">
        <ele>9</ele>
        <time>2020-01-22T07:56:08Z</time>
      </trkpt>
      <trkpt lat="59.321604" lon="18.072209">
        <ele>9</ele>
        <time>2020-01-22T07:56:09Z</time>
      </trkpt>
      <trkpt lat="59.321568" lon="18.072181">
        <ele>9</ele>
        <time>2020-01-22T07:56:10Z</time>
      </trkpt>
      <trkpt lat="59.32153" lon="18.072153">
        <ele>9</ele>
        <time>2020-01-22T07:56:11Z</time>
      </trkpt>
      <trkpt lat="59.321492" lon="18.072125">
        <ele>9</ele>
        <time>2020-01-22T07:56:12Z</time>
      </trkpt>
      <trkpt lat="59.321454" lon="18.072096">
        <ele>10</ele>
        <time>2020-01-22T07:56:13Z</time>
      </trkpt>
      <trkpt lat="59.321418" lon="18.072068">
        <ele>10</ele>
        <time>2020-01-22T07:56:14Z</time>
      </trkpt>
      <trkpt lat="59.32138" lon="18.072039">
        <ele>10</ele>
        <time>2020-01-22T07:56:15Z</time>
      </trkpt>
      <trkpt lat="59.321342" lon="18.072012">
        <ele>10</ele>
        <time>2020-01-22T07:56:16Z</time>
      </trkpt>
      <trkpt lat="59.321302" lon="18.071983">
        <ele>10</ele>
        <time>2020-01-22T07:56:17Z</time>
      </trkpt>
      <trkpt lat="59.321264" lon="18.071954">
        <ele>10</ele>
        <time>2020-01-22T07:56:18Z</time>
      </trkpt>
      <trkpt lat="59.321228" lon="18.071921">
        <ele>10</ele>
        <time>2020-01-22T07:56:19Z</time>
      </trkpt>
      <trkpt lat="59.321196" lon="18.071878">
        <ele>10</ele>
        <time>2020-01-22T07:56:20Z</time>
      </trkpt>
      <trkpt lat="59.321166" lon="18.071825">
        <ele>10</ele>
        <time>2020-01-22T07:56:21Z</time>
      </trkpt>
      <trkpt lat="59.321142" lon="18.071764">
        <ele>10</ele>
        <time>2020-01-22T07:56:22Z</time>
      </trkpt>
      <trkpt lat="59.321122" lon="18.0717">
        <ele>11</ele>
        <time>2020-01-22T07:56:23Z</time>
      </trkpt>
      <trkpt lat="59.321108" lon="18.071634">
        <ele>11</ele>
        <time>2020-01-22T07:56:24Z</time>
      </trkpt>
      <trkpt lat="59.321096" lon="18.071566">
        <ele>11</ele>
        <time>2020-01-22T07:56:25Z</time>
      </trkpt>
      <trkpt lat="59.321088" lon="18.071499">
        <ele>11</ele>
        <time>2020-01-22T07:56:26Z</time>
      </trkpt>
      <trkpt lat="59.32108" lon="18.071436">
        <ele>11</ele>
        <time>2020-01-22T07:56:27Z</time>
      </trkpt>
      <trkpt lat="59.321072" lon="18.071374">
        <ele>12</ele>
        <time>2020-01-22T07:56:28Z</time>
      </trkpt>
      <trkpt lat="59.321063" lon="18.071314">
        <ele>13</ele>
        <time>2020-01-22T07:56:29Z</time>
      </trkpt>
      <trkpt lat="59.321056" lon="18.071254">
        <ele>13</ele>
        <time>2020-01-22T07:56:30Z</time>
      </trkpt>
      <trkpt lat="59.321048" lon="18.071195">
        <ele>13</ele>
        <time>2020-01-22T07:56:31Z</time>
      </trkpt>
      <trkpt lat="59.321038" lon="18.071141">
        <ele>13</ele>
        <time>2020-01-22T07:56:32Z</time>
      </trkpt>
      <trkpt lat="59.32102" lon="18.071094">
        <ele>13</ele>
        <time>2020-01-22T07:56:33Z</time>
      </trkpt>
      <trkpt lat="59.320996" lon="18.071051">
        <ele>13</ele>
        <time>2020-01-22T07:56:34Z</time>
      </trkpt>
      <trkpt lat="59.320968" lon="18.071017">
        <ele>13</ele>
        <time>2020-01-22T07:56:35Z</time>
      </trkpt>
      <trkpt lat="59.32093" lon="18.070995">
        <ele>14</ele>
        <time>2020-01-22T07:56:36Z</time>
      </trkpt>
      <trkpt lat="59.320896" lon="18.070971">
        <ele>14</ele>
        <time>2020-01-22T07:56:37Z</time>
      </trkpt>
      <trkpt lat="59.320862" lon="18.070947">
        <ele>14</ele>
        <time>2020-01-22T07:56:38Z</time>
      </trkpt>
      <trkpt lat="59.320828" lon="18.070921">
        <ele>14</ele>
        <time>2020-01-22T07:56:39Z</time>
      </trkpt>
      <trkpt lat="59.320794" lon="18.070898">
        <ele>14</ele>
        <time>2020-01-22T07:56:40Z</time>
      </trkpt>
      <trkpt lat="59.320759" lon="18.070875">
        <ele>14</ele>
        <time>2020-01-22T07:56:41Z</time>
      </trkpt>
      <trkpt lat="59.320724" lon="18.070852">
        <ele>14</ele>
        <time>2020-01-22T07:56:42Z</time>
      </trkpt>
      <trkpt lat="59.320688" lon="18.070835">
        <ele>14</ele>
        <time>2020-01-22T07:56:43Z</time>
      </trkpt>
      <trkpt lat="59.320654" lon="18.07082">
        <ele>14</ele>
        <time>2020-01-22T07:56:44Z</time>
      </trkpt>
      <trkpt lat="59.32062" lon="18.070807">
        <ele>15</ele>
        <time>2020-01-22T07:56:45Z</time>
      </trkpt>
      <trkpt lat="59.32059" lon="18.070781">
        <ele>15</ele>
        <time>2020-01-22T07:56:46Z</time>
      </trkpt>
      <trkpt lat="59.32057" lon="18.070736">
        <ele>15</ele>
        <time>2020-01-22T07:56:47Z</time>
      </trkpt>
      <trkpt lat="59.320556" lon="18.070676">
        <ele>15</ele>
        <time>2020-01-22T07:56:48Z</time>
      </trkpt>
      <trkpt lat="59.320544" lon="18.070608">
        <ele>15</ele>
        <time>2020-01-22T07:56:49Z</time>
      </trkpt>
      <trkpt lat="59.320531" lon="18.070534">
        <ele>14</ele>
        <time>2020-01-22T07:56:50Z</time>
      </trkpt>
      <trkpt lat="59.320522" lon="18.070457">
        <ele>14</ele>
        <time>2020-01-22T07:56:51Z</time>
      </trkpt>
      <trkpt lat="59.32051" lon="18.070383">
        <ele>14</ele>
        <time>2020-01-22T07:56:52Z</time>
      </trkpt>
      <trkpt lat="59.320488" lon="18.070315">
        <ele>14</ele>
        <time>2020-01-22T07:56:53Z</time>
      </trkpt>
      <trkpt lat="59.320456" lon="18.070267">
        <ele>14</ele>
        <time>2020-01-22T07:56:54Z</time>
      </trkpt>
      <trkpt lat="59.320419" lon="18.07025">
        <ele>15</ele>
        <time>2020-01-22T07:56:55Z</time>
      </trkpt>
      <trkpt lat="59.320382" lon="18.070255">
        <ele>14</ele>
        <time>2020-01-22T07:56:56Z</time>
      </trkpt>
      <trkpt lat="59.320344" lon="18.070265">
        <ele>15</ele>
        <time>2020-01-22T07:56:57Z</time>
      </trkpt>
      <trkpt lat="59.320308" lon="18.070277">
        <ele>15</ele>
        <time>2020-01-22T07:56:58Z</time>
      </trkpt>
      <trkpt lat="59.320272" lon="18.070286">
        <ele>15</ele>
        <time>2020-01-22T07:56:59Z</time>
      </trkpt>
      <trkpt lat="59.320243" lon="18.070293">
        <ele>15</ele>
        <time>2020-01-22T07:57:00Z</time>
      </trkpt>
      <trkpt lat="59.320216" lon="18.070302">
        <ele>15</ele>
        <time>2020-01-22T07:57:01Z</time>
      </trkpt>
      <trkpt lat="59.320188" lon="18.070311">
        <ele>15</ele>
        <time>2020-01-22T07:57:02Z</time>
      </trkpt>
      <trkpt lat="59.320159" lon="18.070317">
        <ele>15</ele>
        <time>2020-01-22T07:57:03Z</time>
      </trkpt>
      <trkpt lat="59.320131" lon="18.070324">
        <ele>15</ele>
        <time>2020-01-22T07:57:04Z</time>
      </trkpt>
      <trkpt lat="59.320104" lon="18.070333">
        <ele>15</ele>
        <time>2020-01-22T07:57:05Z</time>
      </trkpt>
      <trkpt lat="59.320079" lon="18.070337">
        <ele>15</ele>
        <time>2020-01-22T07:57:06Z</time>
      </trkpt>
      <trkpt lat="59.320059" lon="18.070346">
        <ele>15</ele>
        <time>2020-01-22T07:57:07Z</time>
      </trkpt>
      <trkpt lat="59.320031" lon="18.070356">
        <ele>15</ele>
        <time>2020-01-22T07:57:09Z</time>
      </trkpt>
      <trkpt lat="59.320026" lon="18.070359">
        <ele>0</ele>
        <time>2020-01-22T07:57:13Z</time>
      </trkpt>
      <trkpt lat="59.319999" lon="18.070428">
        <ele>16</ele>
        <time>2020-01-22T07:57:38Z</time>
      </trkpt>
      <trkpt lat="59.319999" lon="18.070426">
        <ele>0</ele>
        <time>2020-01-22T07:57:41Z</time>
      </trkpt>
      <trkpt lat="59.31998" lon="18.070445">
        <ele>17</ele>
        <time>2020-01-22T07:57:48Z</time>
      </trkpt>
      <trkpt lat="59.319956" lon="18.070453">
        <ele>17</ele>
        <time>2020-01-22T07:57:50Z</time>
      </trkpt>
      <trkpt lat="59.319933" lon="18.070453">
        <ele>17</ele>
        <time>2020-01-22T07:57:51Z</time>
      </trkpt>
      <trkpt lat="59.319906" lon="18.070456">
        <ele>17</ele>
        <time>2020-01-22T07:57:52Z</time>
      </trkpt>
      <trkpt lat="59.319875" lon="18.070465">
        <ele>17</ele>
        <time>2020-01-22T07:57:53Z</time>
      </trkpt>
      <trkpt lat="59.319841" lon="18.070476">
        <ele>17</ele>
        <time>2020-01-22T07:57:54Z</time>
      </trkpt>
      <trkpt lat="59.319804" lon="18.07049">
        <ele>17</ele>
        <time>2020-01-22T07:57:55Z</time>
      </trkpt>
      <trkpt lat="59.319766" lon="18.070511">
        <ele>17</ele>
        <time>2020-01-22T07:57:56Z</time>
      </trkpt>
      <trkpt lat="59.319726" lon="18.070535">
        <ele>17</ele>
        <time>2020-01-22T07:57:57Z</time>
      </trkpt>
      <trkpt lat="59.319688" lon="18.070558">
        <ele>18</ele>
        <time>2020-01-22T07:57:58Z</time>
      </trkpt>
      <trkpt lat="59.319648" lon="18.070588">
        <ele>18</ele>
        <time>2020-01-22T07:57:59Z</time>
      </trkpt>
      <trkpt lat="59.319608" lon="18.070617">
        <ele>18</ele>
        <time>2020-01-22T07:58:00Z</time>
      </trkpt>
      <trkpt lat="59.31957" lon="18.070643">
        <ele>18</ele>
        <time>2020-01-22T07:58:01Z</time>
      </trkpt>
      <trkpt lat="59.319533" lon="18.070663">
        <ele>18</ele>
        <time>2020-01-22T07:58:02Z</time>
      </trkpt>
      <trkpt lat="59.319491" lon="18.070681">
        <ele>18</ele>
        <time>2020-01-22T07:58:03Z</time>
      </trkpt>
      <trkpt lat="59.319449" lon="18.070691">
        <ele>18</ele>
        <time>2020-01-22T07:58:04Z</time>
      </trkpt>
      <trkpt lat="59.319358" lon="18.070697">
        <ele>19</ele>
        <time>2020-01-22T07:58:07Z</time>
      </trkpt>
      <trkpt lat="59.319244" lon="18.070755">
        <ele>20</ele>
        <time>2020-01-22T07:58:10Z</time>
      </trkpt>
      <trkpt lat="59.319134" lon="18.070833">
        <ele>21</ele>
        <time>2020-01-22T07:58:13Z</time>
      </trkpt>
      <trkpt lat="59.319045" lon="18.070909">
        <ele>21</ele>
        <time>2020-01-22T07:58:16Z</time>
      </trkpt>
      <trkpt lat="59.318955" lon="18.070989">
        <ele>22</ele>
        <time>2020-01-22T07:58:19Z</time>
      </trkpt>
      <trkpt lat="59.318854" lon="18.071083">
        <ele>24</ele>
        <time>2020-01-22T07:58:23Z</time>
      </trkpt>
      <trkpt lat="59.318766" lon="18.071121">
        <ele>25</ele>
        <time>2020-01-22T07:58:25Z</time>
      </trkpt>
      <trkpt lat="59.318728" lon="18.07112">
        <ele>26</ele>
        <time>2020-01-22T07:58:26Z</time>
      </trkpt>
      <trkpt lat="59.318693" lon="18.071123">
        <ele>26</ele>
        <time>2020-01-22T07:58:27Z</time>
      </trkpt>
      <trkpt lat="59.318651" lon="18.071135">
        <ele>27</ele>
        <time>2020-01-22T07:58:28Z</time>
      </trkpt>
      <trkpt lat="59.318621" lon="18.071152">
        <ele>27</ele>
        <time>2020-01-22T07:58:29Z</time>
      </trkpt>
      <trkpt lat="59.318596" lon="18.071169">
        <ele>27</ele>
        <time>2020-01-22T07:58:30Z</time>
      </trkpt>
      <trkpt lat="59.318573" lon="18.071187">
        <ele>28</ele>
        <time>2020-01-22T07:58:31Z</time>
      </trkpt>
      <trkpt lat="59.318553" lon="18.071207">
        <ele>28</ele>
        <time>2020-01-22T07:58:32Z</time>
      </trkpt>
      <trkpt lat="59.318532" lon="18.071222">
        <ele>29</ele>
        <time>2020-01-22T07:58:33Z</time>
      </trkpt>
      <trkpt lat="59.318507" lon="18.071241">
        <ele>29</ele>
        <time>2020-01-22T07:58:34Z</time>
      </trkpt>
      <trkpt lat="59.318475" lon="18.07126">
        <ele>29</ele>
        <time>2020-01-22T07:58:35Z</time>
      </trkpt>
      <trkpt lat="59.318447" lon="18.071277">
        <ele>30</ele>
        <time>2020-01-22T07:58:36Z</time>
      </trkpt>
      <trkpt lat="59.318416" lon="18.071294">
        <ele>30</ele>
        <time>2020-01-22T07:58:37Z</time>
      </trkpt>
      <trkpt lat="59.31839" lon="18.07131">
        <ele>30</ele>
        <time>2020-01-22T07:58:38Z</time>
      </trkpt>
      <trkpt lat="59.318363" lon="18.071328">
        <ele>31</ele>
        <time>2020-01-22T07:58:39Z</time>
      </trkpt>
      <trkpt lat="59.318331" lon="18.071345">
        <ele>31</ele>
        <time>2020-01-22T07:58:40Z</time>
      </trkpt>
      <trkpt lat="59.318295" lon="18.07137">
        <ele>31</ele>
        <time>2020-01-22T07:58:41Z</time>
      </trkpt>
      <trkpt lat="59.31826" lon="18.071398">
        <ele>31</ele>
        <time>2020-01-22T07:58:42Z</time>
      </trkpt>
      <trkpt lat="59.318228" lon="18.071428">
        <ele>31</ele>
        <time>2020-01-22T07:58:43Z</time>
      </trkpt>
      <trkpt lat="59.31819" lon="18.071454">
        <ele>31</ele>
        <time>2020-01-22T07:58:44Z</time>
      </trkpt>
      <trkpt lat="59.318151" lon="18.071478">
        <ele>31</ele>
        <time>2020-01-22T07:58:45Z</time>
      </trkpt>
      <trkpt lat="59.318117" lon="18.071496">
        <ele>31</ele>
        <time>2020-01-22T07:58:46Z</time>
      </trkpt>
      <trkpt lat="59.318076" lon="18.071517">
        <ele>31</ele>
        <time>2020-01-22T07:58:47Z</time>
      </trkpt>
      <trkpt lat="59.318035" lon="18.071532">
        <ele>32</ele>
        <time>2020-01-22T07:58:48Z</time>
      </trkpt>
      <trkpt lat="59.317993" lon="18.071547">
        <ele>32</ele>
        <time>2020-01-22T07:58:49Z</time>
      </trkpt>
      <trkpt lat="59.317915" lon="18.071555">
        <ele>33</ele>
        <time>2020-01-22T07:58:51Z</time>
      </trkpt>
      <trkpt lat="59.317831" lon="18.071573">
        <ele>34</ele>
        <time>2020-01-22T07:58:54Z</time>
      </trkpt>
      <trkpt lat="59.317803" lon="18.071596">
        <ele>34</ele>
        <time>2020-01-22T07:58:55Z</time>
      </trkpt>
      <trkpt lat="59.317762" lon="18.071626">
        <ele>34</ele>
        <time>2020-01-22T07:58:56Z</time>
      </trkpt>
      <trkpt lat="59.317718" lon="18.071656">
        <ele>35</ele>
        <time>2020-01-22T07:58:57Z</time>
      </trkpt>
      <trkpt lat="59.31768" lon="18.071679">
        <ele>35</ele>
        <time>2020-01-22T07:58:58Z</time>
      </trkpt>
      <trkpt lat="59.317647" lon="18.071701">
        <ele>35</ele>
        <time>2020-01-22T07:58:59Z</time>
      </trkpt>
      <trkpt lat="59.317616" lon="18.071724">
        <ele>36</ele>
        <time>2020-01-22T07:59:00Z</time>
      </trkpt>
      <trkpt lat="59.317586" lon="18.071744">
        <ele>36</ele>
        <time>2020-01-22T07:59:01Z</time>
      </trkpt>
      <trkpt lat="59.317554" lon="18.071768">
        <ele>36</ele>
        <time>2020-01-22T07:59:02Z</time>
      </trkpt>
      <trkpt lat="59.317524" lon="18.071788">
        <ele>36</ele>
        <time>2020-01-22T07:59:03Z</time>
      </trkpt>
      <trkpt lat="59.317491" lon="18.071806">
        <ele>37</ele>
        <time>2020-01-22T07:59:04Z</time>
      </trkpt>
      <trkpt lat="59.317457" lon="18.07183">
        <ele>37</ele>
        <time>2020-01-22T07:59:05Z</time>
      </trkpt>
      <trkpt lat="59.317368" lon="18.071862">
        <ele>37</ele>
        <time>2020-01-22T07:59:07Z</time>
      </trkpt>
      <trkpt lat="59.317272" lon="18.071874">
        <ele>37</ele>
        <time>2020-01-22T07:59:09Z</time>
      </trkpt>
      <trkpt lat="59.317225" lon="18.07188">
        <ele>38</ele>
        <time>2020-01-22T07:59:10Z</time>
      </trkpt>
      <trkpt lat="59.317184" lon="18.071882">
        <ele>38</ele>
        <time>2020-01-22T07:59:11Z</time>
      </trkpt>
      <trkpt lat="59.317146" lon="18.07189">
        <ele>38</ele>
        <time>2020-01-22T07:59:12Z</time>
      </trkpt>
      <trkpt lat="59.317109" lon="18.071896">
        <ele>39</ele>
        <time>2020-01-22T07:59:13Z</time>
      </trkpt>
      <trkpt lat="59.31707" lon="18.071904">
        <ele>39</ele>
        <time>2020-01-22T07:59:14Z</time>
      </trkpt>
      <trkpt lat="59.317036" lon="18.071912">
        <ele>39</ele>
        <time>2020-01-22T07:59:15Z</time>
      </trkpt>
      <trkpt lat="59.316934" lon="18.071982">
        <ele>40</ele>
        <time>2020-01-22T07:59:18Z</time>
      </trkpt>
      <trkpt lat="59.316898" lon="18.07201">
        <ele>40</ele>
        <time>2020-01-22T07:59:19Z</time>
      </trkpt>
      <trkpt lat="59.316852" lon="18.072058">
        <ele>40</ele>
        <time>2020-01-22T07:59:20Z</time>
      </trkpt>
      <trkpt lat="59.316818" lon="18.072092">
        <ele>40</ele>
        <time>2020-01-22T07:59:21Z</time>
      </trkpt>
      <trkpt lat="59.316778" lon="18.072124">
        <ele>41</ele>
        <time>2020-01-22T07:59:22Z</time>
      </trkpt>
      <trkpt lat="59.316746" lon="18.072158">
        <ele>41</ele>
        <time>2020-01-22T07:59:23Z</time>
      </trkpt>
      <trkpt lat="59.316714" lon="18.072186">
        <ele>41</ele>
        <time>2020-01-22T07:59:24Z</time>
      </trkpt>
      <trkpt lat="59.31668" lon="18.072198">
        <ele>41</ele>
        <time>2020-01-22T07:59:25Z</time>
      </trkpt>
      <trkpt lat="59.31664" lon="18.072198">
        <ele>42</ele>
        <time>2020-01-22T07:59:26Z</time>
      </trkpt>
      <trkpt lat="59.316604" lon="18.072202">
        <ele>42</ele>
        <time>2020-01-22T07:59:27Z</time>
      </trkpt>
      <trkpt lat="59.316566" lon="18.072204">
        <ele>42</ele>
        <time>2020-01-22T07:59:28Z</time>
      </trkpt>
      <trkpt lat="59.316527" lon="18.07221">
        <ele>42</ele>
        <time>2020-01-22T07:59:29Z</time>
      </trkpt>
      <trkpt lat="59.31648" lon="18.07222">
        <ele>42</ele>
        <time>2020-01-22T07:59:30Z</time>
      </trkpt>
      <trkpt lat="59.316434" lon="18.072242">
        <ele>42</ele>
        <time>2020-01-22T07:59:31Z</time>
      </trkpt>
      <trkpt lat="59.31638" lon="18.072272">
        <ele>42</ele>
        <time>2020-01-22T07:59:32Z</time>
      </trkpt>
      <trkpt lat="59.316278" lon="18.072346">
        <ele>42</ele>
        <time>2020-01-22T07:59:34Z</time>
      </trkpt>
      <trkpt lat="59.316182" lon="18.07239">
        <ele>42</ele>
        <time>2020-01-22T07:59:36Z</time>
      </trkpt>
      <trkpt lat="59.316128" lon="18.072414">
        <ele>42</ele>
        <time>2020-01-22T07:59:37Z</time>
      </trkpt>
      <trkpt lat="59.31608" lon="18.07243">
        <ele>42</ele>
        <time>2020-01-22T07:59:38Z</time>
      </trkpt>
      <trkpt lat="59.316022" lon="18.072444">
        <ele>42</ele>
        <time>2020-01-22T07:59:39Z</time>
      </trkpt>
      <trkpt lat="59.315972" lon="18.072464">
        <ele>42</ele>
        <time>2020-01-22T07:59:40Z</time>
      </trkpt>
      <trkpt lat="59.315931" lon="18.072478">
        <ele>42</ele>
        <time>2020-01-22T07:59:41Z</time>
      </trkpt>
      <trkpt lat="59.315906" lon="18.072496">
        <ele>42</ele>
        <time>2020-01-22T07:59:44Z</time>
      </trkpt>
      <trkpt lat="59.315906" lon="18.072498">
        <ele>0</ele>
        <time>2020-01-22T07:59:50Z</time>
      </trkpt>
      <trkpt lat="59.315833" lon="18.072569">
        <ele>41</ele>
        <time>2020-01-22T08:00:25Z</time>
      </trkpt>
      <trkpt lat="59.315796" lon="18.072584">
        <ele>41</ele>
        <time>2020-01-22T08:00:26Z</time>
      </trkpt>
      <trkpt lat="59.315756" lon="18.072596">
        <ele>41</ele>
        <time>2020-01-22T08:00:27Z</time>
      </trkpt>
      <trkpt lat="59.315712" lon="18.072613">
        <ele>40</ele>
        <time>2020-01-22T08:00:28Z</time>
      </trkpt>
      <trkpt lat="59.315673" lon="18.072639">
        <ele>40</ele>
        <time>2020-01-22T08:00:29Z</time>
      </trkpt>
      <trkpt lat="59.315634" lon="18.072665">
        <ele>40</ele>
        <time>2020-01-22T08:00:30Z</time>
      </trkpt>
      <trkpt lat="59.315591" lon="18.072693">
        <ele>40</ele>
        <time>2020-01-22T08:00:31Z</time>
      </trkpt>
      <trkpt lat="59.315541" lon="18.07272">
        <ele>40</ele>
        <time>2020-01-22T08:00:32Z</time>
      </trkpt>
      <trkpt lat="59.315488" lon="18.072739">
        <ele>40</ele>
        <time>2020-01-22T08:00:33Z</time>
      </trkpt>
      <trkpt lat="59.315433" lon="18.072755">
        <ele>40</ele>
        <time>2020-01-22T08:00:34Z</time>
      </trkpt>
      <trkpt lat="59.315378" lon="18.072774">
        <ele>40</ele>
        <time>2020-01-22T08:00:35Z</time>
      </trkpt>
      <trkpt lat="59.315323" lon="18.072795">
        <ele>40</ele>
        <time>2020-01-22T08:00:36Z</time>
      </trkpt>
      <trkpt lat="59.315273" lon="18.072818">
        <ele>40</ele>
        <time>2020-01-22T08:00:37Z</time>
      </trkpt>
      <trkpt lat="59.31522" lon="18.072841">
        <ele>40</ele>
        <time>2020-01-22T08:00:38Z</time>
      </trkpt>
      <trkpt lat="59.315173" lon="18.072866">
        <ele>40</ele>
        <time>2020-01-22T08:00:39Z</time>
      </trkpt>
      <trkpt lat="59.315124" lon="18.072889">
        <ele>40</ele>
        <time>2020-01-22T08:00:40Z</time>
      </trkpt>
      <trkpt lat="59.315076" lon="18.072914">
        <ele>39</ele>
        <time>2020-01-22T08:00:41Z</time>
      </trkpt>
      <trkpt lat="59.315027" lon="18.072943">
        <ele>39</ele>
        <time>2020-01-22T08:00:42Z</time>
      </trkpt>
      <trkpt lat="59.314977" lon="18.072972">
        <ele>39</ele>
        <time>2020-01-22T08:00:43Z</time>
      </trkpt>
      <trkpt lat="59.31493" lon="18.072999">
        <ele>39</ele>
        <time>2020-01-22T08:00:44Z</time>
      </trkpt>
      <trkpt lat="59.314883" lon="18.073031">
        <ele>39</ele>
        <time>2020-01-22T08:00:45Z</time>
      </trkpt>
      <trkpt lat="59.314836" lon="18.073063">
        <ele>39</ele>
        <time>2020-01-22T08:00:46Z</time>
      </trkpt>
      <trkpt lat="59.31479" lon="18.07309">
        <ele>39</ele>
        <time>2020-01-22T08:00:47Z</time>
      </trkpt>
      <trkpt lat="59.314746" lon="18.073112">
        <ele>39</ele>
        <time>2020-01-22T08:00:48Z</time>
      </trkpt>
      <trkpt lat="59.314704" lon="18.073129">
        <ele>39</ele>
        <time>2020-01-22T08:00:49Z</time>
      </trkpt>
      <trkpt lat="59.314661" lon="18.073147">
        <ele>39</ele>
        <time>2020-01-22T08:00:50Z</time>
      </trkpt>
      <trkpt lat="59.314619" lon="18.073168">
        <ele>39</ele>
        <time>2020-01-22T08:00:51Z</time>
      </trkpt>
      <trkpt lat="59.314579" lon="18.07319">
        <ele>39</ele>
        <time>2020-01-22T08:00:52Z</time>
      </trkpt>
      <trkpt lat="59.314542" lon="18.073207">
        <ele>39</ele>
        <time>2020-01-22T08:00:53Z</time>
      </trkpt>
      <trkpt lat="59.314514" lon="18.073221">
        <ele>39</ele>
        <time>2020-01-22T08:00:54Z</time>
      </trkpt>
      <trkpt lat="59.314491" lon="18.073241">
        <ele>39</ele>
        <time>2020-01-22T08:00:55Z</time>
      </trkpt>
      <trkpt lat="59.314461" lon="18.073275">
        <ele>39</ele>
        <time>2020-01-22T08:00:57Z</time>
      </trkpt>
      <trkpt lat="59.314439" lon="18.073313">
        <ele>39</ele>
        <time>2020-01-22T08:00:59Z</time>
      </trkpt>
      <trkpt lat="59.314418" lon="18.073355">
        <ele>39</ele>
        <time>2020-01-22T08:01:01Z</time>
      </trkpt>
      <trkpt lat="59.314418" lon="18.073356">
        <ele>0</ele>
        <time>2020-01-22T08:01:07Z</time>
      </trkpt>
      <trkpt lat="59.314362" lon="18.073463">
        <ele>41</ele>
        <time>2020-01-22T08:01:40Z</time>
      </trkpt>
      <trkpt lat="59.314331" lon="18.073483">
        <ele>41</ele>
        <time>2020-01-22T08:01:41Z</time>
      </trkpt>
      <trkpt lat="59.314291" lon="18.073492">
        <ele>41</ele>
        <time>2020-01-22T08:01:42Z</time>
      </trkpt>
      <trkpt lat="59.314245" lon="18.073478">
        <ele>41</ele>
        <time>2020-01-22T08:01:43Z</time>
      </trkpt>
      <trkpt lat="59.314186" lon="18.073479">
        <ele>41</ele>
        <time>2020-01-22T08:01:44Z</time>
      </trkpt>
      <trkpt lat="59.314143" lon="18.073499">
        <ele>41</ele>
        <time>2020-01-22T08:01:45Z</time>
      </trkpt>
      <trkpt lat="59.314099" lon="18.073526">
        <ele>41</ele>
        <time>2020-01-22T08:01:46Z</time>
      </trkpt>
      <trkpt lat="59.314047" lon="18.073567">
        <ele>42</ele>
        <time>2020-01-22T08:01:47Z</time>
      </trkpt>
      <trkpt lat="59.313998" lon="18.073612">
        <ele>42</ele>
        <time>2020-01-22T08:01:48Z</time>
      </trkpt>
      <trkpt lat="59.313951" lon="18.073654">
        <ele>42</ele>
        <time>2020-01-22T08:01:49Z</time>
      </trkpt>
      <trkpt lat="59.313903" lon="18.073696">
        <ele>43</ele>
        <time>2020-01-22T08:01:50Z</time>
      </trkpt>
      <trkpt lat="59.313853" lon="18.073734">
        <ele>43</ele>
        <time>2020-01-22T08:01:51Z</time>
      </trkpt>
      <trkpt lat="59.3138" lon="18.073765">
        <ele>43</ele>
        <time>2020-01-22T08:01:52Z</time>
      </trkpt>
      <trkpt lat="59.313748" lon="18.073803">
        <ele>43</ele>
        <time>2020-01-22T08:01:53Z</time>
      </trkpt>
      <trkpt lat="59.313701" lon="18.073832">
        <ele>43</ele>
        <time>2020-01-22T08:01:54Z</time>
      </trkpt>
      <trkpt lat="59.313657" lon="18.073856">
        <ele>43</ele>
        <time>2020-01-22T08:01:55Z</time>
      </trkpt>
      <trkpt lat="59.313613" lon="18.073874">
        <ele>43</ele>
        <time>2020-01-22T08:01:56Z</time>
      </trkpt>
      <trkpt lat="59.313564" lon="18.073893">
        <ele>44</ele>
        <time>2020-01-22T08:01:57Z</time>
      </trkpt>
      <trkpt lat="59.313506" lon="18.073896">
        <ele>44</ele>
        <time>2020-01-22T08:01:58Z</time>
      </trkpt>
      <trkpt lat="59.313447" lon="18.073905">
        <ele>44</ele>
        <time>2020-01-22T08:01:59Z</time>
      </trkpt>
      <trkpt lat="59.313396" lon="18.073915">
        <ele>44</ele>
        <time>2020-01-22T08:02:00Z</time>
      </trkpt>
      <trkpt lat="59.313352" lon="18.073923">
        <ele>44</ele>
        <time>2020-01-22T08:02:01Z</time>
      </trkpt>
      <trkpt lat="59.313314" lon="18.073929">
        <ele>44</ele>
        <time>2020-01-22T08:02:02Z</time>
      </trkpt>
      <trkpt lat="59.313278" lon="18.073935">
        <ele>44</ele>
        <time>2020-01-22T08:02:03Z</time>
      </trkpt>
      <trkpt lat="59.313242" lon="18.073944">
        <ele>44</ele>
        <time>2020-01-22T08:02:04Z</time>
      </trkpt>
      <trkpt lat="59.313205" lon="18.073954">
        <ele>45</ele>
        <time>2020-01-22T08:02:05Z</time>
      </trkpt>
      <trkpt lat="59.313167" lon="18.073967">
        <ele>45</ele>
        <time>2020-01-22T08:02:06Z</time>
      </trkpt>
      <trkpt lat="59.313133" lon="18.073984">
        <ele>45</ele>
        <time>2020-01-22T08:02:07Z</time>
      </trkpt>
      <trkpt lat="59.313109" lon="18.073992">
        <ele>45</ele>
        <time>2020-01-22T08:02:08Z</time>
      </trkpt>
      <trkpt lat="59.313077" lon="18.073999">
        <ele>45</ele>
        <time>2020-01-22T08:02:10Z</time>
      </trkpt>
      <trkpt lat="59.313053" lon="18.074005">
        <ele>45</ele>
        <time>2020-01-22T08:02:12Z</time>
      </trkpt>
      <trkpt lat="59.313032" lon="18.074014">
        <ele>46</ele>
        <time>2020-01-22T08:02:14Z</time>
      </trkpt>
      <trkpt lat="59.313012" lon="18.074025">
        <ele>46</ele>
        <time>2020-01-22T08:02:16Z</time>
      </trkpt>
      <trkpt lat="59.313005" lon="18.074026">
        <ele>0</ele>
        <time>2020-01-22T08:02:22Z</time>
      </trkpt>
      <trkpt lat="59.312939" lon="18.074018">
        <ele>47</ele>
        <time>2020-01-22T08:02:33Z</time>
      </trkpt>
      <trkpt lat="59.312902" lon="18.074011">
        <ele>46</ele>
        <time>2020-01-22T08:02:34Z</time>
      </trkpt>
      <trkpt lat="59.312866" lon="18.074004">
        <ele>46</ele>
        <time>2020-01-22T08:02:35Z</time>
      </trkpt>
      <trkpt lat="59.312822" lon="18.074">
        <ele>46</ele>
        <time>2020-01-22T08:02:36Z</time>
      </trkpt>
      <trkpt lat="59.312774" lon="18.074002">
        <ele>46</ele>
        <time>2020-01-22T08:02:37Z</time>
      </trkpt>
      <trkpt lat="59.312718" lon="18.074011">
        <ele>47</ele>
        <time>2020-01-22T08:02:38Z</time>
      </trkpt>
      <trkpt lat="59.312652" lon="18.074027">
        <ele>47</ele>
        <time>2020-01-22T08:02:39Z</time>
      </trkpt>
      <trkpt lat="59.312592" lon="18.074056">
        <ele>47</ele>
        <time>2020-01-22T08:02:40Z</time>
      </trkpt>
      <trkpt lat="59.312537" lon="18.074081">
        <ele>47</ele>
        <time>2020-01-22T08:02:41Z</time>
      </trkpt>
      <trkpt lat="59.312479" lon="18.074108">
        <ele>47</ele>
        <time>2020-01-22T08:02:42Z</time>
      </trkpt>
      <trkpt lat="59.312422" lon="18.074137">
        <ele>46</ele>
        <time>2020-01-22T08:02:43Z</time>
      </trkpt>
      <trkpt lat="59.312356" lon="18.074171">
        <ele>46</ele>
        <time>2020-01-22T08:02:44Z</time>
      </trkpt>
      <trkpt lat="59.3123" lon="18.074199">
        <ele>46</ele>
        <time>2020-01-22T08:02:45Z</time>
      </trkpt>
      <trkpt lat="59.31224" lon="18.074231">
        <ele>47</ele>
        <time>2020-01-22T08:02:46Z</time>
      </trkpt>
      <trkpt lat="59.312173" lon="18.07426">
        <ele>47</ele>
        <time>2020-01-22T08:02:47Z</time>
      </trkpt>
      <trkpt lat="59.31211" lon="18.074284">
        <ele>48</ele>
        <time>2020-01-22T08:02:48Z</time>
      </trkpt>
      <trkpt lat="59.312053" lon="18.074308">
        <ele>48</ele>
        <time>2020-01-22T08:02:49Z</time>
      </trkpt>
      <trkpt lat="59.311993" lon="18.074336">
        <ele>48</ele>
        <time>2020-01-22T08:02:50Z</time>
      </trkpt>
      <trkpt lat="59.311927" lon="18.074366">
        <ele>48</ele>
        <time>2020-01-22T08:02:51Z</time>
      </trkpt>
      <trkpt lat="59.311868" lon="18.074398">
        <ele>48</ele>
        <time>2020-01-22T08:02:52Z</time>
      </trkpt>
      <trkpt lat="59.311806" lon="18.074424">
        <ele>49</ele>
        <time>2020-01-22T08:02:53Z</time>
      </trkpt>
      <trkpt lat="59.311743" lon="18.07445">
        <ele>49</ele>
        <time>2020-01-22T08:02:54Z</time>
      </trkpt>
      <trkpt lat="59.311675" lon="18.074495">
        <ele>49</ele>
        <time>2020-01-22T08:02:55Z</time>
      </trkpt>
      <trkpt lat="59.311612" lon="18.074529">
        <ele>49</ele>
        <time>2020-01-22T08:02:56Z</time>
      </trkpt>
      <trkpt lat="59.311555" lon="18.074554">
        <ele>49</ele>
        <time>2020-01-22T08:02:57Z</time>
      </trkpt>
      <trkpt lat="59.311505" lon="18.074579">
        <ele>48</ele>
        <time>2020-01-22T08:02:58Z</time>
      </trkpt>
      <trkpt lat="59.311459" lon="18.074607">
        <ele>48</ele>
        <time>2020-01-22T08:02:59Z</time>
      </trkpt>
      <trkpt lat="59.311405" lon="18.074639">
        <ele>48</ele>
        <time>2020-01-22T08:03:00Z</time>
      </trkpt>
      <trkpt lat="59.31135" lon="18.074671">
        <ele>48</ele>
        <time>2020-01-22T08:03:01Z</time>
      </trkpt>
      <trkpt lat="59.311293" lon="18.074702">
        <ele>48</ele>
        <time>2020-01-22T08:03:02Z</time>
      </trkpt>
      <trkpt lat="59.311237" lon="18.074731">
        <ele>49</ele>
        <time>2020-01-22T08:03:03Z</time>
      </trkpt>
      <trkpt lat="59.311186" lon="18.074761">
        <ele>49</ele>
        <time>2020-01-22T08:03:04Z</time>
      </trkpt>
      <trkpt lat="59.311137" lon="18.074793">
        <ele>49</ele>
        <time>2020-01-22T08:03:05Z</time>
      </trkpt>
      <trkpt lat="59.311087" lon="18.074823">
        <ele>49</ele>
        <time>2020-01-22T08:03:06Z</time>
      </trkpt>
      <trkpt lat="59.311036" lon="18.074851">
        <ele>49</ele>
        <time>2020-01-22T08:03:07Z</time>
      </trkpt>
      <trkpt lat="59.310988" lon="18.074874">
        <ele>49</ele>
        <time>2020-01-22T08:03:08Z</time>
      </trkpt>
      <trkpt lat="59.31094" lon="18.074897">
        <ele>49</ele>
        <time>2020-01-22T08:03:09Z</time>
      </trkpt>
      <trkpt lat="59.310894" lon="18.074923">
        <ele>49</ele>
        <time>2020-01-22T08:03:10Z</time>
      </trkpt>
      <trkpt lat="59.310852" lon="18.074947">
        <ele>49</ele>
        <time>2020-01-22T08:03:11Z</time>
      </trkpt>
      <trkpt lat="59.310811" lon="18.074965">
        <ele>49</ele>
        <time>2020-01-22T08:03:12Z</time>
      </trkpt>
      <trkpt lat="59.310775" lon="18.074982">
        <ele>49</ele>
        <time>2020-01-22T08:03:13Z</time>
      </trkpt>
      <trkpt lat="59.310743" lon="18.074999">
        <ele>50</ele>
        <time>2020-01-22T08:03:14Z</time>
      </trkpt>
      <trkpt lat="59.310716" lon="18.075013">
        <ele>50</ele>
        <time>2020-01-22T08:03:15Z</time>
      </trkpt>
      <trkpt lat="59.310693" lon="18.075023">
        <ele>50</ele>
        <time>2020-01-22T08:03:16Z</time>
      </trkpt>
      <trkpt lat="59.31067" lon="18.075035">
        <ele>50</ele>
        <time>2020-01-22T08:03:17Z</time>
      </trkpt>
      <trkpt lat="59.310651" lon="18.075045">
        <ele>50</ele>
        <time>2020-01-22T08:03:18Z</time>
      </trkpt>
      <trkpt lat="59.310621" lon="18.075069">
        <ele>51</ele>
        <time>2020-01-22T08:03:20Z</time>
      </trkpt>
      <trkpt lat="59.310593" lon="18.075091">
        <ele>52</ele>
        <time>2020-01-22T08:03:22Z</time>
      </trkpt>
      <trkpt lat="59.310554" lon="18.075111">
        <ele>52</ele>
        <time>2020-01-22T08:03:24Z</time>
      </trkpt>
      <trkpt lat="59.310523" lon="18.075126">
        <ele>53</ele>
        <time>2020-01-22T08:03:25Z</time>
      </trkpt>
      <trkpt lat="59.310484" lon="18.075138">
        <ele>53</ele>
        <time>2020-01-22T08:03:26Z</time>
      </trkpt>
      <trkpt lat="59.310451" lon="18.07516">
        <ele>52</ele>
        <time>2020-01-22T08:03:27Z</time>
      </trkpt>
      <trkpt lat="59.310416" lon="18.07518">
        <ele>51</ele>
        <time>2020-01-22T08:03:28Z</time>
      </trkpt>
      <trkpt lat="59.310366" lon="18.075211">
        <ele>51</ele>
        <time>2020-01-22T08:03:29Z</time>
      </trkpt>
      <trkpt lat="59.31031" lon="18.075243">
        <ele>51</ele>
        <time>2020-01-22T08:03:30Z</time>
      </trkpt>
      <trkpt lat="59.310247" lon="18.075275">
        <ele>51</ele>
        <time>2020-01-22T08:03:31Z</time>
      </trkpt>
      <trkpt lat="59.310183" lon="18.075306">
        <ele>51</ele>
        <time>2020-01-22T08:03:32Z</time>
      </trkpt>
      <trkpt lat="59.310119" lon="18.075339">
        <ele>51</ele>
        <time>2020-01-22T08:03:33Z</time>
      </trkpt>
      <trkpt lat="59.310053" lon="18.075372">
        <ele>51</ele>
        <time>2020-01-22T08:03:34Z</time>
      </trkpt>
      <trkpt lat="59.309989" lon="18.075402">
        <ele>51</ele>
        <time>2020-01-22T08:03:35Z</time>
      </trkpt>
      <trkpt lat="59.309927" lon="18.075434">
        <ele>51</ele>
        <time>2020-01-22T08:03:36Z</time>
      </trkpt>
      <trkpt lat="59.309864" lon="18.075466">
        <ele>51</ele>
        <time>2020-01-22T08:03:37Z</time>
      </trkpt>
      <trkpt lat="59.309805" lon="18.075492">
        <ele>51</ele>
        <time>2020-01-22T08:03:38Z</time>
      </trkpt>
      <trkpt lat="59.309745" lon="18.075517">
        <ele>51</ele>
        <time>2020-01-22T08:03:39Z</time>
      </trkpt>
      <trkpt lat="59.309685" lon="18.075546">
        <ele>51</ele>
        <time>2020-01-22T08:03:40Z</time>
      </trkpt>
      <trkpt lat="59.309627" lon="18.075576">
        <ele>51</ele>
        <time>2020-01-22T08:03:41Z</time>
      </trkpt>
      <trkpt lat="59.309567" lon="18.075607">
        <ele>51</ele>
        <time>2020-01-22T08:03:42Z</time>
      </trkpt>
      <trkpt lat="59.309506" lon="18.075638">
        <ele>51</ele>
        <time>2020-01-22T08:03:43Z</time>
      </trkpt>
      <trkpt lat="59.309448" lon="18.075668">
        <ele>51</ele>
        <time>2020-01-22T08:03:44Z</time>
      </trkpt>
      <trkpt lat="59.30939" lon="18.075698">
        <ele>51</ele>
        <time>2020-01-22T08:03:45Z</time>
      </trkpt>
      <trkpt lat="59.309334" lon="18.075728">
        <ele>51</ele>
        <time>2020-01-22T08:03:46Z</time>
      </trkpt>
      <trkpt lat="59.309275" lon="18.075757">
        <ele>51</ele>
        <time>2020-01-22T08:03:47Z</time>
      </trkpt>
      <trkpt lat="59.309217" lon="18.075785">
        <ele>51</ele>
        <time>2020-01-22T08:03:48Z</time>
      </trkpt>
      <trkpt lat="59.309158" lon="18.075811">
        <ele>51</ele>
        <time>2020-01-22T08:03:49Z</time>
      </trkpt>
      <trkpt lat="59.309104" lon="18.075832">
        <ele>51</ele>
        <time>2020-01-22T08:03:50Z</time>
      </trkpt>
      <trkpt lat="59.309048" lon="18.075861">
        <ele>51</ele>
        <time>2020-01-22T08:03:51Z</time>
      </trkpt>
      <trkpt lat="59.30899" lon="18.075891">
        <ele>51</ele>
        <time>2020-01-22T08:03:52Z</time>
      </trkpt>
      <trkpt lat="59.308935" lon="18.07592">
        <ele>51</ele>
        <time>2020-01-22T08:03:53Z</time>
      </trkpt>
      <trkpt lat="59.308881" lon="18.075947">
        <ele>52</ele>
        <time>2020-01-22T08:03:54Z</time>
      </trkpt>
      <trkpt lat="59.308828" lon="18.075974">
        <ele>52</ele>
        <time>2020-01-22T08:03:55Z</time>
      </trkpt>
      <trkpt lat="59.308767" lon="18.076006">
        <ele>52</ele>
        <time>2020-01-22T08:03:56Z</time>
      </trkpt>
      <trkpt lat="59.30871" lon="18.076036">
        <ele>52</ele>
        <time>2020-01-22T08:03:57Z</time>
      </trkpt>
      <trkpt lat="59.308652" lon="18.076063">
        <ele>53</ele>
        <time>2020-01-22T08:03:58Z</time>
      </trkpt>
      <trkpt lat="59.308592" lon="18.076092">
        <ele>53</ele>
        <time>2020-01-22T08:03:59Z</time>
      </trkpt>
      <trkpt lat="59.30853" lon="18.076119">
        <ele>53</ele>
        <time>2020-01-22T08:04:00Z</time>
      </trkpt>
      <trkpt lat="59.308478" lon="18.076137">
        <ele>52</ele>
        <time>2020-01-22T08:04:01Z</time>
      </trkpt>
      <trkpt lat="59.308443" lon="18.07616">
        <ele>51</ele>
        <time>2020-01-22T08:04:02Z</time>
      </trkpt>
      <trkpt lat="59.308399" lon="18.076178">
        <ele>52</ele>
        <time>2020-01-22T08:04:03Z</time>
      </trkpt>
      <trkpt lat="59.308356" lon="18.076202">
        <ele>52</ele>
        <time>2020-01-22T08:04:04Z</time>
      </trkpt>
      <trkpt lat="59.308311" lon="18.076227">
        <ele>52</ele>
        <time>2020-01-22T08:04:05Z</time>
      </trkpt>
      <trkpt lat="59.308257" lon="18.076267">
        <ele>52</ele>
        <time>2020-01-22T08:04:06Z</time>
      </trkpt>
      <trkpt lat="59.308208" lon="18.076299">
        <ele>52</ele>
        <time>2020-01-22T08:04:07Z</time>
      </trkpt>
      <trkpt lat="59.308162" lon="18.076328">
        <ele>53</ele>
        <time>2020-01-22T08:04:08Z</time>
      </trkpt>
      <trkpt lat="59.30812" lon="18.07635">
        <ele>53</ele>
        <time>2020-01-22T08:04:09Z</time>
      </trkpt>
      <trkpt lat="59.308077" lon="18.07637">
        <ele>53</ele>
        <time>2020-01-22T08:04:10Z</time>
      </trkpt>
      <trkpt lat="59.308043" lon="18.076385">
        <ele>53</ele>
        <time>2020-01-22T08:04:11Z</time>
      </trkpt>
      <trkpt lat="59.308015" lon="18.076397">
        <ele>53</ele>
        <time>2020-01-22T08:04:12Z</time>
      </trkpt>
      <trkpt lat="59.307994" lon="18.076403">
        <ele>54</ele>
        <time>2020-01-22T08:04:13Z</time>
      </trkpt>
      <trkpt lat="59.307957" lon="18.076412">
        <ele>54</ele>
        <time>2020-01-22T08:04:15Z</time>
      </trkpt>
      <trkpt lat="59.307951" lon="18.076414">
        <ele>0</ele>
        <time>2020-01-22T08:04:22Z</time>
      </trkpt>
      <trkpt lat="59.307918" lon="18.076405">
        <ele>53</ele>
        <time>2020-01-22T08:04:27Z</time>
      </trkpt>
      <trkpt lat="59.307918" lon="18.076406">
        <ele>0</ele>
        <time>2020-01-22T08:04:30Z</time>
      </trkpt>
      <trkpt lat="59.307827" lon="18.076454">
        <ele>52</ele>
        <time>2020-01-22T08:04:55Z</time>
      </trkpt>
      <trkpt lat="59.307793" lon="18.07646">
        <ele>51</ele>
        <time>2020-01-22T08:04:56Z</time>
      </trkpt>
      <trkpt lat="59.307763" lon="18.076472">
        <ele>50</ele>
        <time>2020-01-22T08:04:57Z</time>
      </trkpt>
      <trkpt lat="59.307714" lon="18.0765">
        <ele>50</ele>
        <time>2020-01-22T08:04:58Z</time>
      </trkpt>
      <trkpt lat="59.307655" lon="18.076536">
        <ele>49</ele>
        <time>2020-01-22T08:04:59Z</time>
      </trkpt>
      <trkpt lat="59.307591" lon="18.076569">
        <ele>49</ele>
        <time>2020-01-22T08:05:00Z</time>
      </trkpt>
      <trkpt lat="59.30752" lon="18.076604">
        <ele>48</ele>
        <time>2020-01-22T08:05:01Z</time>
      </trkpt>
      <trkpt lat="59.307448" lon="18.076641">
        <ele>48</ele>
        <time>2020-01-22T08:05:02Z</time>
      </trkpt>
      <trkpt lat="59.307376" lon="18.076678">
        <ele>48</ele>
        <time>2020-01-22T08:05:03Z</time>
      </trkpt>
      <trkpt lat="59.307304" lon="18.076712">
        <ele>47</ele>
        <time>2020-01-22T08:05:04Z</time>
      </trkpt>
      <trkpt lat="59.307229" lon="18.076749">
        <ele>47</ele>
        <time>2020-01-22T08:05:05Z</time>
      </trkpt>
      <trkpt lat="59.307156" lon="18.076785">
        <ele>47</ele>
        <time>2020-01-22T08:05:06Z</time>
      </trkpt>
      <trkpt lat="59.307084" lon="18.076823">
        <ele>47</ele>
        <time>2020-01-22T08:05:07Z</time>
      </trkpt>
      <trkpt lat="59.307012" lon="18.076859">
        <ele>46</ele>
        <time>2020-01-22T08:05:08Z</time>
      </trkpt>
      <trkpt lat="59.306944" lon="18.076893">
        <ele>47</ele>
        <time>2020-01-22T08:05:09Z</time>
      </trkpt>
      <trkpt lat="59.306876" lon="18.076926">
        <ele>47</ele>
        <time>2020-01-22T08:05:10Z</time>
      </trkpt>
      <trkpt lat="59.306811" lon="18.076959">
        <ele>47</ele>
        <time>2020-01-22T08:05:11Z</time>
      </trkpt>
      <trkpt lat="59.306746" lon="18.076992">
        <ele>47</ele>
        <time>2020-01-22T08:05:12Z</time>
      </trkpt>
      <trkpt lat="59.306682" lon="18.077024">
        <ele>47</ele>
        <time>2020-01-22T08:05:13Z</time>
      </trkpt>
      <trkpt lat="59.306609" lon="18.077063">
        <ele>47</ele>
        <time>2020-01-22T08:05:15Z</time>
      </trkpt>
      <trkpt lat="59.30653" lon="18.077107">
        <ele>47</ele>
        <time>2020-01-22T08:05:15Z</time>
      </trkpt>
      <trkpt lat="59.306456" lon="18.077149">
        <ele>46</ele>
        <time>2020-01-22T08:05:16Z</time>
      </trkpt>
      <trkpt lat="59.306377" lon="18.077184">
        <ele>46</ele>
        <time>2020-01-22T08:05:17Z</time>
      </trkpt>
      <trkpt lat="59.306312" lon="18.077225">
        <ele>45</ele>
        <time>2020-01-22T08:05:18Z</time>
      </trkpt>
      <trkpt lat="59.306252" lon="18.077267">
        <ele>44</ele>
        <time>2020-01-22T08:05:19Z</time>
      </trkpt>
      <trkpt lat="59.30619" lon="18.077305">
        <ele>43</ele>
        <time>2020-01-22T08:05:20Z</time>
      </trkpt>
      <trkpt lat="59.306128" lon="18.077343">
        <ele>42</ele>
        <time>2020-01-22T08:05:21Z</time>
      </trkpt>
      <trkpt lat="59.30607" lon="18.077379">
        <ele>41</ele>
        <time>2020-01-22T08:05:22Z</time>
      </trkpt>
      <trkpt lat="59.306014" lon="18.077417">
        <ele>40</ele>
        <time>2020-01-22T08:05:23Z</time>
      </trkpt>
      <trkpt lat="59.305958" lon="18.077456">
        <ele>40</ele>
        <time>2020-01-22T08:05:24Z</time>
      </trkpt>
      <trkpt lat="59.305904" lon="18.077495">
        <ele>39</ele>
        <time>2020-01-22T08:05:25Z</time>
      </trkpt>
      <trkpt lat="59.305848" lon="18.07753">
        <ele>38</ele>
        <time>2020-01-22T08:05:26Z</time>
      </trkpt>
      <trkpt lat="59.305794" lon="18.077565">
        <ele>38</ele>
        <time>2020-01-22T08:05:27Z</time>
      </trkpt>
      <trkpt lat="59.305734" lon="18.077598">
        <ele>37</ele>
        <time>2020-01-22T08:05:28Z</time>
      </trkpt>
      <trkpt lat="59.305677" lon="18.077631">
        <ele>36</ele>
        <time>2020-01-22T08:05:29Z</time>
      </trkpt>
      <trkpt lat="59.305621" lon="18.077663">
        <ele>35</ele>
        <time>2020-01-22T08:05:30Z</time>
      </trkpt>
      <trkpt lat="59.305568" lon="18.077694">
        <ele>35</ele>
        <time>2020-01-22T08:05:31Z</time>
      </trkpt>
      <trkpt lat="59.305513" lon="18.077724">
        <ele>34</ele>
        <time>2020-01-22T08:05:32Z</time>
      </trkpt>
      <trkpt lat="59.305461" lon="18.077756">
        <ele>34</ele>
        <time>2020-01-22T08:05:33Z</time>
      </trkpt>
      <trkpt lat="59.305408" lon="18.07779">
        <ele>34</ele>
        <time>2020-01-22T08:05:34Z</time>
      </trkpt>
      <trkpt lat="59.305356" lon="18.077824">
        <ele>34</ele>
        <time>2020-01-22T08:05:35Z</time>
      </trkpt>
      <trkpt lat="59.305306" lon="18.077858">
        <ele>34</ele>
        <time>2020-01-22T08:05:36Z</time>
      </trkpt>
      <trkpt lat="59.305254" lon="18.07789">
        <ele>34</ele>
        <time>2020-01-22T08:05:37Z</time>
      </trkpt>
      <trkpt lat="59.305202" lon="18.077922">
        <ele>33</ele>
        <time>2020-01-22T08:05:38Z</time>
      </trkpt>
      <trkpt lat="59.30515" lon="18.077954">
        <ele>33</ele>
        <time>2020-01-22T08:05:39Z</time>
      </trkpt>
      <trkpt lat="59.305098" lon="18.077985">
        <ele>33</ele>
        <time>2020-01-22T08:05:40Z</time>
      </trkpt>
      <trkpt lat="59.305047" lon="18.078014">
        <ele>33</ele>
        <time>2020-01-22T08:05:41Z</time>
      </trkpt>
      <trkpt lat="59.304996" lon="18.078044">
        <ele>33</ele>
        <time>2020-01-22T08:05:42Z</time>
      </trkpt>
      <trkpt lat="59.304949" lon="18.078074">
        <ele>33</ele>
        <time>2020-01-22T08:05:43Z</time>
      </trkpt>
      <trkpt lat="59.304902" lon="18.078102">
        <ele>33</ele>
        <time>2020-01-22T08:05:44Z</time>
      </trkpt>
      <trkpt lat="59.304855" lon="18.07813">
        <ele>33</ele>
        <time>2020-01-22T08:05:45Z</time>
      </trkpt>
      <trkpt lat="59.30481" lon="18.078157">
        <ele>33</ele>
        <time>2020-01-22T08:05:46Z</time>
      </trkpt>
      <trkpt lat="59.304766" lon="18.078184">
        <ele>33</ele>
        <time>2020-01-22T08:05:48Z</time>
      </trkpt>
      <trkpt lat="59.304722" lon="18.07821">
        <ele>33</ele>
        <time>2020-01-22T08:05:48Z</time>
      </trkpt>
      <trkpt lat="59.304678" lon="18.078235">
        <ele>33</ele>
        <time>2020-01-22T08:05:49Z</time>
      </trkpt>
      <trkpt lat="59.304636" lon="18.078261">
        <ele>33</ele>
        <time>2020-01-22T08:05:50Z</time>
      </trkpt>
      <trkpt lat="59.304594" lon="18.078288">
        <ele>33</ele>
        <time>2020-01-22T08:05:51Z</time>
      </trkpt>
      <trkpt lat="59.304551" lon="18.078315">
        <ele>33</ele>
        <time>2020-01-22T08:05:52Z</time>
      </trkpt>
      <trkpt lat="59.30451" lon="18.07834">
        <ele>33</ele>
        <time>2020-01-22T08:05:53Z</time>
      </trkpt>
      <trkpt lat="59.304467" lon="18.078366">
        <ele>33</ele>
        <time>2020-01-22T08:05:54Z</time>
      </trkpt>
      <trkpt lat="59.304426" lon="18.078393">
        <ele>33</ele>
        <time>2020-01-22T08:05:55Z</time>
      </trkpt>
      <trkpt lat="59.304384" lon="18.07842">
        <ele>33</ele>
        <time>2020-01-22T08:05:56Z</time>
      </trkpt>
      <trkpt lat="59.304344" lon="18.078446">
        <ele>33</ele>
        <time>2020-01-22T08:05:57Z</time>
      </trkpt>
      <trkpt lat="59.304303" lon="18.078471">
        <ele>33</ele>
        <time>2020-01-22T08:05:58Z</time>
      </trkpt>
      <trkpt lat="59.30426" lon="18.078495">
        <ele>33</ele>
        <time>2020-01-22T08:05:59Z</time>
      </trkpt>
      <trkpt lat="59.304219" lon="18.078519">
        <ele>33</ele>
        <time>2020-01-22T08:06:00Z</time>
      </trkpt>
      <trkpt lat="59.304177" lon="18.078541">
        <ele>33</ele>
        <time>2020-01-22T08:06:01Z</time>
      </trkpt>
      <trkpt lat="59.304136" lon="18.078565">
        <ele>33</ele>
        <time>2020-01-22T08:06:02Z</time>
      </trkpt>
      <trkpt lat="59.304095" lon="18.07859">
        <ele>33</ele>
        <time>2020-01-22T08:06:03Z</time>
      </trkpt>
      <trkpt lat="59.304056" lon="18.078615">
        <ele>33</ele>
        <time>2020-01-22T08:06:04Z</time>
      </trkpt>
      <trkpt lat="59.304017" lon="18.078639">
        <ele>33</ele>
        <time>2020-01-22T08:06:05Z</time>
      </trkpt>
      <trkpt lat="59.303979" lon="18.078664">
        <ele>33</ele>
        <time>2020-01-22T08:06:06Z</time>
      </trkpt>
      <trkpt lat="59.30394" lon="18.078687">
        <ele>33</ele>
        <time>2020-01-22T08:06:07Z</time>
      </trkpt>
      <trkpt lat="59.303902" lon="18.078711">
        <ele>33</ele>
        <time>2020-01-22T08:06:08Z</time>
      </trkpt>
      <trkpt lat="59.303863" lon="18.078734">
        <ele>33</ele>
        <time>2020-01-22T08:06:09Z</time>
      </trkpt>
      <trkpt lat="59.303826" lon="18.078757">
        <ele>34</ele>
        <time>2020-01-22T08:06:10Z</time>
      </trkpt>
      <trkpt lat="59.303788" lon="18.07878">
        <ele>34</ele>
        <time>2020-01-22T08:06:11Z</time>
      </trkpt>
      <trkpt lat="59.303752" lon="18.078802">
        <ele>34</ele>
        <time>2020-01-22T08:06:12Z</time>
      </trkpt>
      <trkpt lat="59.303715" lon="18.078824">
        <ele>34</ele>
        <time>2020-01-22T08:06:13Z</time>
      </trkpt>
      <trkpt lat="59.303678" lon="18.078848">
        <ele>34</ele>
        <time>2020-01-22T08:06:14Z</time>
      </trkpt>
      <trkpt lat="59.303641" lon="18.078872">
        <ele>34</ele>
        <time>2020-01-22T08:06:15Z</time>
      </trkpt>
      <trkpt lat="59.303604" lon="18.078895">
        <ele>34</ele>
        <time>2020-01-22T08:06:16Z</time>
      </trkpt>
      <trkpt lat="59.303567" lon="18.078917">
        <ele>34</ele>
        <time>2020-01-22T08:06:17Z</time>
      </trkpt>
      <trkpt lat="59.30353" lon="18.078941">
        <ele>34</ele>
        <time>2020-01-22T08:06:18Z</time>
      </trkpt>
      <trkpt lat="59.303493" lon="18.078964">
        <ele>34</ele>
        <time>2020-01-22T08:06:19Z</time>
      </trkpt>
      <trkpt lat="59.303455" lon="18.078986">
        <ele>34</ele>
        <time>2020-01-22T08:06:20Z</time>
      </trkpt>
      <trkpt lat="59.303416" lon="18.079008">
        <ele>35</ele>
        <time>2020-01-22T08:06:21Z</time>
      </trkpt>
      <trkpt lat="59.303378" lon="18.079032">
        <ele>35</ele>
        <time>2020-01-22T08:06:22Z</time>
      </trkpt>
      <trkpt lat="59.303339" lon="18.079056">
        <ele>35</ele>
        <time>2020-01-22T08:06:23Z</time>
      </trkpt>
      <trkpt lat="59.3033" lon="18.079081">
        <ele>35</ele>
        <time>2020-01-22T08:06:24Z</time>
      </trkpt>
      <trkpt lat="59.30326" lon="18.079106">
        <ele>35</ele>
        <time>2020-01-22T08:06:25Z</time>
      </trkpt>
      <trkpt lat="59.30322" lon="18.079132">
        <ele>35</ele>
        <time>2020-01-22T08:06:26Z</time>
      </trkpt>
      <trkpt lat="59.30318" lon="18.079158">
        <ele>35</ele>
        <time>2020-01-22T08:06:27Z</time>
      </trkpt>
      <trkpt lat="59.303139" lon="18.079185">
        <ele>35</ele>
        <time>2020-01-22T08:06:28Z</time>
      </trkpt>
      <trkpt lat="59.303097" lon="18.079211">
        <ele>35</ele>
        <time>2020-01-22T08:06:29Z</time>
      </trkpt>
      <trkpt lat="59.303056" lon="18.079236">
        <ele>35</ele>
        <time>2020-01-22T08:06:30Z</time>
      </trkpt>
      <trkpt lat="59.303013" lon="18.079263">
        <ele>35</ele>
        <time>2020-01-22T08:06:31Z</time>
      </trkpt>
      <trkpt lat="59.30297" lon="18.079291">
        <ele>35</ele>
        <time>2020-01-22T08:06:32Z</time>
      </trkpt>
      <trkpt lat="59.302926" lon="18.079318">
        <ele>35</ele>
        <time>2020-01-22T08:06:33Z</time>
      </trkpt>
      <trkpt lat="59.302882" lon="18.079347">
        <ele>35</ele>
        <time>2020-01-22T08:06:34Z</time>
      </trkpt>
      <trkpt lat="59.302837" lon="18.079375">
        <ele>35</ele>
        <time>2020-01-22T08:06:35Z</time>
      </trkpt>
      <trkpt lat="59.302791" lon="18.079403">
        <ele>35</ele>
        <time>2020-01-22T08:06:36Z</time>
      </trkpt>
      <trkpt lat="59.302745" lon="18.079432">
        <ele>35</ele>
        <time>2020-01-22T08:06:37Z</time>
      </trkpt>
      <trkpt lat="59.302698" lon="18.079461">
        <ele>35</ele>
        <time>2020-01-22T08:06:38Z</time>
      </trkpt>
      <trkpt lat="59.302651" lon="18.079491">
        <ele>35</ele>
        <time>2020-01-22T08:06:39Z</time>
      </trkpt>
      <trkpt lat="59.302603" lon="18.079522">
        <ele>35</ele>
        <time>2020-01-22T08:06:40Z</time>
      </trkpt>
      <trkpt lat="59.302554" lon="18.079554">
        <ele>35</ele>
        <time>2020-01-22T08:06:41Z</time>
      </trkpt>
      <trkpt lat="59.302505" lon="18.079584">
        <ele>35</ele>
        <time>2020-01-22T08:06:42Z</time>
      </trkpt>
      <trkpt lat="59.302455" lon="18.079614">
        <ele>35</ele>
        <time>2020-01-22T08:06:43Z</time>
      </trkpt>
      <trkpt lat="59.302404" lon="18.079646">
        <ele>35</ele>
        <time>2020-01-22T08:06:44Z</time>
      </trkpt>
      <trkpt lat="59.302354" lon="18.079679">
        <ele>35</ele>
        <time>2020-01-22T08:06:45Z</time>
      </trkpt>
      <trkpt lat="59.302303" lon="18.079712">
        <ele>35</ele>
        <time>2020-01-22T08:06:46Z</time>
      </trkpt>
      <trkpt lat="59.302251" lon="18.079745">
        <ele>36</ele>
        <time>2020-01-22T08:06:47Z</time>
      </trkpt>
      <trkpt lat="59.302199" lon="18.079779">
        <ele>36</ele>
        <time>2020-01-22T08:06:48Z</time>
      </trkpt>
      <trkpt lat="59.302147" lon="18.079812">
        <ele>36</ele>
        <time>2020-01-22T08:06:49Z</time>
      </trkpt>
      <trkpt lat="59.302095" lon="18.079846">
        <ele>36</ele>
        <time>2020-01-22T08:06:50Z</time>
      </trkpt>
      <trkpt lat="59.302042" lon="18.079879">
        <ele>36</ele>
        <time>2020-01-22T08:06:51Z</time>
      </trkpt>
      <trkpt lat="59.301988" lon="18.079911">
        <ele>36</ele>
        <time>2020-01-22T08:06:52Z</time>
      </trkpt>
      <trkpt lat="59.301934" lon="18.079942">
        <ele>36</ele>
        <time>2020-01-22T08:06:53Z</time>
      </trkpt>
      <trkpt lat="59.30188" lon="18.079973">
        <ele>36</ele>
        <time>2020-01-22T08:06:54Z</time>
      </trkpt>
      <trkpt lat="59.301826" lon="18.080003">
        <ele>36</ele>
        <time>2020-01-22T08:06:55Z</time>
      </trkpt>
      <trkpt lat="59.301771" lon="18.080034">
        <ele>36</ele>
        <time>2020-01-22T08:06:56Z</time>
      </trkpt>
      <trkpt lat="59.301717" lon="18.080066">
        <ele>36</ele>
        <time>2020-01-22T08:06:57Z</time>
      </trkpt>
      <trkpt lat="59.301664" lon="18.080097">
        <ele>36</ele>
        <time>2020-01-22T08:06:58Z</time>
      </trkpt>
      <trkpt lat="59.301609" lon="18.080129">
        <ele>36</ele>
        <time>2020-01-22T08:06:59Z</time>
      </trkpt>
      <trkpt lat="59.301555" lon="18.080164">
        <ele>36</ele>
        <time>2020-01-22T08:07:00Z</time>
      </trkpt>
      <trkpt lat="59.301502" lon="18.080198">
        <ele>36</ele>
        <time>2020-01-22T08:07:01Z</time>
      </trkpt>
      <trkpt lat="59.301448" lon="18.080231">
        <ele>36</ele>
        <time>2020-01-22T08:07:02Z</time>
      </trkpt>
      <trkpt lat="59.301393" lon="18.080262">
        <ele>36</ele>
        <time>2020-01-22T08:07:03Z</time>
      </trkpt>
      <trkpt lat="59.301339" lon="18.080288">
        <ele>36</ele>
        <time>2020-01-22T08:07:04Z</time>
      </trkpt>
      <trkpt lat="59.301286" lon="18.080309">
        <ele>36</ele>
        <time>2020-01-22T08:07:05Z</time>
      </trkpt>
      <trkpt lat="59.301233" lon="18.080327">
        <ele>35</ele>
        <time>2020-01-22T08:07:06Z</time>
      </trkpt>
      <trkpt lat="59.301179" lon="18.080338">
        <ele>35</ele>
        <time>2020-01-22T08:07:07Z</time>
      </trkpt>
      <trkpt lat="59.301125" lon="18.080341">
        <ele>35</ele>
        <time>2020-01-22T08:07:08Z</time>
      </trkpt>
      <trkpt lat="59.301067" lon="18.080335">
        <ele>35</ele>
        <time>2020-01-22T08:07:09Z</time>
      </trkpt>
      <trkpt lat="59.30101" lon="18.080335">
        <ele>35</ele>
        <time>2020-01-22T08:07:10Z</time>
      </trkpt>
      <trkpt lat="59.300952" lon="18.080341">
        <ele>35</ele>
        <time>2020-01-22T08:07:11Z</time>
      </trkpt>
      <trkpt lat="59.300893" lon="18.080356">
        <ele>35</ele>
        <time>2020-01-22T08:07:12Z</time>
      </trkpt>
      <trkpt lat="59.300833" lon="18.08037">
        <ele>35</ele>
        <time>2020-01-22T08:07:13Z</time>
      </trkpt>
      <trkpt lat="59.300777" lon="18.080394">
        <ele>36</ele>
        <time>2020-01-22T08:07:14Z</time>
      </trkpt>
      <trkpt lat="59.300718" lon="18.080424">
        <ele>36</ele>
        <time>2020-01-22T08:07:15Z</time>
      </trkpt>
      <trkpt lat="59.300661" lon="18.080458">
        <ele>36</ele>
        <time>2020-01-22T08:07:16Z</time>
      </trkpt>
      <trkpt lat="59.300603" lon="18.080496">
        <ele>36</ele>
        <time>2020-01-22T08:07:17Z</time>
      </trkpt>
      <trkpt lat="59.300547" lon="18.080531">
        <ele>36</ele>
        <time>2020-01-22T08:07:18Z</time>
      </trkpt>
      <trkpt lat="59.300491" lon="18.080564">
        <ele>36</ele>
        <time>2020-01-22T08:07:19Z</time>
      </trkpt>
      <trkpt lat="59.300435" lon="18.080598">
        <ele>36</ele>
        <time>2020-01-22T08:07:20Z</time>
      </trkpt>
      <trkpt lat="59.300378" lon="18.080633">
        <ele>36</ele>
        <time>2020-01-22T08:07:21Z</time>
      </trkpt>
      <trkpt lat="59.300324" lon="18.080672">
        <ele>36</ele>
        <time>2020-01-22T08:07:22Z</time>
      </trkpt>
      <trkpt lat="59.300268" lon="18.080709">
        <ele>36</ele>
        <time>2020-01-22T08:07:23Z</time>
      </trkpt>
      <trkpt lat="59.30021" lon="18.080742">
        <ele>36</ele>
        <time>2020-01-22T08:07:24Z</time>
      </trkpt>
      <trkpt lat="59.300151" lon="18.080776">
        <ele>36</ele>
        <time>2020-01-22T08:07:25Z</time>
      </trkpt>
      <trkpt lat="59.300092" lon="18.08081">
        <ele>36</ele>
        <time>2020-01-22T08:07:26Z</time>
      </trkpt>
      <trkpt lat="59.300035" lon="18.080848">
        <ele>36</ele>
        <time>2020-01-22T08:07:27Z</time>
      </trkpt>
      <trkpt lat="59.299978" lon="18.080884">
        <ele>36</ele>
        <time>2020-01-22T08:07:28Z</time>
      </trkpt>
      <trkpt lat="59.299921" lon="18.080919">
        <ele>36</ele>
        <time>2020-01-22T08:07:29Z</time>
      </trkpt>
      <trkpt lat="59.299862" lon="18.080952">
        <ele>37</ele>
        <time>2020-01-22T08:07:30Z</time>
      </trkpt>
      <trkpt lat="59.299803" lon="18.080986">
        <ele>37</ele>
        <time>2020-01-22T08:07:31Z</time>
      </trkpt>
      <trkpt lat="59.299743" lon="18.08102">
        <ele>37</ele>
        <time>2020-01-22T08:07:32Z</time>
      </trkpt>
      <trkpt lat="59.299683" lon="18.081056">
        <ele>37</ele>
        <time>2020-01-22T08:07:33Z</time>
      </trkpt>
      <trkpt lat="59.299623" lon="18.081093">
        <ele>37</ele>
        <time>2020-01-22T08:07:34Z</time>
      </trkpt>
      <trkpt lat="59.299565" lon="18.081127">
        <ele>38</ele>
        <time>2020-01-22T08:07:35Z</time>
      </trkpt>
      <trkpt lat="59.299506" lon="18.081163">
        <ele>38</ele>
        <time>2020-01-22T08:07:36Z</time>
      </trkpt>
      <trkpt lat="59.299447" lon="18.081202">
        <ele>38</ele>
        <time>2020-01-22T08:07:37Z</time>
      </trkpt>
      <trkpt lat="59.299388" lon="18.081241">
        <ele>38</ele>
        <time>2020-01-22T08:07:38Z</time>
      </trkpt>
      <trkpt lat="59.299332" lon="18.081279">
        <ele>37</ele>
        <time>2020-01-22T08:07:39Z</time>
      </trkpt>
      <trkpt lat="59.299278" lon="18.081314">
        <ele>37</ele>
        <time>2020-01-22T08:07:40Z</time>
      </trkpt>
      <trkpt lat="59.299224" lon="18.081347">
        <ele>37</ele>
        <time>2020-01-22T08:07:41Z</time>
      </trkpt>
      <trkpt lat="59.299173" lon="18.081378">
        <ele>37</ele>
        <time>2020-01-22T08:07:42Z</time>
      </trkpt>
      <trkpt lat="59.299119" lon="18.081419">
        <ele>37</ele>
        <time>2020-01-22T08:07:43Z</time>
      </trkpt>
      <trkpt lat="59.299056" lon="18.08147">
        <ele>37</ele>
        <time>2020-01-22T08:07:44Z</time>
      </trkpt>
      <trkpt lat="59.298997" lon="18.081523">
        <ele>37</ele>
        <time>2020-01-22T08:07:45Z</time>
      </trkpt>
      <trkpt lat="59.298943" lon="18.081577">
        <ele>37</ele>
        <time>2020-01-22T08:07:47Z</time>
      </trkpt>
      <trkpt lat="59.298882" lon="18.081634">
        <ele>37</ele>
        <time>2020-01-22T08:07:47Z</time>
      </trkpt>
      <trkpt lat="59.298821" lon="18.081699">
        <ele>37</ele>
        <time>2020-01-22T08:07:48Z</time>
      </trkpt>
      <trkpt lat="59.298759" lon="18.081754">
        <ele>37</ele>
        <time>2020-01-22T08:07:49Z</time>
      </trkpt>
      <trkpt lat="59.298701" lon="18.081803">
        <ele>37</ele>
        <time>2020-01-22T08:07:50Z</time>
      </trkpt>
      <trkpt lat="59.298645" lon="18.081848">
        <ele>37</ele>
        <time>2020-01-22T08:07:51Z</time>
      </trkpt>
      <trkpt lat="59.298591" lon="18.081891">
        <ele>37</ele>
        <time>2020-01-22T08:07:52Z</time>
      </trkpt>
      <trkpt lat="59.298538" lon="18.081936">
        <ele>37</ele>
        <time>2020-01-22T08:07:53Z</time>
      </trkpt>
      <trkpt lat="59.298485" lon="18.08198">
        <ele>37</ele>
        <time>2020-01-22T08:07:54Z</time>
      </trkpt>
      <trkpt lat="59.298433" lon="18.082021">
        <ele>37</ele>
        <time>2020-01-22T08:07:55Z</time>
      </trkpt>
      <trkpt lat="59.298381" lon="18.082061">
        <ele>38</ele>
        <time>2020-01-22T08:07:56Z</time>
      </trkpt>
      <trkpt lat="59.298331" lon="18.0821">
        <ele>38</ele>
        <time>2020-01-22T08:07:57Z</time>
      </trkpt>
      <trkpt lat="59.298281" lon="18.082143">
        <ele>38</ele>
        <time>2020-01-22T08:07:58Z</time>
      </trkpt>
      <trkpt lat="59.298231" lon="18.082178">
        <ele>38</ele>
        <time>2020-01-22T08:07:59Z</time>
      </trkpt>
      <trkpt lat="59.298181" lon="18.082209">
        <ele>38</ele>
        <time>2020-01-22T08:08:00Z</time>
      </trkpt>
      <trkpt lat="59.298133" lon="18.082246">
        <ele>38</ele>
        <time>2020-01-22T08:08:01Z</time>
      </trkpt>
      <trkpt lat="59.298085" lon="18.082277">
        <ele>38</ele>
        <time>2020-01-22T08:08:02Z</time>
      </trkpt>
      <trkpt lat="59.298037" lon="18.082312">
        <ele>38</ele>
        <time>2020-01-22T08:08:03Z</time>
      </trkpt>
      <trkpt lat="59.29799" lon="18.082342">
        <ele>38</ele>
        <time>2020-01-22T08:08:04Z</time>
      </trkpt>
      <trkpt lat="59.297942" lon="18.082374">
        <ele>38</ele>
        <time>2020-01-22T08:08:05Z</time>
      </trkpt>
      <trkpt lat="59.297893" lon="18.082402">
        <ele>38</ele>
        <time>2020-01-22T08:08:06Z</time>
      </trkpt>
      <trkpt lat="59.297844" lon="18.082429">
        <ele>38</ele>
        <time>2020-01-22T08:08:07Z</time>
      </trkpt>
      <trkpt lat="59.297794" lon="18.082458">
        <ele>39</ele>
        <time>2020-01-22T08:08:08Z</time>
      </trkpt>
      <trkpt lat="59.297745" lon="18.082487">
        <ele>39</ele>
        <time>2020-01-22T08:08:09Z</time>
      </trkpt>
      <trkpt lat="59.297697" lon="18.082516">
        <ele>39</ele>
        <time>2020-01-22T08:08:10Z</time>
      </trkpt>
      <trkpt lat="59.297649" lon="18.082543">
        <ele>39</ele>
        <time>2020-01-22T08:08:11Z</time>
      </trkpt>
      <trkpt lat="59.297601" lon="18.082572">
        <ele>39</ele>
        <time>2020-01-22T08:08:12Z</time>
      </trkpt>
      <trkpt lat="59.297553" lon="18.082599">
        <ele>39</ele>
        <time>2020-01-22T08:08:13Z</time>
      </trkpt>
      <trkpt lat="59.297504" lon="18.082625">
        <ele>39</ele>
        <time>2020-01-22T08:08:14Z</time>
      </trkpt>
      <trkpt lat="59.297456" lon="18.082652">
        <ele>39</ele>
        <time>2020-01-22T08:08:15Z</time>
      </trkpt>
      <trkpt lat="59.297408" lon="18.082677">
        <ele>39</ele>
        <time>2020-01-22T08:08:16Z</time>
      </trkpt>
      <trkpt lat="59.297359" lon="18.082699">
        <ele>39</ele>
        <time>2020-01-22T08:08:17Z</time>
      </trkpt>
      <trkpt lat="59.297309" lon="18.082715">
        <ele>39</ele>
        <time>2020-01-22T08:08:18Z</time>
      </trkpt>
      <trkpt lat="59.297259" lon="18.08273">
        <ele>40</ele>
        <time>2020-01-22T08:08:19Z</time>
      </trkpt>
      <trkpt lat="59.297209" lon="18.082745">
        <ele>40</ele>
        <time>2020-01-22T08:08:20Z</time>
      </trkpt>
      <trkpt lat="59.297159" lon="18.08276">
        <ele>40</ele>
        <time>2020-01-22T08:08:21Z</time>
      </trkpt>
      <trkpt lat="59.297111" lon="18.082779">
        <ele>40</ele>
        <time>2020-01-22T08:08:22Z</time>
      </trkpt>
      <trkpt lat="59.297063" lon="18.082802">
        <ele>40</ele>
        <time>2020-01-22T08:08:23Z</time>
      </trkpt>
      <trkpt lat="59.297016" lon="18.082823">
        <ele>40</ele>
        <time>2020-01-22T08:08:24Z</time>
      </trkpt>
      <trkpt lat="59.296968" lon="18.082842">
        <ele>40</ele>
        <time>2020-01-22T08:08:25Z</time>
      </trkpt>
      <trkpt lat="59.296921" lon="18.082867">
        <ele>40</ele>
        <time>2020-01-22T08:08:26Z</time>
      </trkpt>
      <trkpt lat="59.296876" lon="18.082907">
        <ele>40</ele>
        <time>2020-01-22T08:08:27Z</time>
      </trkpt>
      <trkpt lat="59.296833" lon="18.082955">
        <ele>41</ele>
        <time>2020-01-22T08:08:28Z</time>
      </trkpt>
      <trkpt lat="59.296789" lon="18.082999">
        <ele>41</ele>
        <time>2020-01-22T08:08:29Z</time>
      </trkpt>
      <trkpt lat="59.296746" lon="18.083045">
        <ele>41</ele>
        <time>2020-01-22T08:08:30Z</time>
      </trkpt>
      <trkpt lat="59.296704" lon="18.083093">
        <ele>41</ele>
        <time>2020-01-22T08:08:31Z</time>
      </trkpt>
      <trkpt lat="59.296663" lon="18.083142">
        <ele>41</ele>
        <time>2020-01-22T08:08:32Z</time>
      </trkpt>
      <trkpt lat="59.296621" lon="18.083192">
        <ele>41</ele>
        <time>2020-01-22T08:08:33Z</time>
      </trkpt>
      <trkpt lat="59.296579" lon="18.083242">
        <ele>42</ele>
        <time>2020-01-22T08:08:34Z</time>
      </trkpt>
      <trkpt lat="59.296536" lon="18.083285">
        <ele>42</ele>
        <time>2020-01-22T08:08:35Z</time>
      </trkpt>
      <trkpt lat="59.296489" lon="18.083321">
        <ele>42</ele>
        <time>2020-01-22T08:08:36Z</time>
      </trkpt>
      <trkpt lat="59.29644" lon="18.083349">
        <ele>42</ele>
        <time>2020-01-22T08:08:37Z</time>
      </trkpt>
      <trkpt lat="59.296388" lon="18.083375">
        <ele>42</ele>
        <time>2020-01-22T08:08:38Z</time>
      </trkpt>
      <trkpt lat="59.296336" lon="18.083403">
        <ele>42</ele>
        <time>2020-01-22T08:08:39Z</time>
      </trkpt>
      <trkpt lat="59.296283" lon="18.083432">
        <ele>42</ele>
        <time>2020-01-22T08:08:40Z</time>
      </trkpt>
      <trkpt lat="59.296229" lon="18.083461">
        <ele>42</ele>
        <time>2020-01-22T08:08:41Z</time>
      </trkpt>
      <trkpt lat="59.296174" lon="18.083491">
        <ele>42</ele>
        <time>2020-01-22T08:08:42Z</time>
      </trkpt>
      <trkpt lat="59.296119" lon="18.083522">
        <ele>42</ele>
        <time>2020-01-22T08:08:43Z</time>
      </trkpt>
      <trkpt lat="59.296065" lon="18.083554">
        <ele>42</ele>
        <time>2020-01-22T08:08:44Z</time>
      </trkpt>
      <trkpt lat="59.296012" lon="18.083586">
        <ele>42</ele>
        <time>2020-01-22T08:08:45Z</time>
      </trkpt>
      <trkpt lat="59.295959" lon="18.083619">
        <ele>42</ele>
        <time>2020-01-22T08:08:46Z</time>
      </trkpt>
      <trkpt lat="59.295905" lon="18.083653">
        <ele>42</ele>
        <time>2020-01-22T08:08:47Z</time>
      </trkpt>
      <trkpt lat="59.295851" lon="18.083687">
        <ele>42</ele>
        <time>2020-01-22T08:08:48Z</time>
      </trkpt>
      <trkpt lat="59.295796" lon="18.08372">
        <ele>42</ele>
        <time>2020-01-22T08:08:49Z</time>
      </trkpt>
      <trkpt lat="59.29574" lon="18.083753">
        <ele>43</ele>
        <time>2020-01-22T08:08:50Z</time>
      </trkpt>
      <trkpt lat="59.295683" lon="18.083786">
        <ele>43</ele>
        <time>2020-01-22T08:08:51Z</time>
      </trkpt>
      <trkpt lat="59.295626" lon="18.083821">
        <ele>43</ele>
        <time>2020-01-22T08:08:52Z</time>
      </trkpt>
      <trkpt lat="59.295568" lon="18.083859">
        <ele>43</ele>
        <time>2020-01-22T08:08:53Z</time>
      </trkpt>
      <trkpt lat="59.29551" lon="18.083896">
        <ele>43</ele>
        <time>2020-01-22T08:08:54Z</time>
      </trkpt>
      <trkpt lat="59.29545" lon="18.083933">
        <ele>43</ele>
        <time>2020-01-22T08:08:55Z</time>
      </trkpt>
      <trkpt lat="59.29539" lon="18.083971">
        <ele>43</ele>
        <time>2020-01-22T08:08:56Z</time>
      </trkpt>
      <trkpt lat="59.29533" lon="18.08401">
        <ele>43</ele>
        <time>2020-01-22T08:08:57Z</time>
      </trkpt>
      <trkpt lat="59.295268" lon="18.084049">
        <ele>42</ele>
        <time>2020-01-22T08:08:58Z</time>
      </trkpt>
      <trkpt lat="59.295208" lon="18.08409">
        <ele>42</ele>
        <time>2020-01-22T08:08:59Z</time>
      </trkpt>
      <trkpt lat="59.295147" lon="18.084129">
        <ele>42</ele>
        <time>2020-01-22T08:09:00Z</time>
      </trkpt>
      <trkpt lat="59.295084" lon="18.084167">
        <ele>42</ele>
        <time>2020-01-22T08:09:01Z</time>
      </trkpt>
      <trkpt lat="59.295022" lon="18.084202">
        <ele>42</ele>
        <time>2020-01-22T08:09:02Z</time>
      </trkpt>
      <trkpt lat="59.294958" lon="18.084238">
        <ele>43</ele>
        <time>2020-01-22T08:09:03Z</time>
      </trkpt>
      <trkpt lat="59.294893" lon="18.084276">
        <ele>43</ele>
        <time>2020-01-22T08:09:04Z</time>
      </trkpt>
      <trkpt lat="59.29483" lon="18.084313">
        <ele>43</ele>
        <time>2020-01-22T08:09:05Z</time>
      </trkpt>
      <trkpt lat="59.294765" lon="18.084347">
        <ele>43</ele>
        <time>2020-01-22T08:09:06Z</time>
      </trkpt>
      <trkpt lat="59.2947" lon="18.084375">
        <ele>43</ele>
        <time>2020-01-22T08:09:07Z</time>
      </trkpt>
      <trkpt lat="59.294632" lon="18.084405">
        <ele>43</ele>
        <time>2020-01-22T08:09:08Z</time>
      </trkpt>
      <trkpt lat="59.294566" lon="18.084437">
        <ele>43</ele>
        <time>2020-01-22T08:09:09Z</time>
      </trkpt>
      <trkpt lat="59.294502" lon="18.084472">
        <ele>43</ele>
        <time>2020-01-22T08:09:10Z</time>
      </trkpt>
      <trkpt lat="59.294434" lon="18.084506">
        <ele>43</ele>
        <time>2020-01-22T08:09:11Z</time>
      </trkpt>
      <trkpt lat="59.294368" lon="18.084536">
        <ele>43</ele>
        <time>2020-01-22T08:09:12Z</time>
      </trkpt>
      <trkpt lat="59.294303" lon="18.084568">
        <ele>43</ele>
        <time>2020-01-22T08:09:13Z</time>
      </trkpt>
      <trkpt lat="59.294244" lon="18.084605">
        <ele>44</ele>
        <time>2020-01-22T08:09:14Z</time>
      </trkpt>
      <trkpt lat="59.294186" lon="18.084658">
        <ele>45</ele>
        <time>2020-01-22T08:09:15Z</time>
      </trkpt>
      <trkpt lat="59.294111" lon="18.084709">
        <ele>45</ele>
        <time>2020-01-22T08:09:16Z</time>
      </trkpt>
      <trkpt lat="59.294031" lon="18.084752">
        <ele>45</ele>
        <time>2020-01-22T08:09:17Z</time>
      </trkpt>
      <trkpt lat="59.29396" lon="18.084785">
        <ele>46</ele>
        <time>2020-01-22T08:09:18Z</time>
      </trkpt>
      <trkpt lat="59.293886" lon="18.084818">
        <ele>46</ele>
        <time>2020-01-22T08:09:19Z</time>
      </trkpt>
      <trkpt lat="59.293805" lon="18.084859">
        <ele>46</ele>
        <time>2020-01-22T08:09:20Z</time>
      </trkpt>
      <trkpt lat="59.29372" lon="18.084896">
        <ele>46</ele>
        <time>2020-01-22T08:09:21Z</time>
      </trkpt>
      <trkpt lat="59.293642" lon="18.084924">
        <ele>46</ele>
        <time>2020-01-22T08:09:22Z</time>
      </trkpt>
      <trkpt lat="59.293562" lon="18.084953">
        <ele>46</ele>
        <time>2020-01-22T08:09:23Z</time>
      </trkpt>
      <trkpt lat="59.293483" lon="18.08498">
        <ele>46</ele>
        <time>2020-01-22T08:09:24Z</time>
      </trkpt>
      <trkpt lat="59.293407" lon="18.085003">
        <ele>46</ele>
        <time>2020-01-22T08:09:25Z</time>
      </trkpt>
      <trkpt lat="59.293335" lon="18.085029">
        <ele>46</ele>
        <time>2020-01-22T08:09:26Z</time>
      </trkpt>
      <trkpt lat="59.293266" lon="18.08505">
        <ele>46</ele>
        <time>2020-01-22T08:09:27Z</time>
      </trkpt>
      <trkpt lat="59.293198" lon="18.085069">
        <ele>46</ele>
        <time>2020-01-22T08:09:28Z</time>
      </trkpt>
      <trkpt lat="59.293132" lon="18.085088">
        <ele>46</ele>
        <time>2020-01-22T08:09:29Z</time>
      </trkpt>
      <trkpt lat="59.29307" lon="18.085108">
        <ele>46</ele>
        <time>2020-01-22T08:09:30Z</time>
      </trkpt>
      <trkpt lat="59.29301" lon="18.085127">
        <ele>46</ele>
        <time>2020-01-22T08:09:31Z</time>
      </trkpt>
      <trkpt lat="59.292954" lon="18.085143">
        <ele>46</ele>
        <time>2020-01-22T08:09:32Z</time>
      </trkpt>
      <trkpt lat="59.292899" lon="18.085149">
        <ele>46</ele>
        <time>2020-01-22T08:09:33Z</time>
      </trkpt>
      <trkpt lat="59.292846" lon="18.085143">
        <ele>46</ele>
        <time>2020-01-22T08:09:34Z</time>
      </trkpt>
      <trkpt lat="59.292797" lon="18.085118">
        <ele>46</ele>
        <time>2020-01-22T08:09:35Z</time>
      </trkpt>
      <trkpt lat="59.292751" lon="18.085076">
        <ele>46</ele>
        <time>2020-01-22T08:09:36Z</time>
      </trkpt>
      <trkpt lat="59.292707" lon="18.085029">
        <ele>46</ele>
        <time>2020-01-22T08:09:37Z</time>
      </trkpt>
      <trkpt lat="59.292659" lon="18.084989">
        <ele>46</ele>
        <time>2020-01-22T08:09:38Z</time>
      </trkpt>
      <trkpt lat="59.292608" lon="18.084962">
        <ele>46</ele>
        <time>2020-01-22T08:09:39Z</time>
      </trkpt>
      <trkpt lat="59.292556" lon="18.084958">
        <ele>46</ele>
        <time>2020-01-22T08:09:40Z</time>
      </trkpt>
      <trkpt lat="59.292502" lon="18.08498">
        <ele>45</ele>
        <time>2020-01-22T08:09:41Z</time>
      </trkpt>
      <trkpt lat="59.292449" lon="18.085019">
        <ele>45</ele>
        <time>2020-01-22T08:09:42Z</time>
      </trkpt>
      <trkpt lat="59.292399" lon="18.085065">
        <ele>45</ele>
        <time>2020-01-22T08:09:43Z</time>
      </trkpt>
      <trkpt lat="59.29235" lon="18.08511">
        <ele>45</ele>
        <time>2020-01-22T08:09:44Z</time>
      </trkpt>
      <trkpt lat="59.292293" lon="18.085153">
        <ele>45</ele>
        <time>2020-01-22T08:09:45Z</time>
      </trkpt>
      <trkpt lat="59.292238" lon="18.085191">
        <ele>45</ele>
        <time>2020-01-22T08:09:46Z</time>
      </trkpt>
      <trkpt lat="59.292181" lon="18.085232">
        <ele>45</ele>
        <time>2020-01-22T08:09:47Z</time>
      </trkpt>
      <trkpt lat="59.292128" lon="18.085279">
        <ele>45</ele>
        <time>2020-01-22T08:09:48Z</time>
      </trkpt>
      <trkpt lat="59.292078" lon="18.085322">
        <ele>45</ele>
        <time>2020-01-22T08:09:49Z</time>
      </trkpt>
      <trkpt lat="59.292024" lon="18.085376">
        <ele>45</ele>
        <time>2020-01-22T08:09:50Z</time>
      </trkpt>
      <trkpt lat="59.291962" lon="18.085434">
        <ele>44</ele>
        <time>2020-01-22T08:09:51Z</time>
      </trkpt>
      <trkpt lat="59.291894" lon="18.085496">
        <ele>44</ele>
        <time>2020-01-22T08:09:52Z</time>
      </trkpt>
      <trkpt lat="59.291828" lon="18.085558">
        <ele>44</ele>
        <time>2020-01-22T08:09:53Z</time>
      </trkpt>
      <trkpt lat="59.291759" lon="18.085611">
        <ele>44</ele>
        <time>2020-01-22T08:09:54Z</time>
      </trkpt>
      <trkpt lat="59.291615" lon="18.085737">
        <ele>43</ele>
        <time>2020-01-22T08:09:56Z</time>
      </trkpt>
      <trkpt lat="59.291487" lon="18.085868">
        <ele>43</ele>
        <time>2020-01-22T08:09:58Z</time>
      </trkpt>
      <trkpt lat="59.291423" lon="18.08594">
        <ele>42</ele>
        <time>2020-01-22T08:09:59Z</time>
      </trkpt>
      <trkpt lat="59.291357" lon="18.086003">
        <ele>42</ele>
        <time>2020-01-22T08:10:00Z</time>
      </trkpt>
      <trkpt lat="59.291293" lon="18.086062">
        <ele>42</ele>
        <time>2020-01-22T08:10:01Z</time>
      </trkpt>
      <trkpt lat="59.291233" lon="18.086122">
        <ele>42</ele>
        <time>2020-01-22T08:10:02Z</time>
      </trkpt>
      <trkpt lat="59.291176" lon="18.086184">
        <ele>42</ele>
        <time>2020-01-22T08:10:03Z</time>
      </trkpt>
      <trkpt lat="59.291113" lon="18.086244">
        <ele>42</ele>
        <time>2020-01-22T08:10:04Z</time>
      </trkpt>
      <trkpt lat="59.291056" lon="18.08629">
        <ele>42</ele>
        <time>2020-01-22T08:10:05Z</time>
      </trkpt>
      <trkpt lat="59.290991" lon="18.086348">
        <ele>41</ele>
        <time>2020-01-22T08:10:06Z</time>
      </trkpt>
      <trkpt lat="59.290925" lon="18.086398">
        <ele>42</ele>
        <time>2020-01-22T08:10:07Z</time>
      </trkpt>
      <trkpt lat="59.290859" lon="18.086456">
        <ele>42</ele>
        <time>2020-01-22T08:10:08Z</time>
      </trkpt>
      <trkpt lat="59.290793" lon="18.086502">
        <ele>43</ele>
        <time>2020-01-22T08:10:09Z</time>
      </trkpt>
      <trkpt lat="59.290732" lon="18.086526">
        <ele>43</ele>
        <time>2020-01-22T08:10:10Z</time>
      </trkpt>
      <trkpt lat="59.290672" lon="18.086538">
        <ele>43</ele>
        <time>2020-01-22T08:10:11Z</time>
      </trkpt>
      <trkpt lat="59.290614" lon="18.086544">
        <ele>44</ele>
        <time>2020-01-22T08:10:12Z</time>
      </trkpt>
      <trkpt lat="59.290555" lon="18.086542">
        <ele>44</ele>
        <time>2020-01-22T08:10:13Z</time>
      </trkpt>
      <trkpt lat="59.290496" lon="18.086546">
        <ele>45</ele>
        <time>2020-01-22T08:10:14Z</time>
      </trkpt>
      <trkpt lat="59.290438" lon="18.08661">
        <ele>45</ele>
        <time>2020-01-22T08:10:15Z</time>
      </trkpt>
      <trkpt lat="59.290379" lon="18.086646">
        <ele>46</ele>
        <time>2020-01-22T08:10:16Z</time>
      </trkpt>
      <trkpt lat="59.29032" lon="18.086668">
        <ele>46</ele>
        <time>2020-01-22T08:10:17Z</time>
      </trkpt>
      <trkpt lat="59.29026" lon="18.086684">
        <ele>46</ele>
        <time>2020-01-22T08:10:18Z</time>
      </trkpt>
      <trkpt lat="59.290198" lon="18.0867">
        <ele>46</ele>
        <time>2020-01-22T08:10:19Z</time>
      </trkpt>
      <trkpt lat="59.290133" lon="18.086718">
        <ele>46</ele>
        <time>2020-01-22T08:10:20Z</time>
      </trkpt>
      <trkpt lat="59.290066" lon="18.086746">
        <ele>46</ele>
        <time>2020-01-22T08:10:21Z</time>
      </trkpt>
      <trkpt lat="59.289994" lon="18.086752">
        <ele>45</ele>
        <time>2020-01-22T08:10:22Z</time>
      </trkpt>
      <trkpt lat="59.289921" lon="18.086762">
        <ele>44</ele>
        <time>2020-01-22T08:10:23Z</time>
      </trkpt>
      <trkpt lat="59.289844" lon="18.08676">
        <ele>42</ele>
        <time>2020-01-22T08:10:24Z</time>
      </trkpt>
      <trkpt lat="59.289765" lon="18.086768">
        <ele>41</ele>
        <time>2020-01-22T08:10:25Z</time>
      </trkpt>
      <trkpt lat="59.289685" lon="18.086786">
        <ele>39</ele>
        <time>2020-01-22T08:10:26Z</time>
      </trkpt>
      <trkpt lat="59.289602" lon="18.086808">
        <ele>38</ele>
        <time>2020-01-22T08:10:27Z</time>
      </trkpt>
      <trkpt lat="59.289517" lon="18.086836">
        <ele>37</ele>
        <time>2020-01-22T08:10:28Z</time>
      </trkpt>
      <trkpt lat="59.28943" lon="18.086866">
        <ele>36</ele>
        <time>2020-01-22T08:10:29Z</time>
      </trkpt>
      <trkpt lat="59.289342" lon="18.086902">
        <ele>35</ele>
        <time>2020-01-22T08:10:30Z</time>
      </trkpt>
      <trkpt lat="59.289252" lon="18.086946">
        <ele>34</ele>
        <time>2020-01-22T08:10:31Z</time>
      </trkpt>
      <trkpt lat="59.289161" lon="18.086992">
        <ele>33</ele>
        <time>2020-01-22T08:10:32Z</time>
      </trkpt>
      <trkpt lat="59.289069" lon="18.08704">
        <ele>33</ele>
        <time>2020-01-22T08:10:33Z</time>
      </trkpt>
      <trkpt lat="59.288975" lon="18.087086">
        <ele>32</ele>
        <time>2020-01-22T08:10:34Z</time>
      </trkpt>
      <trkpt lat="59.28888" lon="18.08713">
        <ele>31</ele>
        <time>2020-01-22T08:10:35Z</time>
      </trkpt>
      <trkpt lat="59.288783" lon="18.087176">
        <ele>30</ele>
        <time>2020-01-22T08:10:36Z</time>
      </trkpt>
      <trkpt lat="59.288684" lon="18.08722">
        <ele>30</ele>
        <time>2020-01-22T08:10:37Z</time>
      </trkpt>
      <trkpt lat="59.288587" lon="18.087244">
        <ele>30</ele>
        <time>2020-01-22T08:10:38Z</time>
      </trkpt>
      <trkpt lat="59.288488" lon="18.087282">
        <ele>30</ele>
        <time>2020-01-22T08:10:39Z</time>
      </trkpt>
      <trkpt lat="59.288384" lon="18.087322">
        <ele>30</ele>
        <time>2020-01-22T08:10:40Z</time>
      </trkpt>
      <trkpt lat="59.28828" lon="18.087342">
        <ele>30</ele>
        <time>2020-01-22T08:10:41Z</time>
      </trkpt>
      <trkpt lat="59.288188" lon="18.087372">
        <ele>30</ele>
        <time>2020-01-22T08:10:42Z</time>
      </trkpt>
      <trkpt lat="59.288094" lon="18.087406">
        <ele>30</ele>
        <time>2020-01-22T08:10:43Z</time>
      </trkpt>
      <trkpt lat="59.288008" lon="18.087452">
        <ele>30</ele>
        <time>2020-01-22T08:10:44Z</time>
      </trkpt>
      <trkpt lat="59.287932" lon="18.087492">
        <ele>31</ele>
        <time>2020-01-22T08:10:45Z</time>
      </trkpt>
      <trkpt lat="59.287865" lon="18.087528">
        <ele>31</ele>
        <time>2020-01-22T08:10:46Z</time>
      </trkpt>
      <trkpt lat="59.287796" lon="18.087574">
        <ele>31</ele>
        <time>2020-01-22T08:10:47Z</time>
      </trkpt>
      <trkpt lat="59.287733" lon="18.08762">
        <ele>31</ele>
        <time>2020-01-22T08:10:48Z</time>
      </trkpt>
      <trkpt lat="59.28767" lon="18.087666">
        <ele>31</ele>
        <time>2020-01-22T08:10:49Z</time>
      </trkpt>
      <trkpt lat="59.287609" lon="18.08771">
        <ele>32</ele>
        <time>2020-01-22T08:10:51Z</time>
      </trkpt>
      <trkpt lat="59.287546" lon="18.087754">
        <ele>33</ele>
        <time>2020-01-22T08:10:51Z</time>
      </trkpt>
      <trkpt lat="59.28749" lon="18.087796">
        <ele>33</ele>
        <time>2020-01-22T08:10:52Z</time>
      </trkpt>
      <trkpt lat="59.287436" lon="18.087838">
        <ele>33</ele>
        <time>2020-01-22T08:10:53Z</time>
      </trkpt>
      <trkpt lat="59.287382" lon="18.087886">
        <ele>33</ele>
        <time>2020-01-22T08:10:54Z</time>
      </trkpt>
      <trkpt lat="59.287328" lon="18.087934">
        <ele>33</ele>
        <time>2020-01-22T08:10:55Z</time>
      </trkpt>
      <trkpt lat="59.287273" lon="18.087978">
        <ele>33</ele>
        <time>2020-01-22T08:10:56Z</time>
      </trkpt>
      <trkpt lat="59.287215" lon="18.088016">
        <ele>33</ele>
        <time>2020-01-22T08:10:57Z</time>
      </trkpt>
      <trkpt lat="59.287157" lon="18.08805">
        <ele>34</ele>
        <time>2020-01-22T08:10:58Z</time>
      </trkpt>
      <trkpt lat="59.287097" lon="18.08808">
        <ele>34</ele>
        <time>2020-01-22T08:10:59Z</time>
      </trkpt>
      <trkpt lat="59.287038" lon="18.08811">
        <ele>34</ele>
        <time>2020-01-22T08:11:00Z</time>
      </trkpt>
      <trkpt lat="59.28698" lon="18.088138">
        <ele>34</ele>
        <time>2020-01-22T08:11:01Z</time>
      </trkpt>
      <trkpt lat="59.286922" lon="18.088166">
        <ele>33</ele>
        <time>2020-01-22T08:11:02Z</time>
      </trkpt>
      <trkpt lat="59.286862" lon="18.088194">
        <ele>33</ele>
        <time>2020-01-22T08:11:03Z</time>
      </trkpt>
      <trkpt lat="59.286799" lon="18.088228">
        <ele>33</ele>
        <time>2020-01-22T08:11:04Z</time>
      </trkpt>
      <trkpt lat="59.286735" lon="18.088258">
        <ele>34</ele>
        <time>2020-01-22T08:11:05Z</time>
      </trkpt>
      <trkpt lat="59.286671" lon="18.088292">
        <ele>33</ele>
        <time>2020-01-22T08:11:06Z</time>
      </trkpt>
      <trkpt lat="59.286607" lon="18.088322">
        <ele>33</ele>
        <time>2020-01-22T08:11:07Z</time>
      </trkpt>
      <trkpt lat="59.286543" lon="18.08835">
        <ele>33</ele>
        <time>2020-01-22T08:11:08Z</time>
      </trkpt>
      <trkpt lat="59.286478" lon="18.088388">
        <ele>33</ele>
        <time>2020-01-22T08:11:09Z</time>
      </trkpt>
      <trkpt lat="59.286412" lon="18.088422">
        <ele>33</ele>
        <time>2020-01-22T08:11:10Z</time>
      </trkpt>
      <trkpt lat="59.286348" lon="18.088454">
        <ele>33</ele>
        <time>2020-01-22T08:11:11Z</time>
      </trkpt>
      <trkpt lat="59.286285" lon="18.088484">
        <ele>33</ele>
        <time>2020-01-22T08:11:12Z</time>
      </trkpt>
      <trkpt lat="59.286223" lon="18.088518">
        <ele>33</ele>
        <time>2020-01-22T08:11:13Z</time>
      </trkpt>
      <trkpt lat="59.286159" lon="18.088552">
        <ele>33</ele>
        <time>2020-01-22T08:11:14Z</time>
      </trkpt>
      <trkpt lat="59.286096" lon="18.088582">
        <ele>33</ele>
        <time>2020-01-22T08:11:15Z</time>
      </trkpt>
      <trkpt lat="59.286033" lon="18.088614">
        <ele>33</ele>
        <time>2020-01-22T08:11:16Z</time>
      </trkpt>
      <trkpt lat="59.285968" lon="18.08865">
        <ele>33</ele>
        <time>2020-01-22T08:11:17Z</time>
      </trkpt>
      <trkpt lat="59.285902" lon="18.088684">
        <ele>33</ele>
        <time>2020-01-22T08:11:18Z</time>
      </trkpt>
      <trkpt lat="59.285838" lon="18.088716">
        <ele>33</ele>
        <time>2020-01-22T08:11:19Z</time>
      </trkpt>
      <trkpt lat="59.285773" lon="18.088746">
        <ele>33</ele>
        <time>2020-01-22T08:11:20Z</time>
      </trkpt>
      <trkpt lat="59.285708" lon="18.088779">
        <ele>33</ele>
        <time>2020-01-22T08:11:21Z</time>
      </trkpt>
      <trkpt lat="59.285644" lon="18.088812">
        <ele>33</ele>
        <time>2020-01-22T08:11:22Z</time>
      </trkpt>
      <trkpt lat="59.285579" lon="18.088846">
        <ele>33</ele>
        <time>2020-01-22T08:11:23Z</time>
      </trkpt>
      <trkpt lat="59.285516" lon="18.088876">
        <ele>33</ele>
        <time>2020-01-22T08:11:24Z</time>
      </trkpt>
      <trkpt lat="59.285452" lon="18.088908">
        <ele>34</ele>
        <time>2020-01-22T08:11:25Z</time>
      </trkpt>
      <trkpt lat="59.285388" lon="18.088938">
        <ele>34</ele>
        <time>2020-01-22T08:11:26Z</time>
      </trkpt>
      <trkpt lat="59.285324" lon="18.08897">
        <ele>34</ele>
        <time>2020-01-22T08:11:27Z</time>
      </trkpt>
      <trkpt lat="59.285261" lon="18.089">
        <ele>34</ele>
        <time>2020-01-22T08:11:28Z</time>
      </trkpt>
      <trkpt lat="59.285197" lon="18.089032">
        <ele>33</ele>
        <time>2020-01-22T08:11:29Z</time>
      </trkpt>
      <trkpt lat="59.285132" lon="18.089062">
        <ele>33</ele>
        <time>2020-01-22T08:11:30Z</time>
      </trkpt>
      <trkpt lat="59.285067" lon="18.089094">
        <ele>33</ele>
        <time>2020-01-22T08:11:31Z</time>
      </trkpt>
      <trkpt lat="59.285002" lon="18.089126">
        <ele>33</ele>
        <time>2020-01-22T08:11:32Z</time>
      </trkpt>
      <trkpt lat="59.284937" lon="18.08916">
        <ele>33</ele>
        <time>2020-01-22T08:11:33Z</time>
      </trkpt>
      <trkpt lat="59.284874" lon="18.089192">
        <ele>33</ele>
        <time>2020-01-22T08:11:34Z</time>
      </trkpt>
      <trkpt lat="59.28481" lon="18.089226">
        <ele>33</ele>
        <time>2020-01-22T08:11:35Z</time>
      </trkpt>
      <trkpt lat="59.284749" lon="18.089262">
        <ele>33</ele>
        <time>2020-01-22T08:11:36Z</time>
      </trkpt>
      <trkpt lat="59.284691" lon="18.089298">
        <ele>33</ele>
        <time>2020-01-22T08:11:37Z</time>
      </trkpt>
      <trkpt lat="59.284634" lon="18.089334">
        <ele>33</ele>
        <time>2020-01-22T08:11:38Z</time>
      </trkpt>
      <trkpt lat="59.284573" lon="18.089356">
        <ele>33</ele>
        <time>2020-01-22T08:11:39Z</time>
      </trkpt>
      <trkpt lat="59.284512" lon="18.089368">
        <ele>33</ele>
        <time>2020-01-22T08:11:40Z</time>
      </trkpt>
      <trkpt lat="59.284455" lon="18.089388">
        <ele>33</ele>
        <time>2020-01-22T08:11:41Z</time>
      </trkpt>
      <trkpt lat="59.284398" lon="18.089418">
        <ele>33</ele>
        <time>2020-01-22T08:11:42Z</time>
      </trkpt>
      <trkpt lat="59.284338" lon="18.089448">
        <ele>33</ele>
        <time>2020-01-22T08:11:43Z</time>
      </trkpt>
      <trkpt lat="59.284268" lon="18.089486">
        <ele>34</ele>
        <time>2020-01-22T08:11:44Z</time>
      </trkpt>
      <trkpt lat="59.2842" lon="18.089524">
        <ele>34</ele>
        <time>2020-01-22T08:11:45Z</time>
      </trkpt>
      <trkpt lat="59.284131" lon="18.08956">
        <ele>34</ele>
        <time>2020-01-22T08:11:46Z</time>
      </trkpt>
      <trkpt lat="59.284066" lon="18.089592">
        <ele>34</ele>
        <time>2020-01-22T08:11:47Z</time>
      </trkpt>
      <trkpt lat="59.284001" lon="18.089624">
        <ele>34</ele>
        <time>2020-01-22T08:11:48Z</time>
      </trkpt>
      <trkpt lat="59.283938" lon="18.089654">
        <ele>34</ele>
        <time>2020-01-22T08:11:49Z</time>
      </trkpt>
      <trkpt lat="59.283874" lon="18.089686">
        <ele>34</ele>
        <time>2020-01-22T08:11:50Z</time>
      </trkpt>
      <trkpt lat="59.28381" lon="18.08972">
        <ele>34</ele>
        <time>2020-01-22T08:11:51Z</time>
      </trkpt>
      <trkpt lat="59.283744" lon="18.089758">
        <ele>34</ele>
        <time>2020-01-22T08:11:52Z</time>
      </trkpt>
      <trkpt lat="59.283677" lon="18.089792">
        <ele>34</ele>
        <time>2020-01-22T08:11:53Z</time>
      </trkpt>
      <trkpt lat="59.28361" lon="18.08983">
        <ele>34</ele>
        <time>2020-01-22T08:11:54Z</time>
      </trkpt>
      <trkpt lat="59.283546" lon="18.089858">
        <ele>34</ele>
        <time>2020-01-22T08:11:55Z</time>
      </trkpt>
      <trkpt lat="59.283479" lon="18.089882">
        <ele>33</ele>
        <time>2020-01-22T08:11:56Z</time>
      </trkpt>
      <trkpt lat="59.283412" lon="18.089908">
        <ele>33</ele>
        <time>2020-01-22T08:11:57Z</time>
      </trkpt>
      <trkpt lat="59.283348" lon="18.08993">
        <ele>33</ele>
        <time>2020-01-22T08:11:58Z</time>
      </trkpt>
      <trkpt lat="59.283281" lon="18.089952">
        <ele>33</ele>
        <time>2020-01-22T08:11:59Z</time>
      </trkpt>
      <trkpt lat="59.283214" lon="18.089972">
        <ele>33</ele>
        <time>2020-01-22T08:12:00Z</time>
      </trkpt>
      <trkpt lat="59.283147" lon="18.089996">
        <ele>33</ele>
        <time>2020-01-22T08:12:01Z</time>
      </trkpt>
      <trkpt lat="59.283077" lon="18.090025">
        <ele>33</ele>
        <time>2020-01-22T08:12:02Z</time>
      </trkpt>
      <trkpt lat="59.28301" lon="18.09005">
        <ele>33</ele>
        <time>2020-01-22T08:12:03Z</time>
      </trkpt>
      <trkpt lat="59.282944" lon="18.090075">
        <ele>33</ele>
        <time>2020-01-22T08:12:04Z</time>
      </trkpt>
      <trkpt lat="59.282875" lon="18.090103">
        <ele>32</ele>
        <time>2020-01-22T08:12:05Z</time>
      </trkpt>
      <trkpt lat="59.282806" lon="18.090126">
        <ele>32</ele>
        <time>2020-01-22T08:12:06Z</time>
      </trkpt>
      <trkpt lat="59.282738" lon="18.090154">
        <ele>32</ele>
        <time>2020-01-22T08:12:07Z</time>
      </trkpt>
      <trkpt lat="59.282671" lon="18.090183">
        <ele>32</ele>
        <time>2020-01-22T08:12:08Z</time>
      </trkpt>
      <trkpt lat="59.282603" lon="18.090211">
        <ele>32</ele>
        <time>2020-01-22T08:12:09Z</time>
      </trkpt>
      <trkpt lat="59.282536" lon="18.090236">
        <ele>32</ele>
        <time>2020-01-22T08:12:10Z</time>
      </trkpt>
      <trkpt lat="59.28247" lon="18.090261">
        <ele>32</ele>
        <time>2020-01-22T08:12:11Z</time>
      </trkpt>
      <trkpt lat="59.282404" lon="18.090288">
        <ele>32</ele>
        <time>2020-01-22T08:12:12Z</time>
      </trkpt>
      <trkpt lat="59.282339" lon="18.09031">
        <ele>32</ele>
        <time>2020-01-22T08:12:13Z</time>
      </trkpt>
      <trkpt lat="59.282276" lon="18.090333">
        <ele>32</ele>
        <time>2020-01-22T08:12:14Z</time>
      </trkpt>
      <trkpt lat="59.282213" lon="18.090359">
        <ele>32</ele>
        <time>2020-01-22T08:12:15Z</time>
      </trkpt>
      <trkpt lat="59.28215" lon="18.090383">
        <ele>32</ele>
        <time>2020-01-22T08:12:16Z</time>
      </trkpt>
      <trkpt lat="59.282087" lon="18.090401">
        <ele>32</ele>
        <time>2020-01-22T08:12:17Z</time>
      </trkpt>
      <trkpt lat="59.282028" lon="18.090414">
        <ele>32</ele>
        <time>2020-01-22T08:12:18Z</time>
      </trkpt>
      <trkpt lat="59.281968" lon="18.090434">
        <ele>32</ele>
        <time>2020-01-22T08:12:19Z</time>
      </trkpt>
      <trkpt lat="59.28191" lon="18.090456">
        <ele>32</ele>
        <time>2020-01-22T08:12:20Z</time>
      </trkpt>
      <trkpt lat="59.281852" lon="18.090478">
        <ele>32</ele>
        <time>2020-01-22T08:12:21Z</time>
      </trkpt>
      <trkpt lat="59.281795" lon="18.090502">
        <ele>32</ele>
        <time>2020-01-22T08:12:22Z</time>
      </trkpt>
      <trkpt lat="59.281737" lon="18.090526">
        <ele>32</ele>
        <time>2020-01-22T08:12:23Z</time>
      </trkpt>
      <trkpt lat="59.281679" lon="18.090549">
        <ele>32</ele>
        <time>2020-01-22T08:12:24Z</time>
      </trkpt>
      <trkpt lat="59.281617" lon="18.090575">
        <ele>32</ele>
        <time>2020-01-22T08:12:25Z</time>
      </trkpt>
      <trkpt lat="59.281555" lon="18.090597">
        <ele>32</ele>
        <time>2020-01-22T08:12:26Z</time>
      </trkpt>
      <trkpt lat="59.281494" lon="18.090617">
        <ele>32</ele>
        <time>2020-01-22T08:12:27Z</time>
      </trkpt>
      <trkpt lat="59.281432" lon="18.090638">
        <ele>32</ele>
        <time>2020-01-22T08:12:28Z</time>
      </trkpt>
      <trkpt lat="59.28137" lon="18.090658">
        <ele>32</ele>
        <time>2020-01-22T08:12:29Z</time>
      </trkpt>
      <trkpt lat="59.281309" lon="18.09068">
        <ele>31</ele>
        <time>2020-01-22T08:12:30Z</time>
      </trkpt>
      <trkpt lat="59.281247" lon="18.090702">
        <ele>31</ele>
        <time>2020-01-22T08:12:32Z</time>
      </trkpt>
      <trkpt lat="59.281185" lon="18.090721">
        <ele>31</ele>
        <time>2020-01-22T08:12:32Z</time>
      </trkpt>
      <trkpt lat="59.281124" lon="18.090742">
        <ele>31</ele>
        <time>2020-01-22T08:12:33Z</time>
      </trkpt>
      <trkpt lat="59.281064" lon="18.090765">
        <ele>31</ele>
        <time>2020-01-22T08:12:34Z</time>
      </trkpt>
      <trkpt lat="59.281005" lon="18.090787">
        <ele>31</ele>
        <time>2020-01-22T08:12:35Z</time>
      </trkpt>
      <trkpt lat="59.280946" lon="18.090809">
        <ele>31</ele>
        <time>2020-01-22T08:12:36Z</time>
      </trkpt>
      <trkpt lat="59.280888" lon="18.090825">
        <ele>31</ele>
        <time>2020-01-22T08:12:37Z</time>
      </trkpt>
      <trkpt lat="59.28083" lon="18.090844">
        <ele>31</ele>
        <time>2020-01-22T08:12:38Z</time>
      </trkpt>
      <trkpt lat="59.280771" lon="18.090865">
        <ele>31</ele>
        <time>2020-01-22T08:12:39Z</time>
      </trkpt>
      <trkpt lat="59.280712" lon="18.090886">
        <ele>31</ele>
        <time>2020-01-22T08:12:40Z</time>
      </trkpt>
      <trkpt lat="59.280654" lon="18.090911">
        <ele>31</ele>
        <time>2020-01-22T08:12:41Z</time>
      </trkpt>
      <trkpt lat="59.280597" lon="18.090933">
        <ele>31</ele>
        <time>2020-01-22T08:12:42Z</time>
      </trkpt>
      <trkpt lat="59.280539" lon="18.090954">
        <ele>31</ele>
        <time>2020-01-22T08:12:43Z</time>
      </trkpt>
      <trkpt lat="59.28048" lon="18.090977">
        <ele>31</ele>
        <time>2020-01-22T08:12:44Z</time>
      </trkpt>
      <trkpt lat="59.280421" lon="18.090997">
        <ele>31</ele>
        <time>2020-01-22T08:12:45Z</time>
      </trkpt>
      <trkpt lat="59.280361" lon="18.091016">
        <ele>31</ele>
        <time>2020-01-22T08:12:46Z</time>
      </trkpt>
      <trkpt lat="59.280301" lon="18.091039">
        <ele>31</ele>
        <time>2020-01-22T08:12:47Z</time>
      </trkpt>
      <trkpt lat="59.28024" lon="18.091061">
        <ele>31</ele>
        <time>2020-01-22T08:12:48Z</time>
      </trkpt>
      <trkpt lat="59.28018" lon="18.091083">
        <ele>31</ele>
        <time>2020-01-22T08:12:49Z</time>
      </trkpt>
      <trkpt lat="59.280121" lon="18.091105">
        <ele>31</ele>
        <time>2020-01-22T08:12:50Z</time>
      </trkpt>
      <trkpt lat="59.280064" lon="18.091127">
        <ele>31</ele>
        <time>2020-01-22T08:12:51Z</time>
      </trkpt>
      <trkpt lat="59.280008" lon="18.091146">
        <ele>31</ele>
        <time>2020-01-22T08:12:52Z</time>
      </trkpt>
      <trkpt lat="59.279955" lon="18.091164">
        <ele>31</ele>
        <time>2020-01-22T08:12:53Z</time>
      </trkpt>
      <trkpt lat="59.279902" lon="18.091182">
        <ele>31</ele>
        <time>2020-01-22T08:12:54Z</time>
      </trkpt>
      <trkpt lat="59.27985" lon="18.091199">
        <ele>31</ele>
        <time>2020-01-22T08:12:55Z</time>
      </trkpt>
      <trkpt lat="59.2798" lon="18.091217">
        <ele>31</ele>
        <time>2020-01-22T08:12:56Z</time>
      </trkpt>
      <trkpt lat="59.279751" lon="18.091235">
        <ele>31</ele>
        <time>2020-01-22T08:12:57Z</time>
      </trkpt>
      <trkpt lat="59.279703" lon="18.09125">
        <ele>31</ele>
        <time>2020-01-22T08:12:58Z</time>
      </trkpt>
      <trkpt lat="59.279659" lon="18.09126">
        <ele>31</ele>
        <time>2020-01-22T08:12:59Z</time>
      </trkpt>
      <trkpt lat="59.279617" lon="18.091267">
        <ele>31</ele>
        <time>2020-01-22T08:13:00Z</time>
      </trkpt>
      <trkpt lat="59.279578" lon="18.091275">
        <ele>31</ele>
        <time>2020-01-22T08:13:01Z</time>
      </trkpt>
      <trkpt lat="59.279542" lon="18.091281">
        <ele>31</ele>
        <time>2020-01-22T08:13:02Z</time>
      </trkpt>
      <trkpt lat="59.279513" lon="18.091284">
        <ele>30</ele>
        <time>2020-01-22T08:13:03Z</time>
      </trkpt>
      <trkpt lat="59.279484" lon="18.09129">
        <ele>30</ele>
        <time>2020-01-22T08:13:04Z</time>
      </trkpt>
      <trkpt lat="59.279453" lon="18.091299">
        <ele>30</ele>
        <time>2020-01-22T08:13:05Z</time>
      </trkpt>
      <trkpt lat="59.279417" lon="18.091307">
        <ele>30</ele>
        <time>2020-01-22T08:13:06Z</time>
      </trkpt>
      <trkpt lat="59.279379" lon="18.091313">
        <ele>30</ele>
        <time>2020-01-22T08:13:07Z</time>
      </trkpt>
      <trkpt lat="59.279341" lon="18.091321">
        <ele>30</ele>
        <time>2020-01-22T08:13:08Z</time>
      </trkpt>
      <trkpt lat="59.279303" lon="18.09133">
        <ele>30</ele>
        <time>2020-01-22T08:13:10Z</time>
      </trkpt>
      <trkpt lat="59.279266" lon="18.091342">
        <ele>30</ele>
        <time>2020-01-22T08:13:10Z</time>
      </trkpt>
      <trkpt lat="59.279228" lon="18.091359">
        <ele>30</ele>
        <time>2020-01-22T08:13:11Z</time>
      </trkpt>
      <trkpt lat="59.279185" lon="18.091377">
        <ele>30</ele>
        <time>2020-01-22T08:13:12Z</time>
      </trkpt>
      <trkpt lat="59.279144" lon="18.091406">
        <ele>30</ele>
        <time>2020-01-22T08:13:13Z</time>
      </trkpt>
      <trkpt lat="59.279105" lon="18.091444">
        <ele>31</ele>
        <time>2020-01-22T08:13:14Z</time>
      </trkpt>
      <trkpt lat="59.279064" lon="18.091481">
        <ele>31</ele>
        <time>2020-01-22T08:13:15Z</time>
      </trkpt>
      <trkpt lat="59.27902" lon="18.091512">
        <ele>31</ele>
        <time>2020-01-22T08:13:16Z</time>
      </trkpt>
      <trkpt lat="59.278971" lon="18.091538">
        <ele>31</ele>
        <time>2020-01-22T08:13:17Z</time>
      </trkpt>
      <trkpt lat="59.278921" lon="18.091561">
        <ele>31</ele>
        <time>2020-01-22T08:13:18Z</time>
      </trkpt>
      <trkpt lat="59.27887" lon="18.091581">
        <ele>31</ele>
        <time>2020-01-22T08:13:19Z</time>
      </trkpt>
      <trkpt lat="59.278819" lon="18.0916">
        <ele>31</ele>
        <time>2020-01-22T08:13:20Z</time>
      </trkpt>
      <trkpt lat="59.278766" lon="18.091617">
        <ele>31</ele>
        <time>2020-01-22T08:13:21Z</time>
      </trkpt>
      <trkpt lat="59.278713" lon="18.091634">
        <ele>31</ele>
        <time>2020-01-22T08:13:22Z</time>
      </trkpt>
      <trkpt lat="59.27866" lon="18.091652">
        <ele>31</ele>
        <time>2020-01-22T08:13:23Z</time>
      </trkpt>
      <trkpt lat="59.278607" lon="18.091668">
        <ele>31</ele>
        <time>2020-01-22T08:13:24Z</time>
      </trkpt>
      <trkpt lat="59.278553" lon="18.091677">
        <ele>31</ele>
        <time>2020-01-22T08:13:25Z</time>
      </trkpt>
      <trkpt lat="59.278502" lon="18.091679">
        <ele>31</ele>
        <time>2020-01-22T08:13:26Z</time>
      </trkpt>
      <trkpt lat="59.278452" lon="18.091677">
        <ele>31</ele>
        <time>2020-01-22T08:13:27Z</time>
      </trkpt>
      <trkpt lat="59.278403" lon="18.091673">
        <ele>31</ele>
        <time>2020-01-22T08:13:28Z</time>
      </trkpt>
      <trkpt lat="59.278353" lon="18.09167">
        <ele>31</ele>
        <time>2020-01-22T08:13:29Z</time>
      </trkpt>
      <trkpt lat="59.278311" lon="18.091665">
        <ele>31</ele>
        <time>2020-01-22T08:13:30Z</time>
      </trkpt>
      <trkpt lat="59.27828" lon="18.091666">
        <ele>31</ele>
        <time>2020-01-22T08:13:31Z</time>
      </trkpt>
      <trkpt lat="59.278255" lon="18.091682">
        <ele>32</ele>
        <time>2020-01-22T08:13:32Z</time>
      </trkpt>
      <trkpt lat="59.278231" lon="18.091716">
        <ele>32</ele>
        <time>2020-01-22T08:13:33Z</time>
      </trkpt>
      <trkpt lat="59.278201" lon="18.09175">
        <ele>32</ele>
        <time>2020-01-22T08:13:34Z</time>
      </trkpt>
      <trkpt lat="59.278167" lon="18.091772">
        <ele>32</ele>
        <time>2020-01-22T08:13:35Z</time>
      </trkpt>
      <trkpt lat="59.278128" lon="18.091783">
        <ele>32</ele>
        <time>2020-01-22T08:13:36Z</time>
      </trkpt>
      <trkpt lat="59.278086" lon="18.091788">
        <ele>32</ele>
        <time>2020-01-22T08:13:37Z</time>
      </trkpt>
      <trkpt lat="59.278042" lon="18.091794">
        <ele>32</ele>
        <time>2020-01-22T08:13:38Z</time>
      </trkpt>
      <trkpt lat="59.277995" lon="18.091798">
        <ele>32</ele>
        <time>2020-01-22T08:13:39Z</time>
      </trkpt>
      <trkpt lat="59.277947" lon="18.091799">
        <ele>32</ele>
        <time>2020-01-22T08:13:40Z</time>
      </trkpt>
      <trkpt lat="59.277898" lon="18.0918">
        <ele>32</ele>
        <time>2020-01-22T08:13:41Z</time>
      </trkpt>
      <trkpt lat="59.277847" lon="18.091805">
        <ele>32</ele>
        <time>2020-01-22T08:13:42Z</time>
      </trkpt>
      <trkpt lat="59.277796" lon="18.09181">
        <ele>33</ele>
        <time>2020-01-22T08:13:43Z</time>
      </trkpt>
      <trkpt lat="59.277745" lon="18.091818">
        <ele>33</ele>
        <time>2020-01-22T08:13:44Z</time>
      </trkpt>
      <trkpt lat="59.277695" lon="18.091827">
        <ele>33</ele>
        <time>2020-01-22T08:13:45Z</time>
      </trkpt>
      <trkpt lat="59.277645" lon="18.091837">
        <ele>33</ele>
        <time>2020-01-22T08:13:46Z</time>
      </trkpt>
      <trkpt lat="59.277594" lon="18.091848">
        <ele>33</ele>
        <time>2020-01-22T08:13:47Z</time>
      </trkpt>
      <trkpt lat="59.277543" lon="18.091859">
        <ele>33</ele>
        <time>2020-01-22T08:13:48Z</time>
      </trkpt>
      <trkpt lat="59.277493" lon="18.091873">
        <ele>33</ele>
        <time>2020-01-22T08:13:49Z</time>
      </trkpt>
      <trkpt lat="59.277443" lon="18.091886">
        <ele>33</ele>
        <time>2020-01-22T08:13:50Z</time>
      </trkpt>
      <trkpt lat="59.27739" lon="18.091898">
        <ele>33</ele>
        <time>2020-01-22T08:13:51Z</time>
      </trkpt>
      <trkpt lat="59.277336" lon="18.091909">
        <ele>33</ele>
        <time>2020-01-22T08:13:52Z</time>
      </trkpt>
      <trkpt lat="59.277282" lon="18.091921">
        <ele>34</ele>
        <time>2020-01-22T08:13:53Z</time>
      </trkpt>
      <trkpt lat="59.277228" lon="18.091937">
        <ele>34</ele>
        <time>2020-01-22T08:13:54Z</time>
      </trkpt>
      <trkpt lat="59.277173" lon="18.091958">
        <ele>34</ele>
        <time>2020-01-22T08:13:55Z</time>
      </trkpt>
      <trkpt lat="59.277117" lon="18.091982">
        <ele>34</ele>
        <time>2020-01-22T08:13:56Z</time>
      </trkpt>
      <trkpt lat="59.27706" lon="18.092006">
        <ele>34</ele>
        <time>2020-01-22T08:13:57Z</time>
      </trkpt>
      <trkpt lat="59.277001" lon="18.092026">
        <ele>34</ele>
        <time>2020-01-22T08:13:58Z</time>
      </trkpt>
      <trkpt lat="59.27694" lon="18.092045">
        <ele>34</ele>
        <time>2020-01-22T08:13:59Z</time>
      </trkpt>
      <trkpt lat="59.276878" lon="18.092065">
        <ele>34</ele>
        <time>2020-01-22T08:14:00Z</time>
      </trkpt>
      <trkpt lat="59.276816" lon="18.092084">
        <ele>34</ele>
        <time>2020-01-22T08:14:01Z</time>
      </trkpt>
      <trkpt lat="59.276753" lon="18.092104">
        <ele>34</ele>
        <time>2020-01-22T08:14:02Z</time>
      </trkpt>
      <trkpt lat="59.27669" lon="18.092122">
        <ele>34</ele>
        <time>2020-01-22T08:14:03Z</time>
      </trkpt>
      <trkpt lat="59.276626" lon="18.092142">
        <ele>34</ele>
        <time>2020-01-22T08:14:04Z</time>
      </trkpt>
      <trkpt lat="59.276562" lon="18.092162">
        <ele>34</ele>
        <time>2020-01-22T08:14:05Z</time>
      </trkpt>
      <trkpt lat="59.276498" lon="18.092184">
        <ele>34</ele>
        <time>2020-01-22T08:14:06Z</time>
      </trkpt>
      <trkpt lat="59.276434" lon="18.092206">
        <ele>34</ele>
        <time>2020-01-22T08:14:07Z</time>
      </trkpt>
      <trkpt lat="59.276371" lon="18.092226">
        <ele>34</ele>
        <time>2020-01-22T08:14:08Z</time>
      </trkpt>
      <trkpt lat="59.276308" lon="18.09225">
        <ele>34</ele>
        <time>2020-01-22T08:14:09Z</time>
      </trkpt>
      <trkpt lat="59.276245" lon="18.09227">
        <ele>34</ele>
        <time>2020-01-22T08:14:10Z</time>
      </trkpt>
      <trkpt lat="59.276182" lon="18.09229">
        <ele>34</ele>
        <time>2020-01-22T08:14:11Z</time>
      </trkpt>
      <trkpt lat="59.276119" lon="18.09231">
        <ele>34</ele>
        <time>2020-01-22T08:14:12Z</time>
      </trkpt>
      <trkpt lat="59.276055" lon="18.09233">
        <ele>34</ele>
        <time>2020-01-22T08:14:13Z</time>
      </trkpt>
      <trkpt lat="59.275992" lon="18.09235">
        <ele>34</ele>
        <time>2020-01-22T08:14:14Z</time>
      </trkpt>
      <trkpt lat="59.275928" lon="18.092366">
        <ele>34</ele>
        <time>2020-01-22T08:14:15Z</time>
      </trkpt>
      <trkpt lat="59.275865" lon="18.092384">
        <ele>34</ele>
        <time>2020-01-22T08:14:16Z</time>
      </trkpt>
      <trkpt lat="59.275802" lon="18.0924">
        <ele>34</ele>
        <time>2020-01-22T08:14:17Z</time>
      </trkpt>
      <trkpt lat="59.27574" lon="18.092416">
        <ele>34</ele>
        <time>2020-01-22T08:14:18Z</time>
      </trkpt>
      <trkpt lat="59.275677" lon="18.092432">
        <ele>34</ele>
        <time>2020-01-22T08:14:19Z</time>
      </trkpt>
      <trkpt lat="59.275614" lon="18.092448">
        <ele>34</ele>
        <time>2020-01-22T08:14:20Z</time>
      </trkpt>
      <trkpt lat="59.275551" lon="18.09246">
        <ele>35</ele>
        <time>2020-01-22T08:14:21Z</time>
      </trkpt>
      <trkpt lat="59.275488" lon="18.092472">
        <ele>35</ele>
        <time>2020-01-22T08:14:22Z</time>
      </trkpt>
      <trkpt lat="59.275425" lon="18.092482">
        <ele>35</ele>
        <time>2020-01-22T08:14:23Z</time>
      </trkpt>
      <trkpt lat="59.275361" lon="18.092492">
        <ele>35</ele>
        <time>2020-01-22T08:14:24Z</time>
      </trkpt>
      <trkpt lat="59.275298" lon="18.092502">
        <ele>35</ele>
        <time>2020-01-22T08:14:25Z</time>
      </trkpt>
      <trkpt lat="59.275235" lon="18.092514">
        <ele>35</ele>
        <time>2020-01-22T08:14:26Z</time>
      </trkpt>
      <trkpt lat="59.275172" lon="18.092522">
        <ele>35</ele>
        <time>2020-01-22T08:14:27Z</time>
      </trkpt>
      <trkpt lat="59.27511" lon="18.092528">
        <ele>35</ele>
        <time>2020-01-22T08:14:28Z</time>
      </trkpt>
      <trkpt lat="59.275048" lon="18.092534">
        <ele>35</ele>
        <time>2020-01-22T08:14:29Z</time>
      </trkpt>
      <trkpt lat="59.274987" lon="18.092536">
        <ele>35</ele>
        <time>2020-01-22T08:14:30Z</time>
      </trkpt>
      <trkpt lat="59.274926" lon="18.092526">
        <ele>35</ele>
        <time>2020-01-22T08:14:31Z</time>
      </trkpt>
      <trkpt lat="59.274868" lon="18.092498">
        <ele>35</ele>
        <time>2020-01-22T08:14:32Z</time>
      </trkpt>
      <trkpt lat="59.274814" lon="18.092452">
        <ele>35</ele>
        <time>2020-01-22T08:14:33Z</time>
      </trkpt>
      <trkpt lat="59.274766" lon="18.09239">
        <ele>35</ele>
        <time>2020-01-22T08:14:34Z</time>
      </trkpt>
      <trkpt lat="59.27472" lon="18.09232">
        <ele>35</ele>
        <time>2020-01-22T08:14:35Z</time>
      </trkpt>
      <trkpt lat="59.274676" lon="18.09225">
        <ele>36</ele>
        <time>2020-01-22T08:14:36Z</time>
      </trkpt>
      <trkpt lat="59.27463" lon="18.092182">
        <ele>35</ele>
        <time>2020-01-22T08:14:37Z</time>
      </trkpt>
      <trkpt lat="59.274583" lon="18.092114">
        <ele>36</ele>
        <time>2020-01-22T08:14:38Z</time>
      </trkpt>
      <trkpt lat="59.274535" lon="18.092056">
        <ele>36</ele>
        <time>2020-01-22T08:14:39Z</time>
      </trkpt>
      <trkpt lat="59.274483" lon="18.092012">
        <ele>36</ele>
        <time>2020-01-22T08:14:40Z</time>
      </trkpt>
      <trkpt lat="59.27443" lon="18.09198">
        <ele>35</ele>
        <time>2020-01-22T08:14:41Z</time>
      </trkpt>
      <trkpt lat="59.274375" lon="18.091952">
        <ele>35</ele>
        <time>2020-01-22T08:14:42Z</time>
      </trkpt>
      <trkpt lat="59.27432" lon="18.091924">
        <ele>35</ele>
        <time>2020-01-22T08:14:43Z</time>
      </trkpt>
      <trkpt lat="59.274266" lon="18.091892">
        <ele>35</ele>
        <time>2020-01-22T08:14:44Z</time>
      </trkpt>
      <trkpt lat="59.274213" lon="18.091852">
        <ele>35</ele>
        <time>2020-01-22T08:14:45Z</time>
      </trkpt>
      <trkpt lat="59.274166" lon="18.0918">
        <ele>36</ele>
        <time>2020-01-22T08:14:46Z</time>
      </trkpt>
      <trkpt lat="59.274126" lon="18.091734">
        <ele>36</ele>
        <time>2020-01-22T08:14:47Z</time>
      </trkpt>
      <trkpt lat="59.274094" lon="18.091656">
        <ele>36</ele>
        <time>2020-01-22T08:14:48Z</time>
      </trkpt>
      <trkpt lat="59.274064" lon="18.091575">
        <ele>36</ele>
        <time>2020-01-22T08:14:49Z</time>
      </trkpt>
      <trkpt lat="59.274033" lon="18.091498">
        <ele>36</ele>
        <time>2020-01-22T08:14:50Z</time>
      </trkpt>
      <trkpt lat="59.274004" lon="18.09142">
        <ele>36</ele>
        <time>2020-01-22T08:14:51Z</time>
      </trkpt>
      <trkpt lat="59.273974" lon="18.091344">
        <ele>36</ele>
        <time>2020-01-22T08:14:52Z</time>
      </trkpt>
      <trkpt lat="59.273945" lon="18.091268">
        <ele>36</ele>
        <time>2020-01-22T08:14:53Z</time>
      </trkpt>
      <trkpt lat="59.273916" lon="18.091192">
        <ele>37</ele>
        <time>2020-01-22T08:14:54Z</time>
      </trkpt>
      <trkpt lat="59.273888" lon="18.091119">
        <ele>37</ele>
        <time>2020-01-22T08:14:55Z</time>
      </trkpt>
      <trkpt lat="59.273861" lon="18.09105">
        <ele>37</ele>
        <time>2020-01-22T08:14:56Z</time>
      </trkpt>
      <trkpt lat="59.273834" lon="18.090982">
        <ele>37</ele>
        <time>2020-01-22T08:14:57Z</time>
      </trkpt>
      <trkpt lat="59.273807" lon="18.090918">
        <ele>37</ele>
        <time>2020-01-22T08:14:58Z</time>
      </trkpt>
      <trkpt lat="59.273775" lon="18.090866">
        <ele>37</ele>
        <time>2020-01-22T08:14:59Z</time>
      </trkpt>
      <trkpt lat="59.273737" lon="18.090834">
        <ele>37</ele>
        <time>2020-01-22T08:15:00Z</time>
      </trkpt>
      <trkpt lat="59.273695" lon="18.090828">
        <ele>37</ele>
        <time>2020-01-22T08:15:01Z</time>
      </trkpt>
      <trkpt lat="59.273652" lon="18.090842">
        <ele>37</ele>
        <time>2020-01-22T08:15:02Z</time>
      </trkpt>
      <trkpt lat="59.273609" lon="18.090865">
        <ele>38</ele>
        <time>2020-01-22T08:15:03Z</time>
      </trkpt>
      <trkpt lat="59.273565" lon="18.090893">
        <ele>38</ele>
        <time>2020-01-22T08:15:04Z</time>
      </trkpt>
      <trkpt lat="59.273519" lon="18.09092">
        <ele>38</ele>
        <time>2020-01-22T08:15:05Z</time>
      </trkpt>
      <trkpt lat="59.273474" lon="18.090942">
        <ele>38</ele>
        <time>2020-01-22T08:15:06Z</time>
      </trkpt>
      <trkpt lat="59.273428" lon="18.090967">
        <ele>38</ele>
        <time>2020-01-22T08:15:07Z</time>
      </trkpt>
      <trkpt lat="59.27338" lon="18.090995">
        <ele>38</ele>
        <time>2020-01-22T08:15:08Z</time>
      </trkpt>
      <trkpt lat="59.273329" lon="18.09102">
        <ele>39</ele>
        <time>2020-01-22T08:15:09Z</time>
      </trkpt>
      <trkpt lat="59.273279" lon="18.091043">
        <ele>39</ele>
        <time>2020-01-22T08:15:10Z</time>
      </trkpt>
      <trkpt lat="59.273233" lon="18.091063">
        <ele>39</ele>
        <time>2020-01-22T08:15:11Z</time>
      </trkpt>
      <trkpt lat="59.273183" lon="18.091088">
        <ele>39</ele>
        <time>2020-01-22T08:15:12Z</time>
      </trkpt>
      <trkpt lat="59.273131" lon="18.091118">
        <ele>39</ele>
        <time>2020-01-22T08:15:13Z</time>
      </trkpt>
      <trkpt lat="59.27308" lon="18.091149">
        <ele>40</ele>
        <time>2020-01-22T08:15:14Z</time>
      </trkpt>
      <trkpt lat="59.273025" lon="18.09118">
        <ele>40</ele>
        <time>2020-01-22T08:15:15Z</time>
      </trkpt>
      <trkpt lat="59.272969" lon="18.091212">
        <ele>40</ele>
        <time>2020-01-22T08:15:16Z</time>
      </trkpt>
      <trkpt lat="59.272918" lon="18.091242">
        <ele>40</ele>
        <time>2020-01-22T08:15:17Z</time>
      </trkpt>
      <trkpt lat="59.27287" lon="18.091284">
        <ele>40</ele>
        <time>2020-01-22T08:15:18Z</time>
      </trkpt>
      <trkpt lat="59.272823" lon="18.091351">
        <ele>40</ele>
        <time>2020-01-22T08:15:19Z</time>
      </trkpt>
      <trkpt lat="59.272783" lon="18.091448">
        <ele>40</ele>
        <time>2020-01-22T08:15:20Z</time>
      </trkpt>
      <trkpt lat="59.272755" lon="18.091558">
        <ele>40</ele>
        <time>2020-01-22T08:15:21Z</time>
      </trkpt>
      <trkpt lat="59.272739" lon="18.09168">
        <ele>40</ele>
        <time>2020-01-22T08:15:22Z</time>
      </trkpt>
      <trkpt lat="59.272724" lon="18.091805">
        <ele>40</ele>
        <time>2020-01-22T08:15:23Z</time>
      </trkpt>
      <trkpt lat="59.272713" lon="18.09193">
        <ele>40</ele>
        <time>2020-01-22T08:15:24Z</time>
      </trkpt>
      <trkpt lat="59.272705" lon="18.092053">
        <ele>40</ele>
        <time>2020-01-22T08:15:25Z</time>
      </trkpt>
      <trkpt lat="59.272697" lon="18.092174">
        <ele>41</ele>
        <time>2020-01-22T08:15:26Z</time>
      </trkpt>
      <trkpt lat="59.272684" lon="18.092298">
        <ele>41</ele>
        <time>2020-01-22T08:15:27Z</time>
      </trkpt>
      <trkpt lat="59.27267" lon="18.092421">
        <ele>41</ele>
        <time>2020-01-22T08:15:28Z</time>
      </trkpt>
      <trkpt lat="59.272655" lon="18.092544">
        <ele>41</ele>
        <time>2020-01-22T08:15:29Z</time>
      </trkpt>
      <trkpt lat="59.272636" lon="18.092671">
        <ele>41</ele>
        <time>2020-01-22T08:15:30Z</time>
      </trkpt>
      <trkpt lat="59.272612" lon="18.092796">
        <ele>41</ele>
        <time>2020-01-22T08:15:31Z</time>
      </trkpt>
      <trkpt lat="59.272588" lon="18.092917">
        <ele>41</ele>
        <time>2020-01-22T08:15:32Z</time>
      </trkpt>
      <trkpt lat="59.272568" lon="18.093036">
        <ele>41</ele>
        <time>2020-01-22T08:15:33Z</time>
      </trkpt>
      <trkpt lat="59.272548" lon="18.093149">
        <ele>41</ele>
        <time>2020-01-22T08:15:34Z</time>
      </trkpt>
      <trkpt lat="59.272525" lon="18.093259">
        <ele>41</ele>
        <time>2020-01-22T08:15:35Z</time>
      </trkpt>
      <trkpt lat="59.272498" lon="18.093364">
        <ele>41</ele>
        <time>2020-01-22T08:15:36Z</time>
      </trkpt>
      <trkpt lat="59.272464" lon="18.093442">
        <ele>41</ele>
        <time>2020-01-22T08:15:37Z</time>
      </trkpt>
      <trkpt lat="59.272417" lon="18.093494">
        <ele>41</ele>
        <time>2020-01-22T08:15:38Z</time>
      </trkpt>
      <trkpt lat="59.272354" lon="18.093518">
        <ele>41</ele>
        <time>2020-01-22T08:15:39Z</time>
      </trkpt>
      <trkpt lat="59.27229" lon="18.093535">
        <ele>41</ele>
        <time>2020-01-22T08:15:40Z</time>
      </trkpt>
      <trkpt lat="59.27223" lon="18.093551">
        <ele>41</ele>
        <time>2020-01-22T08:15:41Z</time>
      </trkpt>
      <trkpt lat="59.272169" lon="18.093564">
        <ele>41</ele>
        <time>2020-01-22T08:15:42Z</time>
      </trkpt>
      <trkpt lat="59.272109" lon="18.093579">
        <ele>41</ele>
        <time>2020-01-22T08:15:43Z</time>
      </trkpt>
      <trkpt lat="59.27205" lon="18.093601">
        <ele>41</ele>
        <time>2020-01-22T08:15:44Z</time>
      </trkpt>
      <trkpt lat="59.27199" lon="18.093629">
        <ele>41</ele>
        <time>2020-01-22T08:15:45Z</time>
      </trkpt>
      <trkpt lat="59.271928" lon="18.093659">
        <ele>40</ele>
        <time>2020-01-22T08:15:46Z</time>
      </trkpt>
      <trkpt lat="59.271863" lon="18.09369">
        <ele>40</ele>
        <time>2020-01-22T08:15:47Z</time>
      </trkpt>
      <trkpt lat="59.271797" lon="18.093721">
        <ele>40</ele>
        <time>2020-01-22T08:15:48Z</time>
      </trkpt>
      <trkpt lat="59.271731" lon="18.093755">
        <ele>40</ele>
        <time>2020-01-22T08:15:49Z</time>
      </trkpt>
      <trkpt lat="59.271665" lon="18.093789">
        <ele>39</ele>
        <time>2020-01-22T08:15:50Z</time>
      </trkpt>
      <trkpt lat="59.271598" lon="18.093821">
        <ele>39</ele>
        <time>2020-01-22T08:15:51Z</time>
      </trkpt>
      <trkpt lat="59.271529" lon="18.09385">
        <ele>39</ele>
        <time>2020-01-22T08:15:52Z</time>
      </trkpt>
      <trkpt lat="59.271458" lon="18.093875">
        <ele>39</ele>
        <time>2020-01-22T08:15:53Z</time>
      </trkpt>
      <trkpt lat="59.271385" lon="18.093897">
        <ele>39</ele>
        <time>2020-01-22T08:15:54Z</time>
      </trkpt>
      <trkpt lat="59.271312" lon="18.093917">
        <ele>39</ele>
        <time>2020-01-22T08:15:55Z</time>
      </trkpt>
      <trkpt lat="59.271241" lon="18.093938">
        <ele>39</ele>
        <time>2020-01-22T08:15:56Z</time>
      </trkpt>
      <trkpt lat="59.271171" lon="18.093961">
        <ele>39</ele>
        <time>2020-01-22T08:15:57Z</time>
      </trkpt>
      <trkpt lat="59.271103" lon="18.093986">
        <ele>38</ele>
        <time>2020-01-22T08:15:58Z</time>
      </trkpt>
      <trkpt lat="59.271039" lon="18.094016">
        <ele>38</ele>
        <time>2020-01-22T08:15:59Z</time>
      </trkpt>
      <trkpt lat="59.270975" lon="18.094051">
        <ele>39</ele>
        <time>2020-01-22T08:16:00Z</time>
      </trkpt>
      <trkpt lat="59.270913" lon="18.094083">
        <ele>39</ele>
        <time>2020-01-22T08:16:01Z</time>
      </trkpt>
      <trkpt lat="59.27084" lon="18.09412">
        <ele>39</ele>
        <time>2020-01-22T08:16:02Z</time>
      </trkpt>
      <trkpt lat="59.270765" lon="18.094156">
        <ele>39</ele>
        <time>2020-01-22T08:16:03Z</time>
      </trkpt>
      <trkpt lat="59.270689" lon="18.094193">
        <ele>39</ele>
        <time>2020-01-22T08:16:04Z</time>
      </trkpt>
      <trkpt lat="59.270613" lon="18.094228">
        <ele>39</ele>
        <time>2020-01-22T08:16:05Z</time>
      </trkpt>
      <trkpt lat="59.270537" lon="18.094259">
        <ele>39</ele>
        <time>2020-01-22T08:16:06Z</time>
      </trkpt>
      <trkpt lat="59.270463" lon="18.094287">
        <ele>38</ele>
        <time>2020-01-22T08:16:07Z</time>
      </trkpt>
      <trkpt lat="59.270389" lon="18.094313">
        <ele>38</ele>
        <time>2020-01-22T08:16:08Z</time>
      </trkpt>
      <trkpt lat="59.270316" lon="18.09434">
        <ele>38</ele>
        <time>2020-01-22T08:16:09Z</time>
      </trkpt>
      <trkpt lat="59.270244" lon="18.094366">
        <ele>38</ele>
        <time>2020-01-22T08:16:10Z</time>
      </trkpt>
      <trkpt lat="59.270175" lon="18.09439">
        <ele>38</ele>
        <time>2020-01-22T08:16:11Z</time>
      </trkpt>
      <trkpt lat="59.270108" lon="18.094415">
        <ele>38</ele>
        <time>2020-01-22T08:16:12Z</time>
      </trkpt>
      <trkpt lat="59.270041" lon="18.094442">
        <ele>38</ele>
        <time>2020-01-22T08:16:13Z</time>
      </trkpt>
      <trkpt lat="59.269975" lon="18.09447">
        <ele>38</ele>
        <time>2020-01-22T08:16:14Z</time>
      </trkpt>
      <trkpt lat="59.26991" lon="18.094505">
        <ele>38</ele>
        <time>2020-01-22T08:16:15Z</time>
      </trkpt>
      <trkpt lat="59.269847" lon="18.094549">
        <ele>39</ele>
        <time>2020-01-22T08:16:16Z</time>
      </trkpt>
      <trkpt lat="59.269785" lon="18.094597">
        <ele>39</ele>
        <time>2020-01-22T08:16:17Z</time>
      </trkpt>
      <trkpt lat="59.269728" lon="18.094646">
        <ele>39</ele>
        <time>2020-01-22T08:16:18Z</time>
      </trkpt>
      <trkpt lat="59.269674" lon="18.094688">
        <ele>39</ele>
        <time>2020-01-22T08:16:19Z</time>
      </trkpt>
      <trkpt lat="59.269616" lon="18.094725">
        <ele>39</ele>
        <time>2020-01-22T08:16:20Z</time>
      </trkpt>
      <trkpt lat="59.269556" lon="18.094759">
        <ele>38</ele>
        <time>2020-01-22T08:16:21Z</time>
      </trkpt>
      <trkpt lat="59.269493" lon="18.09479">
        <ele>38</ele>
        <time>2020-01-22T08:16:22Z</time>
      </trkpt>
      <trkpt lat="59.269429" lon="18.094813">
        <ele>38</ele>
        <time>2020-01-22T08:16:23Z</time>
      </trkpt>
      <trkpt lat="59.269358" lon="18.094845">
        <ele>38</ele>
        <time>2020-01-22T08:16:24Z</time>
      </trkpt>
      <trkpt lat="59.269295" lon="18.094871">
        <ele>38</ele>
        <time>2020-01-22T08:16:25Z</time>
      </trkpt>
      <trkpt lat="59.269231" lon="18.094902">
        <ele>38</ele>
        <time>2020-01-22T08:16:26Z</time>
      </trkpt>
      <trkpt lat="59.269174" lon="18.094931">
        <ele>38</ele>
        <time>2020-01-22T08:16:27Z</time>
      </trkpt>
      <trkpt lat="59.269116" lon="18.094964">
        <ele>38</ele>
        <time>2020-01-22T08:16:28Z</time>
      </trkpt>
      <trkpt lat="59.26906" lon="18.094995">
        <ele>38</ele>
        <time>2020-01-22T08:16:29Z</time>
      </trkpt>
      <trkpt lat="59.268997" lon="18.095028">
        <ele>38</ele>
        <time>2020-01-22T08:16:30Z</time>
      </trkpt>
      <trkpt lat="59.268931" lon="18.095064">
        <ele>38</ele>
        <time>2020-01-22T08:16:31Z</time>
      </trkpt>
      <trkpt lat="59.268869" lon="18.095099">
        <ele>38</ele>
        <time>2020-01-22T08:16:32Z</time>
      </trkpt>
      <trkpt lat="59.26881" lon="18.095131">
        <ele>38</ele>
        <time>2020-01-22T08:16:33Z</time>
      </trkpt>
      <trkpt lat="59.268757" lon="18.095161">
        <ele>38</ele>
        <time>2020-01-22T08:16:34Z</time>
      </trkpt>
      <trkpt lat="59.268705" lon="18.095189">
        <ele>38</ele>
        <time>2020-01-22T08:16:35Z</time>
      </trkpt>
      <trkpt lat="59.268649" lon="18.095222">
        <ele>38</ele>
        <time>2020-01-22T08:16:36Z</time>
      </trkpt>
      <trkpt lat="59.26859" lon="18.095267">
        <ele>38</ele>
        <time>2020-01-22T08:16:37Z</time>
      </trkpt>
      <trkpt lat="59.268532" lon="18.095313">
        <ele>38</ele>
        <time>2020-01-22T08:16:38Z</time>
      </trkpt>
      <trkpt lat="59.26847" lon="18.095359">
        <ele>38</ele>
        <time>2020-01-22T08:16:39Z</time>
      </trkpt>
      <trkpt lat="59.26841" lon="18.095398">
        <ele>38</ele>
        <time>2020-01-22T08:16:40Z</time>
      </trkpt>
      <trkpt lat="59.268351" lon="18.095438">
        <ele>38</ele>
        <time>2020-01-22T08:16:41Z</time>
      </trkpt>
      <trkpt lat="59.268289" lon="18.095478">
        <ele>38</ele>
        <time>2020-01-22T08:16:42Z</time>
      </trkpt>
      <trkpt lat="59.268225" lon="18.095522">
        <ele>38</ele>
        <time>2020-01-22T08:16:43Z</time>
      </trkpt>
      <trkpt lat="59.268161" lon="18.095563">
        <ele>38</ele>
        <time>2020-01-22T08:16:44Z</time>
      </trkpt>
      <trkpt lat="59.268094" lon="18.095608">
        <ele>38</ele>
        <time>2020-01-22T08:16:45Z</time>
      </trkpt>
      <trkpt lat="59.268027" lon="18.09565">
        <ele>39</ele>
        <time>2020-01-22T08:16:46Z</time>
      </trkpt>
      <trkpt lat="59.267958" lon="18.095689">
        <ele>39</ele>
        <time>2020-01-22T08:16:47Z</time>
      </trkpt>
      <trkpt lat="59.267883" lon="18.095724">
        <ele>38</ele>
        <time>2020-01-22T08:16:48Z</time>
      </trkpt>
      <trkpt lat="59.267811" lon="18.09575">
        <ele>38</ele>
        <time>2020-01-22T08:16:49Z</time>
      </trkpt>
      <trkpt lat="59.267738" lon="18.09577">
        <ele>38</ele>
        <time>2020-01-22T08:16:50Z</time>
      </trkpt>
      <trkpt lat="59.267668" lon="18.095788">
        <ele>38</ele>
        <time>2020-01-22T08:16:51Z</time>
      </trkpt>
      <trkpt lat="59.267593" lon="18.09581">
        <ele>38</ele>
        <time>2020-01-22T08:16:52Z</time>
      </trkpt>
      <trkpt lat="59.267525" lon="18.095831">
        <ele>38</ele>
        <time>2020-01-22T08:16:53Z</time>
      </trkpt>
      <trkpt lat="59.267452" lon="18.095854">
        <ele>38</ele>
        <time>2020-01-22T08:16:54Z</time>
      </trkpt>
      <trkpt lat="59.267383" lon="18.095875">
        <ele>38</ele>
        <time>2020-01-22T08:16:55Z</time>
      </trkpt>
      <trkpt lat="59.267308" lon="18.0959">
        <ele>38</ele>
        <time>2020-01-22T08:16:56Z</time>
      </trkpt>
      <trkpt lat="59.267241" lon="18.095917">
        <ele>38</ele>
        <time>2020-01-22T08:16:57Z</time>
      </trkpt>
      <trkpt lat="59.267174" lon="18.095935">
        <ele>38</ele>
        <time>2020-01-22T08:16:58Z</time>
      </trkpt>
      <trkpt lat="59.267109" lon="18.095955">
        <ele>38</ele>
        <time>2020-01-22T08:16:59Z</time>
      </trkpt>
      <trkpt lat="59.267045" lon="18.095977">
        <ele>38</ele>
        <time>2020-01-22T08:17:00Z</time>
      </trkpt>
      <trkpt lat="59.266982" lon="18.096002">
        <ele>38</ele>
        <time>2020-01-22T08:17:01Z</time>
      </trkpt>
      <trkpt lat="59.266913" lon="18.096041">
        <ele>38</ele>
        <time>2020-01-22T08:17:02Z</time>
      </trkpt>
      <trkpt lat="59.266849" lon="18.096096">
        <ele>38</ele>
        <time>2020-01-22T08:17:03Z</time>
      </trkpt>
      <trkpt lat="59.26679" lon="18.096166">
        <ele>38</ele>
        <time>2020-01-22T08:17:04Z</time>
      </trkpt>
      <trkpt lat="59.266735" lon="18.096249">
        <ele>38</ele>
        <time>2020-01-22T08:17:05Z</time>
      </trkpt>
      <trkpt lat="59.266679" lon="18.096332">
        <ele>38</ele>
        <time>2020-01-22T08:17:06Z</time>
      </trkpt>
      <trkpt lat="59.266626" lon="18.096416">
        <ele>38</ele>
        <time>2020-01-22T08:17:07Z</time>
      </trkpt>
      <trkpt lat="59.266565" lon="18.096504">
        <ele>38</ele>
        <time>2020-01-22T08:17:08Z</time>
      </trkpt>
      <trkpt lat="59.2665" lon="18.096592">
        <ele>37</ele>
        <time>2020-01-22T08:17:09Z</time>
      </trkpt>
      <trkpt lat="59.266431" lon="18.096677">
        <ele>37</ele>
        <time>2020-01-22T08:17:10Z</time>
      </trkpt>
      <trkpt lat="59.266364" lon="18.096762">
        <ele>37</ele>
        <time>2020-01-22T08:17:11Z</time>
      </trkpt>
      <trkpt lat="59.2663" lon="18.096837">
        <ele>37</ele>
        <time>2020-01-22T08:17:12Z</time>
      </trkpt>
      <trkpt lat="59.266229" lon="18.096893">
        <ele>37</ele>
        <time>2020-01-22T08:17:13Z</time>
      </trkpt>
      <trkpt lat="59.266158" lon="18.096931">
        <ele>36</ele>
        <time>2020-01-22T08:17:14Z</time>
      </trkpt>
      <trkpt lat="59.26609" lon="18.096967">
        <ele>37</ele>
        <time>2020-01-22T08:17:15Z</time>
      </trkpt>
      <trkpt lat="59.266025" lon="18.097007">
        <ele>37</ele>
        <time>2020-01-22T08:17:16Z</time>
      </trkpt>
      <trkpt lat="59.265959" lon="18.097045">
        <ele>37</ele>
        <time>2020-01-22T08:17:17Z</time>
      </trkpt>
      <trkpt lat="59.265886" lon="18.097085">
        <ele>37</ele>
        <time>2020-01-22T08:17:18Z</time>
      </trkpt>
      <trkpt lat="59.265813" lon="18.097123">
        <ele>37</ele>
        <time>2020-01-22T08:17:19Z</time>
      </trkpt>
      <trkpt lat="59.265741" lon="18.097158">
        <ele>36</ele>
        <time>2020-01-22T08:17:20Z</time>
      </trkpt>
      <trkpt lat="59.265668" lon="18.09719">
        <ele>36</ele>
        <time>2020-01-22T08:17:21Z</time>
      </trkpt>
      <trkpt lat="59.265587" lon="18.097223">
        <ele>36</ele>
        <time>2020-01-22T08:17:22Z</time>
      </trkpt>
      <trkpt lat="59.265504" lon="18.09726">
        <ele>36</ele>
        <time>2020-01-22T08:17:23Z</time>
      </trkpt>
      <trkpt lat="59.265423" lon="18.097296">
        <ele>35</ele>
        <time>2020-01-22T08:17:24Z</time>
      </trkpt>
      <trkpt lat="59.265341" lon="18.097323">
        <ele>35</ele>
        <time>2020-01-22T08:17:25Z</time>
      </trkpt>
      <trkpt lat="59.265262" lon="18.097339">
        <ele>35</ele>
        <time>2020-01-22T08:17:26Z</time>
      </trkpt>
      <trkpt lat="59.265187" lon="18.097354">
        <ele>36</ele>
        <time>2020-01-22T08:17:27Z</time>
      </trkpt>
      <trkpt lat="59.265113" lon="18.09738">
        <ele>36</ele>
        <time>2020-01-22T08:17:28Z</time>
      </trkpt>
      <trkpt lat="59.265043" lon="18.097408">
        <ele>36</ele>
        <time>2020-01-22T08:17:29Z</time>
      </trkpt>
      <trkpt lat="59.264978" lon="18.097437">
        <ele>36</ele>
        <time>2020-01-22T08:17:30Z</time>
      </trkpt>
      <trkpt lat="59.264916" lon="18.097465">
        <ele>36</ele>
        <time>2020-01-22T08:17:31Z</time>
      </trkpt>
      <trkpt lat="59.264854" lon="18.097492">
        <ele>36</ele>
        <time>2020-01-22T08:17:32Z</time>
      </trkpt>
      <trkpt lat="59.264795" lon="18.097519">
        <ele>36</ele>
        <time>2020-01-22T08:17:33Z</time>
      </trkpt>
      <trkpt lat="59.264739" lon="18.097543">
        <ele>36</ele>
        <time>2020-01-22T08:17:34Z</time>
      </trkpt>
      <trkpt lat="59.264679" lon="18.097564">
        <ele>36</ele>
        <time>2020-01-22T08:17:35Z</time>
      </trkpt>
      <trkpt lat="59.264617" lon="18.097585">
        <ele>36</ele>
        <time>2020-01-22T08:17:36Z</time>
      </trkpt>
      <trkpt lat="59.264555" lon="18.097613">
        <ele>36</ele>
        <time>2020-01-22T08:17:37Z</time>
      </trkpt>
      <trkpt lat="59.264493" lon="18.097643">
        <ele>37</ele>
        <time>2020-01-22T08:17:38Z</time>
      </trkpt>
      <trkpt lat="59.264435" lon="18.09767">
        <ele>37</ele>
        <time>2020-01-22T08:17:39Z</time>
      </trkpt>
      <trkpt lat="59.264376" lon="18.097695">
        <ele>37</ele>
        <time>2020-01-22T08:17:40Z</time>
      </trkpt>
      <trkpt lat="59.264318" lon="18.097721">
        <ele>37</ele>
        <time>2020-01-22T08:17:41Z</time>
      </trkpt>
      <trkpt lat="59.264259" lon="18.097746">
        <ele>37</ele>
        <time>2020-01-22T08:17:42Z</time>
      </trkpt>
      <trkpt lat="59.264195" lon="18.09777">
        <ele>37</ele>
        <time>2020-01-22T08:17:43Z</time>
      </trkpt>
      <trkpt lat="59.264134" lon="18.097792">
        <ele>37</ele>
        <time>2020-01-22T08:17:44Z</time>
      </trkpt>
      <trkpt lat="59.264071" lon="18.097812">
        <ele>37</ele>
        <time>2020-01-22T08:17:45Z</time>
      </trkpt>
      <trkpt lat="59.264012" lon="18.09783">
        <ele>37</ele>
        <time>2020-01-22T08:17:46Z</time>
      </trkpt>
      <trkpt lat="59.26395" lon="18.097849">
        <ele>37</ele>
        <time>2020-01-22T08:17:47Z</time>
      </trkpt>
      <trkpt lat="59.263884" lon="18.09787">
        <ele>37</ele>
        <time>2020-01-22T08:17:48Z</time>
      </trkpt>
      <trkpt lat="59.263815" lon="18.097896">
        <ele>37</ele>
        <time>2020-01-22T08:17:49Z</time>
      </trkpt>
      <trkpt lat="59.263746" lon="18.097919">
        <ele>37</ele>
        <time>2020-01-22T08:17:50Z</time>
      </trkpt>
      <trkpt lat="59.263679" lon="18.097939">
        <ele>37</ele>
        <time>2020-01-22T08:17:51Z</time>
      </trkpt>
      <trkpt lat="59.263609" lon="18.097962">
        <ele>37</ele>
        <time>2020-01-22T08:17:52Z</time>
      </trkpt>
      <trkpt lat="59.263531" lon="18.097986">
        <ele>37</ele>
        <time>2020-01-22T08:17:53Z</time>
      </trkpt>
      <trkpt lat="59.263456" lon="18.098008">
        <ele>37</ele>
        <time>2020-01-22T08:17:55Z</time>
      </trkpt>
      <trkpt lat="59.263377" lon="18.098031">
        <ele>36</ele>
        <time>2020-01-22T08:17:55Z</time>
      </trkpt>
      <trkpt lat="59.263297" lon="18.098052">
        <ele>36</ele>
        <time>2020-01-22T08:17:56Z</time>
      </trkpt>
      <trkpt lat="59.263218" lon="18.098068">
        <ele>36</ele>
        <time>2020-01-22T08:17:57Z</time>
      </trkpt>
      <trkpt lat="59.26313" lon="18.098087">
        <ele>35</ele>
        <time>2020-01-22T08:17:58Z</time>
      </trkpt>
      <trkpt lat="59.263041" lon="18.098099">
        <ele>35</ele>
        <time>2020-01-22T08:17:59Z</time>
      </trkpt>
      <trkpt lat="59.262955" lon="18.098106">
        <ele>35</ele>
        <time>2020-01-22T08:18:00Z</time>
      </trkpt>
      <trkpt lat="59.262873" lon="18.098106">
        <ele>35</ele>
        <time>2020-01-22T08:18:01Z</time>
      </trkpt>
      <trkpt lat="59.26279" lon="18.098105">
        <ele>34</ele>
        <time>2020-01-22T08:18:02Z</time>
      </trkpt>
      <trkpt lat="59.262704" lon="18.098105">
        <ele>34</ele>
        <time>2020-01-22T08:18:03Z</time>
      </trkpt>
      <trkpt lat="59.262616" lon="18.098112">
        <ele>34</ele>
        <time>2020-01-22T08:18:04Z</time>
      </trkpt>
      <trkpt lat="59.262529" lon="18.098112">
        <ele>33</ele>
        <time>2020-01-22T08:18:05Z</time>
      </trkpt>
      <trkpt lat="59.262442" lon="18.098101">
        <ele>33</ele>
        <time>2020-01-22T08:18:06Z</time>
      </trkpt>
      <trkpt lat="59.262357" lon="18.098078">
        <ele>33</ele>
        <time>2020-01-22T08:18:07Z</time>
      </trkpt>
      <trkpt lat="59.262274" lon="18.098035">
        <ele>32</ele>
        <time>2020-01-22T08:18:08Z</time>
      </trkpt>
      <trkpt lat="59.262199" lon="18.097965">
        <ele>32</ele>
        <time>2020-01-22T08:18:09Z</time>
      </trkpt>
      <trkpt lat="59.262131" lon="18.097879">
        <ele>31</ele>
        <time>2020-01-22T08:18:10Z</time>
      </trkpt>
      <trkpt lat="59.262067" lon="18.097786">
        <ele>31</ele>
        <time>2020-01-22T08:18:11Z</time>
      </trkpt>
      <trkpt lat="59.262006" lon="18.097693">
        <ele>31</ele>
        <time>2020-01-22T08:18:12Z</time>
      </trkpt>
      <trkpt lat="59.261946" lon="18.097601">
        <ele>30</ele>
        <time>2020-01-22T08:18:14Z</time>
      </trkpt>
      <trkpt lat="59.261888" lon="18.09751">
        <ele>30</ele>
        <time>2020-01-22T08:18:14Z</time>
      </trkpt>
      <trkpt lat="59.261831" lon="18.097418">
        <ele>30</ele>
        <time>2020-01-22T08:18:15Z</time>
      </trkpt>
      <trkpt lat="59.261775" lon="18.097327">
        <ele>30</ele>
        <time>2020-01-22T08:18:16Z</time>
      </trkpt>
      <trkpt lat="59.26172" lon="18.097238">
        <ele>30</ele>
        <time>2020-01-22T08:18:17Z</time>
      </trkpt>
      <trkpt lat="59.261666" lon="18.09715">
        <ele>30</ele>
        <time>2020-01-22T08:18:18Z</time>
      </trkpt>
      <trkpt lat="59.261614" lon="18.09706">
        <ele>30</ele>
        <time>2020-01-22T08:18:19Z</time>
      </trkpt>
      <trkpt lat="59.261564" lon="18.096972">
        <ele>30</ele>
        <time>2020-01-22T08:18:20Z</time>
      </trkpt>
      <trkpt lat="59.261512" lon="18.096888">
        <ele>30</ele>
        <time>2020-01-22T08:18:21Z</time>
      </trkpt>
      <trkpt lat="59.261459" lon="18.096808">
        <ele>30</ele>
        <time>2020-01-22T08:18:22Z</time>
      </trkpt>
      <trkpt lat="59.261404" lon="18.096733">
        <ele>30</ele>
        <time>2020-01-22T08:18:23Z</time>
      </trkpt>
      <trkpt lat="59.261347" lon="18.096667">
        <ele>29</ele>
        <time>2020-01-22T08:18:24Z</time>
      </trkpt>
      <trkpt lat="59.261289" lon="18.096611">
        <ele>29</ele>
        <time>2020-01-22T08:18:25Z</time>
      </trkpt>
      <trkpt lat="59.26123" lon="18.09656">
        <ele>29</ele>
        <time>2020-01-22T08:18:26Z</time>
      </trkpt>
      <trkpt lat="59.261171" lon="18.096514">
        <ele>29</ele>
        <time>2020-01-22T08:18:27Z</time>
      </trkpt>
      <trkpt lat="59.261112" lon="18.096475">
        <ele>29</ele>
        <time>2020-01-22T08:18:28Z</time>
      </trkpt>
      <trkpt lat="59.26105" lon="18.096443">
        <ele>29</ele>
        <time>2020-01-22T08:18:29Z</time>
      </trkpt>
      <trkpt lat="59.260987" lon="18.096421">
        <ele>29</ele>
        <time>2020-01-22T08:18:30Z</time>
      </trkpt>
      <trkpt lat="59.260922" lon="18.096411">
        <ele>29</ele>
        <time>2020-01-22T08:18:31Z</time>
      </trkpt>
      <trkpt lat="59.260854" lon="18.096416">
        <ele>28</ele>
        <time>2020-01-22T08:18:32Z</time>
      </trkpt>
      <trkpt lat="59.260784" lon="18.096427">
        <ele>28</ele>
        <time>2020-01-22T08:18:33Z</time>
      </trkpt>
      <trkpt lat="59.260711" lon="18.096443">
        <ele>27</ele>
        <time>2020-01-22T08:18:34Z</time>
      </trkpt>
      <trkpt lat="59.260636" lon="18.096463">
        <ele>27</ele>
        <time>2020-01-22T08:18:35Z</time>
      </trkpt>
      <trkpt lat="59.260558" lon="18.096483">
        <ele>27</ele>
        <time>2020-01-22T08:18:36Z</time>
      </trkpt>
      <trkpt lat="59.260478" lon="18.096507">
        <ele>26</ele>
        <time>2020-01-22T08:18:37Z</time>
      </trkpt>
      <trkpt lat="59.260399" lon="18.096538">
        <ele>26</ele>
        <time>2020-01-22T08:18:38Z</time>
      </trkpt>
      <trkpt lat="59.260247" lon="18.096601">
        <ele>26</ele>
        <time>2020-01-22T08:18:40Z</time>
      </trkpt>
      <trkpt lat="59.260177" lon="18.096654">
        <ele>26</ele>
        <time>2020-01-22T08:18:41Z</time>
      </trkpt>
      <trkpt lat="59.260104" lon="18.096704">
        <ele>26</ele>
        <time>2020-01-22T08:18:42Z</time>
      </trkpt>
      <trkpt lat="59.259982" lon="18.096847">
        <ele>26</ele>
        <time>2020-01-22T08:18:44Z</time>
      </trkpt>
      <trkpt lat="59.259923" lon="18.096916">
        <ele>26</ele>
        <time>2020-01-22T08:18:45Z</time>
      </trkpt>
      <trkpt lat="59.259873" lon="18.09699">
        <ele>27</ele>
        <time>2020-01-22T08:18:46Z</time>
      </trkpt>
      <trkpt lat="59.259829" lon="18.09707">
        <ele>27</ele>
        <time>2020-01-22T08:18:47Z</time>
      </trkpt>
      <trkpt lat="59.259791" lon="18.097159">
        <ele>27</ele>
        <time>2020-01-22T08:18:48Z</time>
      </trkpt>
      <trkpt lat="59.25976" lon="18.097254">
        <ele>27</ele>
        <time>2020-01-22T08:18:49Z</time>
      </trkpt>
      <trkpt lat="59.259734" lon="18.097354">
        <ele>27</ele>
        <time>2020-01-22T08:18:50Z</time>
      </trkpt>
      <trkpt lat="59.259715" lon="18.097461">
        <ele>27</ele>
        <time>2020-01-22T08:18:51Z</time>
      </trkpt>
      <trkpt lat="59.259702" lon="18.097579">
        <ele>28</ele>
        <time>2020-01-22T08:18:52Z</time>
      </trkpt>
      <trkpt lat="59.259691" lon="18.0977">
        <ele>28</ele>
        <time>2020-01-22T08:18:53Z</time>
      </trkpt>
      <trkpt lat="59.259681" lon="18.097824">
        <ele>28</ele>
        <time>2020-01-22T08:18:54Z</time>
      </trkpt>
      <trkpt lat="59.25967" lon="18.097952">
        <ele>28</ele>
        <time>2020-01-22T08:18:55Z</time>
      </trkpt>
      <trkpt lat="59.259659" lon="18.098079">
        <ele>28</ele>
        <time>2020-01-22T08:18:56Z</time>
      </trkpt>
      <trkpt lat="59.259648" lon="18.098207">
        <ele>28</ele>
        <time>2020-01-22T08:18:57Z</time>
      </trkpt>
      <trkpt lat="59.259636" lon="18.098338">
        <ele>28</ele>
        <time>2020-01-22T08:18:58Z</time>
      </trkpt>
      <trkpt lat="59.259622" lon="18.098471">
        <ele>28</ele>
        <time>2020-01-22T08:18:59Z</time>
      </trkpt>
      <trkpt lat="59.259605" lon="18.098604">
        <ele>27</ele>
        <time>2020-01-22T08:19:00Z</time>
      </trkpt>
      <trkpt lat="59.25958" lon="18.09873">
        <ele>27</ele>
        <time>2020-01-22T08:19:01Z</time>
      </trkpt>
      <trkpt lat="59.259547" lon="18.09885">
        <ele>27</ele>
        <time>2020-01-22T08:19:02Z</time>
      </trkpt>
      <trkpt lat="59.259506" lon="18.098956">
        <ele>27</ele>
        <time>2020-01-22T08:19:03Z</time>
      </trkpt>
      <trkpt lat="59.259455" lon="18.09905">
        <ele>27</ele>
        <time>2020-01-22T08:19:04Z</time>
      </trkpt>
      <trkpt lat="59.259399" lon="18.099124">
        <ele>27</ele>
        <time>2020-01-22T08:19:05Z</time>
      </trkpt>
      <trkpt lat="59.259339" lon="18.099182">
        <ele>27</ele>
        <time>2020-01-22T08:19:06Z</time>
      </trkpt>
      <trkpt lat="59.259277" lon="18.099226">
        <ele>27</ele>
        <time>2020-01-22T08:19:07Z</time>
      </trkpt>
      <trkpt lat="59.259213" lon="18.09925">
        <ele>27</ele>
        <time>2020-01-22T08:19:08Z</time>
      </trkpt>
      <trkpt lat="59.259147" lon="18.099254">
        <ele>27</ele>
        <time>2020-01-22T08:19:09Z</time>
      </trkpt>
      <trkpt lat="59.259083" lon="18.099254">
        <ele>27</ele>
        <time>2020-01-22T08:19:10Z</time>
      </trkpt>
      <trkpt lat="59.259021" lon="18.099256">
        <ele>27</ele>
        <time>2020-01-22T08:19:11Z</time>
      </trkpt>
      <trkpt lat="59.258962" lon="18.099258">
        <ele>27</ele>
        <time>2020-01-22T08:19:12Z</time>
      </trkpt>
      <trkpt lat="59.258902" lon="18.09926">
        <ele>27</ele>
        <time>2020-01-22T08:19:13Z</time>
      </trkpt>
      <trkpt lat="59.258842" lon="18.099264">
        <ele>27</ele>
        <time>2020-01-22T08:19:14Z</time>
      </trkpt>
      <trkpt lat="59.258779" lon="18.099268">
        <ele>27</ele>
        <time>2020-01-22T08:19:15Z</time>
      </trkpt>
      <trkpt lat="59.258716" lon="18.09927">
        <ele>27</ele>
        <time>2020-01-22T08:19:16Z</time>
      </trkpt>
      <trkpt lat="59.258652" lon="18.099272">
        <ele>27</ele>
        <time>2020-01-22T08:19:17Z</time>
      </trkpt>
      <trkpt lat="59.258591" lon="18.099272">
        <ele>27</ele>
        <time>2020-01-22T08:19:18Z</time>
      </trkpt>
      <trkpt lat="59.258529" lon="18.099272">
        <ele>27</ele>
        <time>2020-01-22T08:19:19Z</time>
      </trkpt>
      <trkpt lat="59.258467" lon="18.099268">
        <ele>27</ele>
        <time>2020-01-22T08:19:20Z</time>
      </trkpt>
      <trkpt lat="59.258407" lon="18.099262">
        <ele>27</ele>
        <time>2020-01-22T08:19:21Z</time>
      </trkpt>
      <trkpt lat="59.258348" lon="18.099256">
        <ele>27</ele>
        <time>2020-01-22T08:19:22Z</time>
      </trkpt>
      <trkpt lat="59.258289" lon="18.09925">
        <ele>27</ele>
        <time>2020-01-22T08:19:23Z</time>
      </trkpt>
      <trkpt lat="59.258229" lon="18.099244">
        <ele>27</ele>
        <time>2020-01-22T08:19:24Z</time>
      </trkpt>
      <trkpt lat="59.258168" lon="18.09924">
        <ele>27</ele>
        <time>2020-01-22T08:19:25Z</time>
      </trkpt>
      <trkpt lat="59.258106" lon="18.099238">
        <ele>27</ele>
        <time>2020-01-22T08:19:26Z</time>
      </trkpt>
      <trkpt lat="59.258044" lon="18.099226">
        <ele>27</ele>
        <time>2020-01-22T08:19:27Z</time>
      </trkpt>
      <trkpt lat="59.25798" lon="18.09921">
        <ele>27</ele>
        <time>2020-01-22T08:19:28Z</time>
      </trkpt>
      <trkpt lat="59.257914" lon="18.099192">
        <ele>27</ele>
        <time>2020-01-22T08:19:29Z</time>
      </trkpt>
      <trkpt lat="59.257847" lon="18.099178">
        <ele>27</ele>
        <time>2020-01-22T08:19:30Z</time>
      </trkpt>
      <trkpt lat="59.257778" lon="18.09917">
        <ele>27</ele>
        <time>2020-01-22T08:19:31Z</time>
      </trkpt>
      <trkpt lat="59.257709" lon="18.099176">
        <ele>27</ele>
        <time>2020-01-22T08:19:32Z</time>
      </trkpt>
      <trkpt lat="59.25764" lon="18.099198">
        <ele>26</ele>
        <time>2020-01-22T08:19:33Z</time>
      </trkpt>
      <trkpt lat="59.257573" lon="18.09924">
        <ele>26</ele>
        <time>2020-01-22T08:19:34Z</time>
      </trkpt>
      <trkpt lat="59.25751" lon="18.099306">
        <ele>26</ele>
        <time>2020-01-22T08:19:35Z</time>
      </trkpt>
      <trkpt lat="59.257453" lon="18.09939">
        <ele>26</ele>
        <time>2020-01-22T08:19:36Z</time>
      </trkpt>
      <trkpt lat="59.257398" lon="18.099496">
        <ele>25</ele>
        <time>2020-01-22T08:19:37Z</time>
      </trkpt>
      <trkpt lat="59.25735" lon="18.09962">
        <ele>25</ele>
        <time>2020-01-22T08:19:38Z</time>
      </trkpt>
      <trkpt lat="59.257303" lon="18.099752">
        <ele>25</ele>
        <time>2020-01-22T08:19:39Z</time>
      </trkpt>
      <trkpt lat="59.257262" lon="18.099886">
        <ele>25</ele>
        <time>2020-01-22T08:19:40Z</time>
      </trkpt>
      <trkpt lat="59.257222" lon="18.100018">
        <ele>25</ele>
        <time>2020-01-22T08:19:41Z</time>
      </trkpt>
      <trkpt lat="59.257185" lon="18.10015">
        <ele>25</ele>
        <time>2020-01-22T08:19:42Z</time>
      </trkpt>
      <trkpt lat="59.257149" lon="18.10028">
        <ele>25</ele>
        <time>2020-01-22T08:19:43Z</time>
      </trkpt>
      <trkpt lat="59.257003" lon="18.100766">
        <ele>25</ele>
        <time>2020-01-22T08:19:47Z</time>
      </trkpt>
      <trkpt lat="59.256969" lon="18.100974">
        <ele>25</ele>
        <time>2020-01-22T08:19:49Z</time>
      </trkpt>
      <trkpt lat="59.256893" lon="18.101088">
        <ele>26</ele>
        <time>2020-01-22T08:19:51Z</time>
      </trkpt>
      <trkpt lat="59.256845" lon="18.101086">
        <ele>26</ele>
        <time>2020-01-22T08:19:52Z</time>
      </trkpt>
      <trkpt lat="59.256783" lon="18.10108">
        <ele>26</ele>
        <time>2020-01-22T08:19:53Z</time>
      </trkpt>
      <trkpt lat="59.256723" lon="18.101076">
        <ele>26</ele>
        <time>2020-01-22T08:19:54Z</time>
      </trkpt>
      <trkpt lat="59.256661" lon="18.101072">
        <ele>25</ele>
        <time>2020-01-22T08:19:55Z</time>
      </trkpt>
      <trkpt lat="59.256599" lon="18.101066">
        <ele>25</ele>
        <time>2020-01-22T08:19:56Z</time>
      </trkpt>
      <trkpt lat="59.256536" lon="18.101062">
        <ele>25</ele>
        <time>2020-01-22T08:19:57Z</time>
      </trkpt>
      <trkpt lat="59.256473" lon="18.101054">
        <ele>25</ele>
        <time>2020-01-22T08:19:58Z</time>
      </trkpt>
      <trkpt lat="59.256414" lon="18.10105">
        <ele>25</ele>
        <time>2020-01-22T08:19:59Z</time>
      </trkpt>
      <trkpt lat="59.256352" lon="18.101046">
        <ele>25</ele>
        <time>2020-01-22T08:20:00Z</time>
      </trkpt>
      <trkpt lat="59.256287" lon="18.101041">
        <ele>25</ele>
        <time>2020-01-22T08:20:01Z</time>
      </trkpt>
      <trkpt lat="59.256227" lon="18.101037">
        <ele>25</ele>
        <time>2020-01-22T08:20:02Z</time>
      </trkpt>
      <trkpt lat="59.256168" lon="18.101032">
        <ele>25</ele>
        <time>2020-01-22T08:20:03Z</time>
      </trkpt>
      <trkpt lat="59.256107" lon="18.101027">
        <ele>25</ele>
        <time>2020-01-22T08:20:04Z</time>
      </trkpt>
      <trkpt lat="59.256047" lon="18.101021">
        <ele>25</ele>
        <time>2020-01-22T08:20:05Z</time>
      </trkpt>
      <trkpt lat="59.255988" lon="18.101016">
        <ele>25</ele>
        <time>2020-01-22T08:20:06Z</time>
      </trkpt>
      <trkpt lat="59.255928" lon="18.101013">
        <ele>25</ele>
        <time>2020-01-22T08:20:07Z</time>
      </trkpt>
      <trkpt lat="59.255868" lon="18.101009">
        <ele>25</ele>
        <time>2020-01-22T08:20:08Z</time>
      </trkpt>
      <trkpt lat="59.255807" lon="18.101003">
        <ele>25</ele>
        <time>2020-01-22T08:20:09Z</time>
      </trkpt>
      <trkpt lat="59.255744" lon="18.100998">
        <ele>25</ele>
        <time>2020-01-22T08:20:10Z</time>
      </trkpt>
      <trkpt lat="59.255681" lon="18.100993">
        <ele>25</ele>
        <time>2020-01-22T08:20:11Z</time>
      </trkpt>
      <trkpt lat="59.255616" lon="18.100986">
        <ele>25</ele>
        <time>2020-01-22T08:20:12Z</time>
      </trkpt>
      <trkpt lat="59.255552" lon="18.100977">
        <ele>25</ele>
        <time>2020-01-22T08:20:13Z</time>
      </trkpt>
      <trkpt lat="59.255487" lon="18.100962">
        <ele>25</ele>
        <time>2020-01-22T08:20:14Z</time>
      </trkpt>
      <trkpt lat="59.255423" lon="18.100947">
        <ele>25</ele>
        <time>2020-01-22T08:20:15Z</time>
      </trkpt>
      <trkpt lat="59.255359" lon="18.100931">
        <ele>25</ele>
        <time>2020-01-22T08:20:16Z</time>
      </trkpt>
      <trkpt lat="59.255296" lon="18.100917">
        <ele>25</ele>
        <time>2020-01-22T08:20:17Z</time>
      </trkpt>
      <trkpt lat="59.255233" lon="18.100906">
        <ele>25</ele>
        <time>2020-01-22T08:20:18Z</time>
      </trkpt>
      <trkpt lat="59.255169" lon="18.100893">
        <ele>25</ele>
        <time>2020-01-22T08:20:19Z</time>
      </trkpt>
      <trkpt lat="59.255105" lon="18.100876">
        <ele>25</ele>
        <time>2020-01-22T08:20:20Z</time>
      </trkpt>
      <trkpt lat="59.25504" lon="18.100858">
        <ele>25</ele>
        <time>2020-01-22T08:20:21Z</time>
      </trkpt>
      <trkpt lat="59.254975" lon="18.100841">
        <ele>25</ele>
        <time>2020-01-22T08:20:22Z</time>
      </trkpt>
      <trkpt lat="59.25491" lon="18.100824">
        <ele>24</ele>
        <time>2020-01-22T08:20:23Z</time>
      </trkpt>
      <trkpt lat="59.254845" lon="18.100808">
        <ele>24</ele>
        <time>2020-01-22T08:20:24Z</time>
      </trkpt>
      <trkpt lat="59.25478" lon="18.100791">
        <ele>24</ele>
        <time>2020-01-22T08:20:25Z</time>
      </trkpt>
      <trkpt lat="59.254715" lon="18.100778">
        <ele>24</ele>
        <time>2020-01-22T08:20:26Z</time>
      </trkpt>
      <trkpt lat="59.254651" lon="18.100764">
        <ele>24</ele>
        <time>2020-01-22T08:20:27Z</time>
      </trkpt>
      <trkpt lat="59.254586" lon="18.100745">
        <ele>24</ele>
        <time>2020-01-22T08:20:28Z</time>
      </trkpt>
      <trkpt lat="59.254523" lon="18.100716">
        <ele>24</ele>
        <time>2020-01-22T08:20:29Z</time>
      </trkpt>
      <trkpt lat="59.254461" lon="18.100686">
        <ele>25</ele>
        <time>2020-01-22T08:20:30Z</time>
      </trkpt>
      <trkpt lat="59.254399" lon="18.100657">
        <ele>25</ele>
        <time>2020-01-22T08:20:31Z</time>
      </trkpt>
      <trkpt lat="59.254338" lon="18.100628">
        <ele>25</ele>
        <time>2020-01-22T08:20:32Z</time>
      </trkpt>
      <trkpt lat="59.254274" lon="18.100604">
        <ele>24</ele>
        <time>2020-01-22T08:20:33Z</time>
      </trkpt>
      <trkpt lat="59.254209" lon="18.100585">
        <ele>24</ele>
        <time>2020-01-22T08:20:34Z</time>
      </trkpt>
      <trkpt lat="59.254144" lon="18.100577">
        <ele>24</ele>
        <time>2020-01-22T08:20:35Z</time>
      </trkpt>
      <trkpt lat="59.254081" lon="18.100581">
        <ele>25</ele>
        <time>2020-01-22T08:20:36Z</time>
      </trkpt>
      <trkpt lat="59.254015" lon="18.100591">
        <ele>24</ele>
        <time>2020-01-22T08:20:37Z</time>
      </trkpt>
      <trkpt lat="59.25395" lon="18.100588">
        <ele>24</ele>
        <time>2020-01-22T08:20:38Z</time>
      </trkpt>
      <trkpt lat="59.253886" lon="18.10057">
        <ele>24</ele>
        <time>2020-01-22T08:20:39Z</time>
      </trkpt>
      <trkpt lat="59.253821" lon="18.100547">
        <ele>24</ele>
        <time>2020-01-22T08:20:40Z</time>
      </trkpt>
      <trkpt lat="59.253755" lon="18.100521">
        <ele>24</ele>
        <time>2020-01-22T08:20:41Z</time>
      </trkpt>
      <trkpt lat="59.253688" lon="18.100492">
        <ele>24</ele>
        <time>2020-01-22T08:20:42Z</time>
      </trkpt>
      <trkpt lat="59.253621" lon="18.100461">
        <ele>24</ele>
        <time>2020-01-22T08:20:43Z</time>
      </trkpt>
      <trkpt lat="59.253555" lon="18.100426">
        <ele>23</ele>
        <time>2020-01-22T08:20:44Z</time>
      </trkpt>
      <trkpt lat="59.253489" lon="18.100388">
        <ele>23</ele>
        <time>2020-01-22T08:20:45Z</time>
      </trkpt>
      <trkpt lat="59.253425" lon="18.100347">
        <ele>23</ele>
        <time>2020-01-22T08:20:46Z</time>
      </trkpt>
      <trkpt lat="59.253363" lon="18.100301">
        <ele>23</ele>
        <time>2020-01-22T08:20:47Z</time>
      </trkpt>
      <trkpt lat="59.253302" lon="18.100253">
        <ele>23</ele>
        <time>2020-01-22T08:20:48Z</time>
      </trkpt>
      <trkpt lat="59.253242" lon="18.100204">
        <ele>23</ele>
        <time>2020-01-22T08:20:49Z</time>
      </trkpt>
      <trkpt lat="59.253182" lon="18.100162">
        <ele>22</ele>
        <time>2020-01-22T08:20:50Z</time>
      </trkpt>
      <trkpt lat="59.253119" lon="18.100134">
        <ele>22</ele>
        <time>2020-01-22T08:20:51Z</time>
      </trkpt>
      <trkpt lat="59.253054" lon="18.100122">
        <ele>22</ele>
        <time>2020-01-22T08:20:52Z</time>
      </trkpt>
      <trkpt lat="59.252988" lon="18.100123">
        <ele>22</ele>
        <time>2020-01-22T08:20:53Z</time>
      </trkpt>
      <trkpt lat="59.252923" lon="18.10013">
        <ele>22</ele>
        <time>2020-01-22T08:20:54Z</time>
      </trkpt>
      <trkpt lat="59.252858" lon="18.10014">
        <ele>22</ele>
        <time>2020-01-22T08:20:55Z</time>
      </trkpt>
      <trkpt lat="59.252793" lon="18.100153">
        <ele>22</ele>
        <time>2020-01-22T08:20:56Z</time>
      </trkpt>
      <trkpt lat="59.252728" lon="18.100169">
        <ele>22</ele>
        <time>2020-01-22T08:20:57Z</time>
      </trkpt>
      <trkpt lat="59.252664" lon="18.100191">
        <ele>22</ele>
        <time>2020-01-22T08:20:58Z</time>
      </trkpt>
      <trkpt lat="59.252601" lon="18.100216">
        <ele>22</ele>
        <time>2020-01-22T08:20:59Z</time>
      </trkpt>
      <trkpt lat="59.252539" lon="18.100243">
        <ele>22</ele>
        <time>2020-01-22T08:21:00Z</time>
      </trkpt>
      <trkpt lat="59.252478" lon="18.100273">
        <ele>22</ele>
        <time>2020-01-22T08:21:01Z</time>
      </trkpt>
      <trkpt lat="59.252416" lon="18.100305">
        <ele>22</ele>
        <time>2020-01-22T08:21:02Z</time>
      </trkpt>
      <trkpt lat="59.252356" lon="18.100339">
        <ele>23</ele>
        <time>2020-01-22T08:21:03Z</time>
      </trkpt>
      <trkpt lat="59.252298" lon="18.100373">
        <ele>23</ele>
        <time>2020-01-22T08:21:04Z</time>
      </trkpt>
      <trkpt lat="59.252242" lon="18.100407">
        <ele>23</ele>
        <time>2020-01-22T08:21:05Z</time>
      </trkpt>
      <trkpt lat="59.252188" lon="18.100441">
        <ele>23</ele>
        <time>2020-01-22T08:21:06Z</time>
      </trkpt>
      <trkpt lat="59.252136" lon="18.100475">
        <ele>23</ele>
        <time>2020-01-22T08:21:07Z</time>
      </trkpt>
      <trkpt lat="59.252088" lon="18.100509">
        <ele>23</ele>
        <time>2020-01-22T08:21:08Z</time>
      </trkpt>
      <trkpt lat="59.252045" lon="18.100539">
        <ele>23</ele>
        <time>2020-01-22T08:21:09Z</time>
      </trkpt>
      <trkpt lat="59.252002" lon="18.100566">
        <ele>23</ele>
        <time>2020-01-22T08:21:10Z</time>
      </trkpt>
      <trkpt lat="59.25196" lon="18.100588">
        <ele>24</ele>
        <time>2020-01-22T08:21:11Z</time>
      </trkpt>
      <trkpt lat="59.25192" lon="18.10061">
        <ele>24</ele>
        <time>2020-01-22T08:21:12Z</time>
      </trkpt>
      <trkpt lat="59.251879" lon="18.100634">
        <ele>24</ele>
        <time>2020-01-22T08:21:13Z</time>
      </trkpt>
      <trkpt lat="59.251842" lon="18.100657">
        <ele>24</ele>
        <time>2020-01-22T08:21:14Z</time>
      </trkpt>
      <trkpt lat="59.251806" lon="18.10068">
        <ele>25</ele>
        <time>2020-01-22T08:21:15Z</time>
      </trkpt>
      <trkpt lat="59.25177" lon="18.100704">
        <ele>25</ele>
        <time>2020-01-22T08:21:16Z</time>
      </trkpt>
      <trkpt lat="59.251734" lon="18.100729">
        <ele>25</ele>
        <time>2020-01-22T08:21:17Z</time>
      </trkpt>
      <trkpt lat="59.251694" lon="18.100754">
        <ele>25</ele>
        <time>2020-01-22T08:21:18Z</time>
      </trkpt>
      <trkpt lat="59.251654" lon="18.10078">
        <ele>26</ele>
        <time>2020-01-22T08:21:19Z</time>
      </trkpt>
      <trkpt lat="59.251614" lon="18.100806">
        <ele>26</ele>
        <time>2020-01-22T08:21:20Z</time>
      </trkpt>
      <trkpt lat="59.251573" lon="18.100832">
        <ele>26</ele>
        <time>2020-01-22T08:21:21Z</time>
      </trkpt>
      <trkpt lat="59.251534" lon="18.100856">
        <ele>26</ele>
        <time>2020-01-22T08:21:22Z</time>
      </trkpt>
      <trkpt lat="59.251492" lon="18.100878">
        <ele>26</ele>
        <time>2020-01-22T08:21:23Z</time>
      </trkpt>
      <trkpt lat="59.251452" lon="18.100898">
        <ele>26</ele>
        <time>2020-01-22T08:21:24Z</time>
      </trkpt>
      <trkpt lat="59.25141" lon="18.100914">
        <ele>27</ele>
        <time>2020-01-22T08:21:25Z</time>
      </trkpt>
      <trkpt lat="59.251369" lon="18.100923">
        <ele>27</ele>
        <time>2020-01-22T08:21:26Z</time>
      </trkpt>
      <trkpt lat="59.251329" lon="18.100922">
        <ele>27</ele>
        <time>2020-01-22T08:21:27Z</time>
      </trkpt>
      <trkpt lat="59.251287" lon="18.100913">
        <ele>27</ele>
        <time>2020-01-22T08:21:28Z</time>
      </trkpt>
      <trkpt lat="59.251248" lon="18.100896">
        <ele>27</ele>
        <time>2020-01-22T08:21:29Z</time>
      </trkpt>
      <trkpt lat="59.25121" lon="18.100874">
        <ele>27</ele>
        <time>2020-01-22T08:21:30Z</time>
      </trkpt>
      <trkpt lat="59.251174" lon="18.100851">
        <ele>27</ele>
        <time>2020-01-22T08:21:31Z</time>
      </trkpt>
      <trkpt lat="59.251138" lon="18.100825">
        <ele>27</ele>
        <time>2020-01-22T08:21:32Z</time>
      </trkpt>
      <trkpt lat="59.251102" lon="18.100797">
        <ele>28</ele>
        <time>2020-01-22T08:21:33Z</time>
      </trkpt>
      <trkpt lat="59.251066" lon="18.100769">
        <ele>28</ele>
        <time>2020-01-22T08:21:34Z</time>
      </trkpt>
      <trkpt lat="59.251032" lon="18.100738">
        <ele>28</ele>
        <time>2020-01-22T08:21:35Z</time>
      </trkpt>
      <trkpt lat="59.250998" lon="18.100704">
        <ele>28</ele>
        <time>2020-01-22T08:21:36Z</time>
      </trkpt>
      <trkpt lat="59.250966" lon="18.100668">
        <ele>28</ele>
        <time>2020-01-22T08:21:37Z</time>
      </trkpt>
      <trkpt lat="59.250933" lon="18.100632">
        <ele>28</ele>
        <time>2020-01-22T08:21:38Z</time>
      </trkpt>
      <trkpt lat="59.250901" lon="18.100594">
        <ele>28</ele>
        <time>2020-01-22T08:21:39Z</time>
      </trkpt>
      <trkpt lat="59.250871" lon="18.100552">
        <ele>28</ele>
        <time>2020-01-22T08:21:40Z</time>
      </trkpt>
      <trkpt lat="59.250844" lon="18.100505">
        <ele>28</ele>
        <time>2020-01-22T08:21:41Z</time>
      </trkpt>
      <trkpt lat="59.250816" lon="18.100455">
        <ele>28</ele>
        <time>2020-01-22T08:21:42Z</time>
      </trkpt>
      <trkpt lat="59.25079" lon="18.100402">
        <ele>28</ele>
        <time>2020-01-22T08:21:43Z</time>
      </trkpt>
      <trkpt lat="59.250766" lon="18.100348">
        <ele>28</ele>
        <time>2020-01-22T08:21:44Z</time>
      </trkpt>
      <trkpt lat="59.250742" lon="18.100288">
        <ele>28</ele>
        <time>2020-01-22T08:21:45Z</time>
      </trkpt>
      <trkpt lat="59.25072" lon="18.100226">
        <ele>28</ele>
        <time>2020-01-22T08:21:46Z</time>
      </trkpt>
      <trkpt lat="59.250697" lon="18.100166">
        <ele>29</ele>
        <time>2020-01-22T08:21:47Z</time>
      </trkpt>
      <trkpt lat="59.250682" lon="18.100109">
        <ele>29</ele>
        <time>2020-01-22T08:21:48Z</time>
      </trkpt>
      <trkpt lat="59.250658" lon="18.100059">
        <ele>29</ele>
        <time>2020-01-22T08:21:49Z</time>
      </trkpt>
      <trkpt lat="59.250634" lon="18.100011">
        <ele>29</ele>
        <time>2020-01-22T08:21:50Z</time>
      </trkpt>
      <trkpt lat="59.250606" lon="18.099964">
        <ele>29</ele>
        <time>2020-01-22T08:21:51Z</time>
      </trkpt>
      <trkpt lat="59.250574" lon="18.099916">
        <ele>29</ele>
        <time>2020-01-22T08:21:52Z</time>
      </trkpt>
      <trkpt lat="59.25054" lon="18.09987">
        <ele>29</ele>
        <time>2020-01-22T08:21:53Z</time>
      </trkpt>
      <trkpt lat="59.250502" lon="18.099827">
        <ele>29</ele>
        <time>2020-01-22T08:21:54Z</time>
      </trkpt>
      <trkpt lat="59.250462" lon="18.099785">
        <ele>29</ele>
        <time>2020-01-22T08:21:55Z</time>
      </trkpt>
      <trkpt lat="59.250416" lon="18.09975">
        <ele>29</ele>
        <time>2020-01-22T08:21:56Z</time>
      </trkpt>
      <trkpt lat="59.250364" lon="18.099719">
        <ele>29</ele>
        <time>2020-01-22T08:21:57Z</time>
      </trkpt>
      <trkpt lat="59.25031" lon="18.099691">
        <ele>29</ele>
        <time>2020-01-22T08:21:58Z</time>
      </trkpt>
      <trkpt lat="59.250254" lon="18.099665">
        <ele>29</ele>
        <time>2020-01-22T08:21:59Z</time>
      </trkpt>
      <trkpt lat="59.250196" lon="18.099638">
        <ele>29</ele>
        <time>2020-01-22T08:22:00Z</time>
      </trkpt>
      <trkpt lat="59.250137" lon="18.09961">
        <ele>29</ele>
        <time>2020-01-22T08:22:01Z</time>
      </trkpt>
      <trkpt lat="59.250075" lon="18.099584">
        <ele>29</ele>
        <time>2020-01-22T08:22:02Z</time>
      </trkpt>
      <trkpt lat="59.250011" lon="18.099559">
        <ele>29</ele>
        <time>2020-01-22T08:22:03Z</time>
      </trkpt>
      <trkpt lat="59.249946" lon="18.099534">
        <ele>29</ele>
        <time>2020-01-22T08:22:04Z</time>
      </trkpt>
      <trkpt lat="59.249881" lon="18.099509">
        <ele>29</ele>
        <time>2020-01-22T08:22:05Z</time>
      </trkpt>
      <trkpt lat="59.249812" lon="18.099484">
        <ele>29</ele>
        <time>2020-01-22T08:22:06Z</time>
      </trkpt>
      <trkpt lat="59.249744" lon="18.099462">
        <ele>29</ele>
        <time>2020-01-22T08:22:07Z</time>
      </trkpt>
      <trkpt lat="59.249673" lon="18.099448">
        <ele>29</ele>
        <time>2020-01-22T08:22:08Z</time>
      </trkpt>
      <trkpt lat="59.249599" lon="18.099443">
        <ele>29</ele>
        <time>2020-01-22T08:22:09Z</time>
      </trkpt>
      <trkpt lat="59.249529" lon="18.099453">
        <ele>30</ele>
        <time>2020-01-22T08:22:10Z</time>
      </trkpt>
      <trkpt lat="59.24946" lon="18.099476">
        <ele>30</ele>
        <time>2020-01-22T08:22:11Z</time>
      </trkpt>
      <trkpt lat="59.249392" lon="18.099502">
        <ele>30</ele>
        <time>2020-01-22T08:22:12Z</time>
      </trkpt>
      <trkpt lat="59.249324" lon="18.09953">
        <ele>30</ele>
        <time>2020-01-22T08:22:13Z</time>
      </trkpt>
      <trkpt lat="59.249256" lon="18.09956">
        <ele>30</ele>
        <time>2020-01-22T08:22:14Z</time>
      </trkpt>
      <trkpt lat="59.249191" lon="18.09959">
        <ele>30</ele>
        <time>2020-01-22T08:22:15Z</time>
      </trkpt>
      <trkpt lat="59.249126" lon="18.099623">
        <ele>30</ele>
        <time>2020-01-22T08:22:16Z</time>
      </trkpt>
      <trkpt lat="59.249063" lon="18.099661">
        <ele>30</ele>
        <time>2020-01-22T08:22:17Z</time>
      </trkpt>
      <trkpt lat="59.249003" lon="18.099703">
        <ele>30</ele>
        <time>2020-01-22T08:22:18Z</time>
      </trkpt>
      <trkpt lat="59.248945" lon="18.099747">
        <ele>30</ele>
        <time>2020-01-22T08:22:19Z</time>
      </trkpt>
      <trkpt lat="59.248888" lon="18.099799">
        <ele>31</ele>
        <time>2020-01-22T08:22:20Z</time>
      </trkpt>
      <trkpt lat="59.248837" lon="18.099855">
        <ele>31</ele>
        <time>2020-01-22T08:22:21Z</time>
      </trkpt>
      <trkpt lat="59.24879" lon="18.099913">
        <ele>31</ele>
        <time>2020-01-22T08:22:22Z</time>
      </trkpt>
      <trkpt lat="59.248743" lon="18.099976">
        <ele>31</ele>
        <time>2020-01-22T08:22:23Z</time>
      </trkpt>
      <trkpt lat="59.2487" lon="18.100042">
        <ele>31</ele>
        <time>2020-01-22T08:22:24Z</time>
      </trkpt>
      <trkpt lat="59.248658" lon="18.100113">
        <ele>31</ele>
        <time>2020-01-22T08:22:25Z</time>
      </trkpt>
      <trkpt lat="59.248615" lon="18.100185">
        <ele>32</ele>
        <time>2020-01-22T08:22:26Z</time>
      </trkpt>
      <trkpt lat="59.248572" lon="18.100251">
        <ele>32</ele>
        <time>2020-01-22T08:22:27Z</time>
      </trkpt>
      <trkpt lat="59.248523" lon="18.100315">
        <ele>32</ele>
        <time>2020-01-22T08:22:28Z</time>
      </trkpt>
      <trkpt lat="59.248478" lon="18.100374">
        <ele>32</ele>
        <time>2020-01-22T08:22:29Z</time>
      </trkpt>
      <trkpt lat="59.248428" lon="18.100428">
        <ele>33</ele>
        <time>2020-01-22T08:22:30Z</time>
      </trkpt>
      <trkpt lat="59.248368" lon="18.10047">
        <ele>33</ele>
        <time>2020-01-22T08:22:31Z</time>
      </trkpt>
      <trkpt lat="59.248304" lon="18.100515">
        <ele>33</ele>
        <time>2020-01-22T08:22:32Z</time>
      </trkpt>
      <trkpt lat="59.248248" lon="18.100561">
        <ele>33</ele>
        <time>2020-01-22T08:22:33Z</time>
      </trkpt>
      <trkpt lat="59.248196" lon="18.100612">
        <ele>33</ele>
        <time>2020-01-22T08:22:34Z</time>
      </trkpt>
      <trkpt lat="59.248148" lon="18.100668">
        <ele>33</ele>
        <time>2020-01-22T08:22:35Z</time>
      </trkpt>
      <trkpt lat="59.248102" lon="18.100731">
        <ele>33</ele>
        <time>2020-01-22T08:22:36Z</time>
      </trkpt>
      <trkpt lat="59.248065" lon="18.100799">
        <ele>33</ele>
        <time>2020-01-22T08:22:37Z</time>
      </trkpt>
      <trkpt lat="59.248036" lon="18.100875">
        <ele>33</ele>
        <time>2020-01-22T08:22:38Z</time>
      </trkpt>
      <trkpt lat="59.248005" lon="18.100954">
        <ele>33</ele>
        <time>2020-01-22T08:22:39Z</time>
      </trkpt>
      <trkpt lat="59.247978" lon="18.101033">
        <ele>34</ele>
        <time>2020-01-22T08:22:40Z</time>
      </trkpt>
      <trkpt lat="59.247957" lon="18.101112">
        <ele>34</ele>
        <time>2020-01-22T08:22:41Z</time>
      </trkpt>
      <trkpt lat="59.24793" lon="18.101195">
        <ele>34</ele>
        <time>2020-01-22T08:22:42Z</time>
      </trkpt>
      <trkpt lat="59.247903" lon="18.101278">
        <ele>34</ele>
        <time>2020-01-22T08:22:43Z</time>
      </trkpt>
      <trkpt lat="59.247875" lon="18.10136">
        <ele>34</ele>
        <time>2020-01-22T08:22:44Z</time>
      </trkpt>
      <trkpt lat="59.247858" lon="18.101437">
        <ele>34</ele>
        <time>2020-01-22T08:22:45Z</time>
      </trkpt>
      <trkpt lat="59.247806" lon="18.10161">
        <ele>33</ele>
        <time>2020-01-22T08:22:47Z</time>
      </trkpt>
      <trkpt lat="59.247752" lon="18.101799">
        <ele>33</ele>
        <time>2020-01-22T08:22:49Z</time>
      </trkpt>
      <trkpt lat="59.247728" lon="18.101898">
        <ele>33</ele>
        <time>2020-01-22T08:22:50Z</time>
      </trkpt>
      <trkpt lat="59.247704" lon="18.101999">
        <ele>33</ele>
        <time>2020-01-22T08:22:51Z</time>
      </trkpt>
      <trkpt lat="59.247682" lon="18.102099">
        <ele>33</ele>
        <time>2020-01-22T08:22:52Z</time>
      </trkpt>
      <trkpt lat="59.24766" lon="18.102201">
        <ele>32</ele>
        <time>2020-01-22T08:22:53Z</time>
      </trkpt>
      <trkpt lat="59.247642" lon="18.102297">
        <ele>32</ele>
        <time>2020-01-22T08:22:54Z</time>
      </trkpt>
      <trkpt lat="59.247625" lon="18.102385">
        <ele>33</ele>
        <time>2020-01-22T08:22:55Z</time>
      </trkpt>
      <trkpt lat="59.247608" lon="18.102475">
        <ele>33</ele>
        <time>2020-01-22T08:22:56Z</time>
      </trkpt>
      <trkpt lat="59.247584" lon="18.102571">
        <ele>33</ele>
        <time>2020-01-22T08:22:57Z</time>
      </trkpt>
      <trkpt lat="59.247554" lon="18.102672">
        <ele>33</ele>
        <time>2020-01-22T08:22:58Z</time>
      </trkpt>
      <trkpt lat="59.247521" lon="18.102772">
        <ele>32</ele>
        <time>2020-01-22T08:22:59Z</time>
      </trkpt>
      <trkpt lat="59.247488" lon="18.102872">
        <ele>32</ele>
        <time>2020-01-22T08:23:00Z</time>
      </trkpt>
      <trkpt lat="59.24745" lon="18.102965">
        <ele>32</ele>
        <time>2020-01-22T08:23:01Z</time>
      </trkpt>
      <trkpt lat="59.24741" lon="18.103051">
        <ele>32</ele>
        <time>2020-01-22T08:23:02Z</time>
      </trkpt>
      <trkpt lat="59.24737" lon="18.103131">
        <ele>32</ele>
        <time>2020-01-22T08:23:03Z</time>
      </trkpt>
      <trkpt lat="59.24733" lon="18.103211">
        <ele>31</ele>
        <time>2020-01-22T08:23:04Z</time>
      </trkpt>
      <trkpt lat="59.247291" lon="18.10329">
        <ele>31</ele>
        <time>2020-01-22T08:23:05Z</time>
      </trkpt>
      <trkpt lat="59.247253" lon="18.103369">
        <ele>31</ele>
        <time>2020-01-22T08:23:06Z</time>
      </trkpt>
      <trkpt lat="59.247204" lon="18.103462">
        <ele>31</ele>
        <time>2020-01-22T08:23:07Z</time>
      </trkpt>
      <trkpt lat="59.247133" lon="18.103583">
        <ele>30</ele>
        <time>2020-01-22T08:23:08Z</time>
      </trkpt>
      <trkpt lat="59.247067" lon="18.103725">
        <ele>29</ele>
        <time>2020-01-22T08:23:09Z</time>
      </trkpt>
      <trkpt lat="59.247016" lon="18.103876">
        <ele>29</ele>
        <time>2020-01-22T08:23:10Z</time>
      </trkpt>
      <trkpt lat="59.246981" lon="18.104023">
        <ele>29</ele>
        <time>2020-01-22T08:23:11Z</time>
      </trkpt>
      <trkpt lat="59.246962" lon="18.104165">
        <ele>29</ele>
        <time>2020-01-22T08:23:12Z</time>
      </trkpt>
      <trkpt lat="59.246952" lon="18.104289">
        <ele>29</ele>
        <time>2020-01-22T08:23:13Z</time>
      </trkpt>
      <trkpt lat="59.246928" lon="18.104472">
        <ele>29</ele>
        <time>2020-01-22T08:23:15Z</time>
      </trkpt>
      <trkpt lat="59.246928" lon="18.104708">
        <ele>29</ele>
        <time>2020-01-22T08:23:17Z</time>
      </trkpt>
      <trkpt lat="59.246906" lon="18.10481">
        <ele>29</ele>
        <time>2020-01-22T08:23:18Z</time>
      </trkpt>
      <trkpt lat="59.24684" lon="18.104961">
        <ele>28</ele>
        <time>2020-01-22T08:23:20Z</time>
      </trkpt>
      <trkpt lat="59.246755" lon="18.105085">
        <ele>28</ele>
        <time>2020-01-22T08:23:22Z</time>
      </trkpt>
      <trkpt lat="59.246701" lon="18.105151">
        <ele>28</ele>
        <time>2020-01-22T08:23:23Z</time>
      </trkpt>
      <trkpt lat="59.246655" lon="18.105214">
        <ele>28</ele>
        <time>2020-01-22T08:23:24Z</time>
      </trkpt>
      <trkpt lat="59.246614" lon="18.10527">
        <ele>28</ele>
        <time>2020-01-22T08:23:25Z</time>
      </trkpt>
      <trkpt lat="59.246564" lon="18.105315">
        <ele>28</ele>
        <time>2020-01-22T08:23:26Z</time>
      </trkpt>
      <trkpt lat="59.246504" lon="18.105345">
        <ele>28</ele>
        <time>2020-01-22T08:23:27Z</time>
      </trkpt>
      <trkpt lat="59.246446" lon="18.105356">
        <ele>27</ele>
        <time>2020-01-22T08:23:28Z</time>
      </trkpt>
      <trkpt lat="59.246385" lon="18.10537">
        <ele>27</ele>
        <time>2020-01-22T08:23:29Z</time>
      </trkpt>
      <trkpt lat="59.246328" lon="18.105381">
        <ele>27</ele>
        <time>2020-01-22T08:23:30Z</time>
      </trkpt>
      <trkpt lat="59.246274" lon="18.105395">
        <ele>28</ele>
        <time>2020-01-22T08:23:31Z</time>
      </trkpt>
      <trkpt lat="59.246223" lon="18.105419">
        <ele>28</ele>
        <time>2020-01-22T08:23:32Z</time>
      </trkpt>
      <trkpt lat="59.246176" lon="18.105454">
        <ele>28</ele>
        <time>2020-01-22T08:23:33Z</time>
      </trkpt>
      <trkpt lat="59.246132" lon="18.1055">
        <ele>28</ele>
        <time>2020-01-22T08:23:34Z</time>
      </trkpt>
      <trkpt lat="59.246092" lon="18.105556">
        <ele>28</ele>
        <time>2020-01-22T08:23:35Z</time>
      </trkpt>
      <trkpt lat="59.246052" lon="18.105612">
        <ele>28</ele>
        <time>2020-01-22T08:23:36Z</time>
      </trkpt>
      <trkpt lat="59.246013" lon="18.105669">
        <ele>28</ele>
        <time>2020-01-22T08:23:37Z</time>
      </trkpt>
      <trkpt lat="59.245978" lon="18.105727">
        <ele>29</ele>
        <time>2020-01-22T08:23:38Z</time>
      </trkpt>
      <trkpt lat="59.245944" lon="18.105785">
        <ele>29</ele>
        <time>2020-01-22T08:23:39Z</time>
      </trkpt>
      <trkpt lat="59.245911" lon="18.105842">
        <ele>29</ele>
        <time>2020-01-22T08:23:40Z</time>
      </trkpt>
      <trkpt lat="59.245876" lon="18.105898">
        <ele>29</ele>
        <time>2020-01-22T08:23:41Z</time>
      </trkpt>
      <trkpt lat="59.245843" lon="18.105951">
        <ele>29</ele>
        <time>2020-01-22T08:23:42Z</time>
      </trkpt>
      <trkpt lat="59.245807" lon="18.106006">
        <ele>29</ele>
        <time>2020-01-22T08:23:43Z</time>
      </trkpt>
      <trkpt lat="59.24577" lon="18.10606">
        <ele>30</ele>
        <time>2020-01-22T08:23:44Z</time>
      </trkpt>
      <trkpt lat="59.245744" lon="18.10611">
        <ele>30</ele>
        <time>2020-01-22T08:23:45Z</time>
      </trkpt>
      <trkpt lat="59.245644" lon="18.10627">
        <ele>30</ele>
        <time>2020-01-22T08:23:48Z</time>
      </trkpt>
      <trkpt lat="59.245564" lon="18.10639">
        <ele>30</ele>
        <time>2020-01-22T08:23:50Z</time>
      </trkpt>
      <trkpt lat="59.245524" lon="18.106454">
        <ele>30</ele>
        <time>2020-01-22T08:23:51Z</time>
      </trkpt>
      <trkpt lat="59.245494" lon="18.106515">
        <ele>30</ele>
        <time>2020-01-22T08:23:52Z</time>
      </trkpt>
      <trkpt lat="59.245457" lon="18.106581">
        <ele>30</ele>
        <time>2020-01-22T08:23:53Z</time>
      </trkpt>
      <trkpt lat="59.245419" lon="18.106647">
        <ele>30</ele>
        <time>2020-01-22T08:23:54Z</time>
      </trkpt>
      <trkpt lat="59.245386" lon="18.106709">
        <ele>31</ele>
        <time>2020-01-22T08:23:55Z</time>
      </trkpt>
      <trkpt lat="59.245347" lon="18.106774">
        <ele>31</ele>
        <time>2020-01-22T08:23:56Z</time>
      </trkpt>
      <trkpt lat="59.245311" lon="18.106836">
        <ele>31</ele>
        <time>2020-01-22T08:23:57Z</time>
      </trkpt>
      <trkpt lat="59.245273" lon="18.106901">
        <ele>31</ele>
        <time>2020-01-22T08:23:58Z</time>
      </trkpt>
      <trkpt lat="59.24524" lon="18.106964">
        <ele>31</ele>
        <time>2020-01-22T08:23:59Z</time>
      </trkpt>
      <trkpt lat="59.245207" lon="18.107028">
        <ele>31</ele>
        <time>2020-01-22T08:24:00Z</time>
      </trkpt>
      <trkpt lat="59.245173" lon="18.107091">
        <ele>31</ele>
        <time>2020-01-22T08:24:01Z</time>
      </trkpt>
      <trkpt lat="59.245137" lon="18.107154">
        <ele>31</ele>
        <time>2020-01-22T08:24:02Z</time>
      </trkpt>
      <trkpt lat="59.245099" lon="18.107216">
        <ele>31</ele>
        <time>2020-01-22T08:24:03Z</time>
      </trkpt>
      <trkpt lat="59.245062" lon="18.107277">
        <ele>31</ele>
        <time>2020-01-22T08:24:04Z</time>
      </trkpt>
      <trkpt lat="59.245021" lon="18.107341">
        <ele>32</ele>
        <time>2020-01-22T08:24:05Z</time>
      </trkpt>
      <trkpt lat="59.244983" lon="18.107401">
        <ele>32</ele>
        <time>2020-01-22T08:24:06Z</time>
      </trkpt>
      <trkpt lat="59.244948" lon="18.107458">
        <ele>32</ele>
        <time>2020-01-22T08:24:07Z</time>
      </trkpt>
      <trkpt lat="59.244913" lon="18.107515">
        <ele>32</ele>
        <time>2020-01-22T08:24:08Z</time>
      </trkpt>
      <trkpt lat="59.244875" lon="18.107575">
        <ele>32</ele>
        <time>2020-01-22T08:24:09Z</time>
      </trkpt>
      <trkpt lat="59.244839" lon="18.107639">
        <ele>32</ele>
        <time>2020-01-22T08:24:10Z</time>
      </trkpt>
      <trkpt lat="59.244809" lon="18.107704">
        <ele>32</ele>
        <time>2020-01-22T08:24:11Z</time>
      </trkpt>
      <trkpt lat="59.24478" lon="18.107769">
        <ele>32</ele>
        <time>2020-01-22T08:24:12Z</time>
      </trkpt>
      <trkpt lat="59.244742" lon="18.107839">
        <ele>32</ele>
        <time>2020-01-22T08:24:13Z</time>
      </trkpt>
      <trkpt lat="59.24471" lon="18.107906">
        <ele>33</ele>
        <time>2020-01-22T08:24:14Z</time>
      </trkpt>
      <trkpt lat="59.24468" lon="18.107975">
        <ele>33</ele>
        <time>2020-01-22T08:24:15Z</time>
      </trkpt>
      <trkpt lat="59.244651" lon="18.108043">
        <ele>33</ele>
        <time>2020-01-22T08:24:16Z</time>
      </trkpt>
      <trkpt lat="59.244614" lon="18.108114">
        <ele>33</ele>
        <time>2020-01-22T08:24:17Z</time>
      </trkpt>
      <trkpt lat="59.24458" lon="18.108188">
        <ele>33</ele>
        <time>2020-01-22T08:24:18Z</time>
      </trkpt>
      <trkpt lat="59.244542" lon="18.108266">
        <ele>33</ele>
        <time>2020-01-22T08:24:19Z</time>
      </trkpt>
      <trkpt lat="59.244494" lon="18.108349">
        <ele>33</ele>
        <time>2020-01-22T08:24:20Z</time>
      </trkpt>
      <trkpt lat="59.244456" lon="18.108429">
        <ele>34</ele>
        <time>2020-01-22T08:24:21Z</time>
      </trkpt>
      <trkpt lat="59.244414" lon="18.108513">
        <ele>34</ele>
        <time>2020-01-22T08:24:22Z</time>
      </trkpt>
      <trkpt lat="59.244373" lon="18.108596">
        <ele>34</ele>
        <time>2020-01-22T08:24:23Z</time>
      </trkpt>
      <trkpt lat="59.244324" lon="18.108684">
        <ele>34</ele>
        <time>2020-01-22T08:24:24Z</time>
      </trkpt>
      <trkpt lat="59.244264" lon="18.108777">
        <ele>34</ele>
        <time>2020-01-22T08:24:25Z</time>
      </trkpt>
      <trkpt lat="59.244213" lon="18.10887">
        <ele>34</ele>
        <time>2020-01-22T08:24:26Z</time>
      </trkpt>
      <trkpt lat="59.244161" lon="18.108968">
        <ele>34</ele>
        <time>2020-01-22T08:24:27Z</time>
      </trkpt>
      <trkpt lat="59.244118" lon="18.109072">
        <ele>33</ele>
        <time>2020-01-22T08:24:28Z</time>
      </trkpt>
      <trkpt lat="59.244074" lon="18.109184">
        <ele>33</ele>
        <time>2020-01-22T08:24:29Z</time>
      </trkpt>
      <trkpt lat="59.244031" lon="18.109305">
        <ele>33</ele>
        <time>2020-01-22T08:24:30Z</time>
      </trkpt>
      <trkpt lat="59.243989" lon="18.109433">
        <ele>32</ele>
        <time>2020-01-22T08:24:31Z</time>
      </trkpt>
      <trkpt lat="59.243958" lon="18.109564">
        <ele>32</ele>
        <time>2020-01-22T08:24:32Z</time>
      </trkpt>
      <trkpt lat="59.243938" lon="18.109695">
        <ele>32</ele>
        <time>2020-01-22T08:24:33Z</time>
      </trkpt>
      <trkpt lat="59.243926" lon="18.109831">
        <ele>32</ele>
        <time>2020-01-22T08:24:34Z</time>
      </trkpt>
      <trkpt lat="59.243918" lon="18.10997">
        <ele>32</ele>
        <time>2020-01-22T08:24:35Z</time>
      </trkpt>
      <trkpt lat="59.24391" lon="18.110114">
        <ele>32</ele>
        <time>2020-01-22T08:24:36Z</time>
      </trkpt>
      <trkpt lat="59.243903" lon="18.11026">
        <ele>32</ele>
        <time>2020-01-22T08:24:37Z</time>
      </trkpt>
      <trkpt lat="59.2439" lon="18.110411">
        <ele>32</ele>
        <time>2020-01-22T08:24:38Z</time>
      </trkpt>
      <trkpt lat="59.2439" lon="18.110565">
        <ele>33</ele>
        <time>2020-01-22T08:24:39Z</time>
      </trkpt>
      <trkpt lat="59.243899" lon="18.11072">
        <ele>33</ele>
        <time>2020-01-22T08:24:40Z</time>
      </trkpt>
      <trkpt lat="59.2439" lon="18.110878">
        <ele>32</ele>
        <time>2020-01-22T08:24:41Z</time>
      </trkpt>
      <trkpt lat="59.243898" lon="18.111038">
        <ele>32</ele>
        <time>2020-01-22T08:24:42Z</time>
      </trkpt>
      <trkpt lat="59.243896" lon="18.1112">
        <ele>32</ele>
        <time>2020-01-22T08:24:43Z</time>
      </trkpt>
      <trkpt lat="59.243897" lon="18.111365">
        <ele>32</ele>
        <time>2020-01-22T08:24:44Z</time>
      </trkpt>
      <trkpt lat="59.243898" lon="18.111531">
        <ele>32</ele>
        <time>2020-01-22T08:24:45Z</time>
      </trkpt>
      <trkpt lat="59.243898" lon="18.111699">
        <ele>31</ele>
        <time>2020-01-22T08:24:46Z</time>
      </trkpt>
      <trkpt lat="59.243897" lon="18.111869">
        <ele>31</ele>
        <time>2020-01-22T08:24:47Z</time>
      </trkpt>
      <trkpt lat="59.243894" lon="18.112039">
        <ele>31</ele>
        <time>2020-01-22T08:24:48Z</time>
      </trkpt>
      <trkpt lat="59.243892" lon="18.112209">
        <ele>30</ele>
        <time>2020-01-22T08:24:49Z</time>
      </trkpt>
      <trkpt lat="59.243891" lon="18.112378">
        <ele>30</ele>
        <time>2020-01-22T08:24:50Z</time>
      </trkpt>
      <trkpt lat="59.243888" lon="18.112545">
        <ele>30</ele>
        <time>2020-01-22T08:24:51Z</time>
      </trkpt>
      <trkpt lat="59.243882" lon="18.112708">
        <ele>30</ele>
        <time>2020-01-22T08:24:53Z</time>
      </trkpt>
      <trkpt lat="59.243875" lon="18.112871">
        <ele>29</ele>
        <time>2020-01-22T08:24:53Z</time>
      </trkpt>
      <trkpt lat="59.243867" lon="18.113029">
        <ele>29</ele>
        <time>2020-01-22T08:24:54Z</time>
      </trkpt>
      <trkpt lat="59.243855" lon="18.113183">
        <ele>29</ele>
        <time>2020-01-22T08:24:55Z</time>
      </trkpt>
      <trkpt lat="59.243842" lon="18.113335">
        <ele>29</ele>
        <time>2020-01-22T08:24:56Z</time>
      </trkpt>
      <trkpt lat="59.243828" lon="18.113485">
        <ele>29</ele>
        <time>2020-01-22T08:24:57Z</time>
      </trkpt>
      <trkpt lat="59.243813" lon="18.113633">
        <ele>29</ele>
        <time>2020-01-22T08:24:58Z</time>
      </trkpt>
      <trkpt lat="59.243799" lon="18.113779">
        <ele>29</ele>
        <time>2020-01-22T08:24:59Z</time>
      </trkpt>
      <trkpt lat="59.243781" lon="18.113925">
        <ele>29</ele>
        <time>2020-01-22T08:25:00Z</time>
      </trkpt>
      <trkpt lat="59.243762" lon="18.114069">
        <ele>29</ele>
        <time>2020-01-22T08:25:01Z</time>
      </trkpt>
      <trkpt lat="59.243743" lon="18.114212">
        <ele>29</ele>
        <time>2020-01-22T08:25:02Z</time>
      </trkpt>
      <trkpt lat="59.243723" lon="18.114352">
        <ele>29</ele>
        <time>2020-01-22T08:25:03Z</time>
      </trkpt>
      <trkpt lat="59.243701" lon="18.114491">
        <ele>29</ele>
        <time>2020-01-22T08:25:04Z</time>
      </trkpt>
      <trkpt lat="59.24368" lon="18.114627">
        <ele>30</ele>
        <time>2020-01-22T08:25:05Z</time>
      </trkpt>
      <trkpt lat="59.243658" lon="18.114763">
        <ele>29</ele>
        <time>2020-01-22T08:25:06Z</time>
      </trkpt>
      <trkpt lat="59.243638" lon="18.114896">
        <ele>29</ele>
        <time>2020-01-22T08:25:07Z</time>
      </trkpt>
      <trkpt lat="59.243619" lon="18.115033">
        <ele>29</ele>
        <time>2020-01-22T08:25:08Z</time>
      </trkpt>
      <trkpt lat="59.243606" lon="18.115173">
        <ele>29</ele>
        <time>2020-01-22T08:25:09Z</time>
      </trkpt>
      <trkpt lat="59.243594" lon="18.115317">
        <ele>29</ele>
        <time>2020-01-22T08:25:10Z</time>
      </trkpt>
      <trkpt lat="59.243575" lon="18.115464">
        <ele>29</ele>
        <time>2020-01-22T08:25:11Z</time>
      </trkpt>
      <trkpt lat="59.243544" lon="18.115608">
        <ele>28</ele>
        <time>2020-01-22T08:25:12Z</time>
      </trkpt>
      <trkpt lat="59.24351" lon="18.115749">
        <ele>27</ele>
        <time>2020-01-22T08:25:13Z</time>
      </trkpt>
      <trkpt lat="59.24347" lon="18.115882">
        <ele>26</ele>
        <time>2020-01-22T08:25:14Z</time>
      </trkpt>
      <trkpt lat="59.243431" lon="18.116009">
        <ele>26</ele>
        <time>2020-01-22T08:25:15Z</time>
      </trkpt>
      <trkpt lat="59.243391" lon="18.116137">
        <ele>25</ele>
        <time>2020-01-22T08:25:16Z</time>
      </trkpt>
      <trkpt lat="59.243351" lon="18.116263">
        <ele>25</ele>
        <time>2020-01-22T08:25:17Z</time>
      </trkpt>
      <trkpt lat="59.24331" lon="18.11639">
        <ele>25</ele>
        <time>2020-01-22T08:25:18Z</time>
      </trkpt>
      <trkpt lat="59.243269" lon="18.116516">
        <ele>25</ele>
        <time>2020-01-22T08:25:19Z</time>
      </trkpt>
      <trkpt lat="59.243227" lon="18.116642">
        <ele>24</ele>
        <time>2020-01-22T08:25:20Z</time>
      </trkpt>
      <trkpt lat="59.243185" lon="18.11677">
        <ele>24</ele>
        <time>2020-01-22T08:25:21Z</time>
      </trkpt>
      <trkpt lat="59.243144" lon="18.116896">
        <ele>24</ele>
        <time>2020-01-22T08:25:22Z</time>
      </trkpt>
      <trkpt lat="59.243104" lon="18.117023">
        <ele>24</ele>
        <time>2020-01-22T08:25:23Z</time>
      </trkpt>
      <trkpt lat="59.243066" lon="18.117146">
        <ele>24</ele>
        <time>2020-01-22T08:25:24Z</time>
      </trkpt>
      <trkpt lat="59.243029" lon="18.117268">
        <ele>23</ele>
        <time>2020-01-22T08:25:25Z</time>
      </trkpt>
      <trkpt lat="59.242993" lon="18.117389">
        <ele>23</ele>
        <time>2020-01-22T08:25:26Z</time>
      </trkpt>
      <trkpt lat="59.242958" lon="18.117509">
        <ele>23</ele>
        <time>2020-01-22T08:25:27Z</time>
      </trkpt>
      <trkpt lat="59.242926" lon="18.117629">
        <ele>24</ele>
        <time>2020-01-22T08:25:28Z</time>
      </trkpt>
      <trkpt lat="59.242899" lon="18.117747">
        <ele>24</ele>
        <time>2020-01-22T08:25:29Z</time>
      </trkpt>
      <trkpt lat="59.242864" lon="18.117865">
        <ele>24</ele>
        <time>2020-01-22T08:25:30Z</time>
      </trkpt>
      <trkpt lat="59.242824" lon="18.117984">
        <ele>24</ele>
        <time>2020-01-22T08:25:31Z</time>
      </trkpt>
      <trkpt lat="59.242788" lon="18.118101">
        <ele>24</ele>
        <time>2020-01-22T08:25:32Z</time>
      </trkpt>
      <trkpt lat="59.242753" lon="18.118214">
        <ele>24</ele>
        <time>2020-01-22T08:25:33Z</time>
      </trkpt>
      <trkpt lat="59.242715" lon="18.11833">
        <ele>24</ele>
        <time>2020-01-22T08:25:34Z</time>
      </trkpt>
      <trkpt lat="59.242674" lon="18.118445">
        <ele>24</ele>
        <time>2020-01-22T08:25:35Z</time>
      </trkpt>
      <trkpt lat="59.242635" lon="18.118559">
        <ele>24</ele>
        <time>2020-01-22T08:25:36Z</time>
      </trkpt>
      <trkpt lat="59.242599" lon="18.118668">
        <ele>24</ele>
        <time>2020-01-22T08:25:37Z</time>
      </trkpt>
      <trkpt lat="59.242569" lon="18.118766">
        <ele>24</ele>
        <time>2020-01-22T08:25:38Z</time>
      </trkpt>
      <trkpt lat="59.242544" lon="18.118855">
        <ele>24</ele>
        <time>2020-01-22T08:25:39Z</time>
      </trkpt>
      <trkpt lat="59.242502" lon="18.118941">
        <ele>25</ele>
        <time>2020-01-22T08:25:40Z</time>
      </trkpt>
      <trkpt lat="59.242396" lon="18.119078">
        <ele>25</ele>
        <time>2020-01-22T08:25:42Z</time>
      </trkpt>
      <trkpt lat="59.242267" lon="18.11918">
        <ele>25</ele>
        <time>2020-01-22T08:25:44Z</time>
      </trkpt>
      <trkpt lat="59.242132" lon="18.119267">
        <ele>25</ele>
        <time>2020-01-22T08:25:46Z</time>
      </trkpt>
      <trkpt lat="59.242069" lon="18.1193">
        <ele>25</ele>
        <time>2020-01-22T08:25:47Z</time>
      </trkpt>
      <trkpt lat="59.242005" lon="18.119326">
        <ele>25</ele>
        <time>2020-01-22T08:25:48Z</time>
      </trkpt>
      <trkpt lat="59.241944" lon="18.119348">
        <ele>25</ele>
        <time>2020-01-22T08:25:50Z</time>
      </trkpt>
      <trkpt lat="59.24189" lon="18.119373">
        <ele>25</ele>
        <time>2020-01-22T08:25:50Z</time>
      </trkpt>
      <trkpt lat="59.241834" lon="18.119387">
        <ele>25</ele>
        <time>2020-01-22T08:25:51Z</time>
      </trkpt>
      <trkpt lat="59.241774" lon="18.119377">
        <ele>24</ele>
        <time>2020-01-22T08:25:52Z</time>
      </trkpt>
      <trkpt lat="59.241714" lon="18.11935">
        <ele>24</ele>
        <time>2020-01-22T08:25:53Z</time>
      </trkpt>
      <trkpt lat="59.241654" lon="18.119315">
        <ele>24</ele>
        <time>2020-01-22T08:25:54Z</time>
      </trkpt>
      <trkpt lat="59.241593" lon="18.119285">
        <ele>24</ele>
        <time>2020-01-22T08:25:55Z</time>
      </trkpt>
      <trkpt lat="59.24153" lon="18.119265">
        <ele>24</ele>
        <time>2020-01-22T08:25:56Z</time>
      </trkpt>
      <trkpt lat="59.241466" lon="18.119247">
        <ele>24</ele>
        <time>2020-01-22T08:25:57Z</time>
      </trkpt>
      <trkpt lat="59.241398" lon="18.119227">
        <ele>23</ele>
        <time>2020-01-22T08:25:58Z</time>
      </trkpt>
      <trkpt lat="59.241332" lon="18.119202">
        <ele>23</ele>
        <time>2020-01-22T08:25:59Z</time>
      </trkpt>
      <trkpt lat="59.241265" lon="18.11918">
        <ele>23</ele>
        <time>2020-01-22T08:26:00Z</time>
      </trkpt>
      <trkpt lat="59.241197" lon="18.119206">
        <ele>24</ele>
        <time>2020-01-22T08:26:01Z</time>
      </trkpt>
      <trkpt lat="59.24115" lon="18.11929">
        <ele>24</ele>
        <time>2020-01-22T08:26:02Z</time>
      </trkpt>
      <trkpt lat="59.241134" lon="18.119384">
        <ele>24</ele>
        <time>2020-01-22T08:26:03Z</time>
      </trkpt>
      <trkpt lat="59.241134" lon="18.119468">
        <ele>24</ele>
        <time>2020-01-22T08:26:04Z</time>
      </trkpt>
      <trkpt lat="59.241135" lon="18.119561">
        <ele>24</ele>
        <time>2020-01-22T08:26:05Z</time>
      </trkpt>
      <trkpt lat="59.241122" lon="18.119749">
        <ele>23</ele>
        <time>2020-01-22T08:26:07Z</time>
      </trkpt>
      <trkpt lat="59.241019" lon="18.119767">
        <ele>23</ele>
        <time>2020-01-22T08:26:11Z</time>
      </trkpt>
      <trkpt lat="59.240908" lon="18.119623">
        <ele>23</ele>
        <time>2020-01-22T08:26:13Z</time>
      </trkpt>
      <trkpt lat="59.240858" lon="18.119591">
        <ele>23</ele>
        <time>2020-01-22T08:26:14Z</time>
      </trkpt>
      <trkpt lat="59.240807" lon="18.119566">
        <ele>23</ele>
        <time>2020-01-22T08:26:15Z</time>
      </trkpt>
      <trkpt lat="59.240755" lon="18.119547">
        <ele>23</ele>
        <time>2020-01-22T08:26:16Z</time>
      </trkpt>
      <trkpt lat="59.240701" lon="18.119541">
        <ele>23</ele>
        <time>2020-01-22T08:26:17Z</time>
      </trkpt>
      <trkpt lat="59.240645" lon="18.119541">
        <ele>23</ele>
        <time>2020-01-22T08:26:18Z</time>
      </trkpt>
      <trkpt lat="59.24059" lon="18.11955">
        <ele>23</ele>
        <time>2020-01-22T08:26:19Z</time>
      </trkpt>
      <trkpt lat="59.240535" lon="18.119544">
        <ele>23</ele>
        <time>2020-01-22T08:26:20Z</time>
      </trkpt>
      <trkpt lat="59.240487" lon="18.119511">
        <ele>23</ele>
        <time>2020-01-22T08:26:21Z</time>
      </trkpt>
      <trkpt lat="59.240445" lon="18.119456">
        <ele>23</ele>
        <time>2020-01-22T08:26:22Z</time>
      </trkpt>
      <trkpt lat="59.240407" lon="18.119411">
        <ele>23</ele>
        <time>2020-01-22T08:26:23Z</time>
      </trkpt>
      <trkpt lat="59.240362" lon="18.119391">
        <ele>23</ele>
        <time>2020-01-22T08:26:24Z</time>
      </trkpt>
      <trkpt lat="59.240314" lon="18.119395">
        <ele>23</ele>
        <time>2020-01-22T08:26:25Z</time>
      </trkpt>
      <trkpt lat="59.240265" lon="18.11941">
        <ele>23</ele>
        <time>2020-01-22T08:26:26Z</time>
      </trkpt>
      <trkpt lat="59.240217" lon="18.11943">
        <ele>23</ele>
        <time>2020-01-22T08:26:27Z</time>
      </trkpt>
      <trkpt lat="59.240167" lon="18.11945">
        <ele>23</ele>
        <time>2020-01-22T08:26:28Z</time>
      </trkpt>
      <trkpt lat="59.240116" lon="18.11947">
        <ele>23</ele>
        <time>2020-01-22T08:26:29Z</time>
      </trkpt>
      <trkpt lat="59.240064" lon="18.119489">
        <ele>23</ele>
        <time>2020-01-22T08:26:30Z</time>
      </trkpt>
      <trkpt lat="59.240012" lon="18.119508">
        <ele>23</ele>
        <time>2020-01-22T08:26:31Z</time>
      </trkpt>
      <trkpt lat="59.23996" lon="18.119527">
        <ele>23</ele>
        <time>2020-01-22T08:26:32Z</time>
      </trkpt>
      <trkpt lat="59.239908" lon="18.119545">
        <ele>23</ele>
        <time>2020-01-22T08:26:33Z</time>
      </trkpt>
      <trkpt lat="59.239857" lon="18.119564">
        <ele>23</ele>
        <time>2020-01-22T08:26:34Z</time>
      </trkpt>
      <trkpt lat="59.239805" lon="18.119585">
        <ele>23</ele>
        <time>2020-01-22T08:26:35Z</time>
      </trkpt>
      <trkpt lat="59.239753" lon="18.119607">
        <ele>23</ele>
        <time>2020-01-22T08:26:36Z</time>
      </trkpt>
      <trkpt lat="59.239703" lon="18.119629">
        <ele>23</ele>
        <time>2020-01-22T08:26:37Z</time>
      </trkpt>
      <trkpt lat="59.239653" lon="18.119648">
        <ele>23</ele>
        <time>2020-01-22T08:26:38Z</time>
      </trkpt>
      <trkpt lat="59.239604" lon="18.119665">
        <ele>23</ele>
        <time>2020-01-22T08:26:39Z</time>
      </trkpt>
      <trkpt lat="59.239557" lon="18.119682">
        <ele>23</ele>
        <time>2020-01-22T08:26:40Z</time>
      </trkpt>
      <trkpt lat="59.23951" lon="18.1197">
        <ele>23</ele>
        <time>2020-01-22T08:26:41Z</time>
      </trkpt>
      <trkpt lat="59.239462" lon="18.119718">
        <ele>23</ele>
        <time>2020-01-22T08:26:42Z</time>
      </trkpt>
      <trkpt lat="59.239412" lon="18.119736">
        <ele>23</ele>
        <time>2020-01-22T08:26:43Z</time>
      </trkpt>
      <trkpt lat="59.239364" lon="18.119755">
        <ele>23</ele>
        <time>2020-01-22T08:26:44Z</time>
      </trkpt>
      <trkpt lat="59.239317" lon="18.119771">
        <ele>23</ele>
        <time>2020-01-22T08:26:45Z</time>
      </trkpt>
      <trkpt lat="59.239267" lon="18.119781">
        <ele>23</ele>
        <time>2020-01-22T08:26:47Z</time>
      </trkpt>
      <trkpt lat="59.239218" lon="18.11979">
        <ele>23</ele>
        <time>2020-01-22T08:26:47Z</time>
      </trkpt>
      <trkpt lat="59.239168" lon="18.119799">
        <ele>23</ele>
        <time>2020-01-22T08:26:48Z</time>
      </trkpt>
      <trkpt lat="59.239119" lon="18.119807">
        <ele>23</ele>
        <time>2020-01-22T08:26:49Z</time>
      </trkpt>
      <trkpt lat="59.239068" lon="18.119815">
        <ele>23</ele>
        <time>2020-01-22T08:26:50Z</time>
      </trkpt>
      <trkpt lat="59.239018" lon="18.119823">
        <ele>23</ele>
        <time>2020-01-22T08:26:51Z</time>
      </trkpt>
      <trkpt lat="59.238967" lon="18.119828">
        <ele>23</ele>
        <time>2020-01-22T08:26:52Z</time>
      </trkpt>
      <trkpt lat="59.238916" lon="18.119828">
        <ele>23</ele>
        <time>2020-01-22T08:26:53Z</time>
      </trkpt>
      <trkpt lat="59.238864" lon="18.119825">
        <ele>23</ele>
        <time>2020-01-22T08:26:54Z</time>
      </trkpt>
      <trkpt lat="59.238814" lon="18.119822">
        <ele>23</ele>
        <time>2020-01-22T08:26:55Z</time>
      </trkpt>
      <trkpt lat="59.238764" lon="18.119817">
        <ele>23</ele>
        <time>2020-01-22T08:26:56Z</time>
      </trkpt>
      <trkpt lat="59.238714" lon="18.119812">
        <ele>23</ele>
        <time>2020-01-22T08:26:57Z</time>
      </trkpt>
      <trkpt lat="59.238665" lon="18.119803">
        <ele>23</ele>
        <time>2020-01-22T08:26:58Z</time>
      </trkpt>
      <trkpt lat="59.238617" lon="18.119793">
        <ele>24</ele>
        <time>2020-01-22T08:26:59Z</time>
      </trkpt>
      <trkpt lat="59.238569" lon="18.119786">
        <ele>24</ele>
        <time>2020-01-22T08:27:00Z</time>
      </trkpt>
      <trkpt lat="59.238522" lon="18.119779">
        <ele>24</ele>
        <time>2020-01-22T08:27:01Z</time>
      </trkpt>
      <trkpt lat="59.238472" lon="18.119771">
        <ele>24</ele>
        <time>2020-01-22T08:27:02Z</time>
      </trkpt>
      <trkpt lat="59.238428" lon="18.119762">
        <ele>24</ele>
        <time>2020-01-22T08:27:03Z</time>
      </trkpt>
      <trkpt lat="59.238386" lon="18.119748">
        <ele>24</ele>
        <time>2020-01-22T08:27:04Z</time>
      </trkpt>
      <trkpt lat="59.238338" lon="18.119738">
        <ele>24</ele>
        <time>2020-01-22T08:27:05Z</time>
      </trkpt>
      <trkpt lat="59.238289" lon="18.119729">
        <ele>24</ele>
        <time>2020-01-22T08:27:06Z</time>
      </trkpt>
      <trkpt lat="59.238244" lon="18.119717">
        <ele>25</ele>
        <time>2020-01-22T08:27:07Z</time>
      </trkpt>
      <trkpt lat="59.238197" lon="18.119707">
        <ele>25</ele>
        <time>2020-01-22T08:27:08Z</time>
      </trkpt>
      <trkpt lat="59.238146" lon="18.1197">
        <ele>25</ele>
        <time>2020-01-22T08:27:09Z</time>
      </trkpt>
      <trkpt lat="59.238095" lon="18.119691">
        <ele>25</ele>
        <time>2020-01-22T08:27:10Z</time>
      </trkpt>
      <trkpt lat="59.238046" lon="18.119684">
        <ele>25</ele>
        <time>2020-01-22T08:27:11Z</time>
      </trkpt>
      <trkpt lat="59.237995" lon="18.119675">
        <ele>25</ele>
        <time>2020-01-22T08:27:12Z</time>
      </trkpt>
      <trkpt lat="59.237944" lon="18.119667">
        <ele>25</ele>
        <time>2020-01-22T08:27:13Z</time>
      </trkpt>
      <trkpt lat="59.237893" lon="18.119659">
        <ele>25</ele>
        <time>2020-01-22T08:27:14Z</time>
      </trkpt>
      <trkpt lat="59.237842" lon="18.119651">
        <ele>25</ele>
        <time>2020-01-22T08:27:15Z</time>
      </trkpt>
      <trkpt lat="59.237793" lon="18.119646">
        <ele>26</ele>
        <time>2020-01-22T08:27:16Z</time>
      </trkpt>
      <trkpt lat="59.237746" lon="18.119641">
        <ele>26</ele>
        <time>2020-01-22T08:27:17Z</time>
      </trkpt>
      <trkpt lat="59.237698" lon="18.119635">
        <ele>26</ele>
        <time>2020-01-22T08:27:18Z</time>
      </trkpt>
      <trkpt lat="59.237647" lon="18.119632">
        <ele>26</ele>
        <time>2020-01-22T08:27:19Z</time>
      </trkpt>
      <trkpt lat="59.237598" lon="18.119626">
        <ele>26</ele>
        <time>2020-01-22T08:27:20Z</time>
      </trkpt>
      <trkpt lat="59.237549" lon="18.11962">
        <ele>26</ele>
        <time>2020-01-22T08:27:21Z</time>
      </trkpt>
      <trkpt lat="59.237502" lon="18.119614">
        <ele>26</ele>
        <time>2020-01-22T08:27:22Z</time>
      </trkpt>
      <trkpt lat="59.237452" lon="18.119609">
        <ele>26</ele>
        <time>2020-01-22T08:27:23Z</time>
      </trkpt>
      <trkpt lat="59.237405" lon="18.119602">
        <ele>26</ele>
        <time>2020-01-22T08:27:24Z</time>
      </trkpt>
      <trkpt lat="59.237356" lon="18.119594">
        <ele>26</ele>
        <time>2020-01-22T08:27:25Z</time>
      </trkpt>
      <trkpt lat="59.237308" lon="18.119585">
        <ele>26</ele>
        <time>2020-01-22T08:27:26Z</time>
      </trkpt>
      <trkpt lat="59.23726" lon="18.119575">
        <ele>26</ele>
        <time>2020-01-22T08:27:27Z</time>
      </trkpt>
      <trkpt lat="59.23721" lon="18.119566">
        <ele>26</ele>
        <time>2020-01-22T08:27:28Z</time>
      </trkpt>
      <trkpt lat="59.237162" lon="18.119558">
        <ele>26</ele>
        <time>2020-01-22T08:27:29Z</time>
      </trkpt>
      <trkpt lat="59.237112" lon="18.119549">
        <ele>26</ele>
        <time>2020-01-22T08:27:30Z</time>
      </trkpt>
      <trkpt lat="59.237063" lon="18.119541">
        <ele>26</ele>
        <time>2020-01-22T08:27:31Z</time>
      </trkpt>
      <trkpt lat="59.237013" lon="18.119535">
        <ele>26</ele>
        <time>2020-01-22T08:27:32Z</time>
      </trkpt>
      <trkpt lat="59.236965" lon="18.11953">
        <ele>26</ele>
        <time>2020-01-22T08:27:33Z</time>
      </trkpt>
      <trkpt lat="59.236916" lon="18.119528">
        <ele>26</ele>
        <time>2020-01-22T08:27:34Z</time>
      </trkpt>
      <trkpt lat="59.236864" lon="18.119526">
        <ele>26</ele>
        <time>2020-01-22T08:27:35Z</time>
      </trkpt>
      <trkpt lat="59.236814" lon="18.119521">
        <ele>26</ele>
        <time>2020-01-22T08:27:36Z</time>
      </trkpt>
      <trkpt lat="59.23676" lon="18.119519">
        <ele>26</ele>
        <time>2020-01-22T08:27:37Z</time>
      </trkpt>
      <trkpt lat="59.236704" lon="18.119519">
        <ele>26</ele>
        <time>2020-01-22T08:27:38Z</time>
      </trkpt>
      <trkpt lat="59.23665" lon="18.11952">
        <ele>26</ele>
        <time>2020-01-22T08:27:39Z</time>
      </trkpt>
      <trkpt lat="59.236594" lon="18.119521">
        <ele>26</ele>
        <time>2020-01-22T08:27:40Z</time>
      </trkpt>
      <trkpt lat="59.23654" lon="18.119524">
        <ele>26</ele>
        <time>2020-01-22T08:27:41Z</time>
      </trkpt>
      <trkpt lat="59.236484" lon="18.119529">
        <ele>26</ele>
        <time>2020-01-22T08:27:42Z</time>
      </trkpt>
      <trkpt lat="59.23643" lon="18.119534">
        <ele>26</ele>
        <time>2020-01-22T08:27:43Z</time>
      </trkpt>
      <trkpt lat="59.236375" lon="18.119542">
        <ele>26</ele>
        <time>2020-01-22T08:27:44Z</time>
      </trkpt>
      <trkpt lat="59.236322" lon="18.119551">
        <ele>26</ele>
        <time>2020-01-22T08:27:45Z</time>
      </trkpt>
      <trkpt lat="59.236268" lon="18.11956">
        <ele>26</ele>
        <time>2020-01-22T08:27:46Z</time>
      </trkpt>
      <trkpt lat="59.236214" lon="18.119569">
        <ele>26</ele>
        <time>2020-01-22T08:27:47Z</time>
      </trkpt>
      <trkpt lat="59.23616" lon="18.119579">
        <ele>26</ele>
        <time>2020-01-22T08:27:48Z</time>
      </trkpt>
      <trkpt lat="59.23611" lon="18.119591">
        <ele>27</ele>
        <time>2020-01-22T08:27:49Z</time>
      </trkpt>
      <trkpt lat="59.236058" lon="18.119604">
        <ele>27</ele>
        <time>2020-01-22T08:27:50Z</time>
      </trkpt>
      <trkpt lat="59.236006" lon="18.11962">
        <ele>27</ele>
        <time>2020-01-22T08:27:51Z</time>
      </trkpt>
      <trkpt lat="59.235956" lon="18.119635">
        <ele>27</ele>
        <time>2020-01-22T08:27:52Z</time>
      </trkpt>
      <trkpt lat="59.235904" lon="18.119652">
        <ele>27</ele>
        <time>2020-01-22T08:27:53Z</time>
      </trkpt>
      <trkpt lat="59.235853" lon="18.119672">
        <ele>27</ele>
        <time>2020-01-22T08:27:54Z</time>
      </trkpt>
      <trkpt lat="59.2358" lon="18.119693">
        <ele>27</ele>
        <time>2020-01-22T08:27:55Z</time>
      </trkpt>
      <trkpt lat="59.235748" lon="18.119715">
        <ele>27</ele>
        <time>2020-01-22T08:27:56Z</time>
      </trkpt>
      <trkpt lat="59.235698" lon="18.119743">
        <ele>27</ele>
        <time>2020-01-22T08:27:57Z</time>
      </trkpt>
      <trkpt lat="59.235648" lon="18.119775">
        <ele>27</ele>
        <time>2020-01-22T08:27:58Z</time>
      </trkpt>
      <trkpt lat="59.235596" lon="18.119807">
        <ele>27</ele>
        <time>2020-01-22T08:27:59Z</time>
      </trkpt>
      <trkpt lat="59.235546" lon="18.119842">
        <ele>27</ele>
        <time>2020-01-22T08:28:00Z</time>
      </trkpt>
      <trkpt lat="59.235494" lon="18.119876">
        <ele>27</ele>
        <time>2020-01-22T08:28:01Z</time>
      </trkpt>
      <trkpt lat="59.23544" lon="18.119908">
        <ele>27</ele>
        <time>2020-01-22T08:28:02Z</time>
      </trkpt>
      <trkpt lat="59.235386" lon="18.11994">
        <ele>27</ele>
        <time>2020-01-22T08:28:03Z</time>
      </trkpt>
      <trkpt lat="59.235332" lon="18.119969">
        <ele>27</ele>
        <time>2020-01-22T08:28:04Z</time>
      </trkpt>
      <trkpt lat="59.235277" lon="18.119995">
        <ele>27</ele>
        <time>2020-01-22T08:28:05Z</time>
      </trkpt>
      <trkpt lat="59.235223" lon="18.120018">
        <ele>27</ele>
        <time>2020-01-22T08:28:06Z</time>
      </trkpt>
      <trkpt lat="59.235169" lon="18.120036">
        <ele>27</ele>
        <time>2020-01-22T08:28:07Z</time>
      </trkpt>
      <trkpt lat="59.235116" lon="18.120047">
        <ele>27</ele>
        <time>2020-01-22T08:28:08Z</time>
      </trkpt>
      <trkpt lat="59.235064" lon="18.120058">
        <ele>27</ele>
        <time>2020-01-22T08:28:09Z</time>
      </trkpt>
      <trkpt lat="59.235012" lon="18.120073">
        <ele>27</ele>
        <time>2020-01-22T08:28:10Z</time>
      </trkpt>
      <trkpt lat="59.234962" lon="18.120093">
        <ele>27</ele>
        <time>2020-01-22T08:28:11Z</time>
      </trkpt>
      <trkpt lat="59.234912" lon="18.120118">
        <ele>27</ele>
        <time>2020-01-22T08:28:12Z</time>
      </trkpt>
      <trkpt lat="59.234863" lon="18.120148">
        <ele>27</ele>
        <time>2020-01-22T08:28:13Z</time>
      </trkpt>
      <trkpt lat="59.234817" lon="18.120182">
        <ele>27</ele>
        <time>2020-01-22T08:28:14Z</time>
      </trkpt>
      <trkpt lat="59.234771" lon="18.120217">
        <ele>27</ele>
        <time>2020-01-22T08:28:15Z</time>
      </trkpt>
      <trkpt lat="59.234727" lon="18.120251">
        <ele>27</ele>
        <time>2020-01-22T08:28:16Z</time>
      </trkpt>
      <trkpt lat="59.234684" lon="18.120282">
        <ele>27</ele>
        <time>2020-01-22T08:28:17Z</time>
      </trkpt>
      <trkpt lat="59.234643" lon="18.12031">
        <ele>27</ele>
        <time>2020-01-22T08:28:18Z</time>
      </trkpt>
      <trkpt lat="59.234604" lon="18.120337">
        <ele>27</ele>
        <time>2020-01-22T08:28:19Z</time>
      </trkpt>
      <trkpt lat="59.234565" lon="18.120362">
        <ele>27</ele>
        <time>2020-01-22T08:28:20Z</time>
      </trkpt>
      <trkpt lat="59.234528" lon="18.120384">
        <ele>28</ele>
        <time>2020-01-22T08:28:21Z</time>
      </trkpt>
      <trkpt lat="59.23449" lon="18.120407">
        <ele>28</ele>
        <time>2020-01-22T08:28:22Z</time>
      </trkpt>
      <trkpt lat="59.234453" lon="18.12043">
        <ele>28</ele>
        <time>2020-01-22T08:28:23Z</time>
      </trkpt>
      <trkpt lat="59.234417" lon="18.120454">
        <ele>28</ele>
        <time>2020-01-22T08:28:24Z</time>
      </trkpt>
      <trkpt lat="59.23438" lon="18.120478">
        <ele>28</ele>
        <time>2020-01-22T08:28:25Z</time>
      </trkpt>
      <trkpt lat="59.234344" lon="18.120503">
        <ele>28</ele>
        <time>2020-01-22T08:28:26Z</time>
      </trkpt>
      <trkpt lat="59.234308" lon="18.120529">
        <ele>29</ele>
        <time>2020-01-22T08:28:27Z</time>
      </trkpt>
      <trkpt lat="59.234271" lon="18.120555">
        <ele>29</ele>
        <time>2020-01-22T08:28:28Z</time>
      </trkpt>
      <trkpt lat="59.234235" lon="18.120581">
        <ele>29</ele>
        <time>2020-01-22T08:28:29Z</time>
      </trkpt>
      <trkpt lat="59.234198" lon="18.120608">
        <ele>29</ele>
        <time>2020-01-22T08:28:30Z</time>
      </trkpt>
      <trkpt lat="59.234161" lon="18.120634">
        <ele>29</ele>
        <time>2020-01-22T08:28:31Z</time>
      </trkpt>
      <trkpt lat="59.234123" lon="18.120659">
        <ele>29</ele>
        <time>2020-01-22T08:28:32Z</time>
      </trkpt>
      <trkpt lat="59.234084" lon="18.120683">
        <ele>29</ele>
        <time>2020-01-22T08:28:33Z</time>
      </trkpt>
      <trkpt lat="59.234046" lon="18.120704">
        <ele>30</ele>
        <time>2020-01-22T08:28:34Z</time>
      </trkpt>
      <trkpt lat="59.23401" lon="18.120726">
        <ele>30</ele>
        <time>2020-01-22T08:28:35Z</time>
      </trkpt>
      <trkpt lat="59.233977" lon="18.12075">
        <ele>30</ele>
        <time>2020-01-22T08:28:36Z</time>
      </trkpt>
      <trkpt lat="59.233951" lon="18.120768">
        <ele>30</ele>
        <time>2020-01-22T08:28:37Z</time>
      </trkpt>
      <trkpt lat="59.233925" lon="18.120787">
        <ele>31</ele>
        <time>2020-01-22T08:28:38Z</time>
      </trkpt>
      <trkpt lat="59.233907" lon="18.120802">
        <ele>31</ele>
        <time>2020-01-22T08:28:39Z</time>
      </trkpt>
      <trkpt lat="59.233795" lon="18.120881">
        <ele>32</ele>
        <time>2020-01-22T08:28:43Z</time>
      </trkpt>
      <trkpt lat="59.233699" lon="18.120954">
        <ele>33</ele>
        <time>2020-01-22T08:28:46Z</time>
      </trkpt>
      <trkpt lat="59.233606" lon="18.121014">
        <ele>34</ele>
        <time>2020-01-22T08:28:49Z</time>
      </trkpt>
      <trkpt lat="59.233505" lon="18.121089">
        <ele>35</ele>
        <time>2020-01-22T08:28:52Z</time>
      </trkpt>
      <trkpt lat="59.233428" lon="18.121139">
        <ele>36</ele>
        <time>2020-01-22T08:28:54Z</time>
      </trkpt>
      <trkpt lat="59.233398" lon="18.121157">
        <ele>36</ele>
        <time>2020-01-22T08:28:55Z</time>
      </trkpt>
      <trkpt lat="59.233368" lon="18.121178">
        <ele>36</ele>
        <time>2020-01-22T08:28:56Z</time>
      </trkpt>
      <trkpt lat="59.233342" lon="18.121198">
        <ele>36</ele>
        <time>2020-01-22T08:28:57Z</time>
      </trkpt>
      <trkpt lat="59.233315" lon="18.121219">
        <ele>37</ele>
        <time>2020-01-22T08:28:58Z</time>
      </trkpt>
      <trkpt lat="59.233264" lon="18.121248">
        <ele>37</ele>
        <time>2020-01-22T08:29:00Z</time>
      </trkpt>
      <trkpt lat="59.233234" lon="18.121266">
        <ele>38</ele>
        <time>2020-01-22T08:29:01Z</time>
      </trkpt>
      <trkpt lat="59.233208" lon="18.121281">
        <ele>38</ele>
        <time>2020-01-22T08:29:02Z</time>
      </trkpt>
      <trkpt lat="59.233183" lon="18.121294">
        <ele>38</ele>
        <time>2020-01-22T08:29:03Z</time>
      </trkpt>
      <trkpt lat="59.233151" lon="18.121309">
        <ele>39</ele>
        <time>2020-01-22T08:29:04Z</time>
      </trkpt>
      <trkpt lat="59.233118" lon="18.121322">
        <ele>39</ele>
        <time>2020-01-22T08:29:05Z</time>
      </trkpt>
      <trkpt lat="59.233085" lon="18.121332">
        <ele>39</ele>
        <time>2020-01-22T08:29:06Z</time>
      </trkpt>
      <trkpt lat="59.233053" lon="18.121337">
        <ele>39</ele>
        <time>2020-01-22T08:29:07Z</time>
      </trkpt>
      <trkpt lat="59.233024" lon="18.121339">
        <ele>39</ele>
        <time>2020-01-22T08:29:08Z</time>
      </trkpt>
      <trkpt lat="59.232992" lon="18.121337">
        <ele>39</ele>
        <time>2020-01-22T08:29:09Z</time>
      </trkpt>
      <trkpt lat="59.232962" lon="18.121329">
        <ele>39</ele>
        <time>2020-01-22T08:29:10Z</time>
      </trkpt>
      <trkpt lat="59.232933" lon="18.121315">
        <ele>40</ele>
        <time>2020-01-22T08:29:11Z</time>
      </trkpt>
      <trkpt lat="59.232902" lon="18.121297">
        <ele>40</ele>
        <time>2020-01-22T08:29:12Z</time>
      </trkpt>
      <trkpt lat="59.232873" lon="18.121273">
        <ele>40</ele>
        <time>2020-01-22T08:29:13Z</time>
      </trkpt>
      <trkpt lat="59.232847" lon="18.121243">
        <ele>40</ele>
        <time>2020-01-22T08:29:14Z</time>
      </trkpt>
      <trkpt lat="59.232821" lon="18.121212">
        <ele>40</ele>
        <time>2020-01-22T08:29:15Z</time>
      </trkpt>
      <trkpt lat="59.232796" lon="18.121179">
        <ele>40</ele>
        <time>2020-01-22T08:29:16Z</time>
      </trkpt>
      <trkpt lat="59.232769" lon="18.121143">
        <ele>40</ele>
        <time>2020-01-22T08:29:17Z</time>
      </trkpt>
      <trkpt lat="59.232742" lon="18.121105">
        <ele>40</ele>
        <time>2020-01-22T08:29:18Z</time>
      </trkpt>
      <trkpt lat="59.232714" lon="18.121071">
        <ele>40</ele>
        <time>2020-01-22T08:29:19Z</time>
      </trkpt>
      <trkpt lat="59.232682" lon="18.121047">
        <ele>40</ele>
        <time>2020-01-22T08:29:20Z</time>
      </trkpt>
      <trkpt lat="59.232648" lon="18.121032">
        <ele>40</ele>
        <time>2020-01-22T08:29:21Z</time>
      </trkpt>
      <trkpt lat="59.23262" lon="18.121009">
        <ele>40</ele>
        <time>2020-01-22T08:29:22Z</time>
      </trkpt>
      <trkpt lat="59.232595" lon="18.120972">
        <ele>40</ele>
        <time>2020-01-22T08:29:23Z</time>
      </trkpt>
      <trkpt lat="59.232575" lon="18.120927">
        <ele>40</ele>
        <time>2020-01-22T08:29:24Z</time>
      </trkpt>
      <trkpt lat="59.232557" lon="18.120879">
        <ele>40</ele>
        <time>2020-01-22T08:29:25Z</time>
      </trkpt>
      <trkpt lat="59.232542" lon="18.120839">
        <ele>40</ele>
        <time>2020-01-22T08:29:26Z</time>
      </trkpt>
      <trkpt lat="59.23253" lon="18.120803">
        <ele>40</ele>
        <time>2020-01-22T08:29:27Z</time>
      </trkpt>
      <trkpt lat="59.232516" lon="18.120757">
        <ele>39</ele>
        <time>2020-01-22T08:29:28Z</time>
      </trkpt>
      <trkpt lat="59.232497" lon="18.120699">
        <ele>39</ele>
        <time>2020-01-22T08:29:29Z</time>
      </trkpt>
      <trkpt lat="59.232479" lon="18.120631">
        <ele>39</ele>
        <time>2020-01-22T08:29:30Z</time>
      </trkpt>
      <trkpt lat="59.23246" lon="18.120558">
        <ele>39</ele>
        <time>2020-01-22T08:29:31Z</time>
      </trkpt>
      <trkpt lat="59.232437" lon="18.120483">
        <ele>39</ele>
        <time>2020-01-22T08:29:32Z</time>
      </trkpt>
      <trkpt lat="59.232409" lon="18.120411">
        <ele>39</ele>
        <time>2020-01-22T08:29:33Z</time>
      </trkpt>
      <trkpt lat="59.232376" lon="18.120347">
        <ele>39</ele>
        <time>2020-01-22T08:29:34Z</time>
      </trkpt>
      <trkpt lat="59.232335" lon="18.120298">
        <ele>39</ele>
        <time>2020-01-22T08:29:35Z</time>
      </trkpt>
      <trkpt lat="59.23229" lon="18.120268">
        <ele>39</ele>
        <time>2020-01-22T08:29:36Z</time>
      </trkpt>
      <trkpt lat="59.232231" lon="18.120261">
        <ele>39</ele>
        <time>2020-01-22T08:29:37Z</time>
      </trkpt>
      <trkpt lat="59.232176" lon="18.120258">
        <ele>39</ele>
        <time>2020-01-22T08:29:38Z</time>
      </trkpt>
      <trkpt lat="59.232122" lon="18.120257">
        <ele>39</ele>
        <time>2020-01-22T08:29:39Z</time>
      </trkpt>
      <trkpt lat="59.23207" lon="18.120258">
        <ele>39</ele>
        <time>2020-01-22T08:29:40Z</time>
      </trkpt>
      <trkpt lat="59.232022" lon="18.120262">
        <ele>39</ele>
        <time>2020-01-22T08:29:41Z</time>
      </trkpt>
      <trkpt lat="59.231975" lon="18.12027">
        <ele>39</ele>
        <time>2020-01-22T08:29:42Z</time>
      </trkpt>
      <trkpt lat="59.23193" lon="18.120282">
        <ele>39</ele>
        <time>2020-01-22T08:29:43Z</time>
      </trkpt>
      <trkpt lat="59.231887" lon="18.120296">
        <ele>39</ele>
        <time>2020-01-22T08:29:44Z</time>
      </trkpt>
      <trkpt lat="59.231852" lon="18.12031">
        <ele>39</ele>
        <time>2020-01-22T08:29:45Z</time>
      </trkpt>
      <trkpt lat="59.231814" lon="18.120331">
        <ele>40</ele>
        <time>2020-01-22T08:29:46Z</time>
      </trkpt>
      <trkpt lat="59.231778" lon="18.120354">
        <ele>40</ele>
        <time>2020-01-22T08:29:47Z</time>
      </trkpt>
      <trkpt lat="59.231741" lon="18.120374">
        <ele>40</ele>
        <time>2020-01-22T08:29:48Z</time>
      </trkpt>
      <trkpt lat="59.231705" lon="18.120393">
        <ele>40</ele>
        <time>2020-01-22T08:29:49Z</time>
      </trkpt>
      <trkpt lat="59.231665" lon="18.120413">
        <ele>40</ele>
        <time>2020-01-22T08:29:50Z</time>
      </trkpt>
      <trkpt lat="59.231623" lon="18.120434">
        <ele>40</ele>
        <time>2020-01-22T08:29:51Z</time>
      </trkpt>
      <trkpt lat="59.231581" lon="18.120462">
        <ele>40</ele>
        <time>2020-01-22T08:29:52Z</time>
      </trkpt>
      <trkpt lat="59.231539" lon="18.120492">
        <ele>40</ele>
        <time>2020-01-22T08:29:53Z</time>
      </trkpt>
      <trkpt lat="59.231495" lon="18.12052">
        <ele>40</ele>
        <time>2020-01-22T08:29:54Z</time>
      </trkpt>
      <trkpt lat="59.231447" lon="18.120551">
        <ele>40</ele>
        <time>2020-01-22T08:29:55Z</time>
      </trkpt>
      <trkpt lat="59.231396" lon="18.120588">
        <ele>40</ele>
        <time>2020-01-22T08:29:56Z</time>
      </trkpt>
      <trkpt lat="59.231349" lon="18.120622">
        <ele>40</ele>
        <time>2020-01-22T08:29:57Z</time>
      </trkpt>
      <trkpt lat="59.231298" lon="18.120656">
        <ele>40</ele>
        <time>2020-01-22T08:29:58Z</time>
      </trkpt>
      <trkpt lat="59.231248" lon="18.120692">
        <ele>40</ele>
        <time>2020-01-22T08:29:59Z</time>
      </trkpt>
      <trkpt lat="59.231195" lon="18.12073">
        <ele>40</ele>
        <time>2020-01-22T08:30:00Z</time>
      </trkpt>
      <trkpt lat="59.23114" lon="18.120768">
        <ele>40</ele>
        <time>2020-01-22T08:30:01Z</time>
      </trkpt>
      <trkpt lat="59.231088" lon="18.120806">
        <ele>40</ele>
        <time>2020-01-22T08:30:02Z</time>
      </trkpt>
      <trkpt lat="59.231036" lon="18.120846">
        <ele>40</ele>
        <time>2020-01-22T08:30:03Z</time>
      </trkpt>
      <trkpt lat="59.230984" lon="18.120884">
        <ele>40</ele>
        <time>2020-01-22T08:30:04Z</time>
      </trkpt>
      <trkpt lat="59.230929" lon="18.120922">
        <ele>40</ele>
        <time>2020-01-22T08:30:05Z</time>
      </trkpt>
      <trkpt lat="59.230864" lon="18.120966">
        <ele>39</ele>
        <time>2020-01-22T08:30:06Z</time>
      </trkpt>
      <trkpt lat="59.230799" lon="18.121012">
        <ele>39</ele>
        <time>2020-01-22T08:30:07Z</time>
      </trkpt>
      <trkpt lat="59.230733" lon="18.121056">
        <ele>39</ele>
        <time>2020-01-22T08:30:08Z</time>
      </trkpt>
      <trkpt lat="59.230672" lon="18.12109">
        <ele>39</ele>
        <time>2020-01-22T08:30:09Z</time>
      </trkpt>
      <trkpt lat="59.230609" lon="18.121114">
        <ele>39</ele>
        <time>2020-01-22T08:30:10Z</time>
      </trkpt>
      <trkpt lat="59.230539" lon="18.121132">
        <ele>39</ele>
        <time>2020-01-22T08:30:11Z</time>
      </trkpt>
      <trkpt lat="59.23047" lon="18.121138">
        <ele>38</ele>
        <time>2020-01-22T08:30:12Z</time>
      </trkpt>
      <trkpt lat="59.2304" lon="18.121136">
        <ele>38</ele>
        <time>2020-01-22T08:30:13Z</time>
      </trkpt>
      <trkpt lat="59.230331" lon="18.121142">
        <ele>38</ele>
        <time>2020-01-22T08:30:14Z</time>
      </trkpt>
      <trkpt lat="59.230263" lon="18.121166">
        <ele>38</ele>
        <time>2020-01-22T08:30:16Z</time>
      </trkpt>
      <trkpt lat="59.230196" lon="18.12121">
        <ele>37</ele>
        <time>2020-01-22T08:30:16Z</time>
      </trkpt>
      <trkpt lat="59.230129" lon="18.121264">
        <ele>37</ele>
        <time>2020-01-22T08:30:17Z</time>
      </trkpt>
      <trkpt lat="59.230066" lon="18.121324">
        <ele>37</ele>
        <time>2020-01-22T08:30:18Z</time>
      </trkpt>
      <trkpt lat="59.230006" lon="18.121386">
        <ele>37</ele>
        <time>2020-01-22T08:30:19Z</time>
      </trkpt>
      <trkpt lat="59.229946" lon="18.121446">
        <ele>37</ele>
        <time>2020-01-22T08:30:20Z</time>
      </trkpt>
      <trkpt lat="59.229884" lon="18.121508">
        <ele>36</ele>
        <time>2020-01-22T08:30:21Z</time>
      </trkpt>
      <trkpt lat="59.229827" lon="18.121582">
        <ele>36</ele>
        <time>2020-01-22T08:30:22Z</time>
      </trkpt>
      <trkpt lat="59.229784" lon="18.121676">
        <ele>36</ele>
        <time>2020-01-22T08:30:23Z</time>
      </trkpt>
      <trkpt lat="59.229762" lon="18.121792">
        <ele>36</ele>
        <time>2020-01-22T08:30:24Z</time>
      </trkpt>
      <trkpt lat="59.229765" lon="18.121912">
        <ele>36</ele>
        <time>2020-01-22T08:30:25Z</time>
      </trkpt>
      <trkpt lat="59.229783" lon="18.122026">
        <ele>36</ele>
        <time>2020-01-22T08:30:26Z</time>
      </trkpt>
      <trkpt lat="59.22981" lon="18.122132">
        <ele>36</ele>
        <time>2020-01-22T08:30:27Z</time>
      </trkpt>
      <trkpt lat="59.229837" lon="18.122232">
        <ele>36</ele>
        <time>2020-01-22T08:30:28Z</time>
      </trkpt>
      <trkpt lat="59.229864" lon="18.122326">
        <ele>36</ele>
        <time>2020-01-22T08:30:29Z</time>
      </trkpt>
      <trkpt lat="59.229892" lon="18.122418">
        <ele>36</ele>
        <time>2020-01-22T08:30:30Z</time>
      </trkpt>
      <trkpt lat="59.229917" lon="18.122508">
        <ele>36</ele>
        <time>2020-01-22T08:30:31Z</time>
      </trkpt>
      <trkpt lat="59.22994" lon="18.12259">
        <ele>36</ele>
        <time>2020-01-22T08:30:32Z</time>
      </trkpt>
      <trkpt lat="59.229965" lon="18.12267">
        <ele>36</ele>
        <time>2020-01-22T08:30:33Z</time>
      </trkpt>
      <trkpt lat="59.229987" lon="18.122752">
        <ele>36</ele>
        <time>2020-01-22T08:30:34Z</time>
      </trkpt>
      <trkpt lat="59.230006" lon="18.122836">
        <ele>36</ele>
        <time>2020-01-22T08:30:35Z</time>
      </trkpt>
      <trkpt lat="59.230021" lon="18.122918">
        <ele>36</ele>
        <time>2020-01-22T08:30:36Z</time>
      </trkpt>
      <trkpt lat="59.230029" lon="18.123002">
        <ele>36</ele>
        <time>2020-01-22T08:30:37Z</time>
      </trkpt>
      <trkpt lat="59.230036" lon="18.123086">
        <ele>36</ele>
        <time>2020-01-22T08:30:38Z</time>
      </trkpt>
      <trkpt lat="59.230036" lon="18.123166">
        <ele>37</ele>
        <time>2020-01-22T08:30:39Z</time>
      </trkpt>
      <trkpt lat="59.230032" lon="18.12325">
        <ele>37</ele>
        <time>2020-01-22T08:30:40Z</time>
      </trkpt>
      <trkpt lat="59.230021" lon="18.123326">
        <ele>37</ele>
        <time>2020-01-22T08:30:41Z</time>
      </trkpt>
      <trkpt lat="59.230003" lon="18.123398">
        <ele>37</ele>
        <time>2020-01-22T08:30:42Z</time>
      </trkpt>
      <trkpt lat="59.229979" lon="18.12346">
        <ele>37</ele>
        <time>2020-01-22T08:30:43Z</time>
      </trkpt>
      <trkpt lat="59.229947" lon="18.12351">
        <ele>37</ele>
        <time>2020-01-22T08:30:44Z</time>
      </trkpt>
      <trkpt lat="59.22991" lon="18.123551">
        <ele>37</ele>
        <time>2020-01-22T08:30:45Z</time>
      </trkpt>
      <trkpt lat="59.22987" lon="18.12359">
        <ele>37</ele>
        <time>2020-01-22T08:30:46Z</time>
      </trkpt>
      <trkpt lat="59.22983" lon="18.123628">
        <ele>37</ele>
        <time>2020-01-22T08:30:47Z</time>
      </trkpt>
      <trkpt lat="59.229791" lon="18.123664">
        <ele>37</ele>
        <time>2020-01-22T08:30:48Z</time>
      </trkpt>
      <trkpt lat="59.229751" lon="18.1237">
        <ele>37</ele>
        <time>2020-01-22T08:30:49Z</time>
      </trkpt>
      <trkpt lat="59.229712" lon="18.123742">
        <ele>38</ele>
        <time>2020-01-22T08:30:50Z</time>
      </trkpt>
      <trkpt lat="59.229672" lon="18.123784">
        <ele>38</ele>
        <time>2020-01-22T08:30:51Z</time>
      </trkpt>
      <trkpt lat="59.229631" lon="18.123822">
        <ele>38</ele>
        <time>2020-01-22T08:30:52Z</time>
      </trkpt>
      <trkpt lat="59.22959" lon="18.123862">
        <ele>38</ele>
        <time>2020-01-22T08:30:53Z</time>
      </trkpt>
      <trkpt lat="59.229547" lon="18.123904">
        <ele>38</ele>
        <time>2020-01-22T08:30:54Z</time>
      </trkpt>
      <trkpt lat="59.229505" lon="18.123948">
        <ele>38</ele>
        <time>2020-01-22T08:30:55Z</time>
      </trkpt>
      <trkpt lat="59.229462" lon="18.123992">
        <ele>38</ele>
        <time>2020-01-22T08:30:56Z</time>
      </trkpt>
      <trkpt lat="59.229418" lon="18.124036">
        <ele>38</ele>
        <time>2020-01-22T08:30:57Z</time>
      </trkpt>
      <trkpt lat="59.229374" lon="18.124088">
        <ele>38</ele>
        <time>2020-01-22T08:30:58Z</time>
      </trkpt>
      <trkpt lat="59.229333" lon="18.124154">
        <ele>38</ele>
        <time>2020-01-22T08:30:59Z</time>
      </trkpt>
      <trkpt lat="59.229299" lon="18.12424">
        <ele>38</ele>
        <time>2020-01-22T08:31:00Z</time>
      </trkpt>
      <trkpt lat="59.229276" lon="18.12434">
        <ele>38</ele>
        <time>2020-01-22T08:31:01Z</time>
      </trkpt>
      <trkpt lat="59.229268" lon="18.124449">
        <ele>38</ele>
        <time>2020-01-22T08:31:02Z</time>
      </trkpt>
      <trkpt lat="59.229264" lon="18.12456">
        <ele>38</ele>
        <time>2020-01-22T08:31:03Z</time>
      </trkpt>
      <trkpt lat="59.229257" lon="18.124669">
        <ele>38</ele>
        <time>2020-01-22T08:31:04Z</time>
      </trkpt>
      <trkpt lat="59.22925" lon="18.124771">
        <ele>38</ele>
        <time>2020-01-22T08:31:05Z</time>
      </trkpt>
      <trkpt lat="59.229239" lon="18.124865">
        <ele>38</ele>
        <time>2020-01-22T08:31:06Z</time>
      </trkpt>
      <trkpt lat="59.229202" lon="18.124957">
        <ele>38</ele>
        <time>2020-01-22T08:31:07Z</time>
      </trkpt>
      <trkpt lat="59.229164" lon="18.125057">
        <ele>38</ele>
        <time>2020-01-22T08:31:08Z</time>
      </trkpt>
      <trkpt lat="59.22913" lon="18.125168">
        <ele>37</ele>
        <time>2020-01-22T08:31:09Z</time>
      </trkpt>
      <trkpt lat="59.229098" lon="18.125286">
        <ele>37</ele>
        <time>2020-01-22T08:31:10Z</time>
      </trkpt>
      <trkpt lat="59.229059" lon="18.125412">
        <ele>37</ele>
        <time>2020-01-22T08:31:11Z</time>
      </trkpt>
      <trkpt lat="59.229019" lon="18.125534">
        <ele>37</ele>
        <time>2020-01-22T08:31:12Z</time>
      </trkpt>
      <trkpt lat="59.228968" lon="18.125651">
        <ele>37</ele>
        <time>2020-01-22T08:31:13Z</time>
      </trkpt>
      <trkpt lat="59.228924" lon="18.125758">
        <ele>37</ele>
        <time>2020-01-22T08:31:14Z</time>
      </trkpt>
      <trkpt lat="59.228874" lon="18.12586">
        <ele>37</ele>
        <time>2020-01-22T08:31:15Z</time>
      </trkpt>
      <trkpt lat="59.22883" lon="18.125949">
        <ele>37</ele>
        <time>2020-01-22T08:31:16Z</time>
      </trkpt>
      <trkpt lat="59.228791" lon="18.126026">
        <ele>37</ele>
        <time>2020-01-22T08:31:17Z</time>
      </trkpt>
      <trkpt lat="59.228756" lon="18.126097">
        <ele>37</ele>
        <time>2020-01-22T08:31:18Z</time>
      </trkpt>
      <trkpt lat="59.228725" lon="18.126169">
        <ele>37</ele>
        <time>2020-01-22T08:31:19Z</time>
      </trkpt>
      <trkpt lat="59.228696" lon="18.126241">
        <ele>37</ele>
        <time>2020-01-22T08:31:20Z</time>
      </trkpt>
      <trkpt lat="59.228668" lon="18.12631">
        <ele>37</ele>
        <time>2020-01-22T08:31:21Z</time>
      </trkpt>
      <trkpt lat="59.228637" lon="18.126363">
        <ele>37</ele>
        <time>2020-01-22T08:31:22Z</time>
      </trkpt>
      <trkpt lat="59.228602" lon="18.126403">
        <ele>37</ele>
        <time>2020-01-22T08:31:23Z</time>
      </trkpt>
      <trkpt lat="59.228566" lon="18.12643">
        <ele>37</ele>
        <time>2020-01-22T08:31:24Z</time>
      </trkpt>
      <trkpt lat="59.228527" lon="18.126443">
        <ele>37</ele>
        <time>2020-01-22T08:31:25Z</time>
      </trkpt>
      <trkpt lat="59.228488" lon="18.126439">
        <ele>37</ele>
        <time>2020-01-22T08:31:26Z</time>
      </trkpt>
      <trkpt lat="59.22845" lon="18.126429">
        <ele>37</ele>
        <time>2020-01-22T08:31:27Z</time>
      </trkpt>
      <trkpt lat="59.22841" lon="18.126419">
        <ele>37</ele>
        <time>2020-01-22T08:31:28Z</time>
      </trkpt>
      <trkpt lat="59.228371" lon="18.12641">
        <ele>37</ele>
        <time>2020-01-22T08:31:29Z</time>
      </trkpt>
      <trkpt lat="59.228331" lon="18.126405">
        <ele>37</ele>
        <time>2020-01-22T08:31:30Z</time>
      </trkpt>
      <trkpt lat="59.228292" lon="18.126407">
        <ele>38</ele>
        <time>2020-01-22T08:31:32Z</time>
      </trkpt>
      <trkpt lat="59.228254" lon="18.126412">
        <ele>38</ele>
        <time>2020-01-22T08:31:32Z</time>
      </trkpt>
      <trkpt lat="59.228214" lon="18.126419">
        <ele>38</ele>
        <time>2020-01-22T08:31:33Z</time>
      </trkpt>
      <trkpt lat="59.228174" lon="18.126428">
        <ele>38</ele>
        <time>2020-01-22T08:31:34Z</time>
      </trkpt>
      <trkpt lat="59.228134" lon="18.126436">
        <ele>38</ele>
        <time>2020-01-22T08:31:35Z</time>
      </trkpt>
      <trkpt lat="59.228093" lon="18.126444">
        <ele>38</ele>
        <time>2020-01-22T08:31:36Z</time>
      </trkpt>
      <trkpt lat="59.228052" lon="18.126451">
        <ele>38</ele>
        <time>2020-01-22T08:31:37Z</time>
      </trkpt>
      <trkpt lat="59.228011" lon="18.126457">
        <ele>39</ele>
        <time>2020-01-22T08:31:38Z</time>
      </trkpt>
      <trkpt lat="59.227968" lon="18.126465">
        <ele>39</ele>
        <time>2020-01-22T08:31:39Z</time>
      </trkpt>
      <trkpt lat="59.227925" lon="18.126472">
        <ele>39</ele>
        <time>2020-01-22T08:31:40Z</time>
      </trkpt>
      <trkpt lat="59.227883" lon="18.126481">
        <ele>39</ele>
        <time>2020-01-22T08:31:41Z</time>
      </trkpt>
      <trkpt lat="59.227843" lon="18.126498">
        <ele>39</ele>
        <time>2020-01-22T08:31:42Z</time>
      </trkpt>
      <trkpt lat="59.227808" lon="18.12653">
        <ele>39</ele>
        <time>2020-01-22T08:31:43Z</time>
      </trkpt>
      <trkpt lat="59.22778" lon="18.126578">
        <ele>39</ele>
        <time>2020-01-22T08:31:44Z</time>
      </trkpt>
      <trkpt lat="59.22776" lon="18.126637">
        <ele>39</ele>
        <time>2020-01-22T08:31:45Z</time>
      </trkpt>
      <trkpt lat="59.227745" lon="18.126704">
        <ele>39</ele>
        <time>2020-01-22T08:31:46Z</time>
      </trkpt>
      <trkpt lat="59.227732" lon="18.126776">
        <ele>40</ele>
        <time>2020-01-22T08:31:47Z</time>
      </trkpt>
      <trkpt lat="59.227721" lon="18.126853">
        <ele>40</ele>
        <time>2020-01-22T08:31:48Z</time>
      </trkpt>
      <trkpt lat="59.227708" lon="18.126931">
        <ele>40</ele>
        <time>2020-01-22T08:31:49Z</time>
      </trkpt>
      <trkpt lat="59.227692" lon="18.127011">
        <ele>40</ele>
        <time>2020-01-22T08:31:50Z</time>
      </trkpt>
      <trkpt lat="59.227677" lon="18.127093">
        <ele>40</ele>
        <time>2020-01-22T08:31:51Z</time>
      </trkpt>
      <trkpt lat="59.227659" lon="18.127176">
        <ele>40</ele>
        <time>2020-01-22T08:31:52Z</time>
      </trkpt>
      <trkpt lat="59.227631" lon="18.12726">
        <ele>40</ele>
        <time>2020-01-22T08:31:53Z</time>
      </trkpt>
      <trkpt lat="59.227603" lon="18.127345">
        <ele>41</ele>
        <time>2020-01-22T08:31:54Z</time>
      </trkpt>
      <trkpt lat="59.227575" lon="18.127432">
        <ele>41</ele>
        <time>2020-01-22T08:31:55Z</time>
      </trkpt>
      <trkpt lat="59.227539" lon="18.127526">
        <ele>41</ele>
        <time>2020-01-22T08:31:56Z</time>
      </trkpt>
      <trkpt lat="59.227503" lon="18.127623">
        <ele>41</ele>
        <time>2020-01-22T08:31:57Z</time>
      </trkpt>
      <trkpt lat="59.227467" lon="18.127723">
        <ele>40</ele>
        <time>2020-01-22T08:31:58Z</time>
      </trkpt>
      <trkpt lat="59.227431" lon="18.127824">
        <ele>40</ele>
        <time>2020-01-22T08:31:59Z</time>
      </trkpt>
      <trkpt lat="59.227396" lon="18.127924">
        <ele>40</ele>
        <time>2020-01-22T08:32:00Z</time>
      </trkpt>
      <trkpt lat="59.227359" lon="18.128024">
        <ele>40</ele>
        <time>2020-01-22T08:32:01Z</time>
      </trkpt>
      <trkpt lat="59.227321" lon="18.128122">
        <ele>40</ele>
        <time>2020-01-22T08:32:02Z</time>
      </trkpt>
      <trkpt lat="59.227283" lon="18.128219">
        <ele>40</ele>
        <time>2020-01-22T08:32:03Z</time>
      </trkpt>
      <trkpt lat="59.227246" lon="18.128316">
        <ele>40</ele>
        <time>2020-01-22T08:32:04Z</time>
      </trkpt>
      <trkpt lat="59.227208" lon="18.128416">
        <ele>40</ele>
        <time>2020-01-22T08:32:05Z</time>
      </trkpt>
      <trkpt lat="59.227172" lon="18.128515">
        <ele>40</ele>
        <time>2020-01-22T08:32:06Z</time>
      </trkpt>
      <trkpt lat="59.227137" lon="18.128614">
        <ele>40</ele>
        <time>2020-01-22T08:32:07Z</time>
      </trkpt>
      <trkpt lat="59.227102" lon="18.12871">
        <ele>40</ele>
        <time>2020-01-22T08:32:08Z</time>
      </trkpt>
      <trkpt lat="59.227069" lon="18.128806">
        <ele>40</ele>
        <time>2020-01-22T08:32:09Z</time>
      </trkpt>
      <trkpt lat="59.227039" lon="18.128902">
        <ele>40</ele>
        <time>2020-01-22T08:32:10Z</time>
      </trkpt>
      <trkpt lat="59.227011" lon="18.128998">
        <ele>41</ele>
        <time>2020-01-22T08:32:11Z</time>
      </trkpt>
      <trkpt lat="59.226987" lon="18.129095">
        <ele>41</ele>
        <time>2020-01-22T08:32:12Z</time>
      </trkpt>
      <trkpt lat="59.226951" lon="18.1292">
        <ele>41</ele>
        <time>2020-01-22T08:32:13Z</time>
      </trkpt>
      <trkpt lat="59.226911" lon="18.129305">
        <ele>41</ele>
        <time>2020-01-22T08:32:14Z</time>
      </trkpt>
      <trkpt lat="59.226869" lon="18.129411">
        <ele>40</ele>
        <time>2020-01-22T08:32:15Z</time>
      </trkpt>
      <trkpt lat="59.226827" lon="18.129519">
        <ele>40</ele>
        <time>2020-01-22T08:32:16Z</time>
      </trkpt>
      <trkpt lat="59.226783" lon="18.129628">
        <ele>40</ele>
        <time>2020-01-22T08:32:17Z</time>
      </trkpt>
      <trkpt lat="59.226743" lon="18.129735">
        <ele>40</ele>
        <time>2020-01-22T08:32:18Z</time>
      </trkpt>
      <trkpt lat="59.226707" lon="18.129838">
        <ele>40</ele>
        <time>2020-01-22T08:32:19Z</time>
      </trkpt>
      <trkpt lat="59.226671" lon="18.129941">
        <ele>40</ele>
        <time>2020-01-22T08:32:20Z</time>
      </trkpt>
      <trkpt lat="59.226632" lon="18.130045">
        <ele>40</ele>
        <time>2020-01-22T08:32:21Z</time>
      </trkpt>
      <trkpt lat="59.226589" lon="18.13015">
        <ele>40</ele>
        <time>2020-01-22T08:32:22Z</time>
      </trkpt>
      <trkpt lat="59.226549" lon="18.130249">
        <ele>41</ele>
        <time>2020-01-22T08:32:23Z</time>
      </trkpt>
      <trkpt lat="59.226501" lon="18.130348">
        <ele>41</ele>
        <time>2020-01-22T08:32:24Z</time>
      </trkpt>
      <trkpt lat="59.226453" lon="18.130443">
        <ele>41</ele>
        <time>2020-01-22T08:32:25Z</time>
      </trkpt>
      <trkpt lat="59.2264" lon="18.130529">
        <ele>41</ele>
        <time>2020-01-22T08:32:26Z</time>
      </trkpt>
      <trkpt lat="59.226346" lon="18.130606">
        <ele>41</ele>
        <time>2020-01-22T08:32:27Z</time>
      </trkpt>
      <trkpt lat="59.226289" lon="18.13068">
        <ele>41</ele>
        <time>2020-01-22T08:32:28Z</time>
      </trkpt>
      <trkpt lat="59.226229" lon="18.130759">
        <ele>41</ele>
        <time>2020-01-22T08:32:29Z</time>
      </trkpt>
      <trkpt lat="59.226175" lon="18.130837">
        <ele>41</ele>
        <time>2020-01-22T08:32:30Z</time>
      </trkpt>
      <trkpt lat="59.226133" lon="18.130917">
        <ele>41</ele>
        <time>2020-01-22T08:32:31Z</time>
      </trkpt>
      <trkpt lat="59.226082" lon="18.131001">
        <ele>41</ele>
        <time>2020-01-22T08:32:32Z</time>
      </trkpt>
      <trkpt lat="59.226025" lon="18.131085">
        <ele>40</ele>
        <time>2020-01-22T08:32:33Z</time>
      </trkpt>
      <trkpt lat="59.225962" lon="18.131171">
        <ele>40</ele>
        <time>2020-01-22T08:32:34Z</time>
      </trkpt>
      <trkpt lat="59.225901" lon="18.131254">
        <ele>39</ele>
        <time>2020-01-22T08:32:35Z</time>
      </trkpt>
      <trkpt lat="59.225848" lon="18.131351">
        <ele>39</ele>
        <time>2020-01-22T08:32:36Z</time>
      </trkpt>
      <trkpt lat="59.225802" lon="18.131463">
        <ele>39</ele>
        <time>2020-01-22T08:32:37Z</time>
      </trkpt>
      <trkpt lat="59.225775" lon="18.131591">
        <ele>38</ele>
        <time>2020-01-22T08:32:38Z</time>
      </trkpt>
      <trkpt lat="59.225756" lon="18.131725">
        <ele>38</ele>
        <time>2020-01-22T08:32:39Z</time>
      </trkpt>
      <trkpt lat="59.225739" lon="18.131843">
        <ele>38</ele>
        <time>2020-01-22T08:32:40Z</time>
      </trkpt>
      <trkpt lat="59.225718" lon="18.13195">
        <ele>38</ele>
        <time>2020-01-22T08:32:41Z</time>
      </trkpt>
      <trkpt lat="59.225693" lon="18.132051">
        <ele>38</ele>
        <time>2020-01-22T08:32:42Z</time>
      </trkpt>
      <trkpt lat="59.225654" lon="18.132134">
        <ele>38</ele>
        <time>2020-01-22T08:32:43Z</time>
      </trkpt>
      <trkpt lat="59.225611" lon="18.132195">
        <ele>38</ele>
        <time>2020-01-22T08:32:44Z</time>
      </trkpt>
      <trkpt lat="59.225567" lon="18.132248">
        <ele>38</ele>
        <time>2020-01-22T08:32:45Z</time>
      </trkpt>
      <trkpt lat="59.225527" lon="18.132292">
        <ele>39</ele>
        <time>2020-01-22T08:32:46Z</time>
      </trkpt>
      <trkpt lat="59.225488" lon="18.132335">
        <ele>39</ele>
        <time>2020-01-22T08:32:47Z</time>
      </trkpt>
      <trkpt lat="59.225397" lon="18.132457">
        <ele>39</ele>
        <time>2020-01-22T08:32:49Z</time>
      </trkpt>
      <trkpt lat="59.225278" lon="18.132626">
        <ele>39</ele>
        <time>2020-01-22T08:32:51Z</time>
      </trkpt>
      <trkpt lat="59.225166" lon="18.132813">
        <ele>39</ele>
        <time>2020-01-22T08:32:53Z</time>
      </trkpt>
      <trkpt lat="59.225057" lon="18.133006">
        <ele>39</ele>
        <time>2020-01-22T08:32:55Z</time>
      </trkpt>
      <trkpt lat="59.224917" lon="18.133243">
        <ele>39</ele>
        <time>2020-01-22T08:32:57Z</time>
      </trkpt>
      <trkpt lat="59.224852" lon="18.13337">
        <ele>38</ele>
        <time>2020-01-22T08:32:58Z</time>
      </trkpt>
      <trkpt lat="59.224788" lon="18.133502">
        <ele>37</ele>
        <time>2020-01-22T08:32:59Z</time>
      </trkpt>
      <trkpt lat="59.224724" lon="18.133645">
        <ele>36</ele>
        <time>2020-01-22T08:33:00Z</time>
      </trkpt>
      <trkpt lat="59.224662" lon="18.133789">
        <ele>36</ele>
        <time>2020-01-22T08:33:01Z</time>
      </trkpt>
      <trkpt lat="59.224597" lon="18.133935">
        <ele>35</ele>
        <time>2020-01-22T08:33:02Z</time>
      </trkpt>
      <trkpt lat="59.224536" lon="18.134081">
        <ele>35</ele>
        <time>2020-01-22T08:33:03Z</time>
      </trkpt>
      <trkpt lat="59.224482" lon="18.134225">
        <ele>35</ele>
        <time>2020-01-22T08:33:04Z</time>
      </trkpt>
      <trkpt lat="59.224426" lon="18.134365">
        <ele>34</ele>
        <time>2020-01-22T08:33:05Z</time>
      </trkpt>
      <trkpt lat="59.224372" lon="18.1345">
        <ele>34</ele>
        <time>2020-01-22T08:33:06Z</time>
      </trkpt>
      <trkpt lat="59.224326" lon="18.134625">
        <ele>35</ele>
        <time>2020-01-22T08:33:07Z</time>
      </trkpt>
      <trkpt lat="59.224278" lon="18.134746">
        <ele>35</ele>
        <time>2020-01-22T08:33:08Z</time>
      </trkpt>
      <trkpt lat="59.22423" lon="18.134862">
        <ele>34</ele>
        <time>2020-01-22T08:33:09Z</time>
      </trkpt>
      <trkpt lat="59.224178" lon="18.134984">
        <ele>34</ele>
        <time>2020-01-22T08:33:10Z</time>
      </trkpt>
      <trkpt lat="59.224128" lon="18.135103">
        <ele>34</ele>
        <time>2020-01-22T08:33:11Z</time>
      </trkpt>
      <trkpt lat="59.224087" lon="18.135213">
        <ele>34</ele>
        <time>2020-01-22T08:33:12Z</time>
      </trkpt>
      <trkpt lat="59.22405" lon="18.135318">
        <ele>34</ele>
        <time>2020-01-22T08:33:13Z</time>
      </trkpt>
      <trkpt lat="59.224011" lon="18.135422">
        <ele>34</ele>
        <time>2020-01-22T08:33:14Z</time>
      </trkpt>
      <trkpt lat="59.223975" lon="18.135523">
        <ele>34</ele>
        <time>2020-01-22T08:33:15Z</time>
      </trkpt>
      <trkpt lat="59.223944" lon="18.135618">
        <ele>34</ele>
        <time>2020-01-22T08:33:16Z</time>
      </trkpt>
      <trkpt lat="59.223918" lon="18.135704">
        <ele>35</ele>
        <time>2020-01-22T08:33:17Z</time>
      </trkpt>
      <trkpt lat="59.223888" lon="18.13579">
        <ele>35</ele>
        <time>2020-01-22T08:33:18Z</time>
      </trkpt>
      <trkpt lat="59.223856" lon="18.135876">
        <ele>35</ele>
        <time>2020-01-22T08:33:19Z</time>
      </trkpt>
      <trkpt lat="59.223826" lon="18.135958">
        <ele>35</ele>
        <time>2020-01-22T08:33:20Z</time>
      </trkpt>
      <trkpt lat="59.223791" lon="18.136044">
        <ele>35</ele>
        <time>2020-01-22T08:33:21Z</time>
      </trkpt>
      <trkpt lat="59.223752" lon="18.136134">
        <ele>35</ele>
        <time>2020-01-22T08:33:22Z</time>
      </trkpt>
      <trkpt lat="59.223714" lon="18.136223">
        <ele>35</ele>
        <time>2020-01-22T08:33:23Z</time>
      </trkpt>
      <trkpt lat="59.223664" lon="18.136317">
        <ele>35</ele>
        <time>2020-01-22T08:33:24Z</time>
      </trkpt>
      <trkpt lat="59.223617" lon="18.136402">
        <ele>35</ele>
        <time>2020-01-22T08:33:25Z</time>
      </trkpt>
      <trkpt lat="59.223576" lon="18.136483">
        <ele>35</ele>
        <time>2020-01-22T08:33:26Z</time>
      </trkpt>
      <trkpt lat="59.223532" lon="18.136566">
        <ele>34</ele>
        <time>2020-01-22T08:33:27Z</time>
      </trkpt>
      <trkpt lat="59.223482" lon="18.136655">
        <ele>34</ele>
        <time>2020-01-22T08:33:28Z</time>
      </trkpt>
      <trkpt lat="59.223438" lon="18.136734">
        <ele>34</ele>
        <time>2020-01-22T08:33:29Z</time>
      </trkpt>
      <trkpt lat="59.223396" lon="18.136807">
        <ele>34</ele>
        <time>2020-01-22T08:33:30Z</time>
      </trkpt>
      <trkpt lat="59.223352" lon="18.136879">
        <ele>34</ele>
        <time>2020-01-22T08:33:31Z</time>
      </trkpt>
      <trkpt lat="59.223308" lon="18.136949">
        <ele>34</ele>
        <time>2020-01-22T08:33:32Z</time>
      </trkpt>
      <trkpt lat="59.223265" lon="18.137013">
        <ele>34</ele>
        <time>2020-01-22T08:33:33Z</time>
      </trkpt>
      <trkpt lat="59.223222" lon="18.137074">
        <ele>34</ele>
        <time>2020-01-22T08:33:34Z</time>
      </trkpt>
      <trkpt lat="59.22318" lon="18.137134">
        <ele>34</ele>
        <time>2020-01-22T08:33:35Z</time>
      </trkpt>
      <trkpt lat="59.22314" lon="18.137187">
        <ele>34</ele>
        <time>2020-01-22T08:33:36Z</time>
      </trkpt>
      <trkpt lat="59.223095" lon="18.137241">
        <ele>34</ele>
        <time>2020-01-22T08:33:37Z</time>
      </trkpt>
      <trkpt lat="59.223051" lon="18.137295">
        <ele>34</ele>
        <time>2020-01-22T08:33:38Z</time>
      </trkpt>
      <trkpt lat="59.223004" lon="18.137346">
        <ele>34</ele>
        <time>2020-01-22T08:33:39Z</time>
      </trkpt>
      <trkpt lat="59.222952" lon="18.137397">
        <ele>34</ele>
        <time>2020-01-22T08:33:40Z</time>
      </trkpt>
      <trkpt lat="59.222901" lon="18.137444">
        <ele>34</ele>
        <time>2020-01-22T08:33:41Z</time>
      </trkpt>
      <trkpt lat="59.222854" lon="18.137488">
        <ele>34</ele>
        <time>2020-01-22T08:33:42Z</time>
      </trkpt>
      <trkpt lat="59.222804" lon="18.137534">
        <ele>34</ele>
        <time>2020-01-22T08:33:43Z</time>
      </trkpt>
      <trkpt lat="59.222751" lon="18.137579">
        <ele>34</ele>
        <time>2020-01-22T08:33:44Z</time>
      </trkpt>
      <trkpt lat="59.222702" lon="18.137619">
        <ele>34</ele>
        <time>2020-01-22T08:33:45Z</time>
      </trkpt>
      <trkpt lat="59.222658" lon="18.137653">
        <ele>34</ele>
        <time>2020-01-22T08:33:46Z</time>
      </trkpt>
      <trkpt lat="59.222606" lon="18.137687">
        <ele>34</ele>
        <time>2020-01-22T08:33:47Z</time>
      </trkpt>
      <trkpt lat="59.222554" lon="18.13772">
        <ele>34</ele>
        <time>2020-01-22T08:33:48Z</time>
      </trkpt>
      <trkpt lat="59.222504" lon="18.137751">
        <ele>34</ele>
        <time>2020-01-22T08:33:49Z</time>
      </trkpt>
      <trkpt lat="59.222452" lon="18.137783">
        <ele>34</ele>
        <time>2020-01-22T08:33:50Z</time>
      </trkpt>
      <trkpt lat="59.2224" lon="18.137813">
        <ele>34</ele>
        <time>2020-01-22T08:33:51Z</time>
      </trkpt>
      <trkpt lat="59.22235" lon="18.137844">
        <ele>34</ele>
        <time>2020-01-22T08:33:52Z</time>
      </trkpt>
      <trkpt lat="59.222298" lon="18.137875">
        <ele>34</ele>
        <time>2020-01-22T08:33:53Z</time>
      </trkpt>
      <trkpt lat="59.222246" lon="18.137904">
        <ele>34</ele>
        <time>2020-01-22T08:33:54Z</time>
      </trkpt>
      <trkpt lat="59.222191" lon="18.137935">
        <ele>33</ele>
        <time>2020-01-22T08:33:55Z</time>
      </trkpt>
      <trkpt lat="59.222139" lon="18.137964">
        <ele>33</ele>
        <time>2020-01-22T08:33:56Z</time>
      </trkpt>
      <trkpt lat="59.222086" lon="18.137988">
        <ele>33</ele>
        <time>2020-01-22T08:33:57Z</time>
      </trkpt>
      <trkpt lat="59.22203" lon="18.138018">
        <ele>33</ele>
        <time>2020-01-22T08:33:58Z</time>
      </trkpt>
      <trkpt lat="59.221974" lon="18.138045">
        <ele>33</ele>
        <time>2020-01-22T08:33:59Z</time>
      </trkpt>
      <trkpt lat="59.221918" lon="18.138066">
        <ele>33</ele>
        <time>2020-01-22T08:34:00Z</time>
      </trkpt>
      <trkpt lat="59.221865" lon="18.138087">
        <ele>33</ele>
        <time>2020-01-22T08:34:01Z</time>
      </trkpt>
      <trkpt lat="59.22181" lon="18.138109">
        <ele>33</ele>
        <time>2020-01-22T08:34:02Z</time>
      </trkpt>
      <trkpt lat="59.221753" lon="18.13813">
        <ele>33</ele>
        <time>2020-01-22T08:34:03Z</time>
      </trkpt>
      <trkpt lat="59.221696" lon="18.138154">
        <ele>33</ele>
        <time>2020-01-22T08:34:04Z</time>
      </trkpt>
      <trkpt lat="59.221639" lon="18.138177">
        <ele>33</ele>
        <time>2020-01-22T08:34:05Z</time>
      </trkpt>
      <trkpt lat="59.221582" lon="18.138201">
        <ele>33</ele>
        <time>2020-01-22T08:34:06Z</time>
      </trkpt>
      <trkpt lat="59.221525" lon="18.138225">
        <ele>33</ele>
        <time>2020-01-22T08:34:07Z</time>
      </trkpt>
      <trkpt lat="59.221467" lon="18.138245">
        <ele>33</ele>
        <time>2020-01-22T08:34:08Z</time>
      </trkpt>
      <trkpt lat="59.221412" lon="18.138264">
        <ele>33</ele>
        <time>2020-01-22T08:34:09Z</time>
      </trkpt>
      <trkpt lat="59.221353" lon="18.138286">
        <ele>33</ele>
        <time>2020-01-22T08:34:10Z</time>
      </trkpt>
      <trkpt lat="59.221294" lon="18.138308">
        <ele>33</ele>
        <time>2020-01-22T08:34:11Z</time>
      </trkpt>
      <trkpt lat="59.221233" lon="18.138328">
        <ele>33</ele>
        <time>2020-01-22T08:34:12Z</time>
      </trkpt>
      <trkpt lat="59.221172" lon="18.13835">
        <ele>33</ele>
        <time>2020-01-22T08:34:13Z</time>
      </trkpt>
      <trkpt lat="59.221111" lon="18.138374">
        <ele>32</ele>
        <time>2020-01-22T08:34:14Z</time>
      </trkpt>
      <trkpt lat="59.22105" lon="18.138398">
        <ele>32</ele>
        <time>2020-01-22T08:34:15Z</time>
      </trkpt>
      <trkpt lat="59.220989" lon="18.138422">
        <ele>32</ele>
        <time>2020-01-22T08:34:16Z</time>
      </trkpt>
      <trkpt lat="59.220927" lon="18.138445">
        <ele>32</ele>
        <time>2020-01-22T08:34:17Z</time>
      </trkpt>
      <trkpt lat="59.220865" lon="18.138469">
        <ele>32</ele>
        <time>2020-01-22T08:34:18Z</time>
      </trkpt>
      <trkpt lat="59.220802" lon="18.138496">
        <ele>33</ele>
        <time>2020-01-22T08:34:19Z</time>
      </trkpt>
      <trkpt lat="59.22074" lon="18.138525">
        <ele>33</ele>
        <time>2020-01-22T08:34:20Z</time>
      </trkpt>
      <trkpt lat="59.220675" lon="18.138558">
        <ele>33</ele>
        <time>2020-01-22T08:34:21Z</time>
      </trkpt>
      <trkpt lat="59.22061" lon="18.138595">
        <ele>33</ele>
        <time>2020-01-22T08:34:22Z</time>
      </trkpt>
      <trkpt lat="59.220541" lon="18.138634">
        <ele>33</ele>
        <time>2020-01-22T08:34:23Z</time>
      </trkpt>
      <trkpt lat="59.220472" lon="18.138674">
        <ele>33</ele>
        <time>2020-01-22T08:34:24Z</time>
      </trkpt>
      <trkpt lat="59.220401" lon="18.138723">
        <ele>33</ele>
        <time>2020-01-22T08:34:25Z</time>
      </trkpt>
      <trkpt lat="59.220329" lon="18.138781">
        <ele>32</ele>
        <time>2020-01-22T08:34:26Z</time>
      </trkpt>
      <trkpt lat="59.220254" lon="18.138848">
        <ele>32</ele>
        <time>2020-01-22T08:34:27Z</time>
      </trkpt>
      <trkpt lat="59.220179" lon="18.138927">
        <ele>32</ele>
        <time>2020-01-22T08:34:28Z</time>
      </trkpt>
      <trkpt lat="59.220104" lon="18.139014">
        <ele>32</ele>
        <time>2020-01-22T08:34:29Z</time>
      </trkpt>
      <trkpt lat="59.220033" lon="18.139106">
        <ele>32</ele>
        <time>2020-01-22T08:34:30Z</time>
      </trkpt>
      <trkpt lat="59.219968" lon="18.1392">
        <ele>32</ele>
        <time>2020-01-22T08:34:31Z</time>
      </trkpt>
      <trkpt lat="59.219911" lon="18.139292">
        <ele>32</ele>
        <time>2020-01-22T08:34:32Z</time>
      </trkpt>
      <trkpt lat="59.219855" lon="18.139379">
        <ele>32</ele>
        <time>2020-01-22T08:34:33Z</time>
      </trkpt>
      <trkpt lat="59.219717" lon="18.13956">
        <ele>32</ele>
        <time>2020-01-22T08:34:35Z</time>
      </trkpt>
      <trkpt lat="59.219621" lon="18.139666">
        <ele>32</ele>
        <time>2020-01-22T08:34:36Z</time>
      </trkpt>
      <trkpt lat="59.219534" lon="18.139768">
        <ele>31</ele>
        <time>2020-01-22T08:34:37Z</time>
      </trkpt>
      <trkpt lat="59.219447" lon="18.13987">
        <ele>31</ele>
        <time>2020-01-22T08:34:38Z</time>
      </trkpt>
      <trkpt lat="59.219358" lon="18.139968">
        <ele>30</ele>
        <time>2020-01-22T08:34:39Z</time>
      </trkpt>
      <trkpt lat="59.219271" lon="18.140063">
        <ele>29</ele>
        <time>2020-01-22T08:34:40Z</time>
      </trkpt>
      <trkpt lat="59.219184" lon="18.140156">
        <ele>29</ele>
        <time>2020-01-22T08:34:42Z</time>
      </trkpt>
      <trkpt lat="59.219108" lon="18.140246">
        <ele>28</ele>
        <time>2020-01-22T08:34:42Z</time>
      </trkpt>
      <trkpt lat="59.219035" lon="18.140333">
        <ele>28</ele>
        <time>2020-01-22T08:34:43Z</time>
      </trkpt>
      <trkpt lat="59.218964" lon="18.140418">
        <ele>28</ele>
        <time>2020-01-22T08:34:44Z</time>
      </trkpt>
      <trkpt lat="59.218894" lon="18.1405">
        <ele>27</ele>
        <time>2020-01-22T08:34:45Z</time>
      </trkpt>
      <trkpt lat="59.218826" lon="18.140583">
        <ele>27</ele>
        <time>2020-01-22T08:34:46Z</time>
      </trkpt>
      <trkpt lat="59.218764" lon="18.140672">
        <ele>27</ele>
        <time>2020-01-22T08:34:47Z</time>
      </trkpt>
      <trkpt lat="59.218709" lon="18.140774">
        <ele>26</ele>
        <time>2020-01-22T08:34:48Z</time>
      </trkpt>
      <trkpt lat="59.218669" lon="18.140889">
        <ele>26</ele>
        <time>2020-01-22T08:34:49Z</time>
      </trkpt>
      <trkpt lat="59.218642" lon="18.141014">
        <ele>26</ele>
        <time>2020-01-22T08:34:50Z</time>
      </trkpt>
      <trkpt lat="59.218626" lon="18.141141">
        <ele>26</ele>
        <time>2020-01-22T08:34:51Z</time>
      </trkpt>
      <trkpt lat="59.21861" lon="18.14127">
        <ele>26</ele>
        <time>2020-01-22T08:34:52Z</time>
      </trkpt>
      <trkpt lat="59.218597" lon="18.141388">
        <ele>26</ele>
        <time>2020-01-22T08:34:53Z</time>
      </trkpt>
      <trkpt lat="59.218576" lon="18.141489">
        <ele>26</ele>
        <time>2020-01-22T08:34:54Z</time>
      </trkpt>
      <trkpt lat="59.218539" lon="18.141554">
        <ele>26</ele>
        <time>2020-01-22T08:34:55Z</time>
      </trkpt>
      <trkpt lat="59.218492" lon="18.141581">
        <ele>25</ele>
        <time>2020-01-22T08:34:56Z</time>
      </trkpt>
      <trkpt lat="59.218443" lon="18.141595">
        <ele>25</ele>
        <time>2020-01-22T08:34:57Z</time>
      </trkpt>
      <trkpt lat="59.218394" lon="18.141614">
        <ele>25</ele>
        <time>2020-01-22T08:34:58Z</time>
      </trkpt>
      <trkpt lat="59.218345" lon="18.141637">
        <ele>25</ele>
        <time>2020-01-22T08:34:59Z</time>
      </trkpt>
      <trkpt lat="59.218297" lon="18.141634">
        <ele>25</ele>
        <time>2020-01-22T08:35:00Z</time>
      </trkpt>
      <trkpt lat="59.218255" lon="18.141593">
        <ele>25</ele>
        <time>2020-01-22T08:35:01Z</time>
      </trkpt>
      <trkpt lat="59.218216" lon="18.141538">
        <ele>25</ele>
        <time>2020-01-22T08:35:02Z</time>
      </trkpt>
      <trkpt lat="59.218174" lon="18.141495">
        <ele>25</ele>
        <time>2020-01-22T08:35:03Z</time>
      </trkpt>
      <trkpt lat="59.21813" lon="18.141482">
        <ele>25</ele>
        <time>2020-01-22T08:35:04Z</time>
      </trkpt>
      <trkpt lat="59.218083" lon="18.141503">
        <ele>25</ele>
        <time>2020-01-22T08:35:05Z</time>
      </trkpt>
      <trkpt lat="59.218037" lon="18.14154">
        <ele>25</ele>
        <time>2020-01-22T08:35:06Z</time>
      </trkpt>
      <trkpt lat="59.21799" lon="18.141583">
        <ele>25</ele>
        <time>2020-01-22T08:35:07Z</time>
      </trkpt>
      <trkpt lat="59.217943" lon="18.141634">
        <ele>25</ele>
        <time>2020-01-22T08:35:08Z</time>
      </trkpt>
      <trkpt lat="59.217895" lon="18.141688">
        <ele>25</ele>
        <time>2020-01-22T08:35:09Z</time>
      </trkpt>
      <trkpt lat="59.217847" lon="18.141742">
        <ele>25</ele>
        <time>2020-01-22T08:35:10Z</time>
      </trkpt>
      <trkpt lat="59.217798" lon="18.141799">
        <ele>25</ele>
        <time>2020-01-22T08:35:11Z</time>
      </trkpt>
      <trkpt lat="59.217748" lon="18.141856">
        <ele>25</ele>
        <time>2020-01-22T08:35:12Z</time>
      </trkpt>
      <trkpt lat="59.217698" lon="18.14191">
        <ele>25</ele>
        <time>2020-01-22T08:35:13Z</time>
      </trkpt>
      <trkpt lat="59.217648" lon="18.141964">
        <ele>25</ele>
        <time>2020-01-22T08:35:14Z</time>
      </trkpt>
      <trkpt lat="59.217597" lon="18.142018">
        <ele>25</ele>
        <time>2020-01-22T08:35:15Z</time>
      </trkpt>
      <trkpt lat="59.217546" lon="18.142073">
        <ele>25</ele>
        <time>2020-01-22T08:35:16Z</time>
      </trkpt>
      <trkpt lat="59.217495" lon="18.142131">
        <ele>25</ele>
        <time>2020-01-22T08:35:17Z</time>
      </trkpt>
      <trkpt lat="59.217443" lon="18.142191">
        <ele>25</ele>
        <time>2020-01-22T08:35:18Z</time>
      </trkpt>
      <trkpt lat="59.21739" lon="18.14225">
        <ele>25</ele>
        <time>2020-01-22T08:35:19Z</time>
      </trkpt>
      <trkpt lat="59.217338" lon="18.14231">
        <ele>25</ele>
        <time>2020-01-22T08:35:20Z</time>
      </trkpt>
      <trkpt lat="59.217286" lon="18.142371">
        <ele>25</ele>
        <time>2020-01-22T08:35:21Z</time>
      </trkpt>
      <trkpt lat="59.217233" lon="18.142435">
        <ele>25</ele>
        <time>2020-01-22T08:35:22Z</time>
      </trkpt>
      <trkpt lat="59.217181" lon="18.142499">
        <ele>25</ele>
        <time>2020-01-22T08:35:23Z</time>
      </trkpt>
      <trkpt lat="59.217129" lon="18.142563">
        <ele>25</ele>
        <time>2020-01-22T08:35:24Z</time>
      </trkpt>
      <trkpt lat="59.217076" lon="18.142628">
        <ele>25</ele>
        <time>2020-01-22T08:35:25Z</time>
      </trkpt>
      <trkpt lat="59.21702" lon="18.142693">
        <ele>25</ele>
        <time>2020-01-22T08:35:26Z</time>
      </trkpt>
      <trkpt lat="59.216964" lon="18.142759">
        <ele>25</ele>
        <time>2020-01-22T08:35:27Z</time>
      </trkpt>
      <trkpt lat="59.216907" lon="18.142825">
        <ele>25</ele>
        <time>2020-01-22T08:35:28Z</time>
      </trkpt>
      <trkpt lat="59.216849" lon="18.14289">
        <ele>25</ele>
        <time>2020-01-22T08:35:29Z</time>
      </trkpt>
      <trkpt lat="59.216791" lon="18.142955">
        <ele>25</ele>
        <time>2020-01-22T08:35:30Z</time>
      </trkpt>
      <trkpt lat="59.216733" lon="18.143022">
        <ele>25</ele>
        <time>2020-01-22T08:35:31Z</time>
      </trkpt>
      <trkpt lat="59.216676" lon="18.143089">
        <ele>25</ele>
        <time>2020-01-22T08:35:32Z</time>
      </trkpt>
      <trkpt lat="59.216619" lon="18.143157">
        <ele>25</ele>
        <time>2020-01-22T08:35:33Z</time>
      </trkpt>
      <trkpt lat="59.216562" lon="18.143223">
        <ele>25</ele>
        <time>2020-01-22T08:35:34Z</time>
      </trkpt>
      <trkpt lat="59.216506" lon="18.143289">
        <ele>26</ele>
        <time>2020-01-22T08:35:35Z</time>
      </trkpt>
      <trkpt lat="59.216451" lon="18.143355">
        <ele>26</ele>
        <time>2020-01-22T08:35:36Z</time>
      </trkpt>
      <trkpt lat="59.216394" lon="18.14342">
        <ele>26</ele>
        <time>2020-01-22T08:35:37Z</time>
      </trkpt>
      <trkpt lat="59.216339" lon="18.143485">
        <ele>26</ele>
        <time>2020-01-22T08:35:38Z</time>
      </trkpt>
      <trkpt lat="59.216284" lon="18.14355">
        <ele>26</ele>
        <time>2020-01-22T08:35:39Z</time>
      </trkpt>
      <trkpt lat="59.216231" lon="18.143614">
        <ele>27</ele>
        <time>2020-01-22T08:35:40Z</time>
      </trkpt>
      <trkpt lat="59.216179" lon="18.143675">
        <ele>27</ele>
        <time>2020-01-22T08:35:41Z</time>
      </trkpt>
      <trkpt lat="59.216126" lon="18.143734">
        <ele>27</ele>
        <time>2020-01-22T08:35:42Z</time>
      </trkpt>
      <trkpt lat="59.216073" lon="18.143793">
        <ele>27</ele>
        <time>2020-01-22T08:35:43Z</time>
      </trkpt>
      <trkpt lat="59.216021" lon="18.143853">
        <ele>27</ele>
        <time>2020-01-22T08:35:44Z</time>
      </trkpt>
      <trkpt lat="59.21597" lon="18.143913">
        <ele>28</ele>
        <time>2020-01-22T08:35:45Z</time>
      </trkpt>
      <trkpt lat="59.215921" lon="18.143971">
        <ele>28</ele>
        <time>2020-01-22T08:35:46Z</time>
      </trkpt>
      <trkpt lat="59.215872" lon="18.144028">
        <ele>28</ele>
        <time>2020-01-22T08:35:47Z</time>
      </trkpt>
      <trkpt lat="59.215819" lon="18.144087">
        <ele>29</ele>
        <time>2020-01-22T08:35:48Z</time>
      </trkpt>
      <trkpt lat="59.215767" lon="18.144146">
        <ele>29</ele>
        <time>2020-01-22T08:35:49Z</time>
      </trkpt>
      <trkpt lat="59.215716" lon="18.144206">
        <ele>29</ele>
        <time>2020-01-22T08:35:50Z</time>
      </trkpt>
      <trkpt lat="59.215666" lon="18.144269">
        <ele>29</ele>
        <time>2020-01-22T08:35:51Z</time>
      </trkpt>
      <trkpt lat="59.215615" lon="18.14433">
        <ele>29</ele>
        <time>2020-01-22T08:35:52Z</time>
      </trkpt>
      <trkpt lat="59.215564" lon="18.144389">
        <ele>29</ele>
        <time>2020-01-22T08:35:53Z</time>
      </trkpt>
      <trkpt lat="59.215514" lon="18.144447">
        <ele>29</ele>
        <time>2020-01-22T08:35:54Z</time>
      </trkpt>
      <trkpt lat="59.215463" lon="18.144505">
        <ele>29</ele>
        <time>2020-01-22T08:35:55Z</time>
      </trkpt>
      <trkpt lat="59.215413" lon="18.144561">
        <ele>29</ele>
        <time>2020-01-22T08:35:56Z</time>
      </trkpt>
      <trkpt lat="59.215363" lon="18.144619">
        <ele>29</ele>
        <time>2020-01-22T08:35:57Z</time>
      </trkpt>
      <trkpt lat="59.215313" lon="18.144679">
        <ele>29</ele>
        <time>2020-01-22T08:35:58Z</time>
      </trkpt>
      <trkpt lat="59.215264" lon="18.14474">
        <ele>29</ele>
        <time>2020-01-22T08:35:59Z</time>
      </trkpt>
      <trkpt lat="59.215215" lon="18.1448">
        <ele>30</ele>
        <time>2020-01-22T08:36:00Z</time>
      </trkpt>
      <trkpt lat="59.215166" lon="18.14486">
        <ele>29</ele>
        <time>2020-01-22T08:36:01Z</time>
      </trkpt>
      <trkpt lat="59.215117" lon="18.144919">
        <ele>29</ele>
        <time>2020-01-22T08:36:02Z</time>
      </trkpt>
      <trkpt lat="59.215069" lon="18.144977">
        <ele>30</ele>
        <time>2020-01-22T08:36:03Z</time>
      </trkpt>
      <trkpt lat="59.21502" lon="18.145035">
        <ele>29</ele>
        <time>2020-01-22T08:36:04Z</time>
      </trkpt>
      <trkpt lat="59.214973" lon="18.145093">
        <ele>29</ele>
        <time>2020-01-22T08:36:05Z</time>
      </trkpt>
      <trkpt lat="59.214928" lon="18.145148">
        <ele>30</ele>
        <time>2020-01-22T08:36:06Z</time>
      </trkpt>
      <trkpt lat="59.214881" lon="18.145204">
        <ele>30</ele>
        <time>2020-01-22T08:36:07Z</time>
      </trkpt>
      <trkpt lat="59.214834" lon="18.145257">
        <ele>30</ele>
        <time>2020-01-22T08:36:08Z</time>
      </trkpt>
      <trkpt lat="59.214786" lon="18.14531">
        <ele>31</ele>
        <time>2020-01-22T08:36:09Z</time>
      </trkpt>
      <trkpt lat="59.214738" lon="18.145365">
        <ele>31</ele>
        <time>2020-01-22T08:36:10Z</time>
      </trkpt>
      <trkpt lat="59.214691" lon="18.145417">
        <ele>31</ele>
        <time>2020-01-22T08:36:11Z</time>
      </trkpt>
      <trkpt lat="59.214645" lon="18.145469">
        <ele>31</ele>
        <time>2020-01-22T08:36:12Z</time>
      </trkpt>
      <trkpt lat="59.214598" lon="18.145522">
        <ele>31</ele>
        <time>2020-01-22T08:36:13Z</time>
      </trkpt>
      <trkpt lat="59.214554" lon="18.145576">
        <ele>31</ele>
        <time>2020-01-22T08:36:14Z</time>
      </trkpt>
      <trkpt lat="59.214509" lon="18.145629">
        <ele>31</ele>
        <time>2020-01-22T08:36:15Z</time>
      </trkpt>
      <trkpt lat="59.214465" lon="18.145682">
        <ele>31</ele>
        <time>2020-01-22T08:36:16Z</time>
      </trkpt>
      <trkpt lat="59.21442" lon="18.145732">
        <ele>31</ele>
        <time>2020-01-22T08:36:17Z</time>
      </trkpt>
      <trkpt lat="59.214375" lon="18.145782">
        <ele>31</ele>
        <time>2020-01-22T08:36:18Z</time>
      </trkpt>
      <trkpt lat="59.214331" lon="18.145831">
        <ele>31</ele>
        <time>2020-01-22T08:36:19Z</time>
      </trkpt>
      <trkpt lat="59.214288" lon="18.145878">
        <ele>31</ele>
        <time>2020-01-22T08:36:20Z</time>
      </trkpt>
      <trkpt lat="59.214247" lon="18.145925">
        <ele>32</ele>
        <time>2020-01-22T08:36:21Z</time>
      </trkpt>
      <trkpt lat="59.214206" lon="18.145973">
        <ele>32</ele>
        <time>2020-01-22T08:36:22Z</time>
      </trkpt>
      <trkpt lat="59.214166" lon="18.146019">
        <ele>32</ele>
        <time>2020-01-22T08:36:23Z</time>
      </trkpt>
      <trkpt lat="59.214127" lon="18.146065">
        <ele>32</ele>
        <time>2020-01-22T08:36:24Z</time>
      </trkpt>
      <trkpt lat="59.214089" lon="18.14611">
        <ele>32</ele>
        <time>2020-01-22T08:36:25Z</time>
      </trkpt>
      <trkpt lat="59.214052" lon="18.146155">
        <ele>32</ele>
        <time>2020-01-22T08:36:26Z</time>
      </trkpt>
      <trkpt lat="59.214014" lon="18.146197">
        <ele>33</ele>
        <time>2020-01-22T08:36:27Z</time>
      </trkpt>
      <trkpt lat="59.213973" lon="18.146242">
        <ele>33</ele>
        <time>2020-01-22T08:36:28Z</time>
      </trkpt>
      <trkpt lat="59.213934" lon="18.146288">
        <ele>33</ele>
        <time>2020-01-22T08:36:29Z</time>
      </trkpt>
      <trkpt lat="59.213895" lon="18.146335">
        <ele>33</ele>
        <time>2020-01-22T08:36:30Z</time>
      </trkpt>
      <trkpt lat="59.213854" lon="18.146381">
        <ele>33</ele>
        <time>2020-01-22T08:36:31Z</time>
      </trkpt>
      <trkpt lat="59.213815" lon="18.146427">
        <ele>33</ele>
        <time>2020-01-22T08:36:32Z</time>
      </trkpt>
      <trkpt lat="59.213783" lon="18.146466">
        <ele>33</ele>
        <time>2020-01-22T08:36:33Z</time>
      </trkpt>
      <trkpt lat="59.213741" lon="18.14651">
        <ele>33</ele>
        <time>2020-01-22T08:36:34Z</time>
      </trkpt>
      <trkpt lat="59.213698" lon="18.146554">
        <ele>33</ele>
        <time>2020-01-22T08:36:35Z</time>
      </trkpt>
      <trkpt lat="59.213656" lon="18.146595">
        <ele>33</ele>
        <time>2020-01-22T08:36:36Z</time>
      </trkpt>
      <trkpt lat="59.213616" lon="18.146636">
        <ele>34</ele>
        <time>2020-01-22T08:36:37Z</time>
      </trkpt>
      <trkpt lat="59.213573" lon="18.146677">
        <ele>34</ele>
        <time>2020-01-22T08:36:38Z</time>
      </trkpt>
      <trkpt lat="59.213529" lon="18.146712">
        <ele>34</ele>
        <time>2020-01-22T08:36:39Z</time>
      </trkpt>
      <trkpt lat="59.213486" lon="18.146745">
        <ele>34</ele>
        <time>2020-01-22T08:36:40Z</time>
      </trkpt>
      <trkpt lat="59.213443" lon="18.146777">
        <ele>34</ele>
        <time>2020-01-22T08:36:41Z</time>
      </trkpt>
      <trkpt lat="59.2134" lon="18.146807">
        <ele>34</ele>
        <time>2020-01-22T08:36:42Z</time>
      </trkpt>
      <trkpt lat="59.213357" lon="18.146837">
        <ele>34</ele>
        <time>2020-01-22T08:36:43Z</time>
      </trkpt>
      <trkpt lat="59.213315" lon="18.146865">
        <ele>34</ele>
        <time>2020-01-22T08:36:44Z</time>
      </trkpt>
      <trkpt lat="59.213275" lon="18.14689">
        <ele>34</ele>
        <time>2020-01-22T08:36:45Z</time>
      </trkpt>
      <trkpt lat="59.213234" lon="18.146912">
        <ele>34</ele>
        <time>2020-01-22T08:36:46Z</time>
      </trkpt>
      <trkpt lat="59.213195" lon="18.146933">
        <ele>34</ele>
        <time>2020-01-22T08:36:47Z</time>
      </trkpt>
      <trkpt lat="59.213158" lon="18.146953">
        <ele>34</ele>
        <time>2020-01-22T08:36:48Z</time>
      </trkpt>
      <trkpt lat="59.213121" lon="18.146972">
        <ele>34</ele>
        <time>2020-01-22T08:36:49Z</time>
      </trkpt>
      <trkpt lat="59.213085" lon="18.146989">
        <ele>34</ele>
        <time>2020-01-22T08:36:50Z</time>
      </trkpt>
      <trkpt lat="59.21305" lon="18.147005">
        <ele>34</ele>
        <time>2020-01-22T08:36:51Z</time>
      </trkpt>
      <trkpt lat="59.213015" lon="18.14702">
        <ele>35</ele>
        <time>2020-01-22T08:36:52Z</time>
      </trkpt>
      <trkpt lat="59.21298" lon="18.147034">
        <ele>35</ele>
        <time>2020-01-22T08:36:53Z</time>
      </trkpt>
      <trkpt lat="59.212946" lon="18.147048">
        <ele>35</ele>
        <time>2020-01-22T08:36:54Z</time>
      </trkpt>
      <trkpt lat="59.212911" lon="18.147059">
        <ele>35</ele>
        <time>2020-01-22T08:36:55Z</time>
      </trkpt>
      <trkpt lat="59.212878" lon="18.14707">
        <ele>35</ele>
        <time>2020-01-22T08:36:56Z</time>
      </trkpt>
      <trkpt lat="59.212845" lon="18.147081">
        <ele>35</ele>
        <time>2020-01-22T08:36:57Z</time>
      </trkpt>
      <trkpt lat="59.212813" lon="18.14709">
        <ele>35</ele>
        <time>2020-01-22T08:36:58Z</time>
      </trkpt>
      <trkpt lat="59.21278" lon="18.147096">
        <ele>35</ele>
        <time>2020-01-22T08:36:59Z</time>
      </trkpt>
      <trkpt lat="59.212749" lon="18.147103">
        <ele>35</ele>
        <time>2020-01-22T08:37:00Z</time>
      </trkpt>
      <trkpt lat="59.212721" lon="18.14711">
        <ele>35</ele>
        <time>2020-01-22T08:37:01Z</time>
      </trkpt>
      <trkpt lat="59.212693" lon="18.147117">
        <ele>35</ele>
        <time>2020-01-22T08:37:02Z</time>
      </trkpt>
      <trkpt lat="59.212666" lon="18.147122">
        <ele>36</ele>
        <time>2020-01-22T08:37:03Z</time>
      </trkpt>
      <trkpt lat="59.212638" lon="18.147128">
        <ele>36</ele>
        <time>2020-01-22T08:37:04Z</time>
      </trkpt>
      <trkpt lat="59.21261" lon="18.147135">
        <ele>36</ele>
        <time>2020-01-22T08:37:05Z</time>
      </trkpt>
      <trkpt lat="59.212583" lon="18.14714">
        <ele>36</ele>
        <time>2020-01-22T08:37:06Z</time>
      </trkpt>
      <trkpt lat="59.212555" lon="18.147144">
        <ele>36</ele>
        <time>2020-01-22T08:37:07Z</time>
      </trkpt>
      <trkpt lat="59.212528" lon="18.147148">
        <ele>36</ele>
        <time>2020-01-22T08:37:08Z</time>
      </trkpt>
      <trkpt lat="59.212502" lon="18.147152">
        <ele>36</ele>
        <time>2020-01-22T08:37:09Z</time>
      </trkpt>
      <trkpt lat="59.212477" lon="18.147156">
        <ele>36</ele>
        <time>2020-01-22T08:37:10Z</time>
      </trkpt>
      <trkpt lat="59.212451" lon="18.14716">
        <ele>36</ele>
        <time>2020-01-22T08:37:11Z</time>
      </trkpt>
      <trkpt lat="59.212425" lon="18.147164">
        <ele>36</ele>
        <time>2020-01-22T08:37:12Z</time>
      </trkpt>
      <trkpt lat="59.212399" lon="18.147167">
        <ele>37</ele>
        <time>2020-01-22T08:37:13Z</time>
      </trkpt>
      <trkpt lat="59.212373" lon="18.14717">
        <ele>37</ele>
        <time>2020-01-22T08:37:14Z</time>
      </trkpt>
      <trkpt lat="59.212347" lon="18.147173">
        <ele>37</ele>
        <time>2020-01-22T08:37:15Z</time>
      </trkpt>
      <trkpt lat="59.212321" lon="18.147175">
        <ele>37</ele>
        <time>2020-01-22T08:37:16Z</time>
      </trkpt>
      <trkpt lat="59.212294" lon="18.147175">
        <ele>37</ele>
        <time>2020-01-22T08:37:17Z</time>
      </trkpt>
      <trkpt lat="59.212268" lon="18.147174">
        <ele>37</ele>
        <time>2020-01-22T08:37:18Z</time>
      </trkpt>
      <trkpt lat="59.212243" lon="18.147174">
        <ele>37</ele>
        <time>2020-01-22T08:37:19Z</time>
      </trkpt>
      <trkpt lat="59.212217" lon="18.147174">
        <ele>37</ele>
        <time>2020-01-22T08:37:20Z</time>
      </trkpt>
      <trkpt lat="59.212192" lon="18.147173">
        <ele>38</ele>
        <time>2020-01-22T08:37:21Z</time>
      </trkpt>
      <trkpt lat="59.212169" lon="18.147171">
        <ele>38</ele>
        <time>2020-01-22T08:37:22Z</time>
      </trkpt>
      <trkpt lat="59.212144" lon="18.147169">
        <ele>38</ele>
        <time>2020-01-22T08:37:23Z</time>
      </trkpt>
      <trkpt lat="59.212119" lon="18.147166">
        <ele>38</ele>
        <time>2020-01-22T08:37:24Z</time>
      </trkpt>
      <trkpt lat="59.212094" lon="18.147161">
        <ele>38</ele>
        <time>2020-01-22T08:37:25Z</time>
      </trkpt>
      <trkpt lat="59.212068" lon="18.147159">
        <ele>38</ele>
        <time>2020-01-22T08:37:26Z</time>
      </trkpt>
      <trkpt lat="59.212043" lon="18.147157">
        <ele>38</ele>
        <time>2020-01-22T08:37:27Z</time>
      </trkpt>
      <trkpt lat="59.212017" lon="18.147153">
        <ele>38</ele>
        <time>2020-01-22T08:37:28Z</time>
      </trkpt>
      <trkpt lat="59.211989" lon="18.14715">
        <ele>38</ele>
        <time>2020-01-22T08:37:29Z</time>
      </trkpt>
      <trkpt lat="59.211962" lon="18.147146">
        <ele>39</ele>
        <time>2020-01-22T08:37:30Z</time>
      </trkpt>
      <trkpt lat="59.211936" lon="18.147142">
        <ele>39</ele>
        <time>2020-01-22T08:37:31Z</time>
      </trkpt>
      <trkpt lat="59.211908" lon="18.147138">
        <ele>39</ele>
        <time>2020-01-22T08:37:33Z</time>
      </trkpt>
      <trkpt lat="59.211879" lon="18.147137">
        <ele>39</ele>
        <time>2020-01-22T08:37:33Z</time>
      </trkpt>
      <trkpt lat="59.21185" lon="18.147138">
        <ele>39</ele>
        <time>2020-01-22T08:37:34Z</time>
      </trkpt>
      <trkpt lat="59.21182" lon="18.147134">
        <ele>40</ele>
        <time>2020-01-22T08:37:35Z</time>
      </trkpt>
      <trkpt lat="59.21179" lon="18.147126">
        <ele>40</ele>
        <time>2020-01-22T08:37:36Z</time>
      </trkpt>
      <trkpt lat="59.21176" lon="18.147114">
        <ele>40</ele>
        <time>2020-01-22T08:37:37Z</time>
      </trkpt>
      <trkpt lat="59.21173" lon="18.147102">
        <ele>40</ele>
        <time>2020-01-22T08:37:38Z</time>
      </trkpt>
      <trkpt lat="59.2117" lon="18.14709">
        <ele>40</ele>
        <time>2020-01-22T08:37:39Z</time>
      </trkpt>
      <trkpt lat="59.211672" lon="18.147077">
        <ele>40</ele>
        <time>2020-01-22T08:37:40Z</time>
      </trkpt>
      <trkpt lat="59.211643" lon="18.147062">
        <ele>40</ele>
        <time>2020-01-22T08:37:41Z</time>
      </trkpt>
      <trkpt lat="59.211614" lon="18.14705">
        <ele>40</ele>
        <time>2020-01-22T08:37:42Z</time>
      </trkpt>
      <trkpt lat="59.211586" lon="18.147037">
        <ele>40</ele>
        <time>2020-01-22T08:37:43Z</time>
      </trkpt>
      <trkpt lat="59.21156" lon="18.147025">
        <ele>40</ele>
        <time>2020-01-22T08:37:44Z</time>
      </trkpt>
      <trkpt lat="59.211533" lon="18.147012">
        <ele>41</ele>
        <time>2020-01-22T08:37:45Z</time>
      </trkpt>
      <trkpt lat="59.211506" lon="18.146999">
        <ele>41</ele>
        <time>2020-01-22T08:37:46Z</time>
      </trkpt>
      <trkpt lat="59.211474" lon="18.14699">
        <ele>41</ele>
        <time>2020-01-22T08:37:47Z</time>
      </trkpt>
      <trkpt lat="59.21144" lon="18.146979">
        <ele>41</ele>
        <time>2020-01-22T08:37:48Z</time>
      </trkpt>
      <trkpt lat="59.211408" lon="18.146966">
        <ele>41</ele>
        <time>2020-01-22T08:37:49Z</time>
      </trkpt>
      <trkpt lat="59.211379" lon="18.14695">
        <ele>41</ele>
        <time>2020-01-22T08:37:50Z</time>
      </trkpt>
      <trkpt lat="59.211352" lon="18.146932">
        <ele>41</ele>
        <time>2020-01-22T08:37:51Z</time>
      </trkpt>
      <trkpt lat="59.211323" lon="18.146914">
        <ele>42</ele>
        <time>2020-01-22T08:37:52Z</time>
      </trkpt>
      <trkpt lat="59.211296" lon="18.146895">
        <ele>42</ele>
        <time>2020-01-22T08:37:53Z</time>
      </trkpt>
      <trkpt lat="59.211272" lon="18.146872">
        <ele>42</ele>
        <time>2020-01-22T08:37:54Z</time>
      </trkpt>
      <trkpt lat="59.211246" lon="18.146852">
        <ele>42</ele>
        <time>2020-01-22T08:37:55Z</time>
      </trkpt>
      <trkpt lat="59.211212" lon="18.146838">
        <ele>42</ele>
        <time>2020-01-22T08:37:56Z</time>
      </trkpt>
      <trkpt lat="59.211181" lon="18.146818">
        <ele>43</ele>
        <time>2020-01-22T08:37:57Z</time>
      </trkpt>
      <trkpt lat="59.211152" lon="18.146798">
        <ele>43</ele>
        <time>2020-01-22T08:37:58Z</time>
      </trkpt>
      <trkpt lat="59.211124" lon="18.14678">
        <ele>43</ele>
        <time>2020-01-22T08:37:59Z</time>
      </trkpt>
      <trkpt lat="59.211097" lon="18.146759">
        <ele>43</ele>
        <time>2020-01-22T08:38:00Z</time>
      </trkpt>
      <trkpt lat="59.21107" lon="18.146737">
        <ele>43</ele>
        <time>2020-01-22T08:38:01Z</time>
      </trkpt>
      <trkpt lat="59.211042" lon="18.146716">
        <ele>44</ele>
        <time>2020-01-22T08:38:02Z</time>
      </trkpt>
      <trkpt lat="59.211016" lon="18.146691">
        <ele>44</ele>
        <time>2020-01-22T08:38:03Z</time>
      </trkpt>
      <trkpt lat="59.210988" lon="18.146669">
        <ele>44</ele>
        <time>2020-01-22T08:38:04Z</time>
      </trkpt>
      <trkpt lat="59.210961" lon="18.146645">
        <ele>44</ele>
        <time>2020-01-22T08:38:05Z</time>
      </trkpt>
      <trkpt lat="59.210934" lon="18.146618">
        <ele>44</ele>
        <time>2020-01-22T08:38:06Z</time>
      </trkpt>
      <trkpt lat="59.210906" lon="18.146591">
        <ele>44</ele>
        <time>2020-01-22T08:38:07Z</time>
      </trkpt>
      <trkpt lat="59.21088" lon="18.146564">
        <ele>44</ele>
        <time>2020-01-22T08:38:08Z</time>
      </trkpt>
      <trkpt lat="59.210852" lon="18.146537">
        <ele>45</ele>
        <time>2020-01-22T08:38:09Z</time>
      </trkpt>
      <trkpt lat="59.210824" lon="18.14651">
        <ele>45</ele>
        <time>2020-01-22T08:38:10Z</time>
      </trkpt>
      <trkpt lat="59.210796" lon="18.146483">
        <ele>45</ele>
        <time>2020-01-22T08:38:11Z</time>
      </trkpt>
      <trkpt lat="59.21077" lon="18.146455">
        <ele>45</ele>
        <time>2020-01-22T08:38:12Z</time>
      </trkpt>
      <trkpt lat="59.210742" lon="18.146427">
        <ele>45</ele>
        <time>2020-01-22T08:38:13Z</time>
      </trkpt>
      <trkpt lat="59.210715" lon="18.146399">
        <ele>45</ele>
        <time>2020-01-22T08:38:14Z</time>
      </trkpt>
      <trkpt lat="59.21069" lon="18.146374">
        <ele>45</ele>
        <time>2020-01-22T08:38:15Z</time>
      </trkpt>
      <trkpt lat="59.210662" lon="18.146349">
        <ele>45</ele>
        <time>2020-01-22T08:38:16Z</time>
      </trkpt>
      <trkpt lat="59.210637" lon="18.146321">
        <ele>45</ele>
        <time>2020-01-22T08:38:17Z</time>
      </trkpt>
      <trkpt lat="59.21061" lon="18.146292">
        <ele>46</ele>
        <time>2020-01-22T08:38:18Z</time>
      </trkpt>
      <trkpt lat="59.210584" lon="18.146264">
        <ele>46</ele>
        <time>2020-01-22T08:38:19Z</time>
      </trkpt>
      <trkpt lat="59.210556" lon="18.146234">
        <ele>46</ele>
        <time>2020-01-22T08:38:20Z</time>
      </trkpt>
      <trkpt lat="59.210528" lon="18.146203">
        <ele>46</ele>
        <time>2020-01-22T08:38:21Z</time>
      </trkpt>
      <trkpt lat="59.2105" lon="18.146172">
        <ele>46</ele>
        <time>2020-01-22T08:38:22Z</time>
      </trkpt>
      <trkpt lat="59.210474" lon="18.146141">
        <ele>46</ele>
        <time>2020-01-22T08:38:23Z</time>
      </trkpt>
      <trkpt lat="59.210448" lon="18.146109">
        <ele>47</ele>
        <time>2020-01-22T08:38:24Z</time>
      </trkpt>
      <trkpt lat="59.210421" lon="18.146079">
        <ele>47</ele>
        <time>2020-01-22T08:38:25Z</time>
      </trkpt>
      <trkpt lat="59.210394" lon="18.146051">
        <ele>47</ele>
        <time>2020-01-22T08:38:26Z</time>
      </trkpt>
      <trkpt lat="59.210366" lon="18.146024">
        <ele>47</ele>
        <time>2020-01-22T08:38:27Z</time>
      </trkpt>
      <trkpt lat="59.21034" lon="18.145997">
        <ele>48</ele>
        <time>2020-01-22T08:38:28Z</time>
      </trkpt>
      <trkpt lat="59.210312" lon="18.14597">
        <ele>48</ele>
        <time>2020-01-22T08:38:29Z</time>
      </trkpt>
      <trkpt lat="59.210286" lon="18.145944">
        <ele>48</ele>
        <time>2020-01-22T08:38:30Z</time>
      </trkpt>
      <trkpt lat="59.210257" lon="18.14592">
        <ele>48</ele>
        <time>2020-01-22T08:38:31Z</time>
      </trkpt>
      <trkpt lat="59.210228" lon="18.145899">
        <ele>48</ele>
        <time>2020-01-22T08:38:32Z</time>
      </trkpt>
      <trkpt lat="59.2102" lon="18.145879">
        <ele>48</ele>
        <time>2020-01-22T08:38:33Z</time>
      </trkpt>
      <trkpt lat="59.21017" lon="18.145857">
        <ele>49</ele>
        <time>2020-01-22T08:38:34Z</time>
      </trkpt>
      <trkpt lat="59.210143" lon="18.145831">
        <ele>49</ele>
        <time>2020-01-22T08:38:35Z</time>
      </trkpt>
      <trkpt lat="59.210118" lon="18.145801">
        <ele>49</ele>
        <time>2020-01-22T08:38:36Z</time>
      </trkpt>
      <trkpt lat="59.210094" lon="18.145764">
        <ele>49</ele>
        <time>2020-01-22T08:38:37Z</time>
      </trkpt>
      <trkpt lat="59.210072" lon="18.145724">
        <ele>49</ele>
        <time>2020-01-22T08:38:38Z</time>
      </trkpt>
      <trkpt lat="59.21005" lon="18.145683">
        <ele>49</ele>
        <time>2020-01-22T08:38:39Z</time>
      </trkpt>
      <trkpt lat="59.210027" lon="18.145639">
        <ele>49</ele>
        <time>2020-01-22T08:38:40Z</time>
      </trkpt>
      <trkpt lat="59.210006" lon="18.145588">
        <ele>49</ele>
        <time>2020-01-22T08:38:41Z</time>
      </trkpt>
      <trkpt lat="59.209987" lon="18.145532">
        <ele>49</ele>
        <time>2020-01-22T08:38:42Z</time>
      </trkpt>
      <trkpt lat="59.209968" lon="18.145473">
        <ele>49</ele>
        <time>2020-01-22T08:38:43Z</time>
      </trkpt>
      <trkpt lat="59.20995" lon="18.145413">
        <ele>49</ele>
        <time>2020-01-22T08:38:44Z</time>
      </trkpt>
      <trkpt lat="59.20993" lon="18.145354">
        <ele>50</ele>
        <time>2020-01-22T08:38:45Z</time>
      </trkpt>
      <trkpt lat="59.209908" lon="18.145294">
        <ele>50</ele>
        <time>2020-01-22T08:38:46Z</time>
      </trkpt>
      <trkpt lat="59.209886" lon="18.145236">
        <ele>50</ele>
        <time>2020-01-22T08:38:47Z</time>
      </trkpt>
      <trkpt lat="59.209862" lon="18.145183">
        <ele>50</ele>
        <time>2020-01-22T08:38:48Z</time>
      </trkpt>
      <trkpt lat="59.209834" lon="18.145133">
        <ele>50</ele>
        <time>2020-01-22T08:38:49Z</time>
      </trkpt>
      <trkpt lat="59.209804" lon="18.145084">
        <ele>50</ele>
        <time>2020-01-22T08:38:50Z</time>
      </trkpt>
      <trkpt lat="59.209774" lon="18.145036">
        <ele>50</ele>
        <time>2020-01-22T08:38:51Z</time>
      </trkpt>
      <trkpt lat="59.209744" lon="18.144992">
        <ele>50</ele>
        <time>2020-01-22T08:38:52Z</time>
      </trkpt>
      <trkpt lat="59.209712" lon="18.144952">
        <ele>50</ele>
        <time>2020-01-22T08:38:53Z</time>
      </trkpt>
      <trkpt lat="59.20968" lon="18.144921">
        <ele>50</ele>
        <time>2020-01-22T08:38:54Z</time>
      </trkpt>
      <trkpt lat="59.209646" lon="18.144899">
        <ele>50</ele>
        <time>2020-01-22T08:38:55Z</time>
      </trkpt>
      <trkpt lat="59.20961" lon="18.144878">
        <ele>50</ele>
        <time>2020-01-22T08:38:56Z</time>
      </trkpt>
      <trkpt lat="59.209578" lon="18.144842">
        <ele>50</ele>
        <time>2020-01-22T08:38:57Z</time>
      </trkpt>
      <trkpt lat="59.209548" lon="18.144792">
        <ele>50</ele>
        <time>2020-01-22T08:38:58Z</time>
      </trkpt>
      <trkpt lat="59.209521" lon="18.144737">
        <ele>51</ele>
        <time>2020-01-22T08:38:59Z</time>
      </trkpt>
      <trkpt lat="59.2095" lon="18.144675">
        <ele>51</ele>
        <time>2020-01-22T08:39:00Z</time>
      </trkpt>
      <trkpt lat="59.209493" lon="18.144608">
        <ele>51</ele>
        <time>2020-01-22T08:39:01Z</time>
      </trkpt>
      <trkpt lat="59.209493" lon="18.144544">
        <ele>51</ele>
        <time>2020-01-22T08:39:02Z</time>
      </trkpt>
      <trkpt lat="59.209491" lon="18.144478">
        <ele>51</ele>
        <time>2020-01-22T08:39:03Z</time>
      </trkpt>
      <trkpt lat="59.209484" lon="18.14441">
        <ele>51</ele>
        <time>2020-01-22T08:39:04Z</time>
      </trkpt>
      <trkpt lat="59.209473" lon="18.144342">
        <ele>51</ele>
        <time>2020-01-22T08:39:05Z</time>
      </trkpt>
      <trkpt lat="59.209458" lon="18.144274">
        <ele>51</ele>
        <time>2020-01-22T08:39:06Z</time>
      </trkpt>
      <trkpt lat="59.209439" lon="18.144208">
        <ele>51</ele>
        <time>2020-01-22T08:39:07Z</time>
      </trkpt>
      <trkpt lat="59.209416" lon="18.144142">
        <ele>51</ele>
        <time>2020-01-22T08:39:08Z</time>
      </trkpt>
      <trkpt lat="59.20939" lon="18.144076">
        <ele>51</ele>
        <time>2020-01-22T08:39:09Z</time>
      </trkpt>
      <trkpt lat="59.209366" lon="18.144012">
        <ele>51</ele>
        <time>2020-01-22T08:39:10Z</time>
      </trkpt>
      <trkpt lat="59.209342" lon="18.14395">
        <ele>51</ele>
        <time>2020-01-22T08:39:11Z</time>
      </trkpt>
      <trkpt lat="59.209318" lon="18.143886">
        <ele>51</ele>
        <time>2020-01-22T08:39:12Z</time>
      </trkpt>
      <trkpt lat="59.209295" lon="18.143822">
        <ele>51</ele>
        <time>2020-01-22T08:39:13Z</time>
      </trkpt>
      <trkpt lat="59.209272" lon="18.143758">
        <ele>51</ele>
        <time>2020-01-22T08:39:14Z</time>
      </trkpt>
      <trkpt lat="59.209248" lon="18.143696">
        <ele>51</ele>
        <time>2020-01-22T08:39:15Z</time>
      </trkpt>
      <trkpt lat="59.209223" lon="18.143634">
        <ele>51</ele>
        <time>2020-01-22T08:39:16Z</time>
      </trkpt>
      <trkpt lat="59.209198" lon="18.143572">
        <ele>51</ele>
        <time>2020-01-22T08:39:17Z</time>
      </trkpt>
      <trkpt lat="59.209173" lon="18.143508">
        <ele>51</ele>
        <time>2020-01-22T08:39:18Z</time>
      </trkpt>
      <trkpt lat="59.209148" lon="18.143444">
        <ele>51</ele>
        <time>2020-01-22T08:39:19Z</time>
      </trkpt>
      <trkpt lat="59.209122" lon="18.14338">
        <ele>52</ele>
        <time>2020-01-22T08:39:20Z</time>
      </trkpt>
      <trkpt lat="59.209098" lon="18.143316">
        <ele>52</ele>
        <time>2020-01-22T08:39:21Z</time>
      </trkpt>
      <trkpt lat="59.209074" lon="18.143254">
        <ele>52</ele>
        <time>2020-01-22T08:39:22Z</time>
      </trkpt>
      <trkpt lat="59.20905" lon="18.143194">
        <ele>52</ele>
        <time>2020-01-22T08:39:23Z</time>
      </trkpt>
      <trkpt lat="59.209024" lon="18.143134">
        <ele>52</ele>
        <time>2020-01-22T08:39:24Z</time>
      </trkpt>
      <trkpt lat="59.208999" lon="18.14307">
        <ele>52</ele>
        <time>2020-01-22T08:39:25Z</time>
      </trkpt>
      <trkpt lat="59.208972" lon="18.143006">
        <ele>52</ele>
        <time>2020-01-22T08:39:26Z</time>
      </trkpt>
      <trkpt lat="59.208943" lon="18.142936">
        <ele>52</ele>
        <time>2020-01-22T08:39:27Z</time>
      </trkpt>
      <trkpt lat="59.208913" lon="18.142866">
        <ele>52</ele>
        <time>2020-01-22T08:39:28Z</time>
      </trkpt>
      <trkpt lat="59.208883" lon="18.142792">
        <ele>52</ele>
        <time>2020-01-22T08:39:29Z</time>
      </trkpt>
      <trkpt lat="59.208853" lon="18.142718">
        <ele>52</ele>
        <time>2020-01-22T08:39:30Z</time>
      </trkpt>
      <trkpt lat="59.208823" lon="18.14264">
        <ele>52</ele>
        <time>2020-01-22T08:39:31Z</time>
      </trkpt>
      <trkpt lat="59.208793" lon="18.142564">
        <ele>52</ele>
        <time>2020-01-22T08:39:32Z</time>
      </trkpt>
      <trkpt lat="59.20876" lon="18.142486">
        <ele>52</ele>
        <time>2020-01-22T08:39:33Z</time>
      </trkpt>
      <trkpt lat="59.208728" lon="18.14241">
        <ele>52</ele>
        <time>2020-01-22T08:39:34Z</time>
      </trkpt>
      <trkpt lat="59.208696" lon="18.142332">
        <ele>52</ele>
        <time>2020-01-22T08:39:35Z</time>
      </trkpt>
      <trkpt lat="59.208663" lon="18.142252">
        <ele>52</ele>
        <time>2020-01-22T08:39:36Z</time>
      </trkpt>
      <trkpt lat="59.208628" lon="18.142172">
        <ele>52</ele>
        <time>2020-01-22T08:39:37Z</time>
      </trkpt>
      <trkpt lat="59.208591" lon="18.14209">
        <ele>52</ele>
        <time>2020-01-22T08:39:38Z</time>
      </trkpt>
      <trkpt lat="59.208553" lon="18.142006">
        <ele>52</ele>
        <time>2020-01-22T08:39:39Z</time>
      </trkpt>
      <trkpt lat="59.208512" lon="18.14192">
        <ele>52</ele>
        <time>2020-01-22T08:39:40Z</time>
      </trkpt>
      <trkpt lat="59.20847" lon="18.141832">
        <ele>52</ele>
        <time>2020-01-22T08:39:41Z</time>
      </trkpt>
      <trkpt lat="59.208425" lon="18.141746">
        <ele>51</ele>
        <time>2020-01-22T08:39:42Z</time>
      </trkpt>
      <trkpt lat="59.208378" lon="18.14166">
        <ele>51</ele>
        <time>2020-01-22T08:39:43Z</time>
      </trkpt>
      <trkpt lat="59.208329" lon="18.141572">
        <ele>51</ele>
        <time>2020-01-22T08:39:44Z</time>
      </trkpt>
      <trkpt lat="59.208278" lon="18.141488">
        <ele>51</ele>
        <time>2020-01-22T08:39:45Z</time>
      </trkpt>
      <trkpt lat="59.208226" lon="18.141404">
        <ele>51</ele>
        <time>2020-01-22T08:39:46Z</time>
      </trkpt>
      <trkpt lat="59.20817" lon="18.14132">
        <ele>51</ele>
        <time>2020-01-22T08:39:47Z</time>
      </trkpt>
      <trkpt lat="59.208113" lon="18.141242">
        <ele>51</ele>
        <time>2020-01-22T08:39:48Z</time>
      </trkpt>
      <trkpt lat="59.208055" lon="18.141162">
        <ele>50</ele>
        <time>2020-01-22T08:39:49Z</time>
      </trkpt>
      <trkpt lat="59.207995" lon="18.141086">
        <ele>50</ele>
        <time>2020-01-22T08:39:50Z</time>
      </trkpt>
      <trkpt lat="59.207937" lon="18.14101">
        <ele>50</ele>
        <time>2020-01-22T08:39:51Z</time>
      </trkpt>
      <trkpt lat="59.207884" lon="18.14093">
        <ele>50</ele>
        <time>2020-01-22T08:39:52Z</time>
      </trkpt>
      <trkpt lat="59.207833" lon="18.140852">
        <ele>50</ele>
        <time>2020-01-22T08:39:53Z</time>
      </trkpt>
      <trkpt lat="59.207767" lon="18.140782">
        <ele>50</ele>
        <time>2020-01-22T08:39:54Z</time>
      </trkpt>
      <trkpt lat="59.207692" lon="18.140722">
        <ele>49</ele>
        <time>2020-01-22T08:39:55Z</time>
      </trkpt>
      <trkpt lat="59.207621" lon="18.14066">
        <ele>49</ele>
        <time>2020-01-22T08:39:56Z</time>
      </trkpt>
      <trkpt lat="59.207555" lon="18.1406">
        <ele>49</ele>
        <time>2020-01-22T08:39:57Z</time>
      </trkpt>
      <trkpt lat="59.207401" lon="18.140504">
        <ele>49</ele>
        <time>2020-01-22T08:39:59Z</time>
      </trkpt>
      <trkpt lat="59.207239" lon="18.140433">
        <ele>49</ele>
        <time>2020-01-22T08:40:01Z</time>
      </trkpt>
      <trkpt lat="59.20715" lon="18.14041">
        <ele>48</ele>
        <time>2020-01-22T08:40:02Z</time>
      </trkpt>
      <trkpt lat="59.207067" lon="18.140389">
        <ele>48</ele>
        <time>2020-01-22T08:40:03Z</time>
      </trkpt>
      <trkpt lat="59.206992" lon="18.140371">
        <ele>48</ele>
        <time>2020-01-22T08:40:04Z</time>
      </trkpt>
      <trkpt lat="59.206916" lon="18.140358">
        <ele>48</ele>
        <time>2020-01-22T08:40:05Z</time>
      </trkpt>
      <trkpt lat="59.206842" lon="18.140343">
        <ele>47</ele>
        <time>2020-01-22T08:40:06Z</time>
      </trkpt>
      <trkpt lat="59.206768" lon="18.140332">
        <ele>47</ele>
        <time>2020-01-22T08:40:07Z</time>
      </trkpt>
      <trkpt lat="59.206693" lon="18.140326">
        <ele>47</ele>
        <time>2020-01-22T08:40:08Z</time>
      </trkpt>
      <trkpt lat="59.206616" lon="18.140324">
        <ele>46</ele>
        <time>2020-01-22T08:40:09Z</time>
      </trkpt>
      <trkpt lat="59.206539" lon="18.140327">
        <ele>46</ele>
        <time>2020-01-22T08:40:10Z</time>
      </trkpt>
      <trkpt lat="59.206464" lon="18.140342">
        <ele>46</ele>
        <time>2020-01-22T08:40:11Z</time>
      </trkpt>
      <trkpt lat="59.206397" lon="18.140373">
        <ele>46</ele>
        <time>2020-01-22T08:40:12Z</time>
      </trkpt>
      <trkpt lat="59.206337" lon="18.140429">
        <ele>46</ele>
        <time>2020-01-22T08:40:13Z</time>
      </trkpt>
      <trkpt lat="59.206285" lon="18.140511">
        <ele>45</ele>
        <time>2020-01-22T08:40:14Z</time>
      </trkpt>
      <trkpt lat="59.206238" lon="18.140609">
        <ele>45</ele>
        <time>2020-01-22T08:40:15Z</time>
      </trkpt>
      <trkpt lat="59.206188" lon="18.140706">
        <ele>45</ele>
        <time>2020-01-22T08:40:16Z</time>
      </trkpt>
      <trkpt lat="59.206127" lon="18.140779">
        <ele>44</ele>
        <time>2020-01-22T08:40:17Z</time>
      </trkpt>
      <trkpt lat="59.206058" lon="18.140827">
        <ele>44</ele>
        <time>2020-01-22T08:40:18Z</time>
      </trkpt>
      <trkpt lat="59.205985" lon="18.140867">
        <ele>44</ele>
        <time>2020-01-22T08:40:19Z</time>
      </trkpt>
      <trkpt lat="59.205913" lon="18.140909">
        <ele>44</ele>
        <time>2020-01-22T08:40:20Z</time>
      </trkpt>
      <trkpt lat="59.205844" lon="18.140955">
        <ele>44</ele>
        <time>2020-01-22T08:40:21Z</time>
      </trkpt>
      <trkpt lat="59.205777" lon="18.141009">
        <ele>44</ele>
        <time>2020-01-22T08:40:22Z</time>
      </trkpt>
      <trkpt lat="59.205711" lon="18.141063">
        <ele>44</ele>
        <time>2020-01-22T08:40:23Z</time>
      </trkpt>
      <trkpt lat="59.205646" lon="18.141116">
        <ele>43</ele>
        <time>2020-01-22T08:40:24Z</time>
      </trkpt>
      <trkpt lat="59.205582" lon="18.14117">
        <ele>43</ele>
        <time>2020-01-22T08:40:25Z</time>
      </trkpt>
      <trkpt lat="59.205519" lon="18.141225">
        <ele>43</ele>
        <time>2020-01-22T08:40:26Z</time>
      </trkpt>
      <trkpt lat="59.205456" lon="18.141281">
        <ele>43</ele>
        <time>2020-01-22T08:40:27Z</time>
      </trkpt>
      <trkpt lat="59.205393" lon="18.141331">
        <ele>43</ele>
        <time>2020-01-22T08:40:28Z</time>
      </trkpt>
      <trkpt lat="59.205331" lon="18.14138">
        <ele>43</ele>
        <time>2020-01-22T08:40:29Z</time>
      </trkpt>
      <trkpt lat="59.205262" lon="18.141433">
        <ele>43</ele>
        <time>2020-01-22T08:40:30Z</time>
      </trkpt>
      <trkpt lat="59.205191" lon="18.141487">
        <ele>42</ele>
        <time>2020-01-22T08:40:31Z</time>
      </trkpt>
      <trkpt lat="59.20512" lon="18.141541">
        <ele>42</ele>
        <time>2020-01-22T08:40:32Z</time>
      </trkpt>
      <trkpt lat="59.205048" lon="18.141594">
        <ele>42</ele>
        <time>2020-01-22T08:40:33Z</time>
      </trkpt>
      <trkpt lat="59.204975" lon="18.141648">
        <ele>42</ele>
        <time>2020-01-22T08:40:34Z</time>
      </trkpt>
      <trkpt lat="59.204903" lon="18.141694">
        <ele>41</ele>
        <time>2020-01-22T08:40:35Z</time>
      </trkpt>
      <trkpt lat="59.204832" lon="18.141736">
        <ele>41</ele>
        <time>2020-01-22T08:40:36Z</time>
      </trkpt>
      <trkpt lat="59.204761" lon="18.141778">
        <ele>41</ele>
        <time>2020-01-22T08:40:37Z</time>
      </trkpt>
      <trkpt lat="59.20469" lon="18.141825">
        <ele>41</ele>
        <time>2020-01-22T08:40:38Z</time>
      </trkpt>
      <trkpt lat="59.204621" lon="18.141875">
        <ele>41</ele>
        <time>2020-01-22T08:40:39Z</time>
      </trkpt>
      <trkpt lat="59.204549" lon="18.141917">
        <ele>40</ele>
        <time>2020-01-22T08:40:40Z</time>
      </trkpt>
      <trkpt lat="59.204476" lon="18.141952">
        <ele>40</ele>
        <time>2020-01-22T08:40:41Z</time>
      </trkpt>
      <trkpt lat="59.204403" lon="18.141982">
        <ele>40</ele>
        <time>2020-01-22T08:40:42Z</time>
      </trkpt>
      <trkpt lat="59.204329" lon="18.142011">
        <ele>40</ele>
        <time>2020-01-22T08:40:43Z</time>
      </trkpt>
      <trkpt lat="59.204255" lon="18.14204">
        <ele>40</ele>
        <time>2020-01-22T08:40:44Z</time>
      </trkpt>
      <trkpt lat="59.204181" lon="18.142068">
        <ele>40</ele>
        <time>2020-01-22T08:40:45Z</time>
      </trkpt>
      <trkpt lat="59.204106" lon="18.142097">
        <ele>39</ele>
        <time>2020-01-22T08:40:46Z</time>
      </trkpt>
      <trkpt lat="59.204032" lon="18.142125">
        <ele>39</ele>
        <time>2020-01-22T08:40:47Z</time>
      </trkpt>
      <trkpt lat="59.203959" lon="18.14215">
        <ele>39</ele>
        <time>2020-01-22T08:40:48Z</time>
      </trkpt>
      <trkpt lat="59.203888" lon="18.142174">
        <ele>39</ele>
        <time>2020-01-22T08:40:49Z</time>
      </trkpt>
      <trkpt lat="59.203818" lon="18.142197">
        <ele>39</ele>
        <time>2020-01-22T08:40:50Z</time>
      </trkpt>
      <trkpt lat="59.203749" lon="18.142217">
        <ele>39</ele>
        <time>2020-01-22T08:40:51Z</time>
      </trkpt>
      <trkpt lat="59.203681" lon="18.142233">
        <ele>39</ele>
        <time>2020-01-22T08:40:52Z</time>
      </trkpt>
      <trkpt lat="59.203614" lon="18.142246">
        <ele>39</ele>
        <time>2020-01-22T08:40:53Z</time>
      </trkpt>
      <trkpt lat="59.203549" lon="18.142252">
        <ele>39</ele>
        <time>2020-01-22T08:40:54Z</time>
      </trkpt>
      <trkpt lat="59.203485" lon="18.142251">
        <ele>39</ele>
        <time>2020-01-22T08:40:55Z</time>
      </trkpt>
      <trkpt lat="59.203422" lon="18.142242">
        <ele>38</ele>
        <time>2020-01-22T08:40:56Z</time>
      </trkpt>
      <trkpt lat="59.20336" lon="18.142232">
        <ele>38</ele>
        <time>2020-01-22T08:40:57Z</time>
      </trkpt>
      <trkpt lat="59.203297" lon="18.14223">
        <ele>38</ele>
        <time>2020-01-22T08:40:58Z</time>
      </trkpt>
      <trkpt lat="59.203234" lon="18.142227">
        <ele>38</ele>
        <time>2020-01-22T08:40:59Z</time>
      </trkpt>
      <trkpt lat="59.203171" lon="18.142221">
        <ele>38</ele>
        <time>2020-01-22T08:41:00Z</time>
      </trkpt>
      <trkpt lat="59.203107" lon="18.142215">
        <ele>38</ele>
        <time>2020-01-22T08:41:01Z</time>
      </trkpt>
      <trkpt lat="59.203044" lon="18.142206">
        <ele>38</ele>
        <time>2020-01-22T08:41:02Z</time>
      </trkpt>
      <trkpt lat="59.202979" lon="18.142196">
        <ele>38</ele>
        <time>2020-01-22T08:41:03Z</time>
      </trkpt>
      <trkpt lat="59.202916" lon="18.142187">
        <ele>38</ele>
        <time>2020-01-22T08:41:04Z</time>
      </trkpt>
      <trkpt lat="59.202851" lon="18.142179">
        <ele>38</ele>
        <time>2020-01-22T08:41:05Z</time>
      </trkpt>
      <trkpt lat="59.202789" lon="18.142175">
        <ele>38</ele>
        <time>2020-01-22T08:41:06Z</time>
      </trkpt>
      <trkpt lat="59.202725" lon="18.142177">
        <ele>38</ele>
        <time>2020-01-22T08:41:07Z</time>
      </trkpt>
      <trkpt lat="59.20266" lon="18.142183">
        <ele>38</ele>
        <time>2020-01-22T08:41:08Z</time>
      </trkpt>
      <trkpt lat="59.202595" lon="18.142192">
        <ele>37</ele>
        <time>2020-01-22T08:41:09Z</time>
      </trkpt>
      <trkpt lat="59.20253" lon="18.142205">
        <ele>37</ele>
        <time>2020-01-22T08:41:10Z</time>
      </trkpt>
      <trkpt lat="59.202462" lon="18.142217">
        <ele>37</ele>
        <time>2020-01-22T08:41:11Z</time>
      </trkpt>
      <trkpt lat="59.202391" lon="18.142228">
        <ele>37</ele>
        <time>2020-01-22T08:41:12Z</time>
      </trkpt>
      <trkpt lat="59.202318" lon="18.142229">
        <ele>37</ele>
        <time>2020-01-22T08:41:13Z</time>
      </trkpt>
      <trkpt lat="59.202246" lon="18.142215">
        <ele>37</ele>
        <time>2020-01-22T08:41:14Z</time>
      </trkpt>
      <trkpt lat="59.202174" lon="18.142188">
        <ele>36</ele>
        <time>2020-01-22T08:41:15Z</time>
      </trkpt>
      <trkpt lat="59.202102" lon="18.142157">
        <ele>36</ele>
        <time>2020-01-22T08:41:16Z</time>
      </trkpt>
      <trkpt lat="59.202029" lon="18.142122">
        <ele>36</ele>
        <time>2020-01-22T08:41:17Z</time>
      </trkpt>
      <trkpt lat="59.201957" lon="18.142088">
        <ele>36</ele>
        <time>2020-01-22T08:41:18Z</time>
      </trkpt>
      <trkpt lat="59.201886" lon="18.142056">
        <ele>36</ele>
        <time>2020-01-22T08:41:19Z</time>
      </trkpt>
      <trkpt lat="59.201816" lon="18.142027">
        <ele>35</ele>
        <time>2020-01-22T08:41:20Z</time>
      </trkpt>
      <trkpt lat="59.201745" lon="18.141996">
        <ele>35</ele>
        <time>2020-01-22T08:41:21Z</time>
      </trkpt>
      <trkpt lat="59.201674" lon="18.141963">
        <ele>35</ele>
        <time>2020-01-22T08:41:22Z</time>
      </trkpt>
      <trkpt lat="59.201602" lon="18.141929">
        <ele>35</ele>
        <time>2020-01-22T08:41:23Z</time>
      </trkpt>
      <trkpt lat="59.20153" lon="18.141893">
        <ele>35</ele>
        <time>2020-01-22T08:41:24Z</time>
      </trkpt>
      <trkpt lat="59.201457" lon="18.141851">
        <ele>35</ele>
        <time>2020-01-22T08:41:25Z</time>
      </trkpt>
      <trkpt lat="59.201387" lon="18.141802">
        <ele>35</ele>
        <time>2020-01-22T08:41:26Z</time>
      </trkpt>
      <trkpt lat="59.201316" lon="18.141749">
        <ele>34</ele>
        <time>2020-01-22T08:41:27Z</time>
      </trkpt>
      <trkpt lat="59.201246" lon="18.141691">
        <ele>34</ele>
        <time>2020-01-22T08:41:28Z</time>
      </trkpt>
      <trkpt lat="59.201176" lon="18.141633">
        <ele>34</ele>
        <time>2020-01-22T08:41:29Z</time>
      </trkpt>
      <trkpt lat="59.201108" lon="18.141575">
        <ele>34</ele>
        <time>2020-01-22T08:41:30Z</time>
      </trkpt>
      <trkpt lat="59.201038" lon="18.141515">
        <ele>34</ele>
        <time>2020-01-22T08:41:31Z</time>
      </trkpt>
      <trkpt lat="59.20097" lon="18.141454">
        <ele>34</ele>
        <time>2020-01-22T08:41:32Z</time>
      </trkpt>
      <trkpt lat="59.200904" lon="18.141391">
        <ele>34</ele>
        <time>2020-01-22T08:41:33Z</time>
      </trkpt>
      <trkpt lat="59.20084" lon="18.141335">
        <ele>34</ele>
        <time>2020-01-22T08:41:34Z</time>
      </trkpt>
      <trkpt lat="59.20077" lon="18.141295">
        <ele>33</ele>
        <time>2020-01-22T08:41:35Z</time>
      </trkpt>
      <trkpt lat="59.200694" lon="18.141284">
        <ele>33</ele>
        <time>2020-01-22T08:41:36Z</time>
      </trkpt>
      <trkpt lat="59.200612" lon="18.141309">
        <ele>33</ele>
        <time>2020-01-22T08:41:37Z</time>
      </trkpt>
      <trkpt lat="59.200531" lon="18.141367">
        <ele>33</ele>
        <time>2020-01-22T08:41:38Z</time>
      </trkpt>
      <trkpt lat="59.200458" lon="18.141451">
        <ele>32</ele>
        <time>2020-01-22T08:41:39Z</time>
      </trkpt>
      <trkpt lat="59.200384" lon="18.14154">
        <ele>32</ele>
        <time>2020-01-22T08:41:40Z</time>
      </trkpt>
      <trkpt lat="59.20031" lon="18.141625">
        <ele>31</ele>
        <time>2020-01-22T08:41:41Z</time>
      </trkpt>
      <trkpt lat="59.200232" lon="18.141709">
        <ele>31</ele>
        <time>2020-01-22T08:41:42Z</time>
      </trkpt>
      <trkpt lat="59.200156" lon="18.141791">
        <ele>30</ele>
        <time>2020-01-22T08:41:43Z</time>
      </trkpt>
      <trkpt lat="59.200078" lon="18.141879">
        <ele>29</ele>
        <time>2020-01-22T08:41:44Z</time>
      </trkpt>
      <trkpt lat="59.200002" lon="18.141972">
        <ele>29</ele>
        <time>2020-01-22T08:41:45Z</time>
      </trkpt>
      <trkpt lat="59.199924" lon="18.142066">
        <ele>28</ele>
        <time>2020-01-22T08:41:46Z</time>
      </trkpt>
      <trkpt lat="59.19985" lon="18.14217">
        <ele>28</ele>
        <time>2020-01-22T08:41:47Z</time>
      </trkpt>
      <trkpt lat="59.199784" lon="18.14229">
        <ele>27</ele>
        <time>2020-01-22T08:41:48Z</time>
      </trkpt>
      <trkpt lat="59.199734" lon="18.142416">
        <ele>27</ele>
        <time>2020-01-22T08:41:49Z</time>
      </trkpt>
      <trkpt lat="59.199686" lon="18.142546">
        <ele>27</ele>
        <time>2020-01-22T08:41:50Z</time>
      </trkpt>
      <trkpt lat="59.199641" lon="18.142681">
        <ele>27</ele>
        <time>2020-01-22T08:41:51Z</time>
      </trkpt>
      <trkpt lat="59.19958" lon="18.142804">
        <ele>27</ele>
        <time>2020-01-22T08:41:52Z</time>
      </trkpt>
      <trkpt lat="59.199504" lon="18.142898">
        <ele>27</ele>
        <time>2020-01-22T08:41:53Z</time>
      </trkpt>
      <trkpt lat="59.199422" lon="18.14296">
        <ele>27</ele>
        <time>2020-01-22T08:41:54Z</time>
      </trkpt>
      <trkpt lat="59.19934" lon="18.142992">
        <ele>26</ele>
        <time>2020-01-22T08:41:55Z</time>
      </trkpt>
      <trkpt lat="59.19926" lon="18.143">
        <ele>26</ele>
        <time>2020-01-22T08:41:56Z</time>
      </trkpt>
      <trkpt lat="59.199186" lon="18.142999">
        <ele>26</ele>
        <time>2020-01-22T08:41:57Z</time>
      </trkpt>
      <trkpt lat="59.199113" lon="18.142997">
        <ele>26</ele>
        <time>2020-01-22T08:41:58Z</time>
      </trkpt>
      <trkpt lat="59.199044" lon="18.142994">
        <ele>26</ele>
        <time>2020-01-22T08:41:59Z</time>
      </trkpt>
      <trkpt lat="59.198978" lon="18.142991">
        <ele>26</ele>
        <time>2020-01-22T08:42:00Z</time>
      </trkpt>
      <trkpt lat="59.198909" lon="18.142987">
        <ele>25</ele>
        <time>2020-01-22T08:42:01Z</time>
      </trkpt>
      <trkpt lat="59.198841" lon="18.142983">
        <ele>25</ele>
        <time>2020-01-22T08:42:02Z</time>
      </trkpt>
      <trkpt lat="59.198773" lon="18.142976">
        <ele>25</ele>
        <time>2020-01-22T08:42:03Z</time>
      </trkpt>
      <trkpt lat="59.198705" lon="18.142967">
        <ele>25</ele>
        <time>2020-01-22T08:42:04Z</time>
      </trkpt>
      <trkpt lat="59.198637" lon="18.142959">
        <ele>25</ele>
        <time>2020-01-22T08:42:05Z</time>
      </trkpt>
      <trkpt lat="59.198568" lon="18.142947">
        <ele>25</ele>
        <time>2020-01-22T08:42:06Z</time>
      </trkpt>
      <trkpt lat="59.198501" lon="18.142922">
        <ele>24</ele>
        <time>2020-01-22T08:42:07Z</time>
      </trkpt>
      <trkpt lat="59.198435" lon="18.142888">
        <ele>24</ele>
        <time>2020-01-22T08:42:08Z</time>
      </trkpt>
      <trkpt lat="59.19837" lon="18.142851">
        <ele>24</ele>
        <time>2020-01-22T08:42:09Z</time>
      </trkpt>
      <trkpt lat="59.198305" lon="18.142813">
        <ele>24</ele>
        <time>2020-01-22T08:42:10Z</time>
      </trkpt>
      <trkpt lat="59.198241" lon="18.14277">
        <ele>24</ele>
        <time>2020-01-22T08:42:11Z</time>
      </trkpt>
      <trkpt lat="59.198178" lon="18.142722">
        <ele>24</ele>
        <time>2020-01-22T08:42:12Z</time>
      </trkpt>
      <trkpt lat="59.198116" lon="18.142671">
        <ele>24</ele>
        <time>2020-01-22T08:42:13Z</time>
      </trkpt>
      <trkpt lat="59.198055" lon="18.142622">
        <ele>24</ele>
        <time>2020-01-22T08:42:14Z</time>
      </trkpt>
      <trkpt lat="59.197994" lon="18.142572">
        <ele>24</ele>
        <time>2020-01-22T08:42:15Z</time>
      </trkpt>
      <trkpt lat="59.197933" lon="18.142525">
        <ele>24</ele>
        <time>2020-01-22T08:42:16Z</time>
      </trkpt>
      <trkpt lat="59.197873" lon="18.14248">
        <ele>24</ele>
        <time>2020-01-22T08:42:17Z</time>
      </trkpt>
      <trkpt lat="59.197815" lon="18.142436">
        <ele>24</ele>
        <time>2020-01-22T08:42:18Z</time>
      </trkpt>
      <trkpt lat="59.197756" lon="18.142396">
        <ele>24</ele>
        <time>2020-01-22T08:42:19Z</time>
      </trkpt>
      <trkpt lat="59.197697" lon="18.142355">
        <ele>24</ele>
        <time>2020-01-22T08:42:20Z</time>
      </trkpt>
      <trkpt lat="59.197638" lon="18.142313">
        <ele>24</ele>
        <time>2020-01-22T08:42:21Z</time>
      </trkpt>
      <trkpt lat="59.19758" lon="18.142272">
        <ele>24</ele>
        <time>2020-01-22T08:42:22Z</time>
      </trkpt>
      <trkpt lat="59.197524" lon="18.142228">
        <ele>24</ele>
        <time>2020-01-22T08:42:23Z</time>
      </trkpt>
      <trkpt lat="59.197469" lon="18.142182">
        <ele>25</ele>
        <time>2020-01-22T08:42:24Z</time>
      </trkpt>
      <trkpt lat="59.197419" lon="18.142134">
        <ele>25</ele>
        <time>2020-01-22T08:42:25Z</time>
      </trkpt>
      <trkpt lat="59.19737" lon="18.142086">
        <ele>25</ele>
        <time>2020-01-22T08:42:26Z</time>
      </trkpt>
      <trkpt lat="59.197325" lon="18.142035">
        <ele>25</ele>
        <time>2020-01-22T08:42:27Z</time>
      </trkpt>
      <trkpt lat="59.197284" lon="18.141983">
        <ele>25</ele>
        <time>2020-01-22T08:42:28Z</time>
      </trkpt>
      <trkpt lat="59.197245" lon="18.141933">
        <ele>25</ele>
        <time>2020-01-22T08:42:29Z</time>
      </trkpt>
      <trkpt lat="59.197208" lon="18.141886">
        <ele>25</ele>
        <time>2020-01-22T08:42:30Z</time>
      </trkpt>
      <trkpt lat="59.197173" lon="18.141836">
        <ele>25</ele>
        <time>2020-01-22T08:42:31Z</time>
      </trkpt>
      <trkpt lat="59.19714" lon="18.141788">
        <ele>25</ele>
        <time>2020-01-22T08:42:32Z</time>
      </trkpt>
      <trkpt lat="59.197109" lon="18.14174">
        <ele>25</ele>
        <time>2020-01-22T08:42:33Z</time>
      </trkpt>
      <trkpt lat="59.197078" lon="18.141694">
        <ele>26</ele>
        <time>2020-01-22T08:42:34Z</time>
      </trkpt>
      <trkpt lat="59.197049" lon="18.141645">
        <ele>26</ele>
        <time>2020-01-22T08:42:35Z</time>
      </trkpt>
      <trkpt lat="59.19702" lon="18.141594">
        <ele>26</ele>
        <time>2020-01-22T08:42:36Z</time>
      </trkpt>
      <trkpt lat="59.196992" lon="18.141541">
        <ele>26</ele>
        <time>2020-01-22T08:42:37Z</time>
      </trkpt>
      <trkpt lat="59.196963" lon="18.141492">
        <ele>26</ele>
        <time>2020-01-22T08:42:38Z</time>
      </trkpt>
      <trkpt lat="59.196935" lon="18.141445">
        <ele>27</ele>
        <time>2020-01-22T08:42:39Z</time>
      </trkpt>
      <trkpt lat="59.196909" lon="18.141399">
        <ele>27</ele>
        <time>2020-01-22T08:42:40Z</time>
      </trkpt>
      <trkpt lat="59.196882" lon="18.141356">
        <ele>27</ele>
        <time>2020-01-22T08:42:41Z</time>
      </trkpt>
      <trkpt lat="59.196854" lon="18.141315">
        <ele>27</ele>
        <time>2020-01-22T08:42:42Z</time>
      </trkpt>
      <trkpt lat="59.196826" lon="18.141274">
        <ele>27</ele>
        <time>2020-01-22T08:42:43Z</time>
      </trkpt>
      <trkpt lat="59.1968" lon="18.141234">
        <ele>27</ele>
        <time>2020-01-22T08:42:44Z</time>
      </trkpt>
      <trkpt lat="59.196773" lon="18.141198">
        <ele>27</ele>
        <time>2020-01-22T08:42:45Z</time>
      </trkpt>
      <trkpt lat="59.196746" lon="18.141163">
        <ele>27</ele>
        <time>2020-01-22T08:42:46Z</time>
      </trkpt>
      <trkpt lat="59.196719" lon="18.141129">
        <ele>27</ele>
        <time>2020-01-22T08:42:47Z</time>
      </trkpt>
      <trkpt lat="59.196692" lon="18.141095">
        <ele>28</ele>
        <time>2020-01-22T08:42:48Z</time>
      </trkpt>
      <trkpt lat="59.196664" lon="18.141062">
        <ele>28</ele>
        <time>2020-01-22T08:42:49Z</time>
      </trkpt>
      <trkpt lat="59.196635" lon="18.14103">
        <ele>28</ele>
        <time>2020-01-22T08:42:50Z</time>
      </trkpt>
      <trkpt lat="59.196607" lon="18.141">
        <ele>28</ele>
        <time>2020-01-22T08:42:51Z</time>
      </trkpt>
      <trkpt lat="59.196577" lon="18.140974">
        <ele>28</ele>
        <time>2020-01-22T08:42:52Z</time>
      </trkpt>
      <trkpt lat="59.196547" lon="18.14095">
        <ele>28</ele>
        <time>2020-01-22T08:42:53Z</time>
      </trkpt>
      <trkpt lat="59.196516" lon="18.140927">
        <ele>29</ele>
        <time>2020-01-22T08:42:54Z</time>
      </trkpt>
      <trkpt lat="59.196486" lon="18.140905">
        <ele>29</ele>
        <time>2020-01-22T08:42:55Z</time>
      </trkpt>
      <trkpt lat="59.196455" lon="18.140885">
        <ele>29</ele>
        <time>2020-01-22T08:42:56Z</time>
      </trkpt>
      <trkpt lat="59.196424" lon="18.140868">
        <ele>29</ele>
        <time>2020-01-22T08:42:57Z</time>
      </trkpt>
      <trkpt lat="59.196393" lon="18.140852">
        <ele>29</ele>
        <time>2020-01-22T08:42:58Z</time>
      </trkpt>
      <trkpt lat="59.196361" lon="18.140839">
        <ele>29</ele>
        <time>2020-01-22T08:42:59Z</time>
      </trkpt>
      <trkpt lat="59.196328" lon="18.140826">
        <ele>30</ele>
        <time>2020-01-22T08:43:00Z</time>
      </trkpt>
      <trkpt lat="59.196294" lon="18.140814">
        <ele>30</ele>
        <time>2020-01-22T08:43:01Z</time>
      </trkpt>
      <trkpt lat="59.196259" lon="18.140804">
        <ele>30</ele>
        <time>2020-01-22T08:43:02Z</time>
      </trkpt>
      <trkpt lat="59.196225" lon="18.140794">
        <ele>30</ele>
        <time>2020-01-22T08:43:03Z</time>
      </trkpt>
      <trkpt lat="59.196191" lon="18.140783">
        <ele>30</ele>
        <time>2020-01-22T08:43:04Z</time>
      </trkpt>
      <trkpt lat="59.196158" lon="18.140773">
        <ele>30</ele>
        <time>2020-01-22T08:43:05Z</time>
      </trkpt>
      <trkpt lat="59.196125" lon="18.140765">
        <ele>30</ele>
        <time>2020-01-22T08:43:06Z</time>
      </trkpt>
      <trkpt lat="59.196091" lon="18.140758">
        <ele>30</ele>
        <time>2020-01-22T08:43:07Z</time>
      </trkpt>
      <trkpt lat="59.196057" lon="18.14075">
        <ele>30</ele>
        <time>2020-01-22T08:43:08Z</time>
      </trkpt>
      <trkpt lat="59.196023" lon="18.140741">
        <ele>31</ele>
        <time>2020-01-22T08:43:09Z</time>
      </trkpt>
      <trkpt lat="59.195989" lon="18.140734">
        <ele>31</ele>
        <time>2020-01-22T08:43:10Z</time>
      </trkpt>
      <trkpt lat="59.195954" lon="18.140727">
        <ele>31</ele>
        <time>2020-01-22T08:43:11Z</time>
      </trkpt>
      <trkpt lat="59.19592" lon="18.140721">
        <ele>31</ele>
        <time>2020-01-22T08:43:12Z</time>
      </trkpt>
      <trkpt lat="59.195886" lon="18.140714">
        <ele>31</ele>
        <time>2020-01-22T08:43:13Z</time>
      </trkpt>
      <trkpt lat="59.195851" lon="18.140708">
        <ele>31</ele>
        <time>2020-01-22T08:43:14Z</time>
      </trkpt>
      <trkpt lat="59.195815" lon="18.140702">
        <ele>31</ele>
        <time>2020-01-22T08:43:15Z</time>
      </trkpt>
      <trkpt lat="59.195779" lon="18.140694">
        <ele>31</ele>
        <time>2020-01-22T08:43:16Z</time>
      </trkpt>
      <trkpt lat="59.195743" lon="18.140687">
        <ele>32</ele>
        <time>2020-01-22T08:43:17Z</time>
      </trkpt>
      <trkpt lat="59.195707" lon="18.140681">
        <ele>32</ele>
        <time>2020-01-22T08:43:18Z</time>
      </trkpt>
      <trkpt lat="59.195672" lon="18.140675">
        <ele>32</ele>
        <time>2020-01-22T08:43:19Z</time>
      </trkpt>
      <trkpt lat="59.195637" lon="18.140669">
        <ele>32</ele>
        <time>2020-01-22T08:43:20Z</time>
      </trkpt>
      <trkpt lat="59.195603" lon="18.140664">
        <ele>32</ele>
        <time>2020-01-22T08:43:21Z</time>
      </trkpt>
      <trkpt lat="59.195568" lon="18.14066">
        <ele>32</ele>
        <time>2020-01-22T08:43:22Z</time>
      </trkpt>
      <trkpt lat="59.195534" lon="18.140655">
        <ele>32</ele>
        <time>2020-01-22T08:43:23Z</time>
      </trkpt>
      <trkpt lat="59.195499" lon="18.14065">
        <ele>32</ele>
        <time>2020-01-22T08:43:24Z</time>
      </trkpt>
      <trkpt lat="59.195464" lon="18.140646">
        <ele>33</ele>
        <time>2020-01-22T08:43:25Z</time>
      </trkpt>
      <trkpt lat="59.195429" lon="18.140643">
        <ele>33</ele>
        <time>2020-01-22T08:43:26Z</time>
      </trkpt>
      <trkpt lat="59.195395" lon="18.140641">
        <ele>33</ele>
        <time>2020-01-22T08:43:27Z</time>
      </trkpt>
      <trkpt lat="59.19536" lon="18.14064">
        <ele>33</ele>
        <time>2020-01-22T08:43:28Z</time>
      </trkpt>
      <trkpt lat="59.195326" lon="18.140641">
        <ele>33</ele>
        <time>2020-01-22T08:43:29Z</time>
      </trkpt>
      <trkpt lat="59.195291" lon="18.140645">
        <ele>33</ele>
        <time>2020-01-22T08:43:30Z</time>
      </trkpt>
      <trkpt lat="59.195255" lon="18.14065">
        <ele>33</ele>
        <time>2020-01-22T08:43:31Z</time>
      </trkpt>
      <trkpt lat="59.195219" lon="18.140657">
        <ele>33</ele>
        <time>2020-01-22T08:43:32Z</time>
      </trkpt>
      <trkpt lat="59.195182" lon="18.140665">
        <ele>34</ele>
        <time>2020-01-22T08:43:34Z</time>
      </trkpt>
      <trkpt lat="59.195147" lon="18.140677">
        <ele>34</ele>
        <time>2020-01-22T08:43:34Z</time>
      </trkpt>
      <trkpt lat="59.195111" lon="18.14069">
        <ele>34</ele>
        <time>2020-01-22T08:43:35Z</time>
      </trkpt>
      <trkpt lat="59.195076" lon="18.140705">
        <ele>34</ele>
        <time>2020-01-22T08:43:36Z</time>
      </trkpt>
      <trkpt lat="59.195043" lon="18.140724">
        <ele>34</ele>
        <time>2020-01-22T08:43:37Z</time>
      </trkpt>
      <trkpt lat="59.19501" lon="18.140745">
        <ele>35</ele>
        <time>2020-01-22T08:43:38Z</time>
      </trkpt>
      <trkpt lat="59.194977" lon="18.140768">
        <ele>35</ele>
        <time>2020-01-22T08:43:39Z</time>
      </trkpt>
      <trkpt lat="59.194947" lon="18.14079">
        <ele>35</ele>
        <time>2020-01-22T08:43:40Z</time>
      </trkpt>
      <trkpt lat="59.194917" lon="18.140811">
        <ele>35</ele>
        <time>2020-01-22T08:43:41Z</time>
      </trkpt>
      <trkpt lat="59.194888" lon="18.140835">
        <ele>36</ele>
        <time>2020-01-22T08:43:42Z</time>
      </trkpt>
      <trkpt lat="59.19486" lon="18.14086">
        <ele>36</ele>
        <time>2020-01-22T08:43:43Z</time>
      </trkpt>
      <trkpt lat="59.194832" lon="18.140884">
        <ele>36</ele>
        <time>2020-01-22T08:43:44Z</time>
      </trkpt>
      <trkpt lat="59.194804" lon="18.14091">
        <ele>36</ele>
        <time>2020-01-22T08:43:45Z</time>
      </trkpt>
      <trkpt lat="59.194775" lon="18.140936">
        <ele>36</ele>
        <time>2020-01-22T08:43:46Z</time>
      </trkpt>
      <trkpt lat="59.194746" lon="18.140964">
        <ele>37</ele>
        <time>2020-01-22T08:43:47Z</time>
      </trkpt>
      <trkpt lat="59.194716" lon="18.140991">
        <ele>37</ele>
        <time>2020-01-22T08:43:48Z</time>
      </trkpt>
      <trkpt lat="59.194687" lon="18.141019">
        <ele>37</ele>
        <time>2020-01-22T08:43:49Z</time>
      </trkpt>
      <trkpt lat="59.194658" lon="18.141046">
        <ele>37</ele>
        <time>2020-01-22T08:43:50Z</time>
      </trkpt>
      <trkpt lat="59.194627" lon="18.141077">
        <ele>38</ele>
        <time>2020-01-22T08:43:51Z</time>
      </trkpt>
      <trkpt lat="59.194598" lon="18.141106">
        <ele>38</ele>
        <time>2020-01-22T08:43:52Z</time>
      </trkpt>
      <trkpt lat="59.194571" lon="18.141134">
        <ele>38</ele>
        <time>2020-01-22T08:43:53Z</time>
      </trkpt>
      <trkpt lat="59.194548" lon="18.14116">
        <ele>38</ele>
        <time>2020-01-22T08:43:54Z</time>
      </trkpt>
      <trkpt lat="59.194521" lon="18.141186">
        <ele>38</ele>
        <time>2020-01-22T08:43:55Z</time>
      </trkpt>
      <trkpt lat="59.194489" lon="18.14122">
        <ele>39</ele>
        <time>2020-01-22T08:43:56Z</time>
      </trkpt>
      <trkpt lat="59.194459" lon="18.141256">
        <ele>39</ele>
        <time>2020-01-22T08:43:57Z</time>
      </trkpt>
      <trkpt lat="59.194426" lon="18.141286">
        <ele>39</ele>
        <time>2020-01-22T08:43:58Z</time>
      </trkpt>
      <trkpt lat="59.194388" lon="18.141321">
        <ele>39</ele>
        <time>2020-01-22T08:43:59Z</time>
      </trkpt>
      <trkpt lat="59.194345" lon="18.141362">
        <ele>39</ele>
        <time>2020-01-22T08:44:00Z</time>
      </trkpt>
      <trkpt lat="59.194309" lon="18.141395">
        <ele>39</ele>
        <time>2020-01-22T08:44:01Z</time>
      </trkpt>
      <trkpt lat="59.194267" lon="18.141433">
        <ele>39</ele>
        <time>2020-01-22T08:44:02Z</time>
      </trkpt>
      <trkpt lat="59.194226" lon="18.141473">
        <ele>39</ele>
        <time>2020-01-22T08:44:03Z</time>
      </trkpt>
      <trkpt lat="59.194188" lon="18.14151">
        <ele>40</ele>
        <time>2020-01-22T08:44:04Z</time>
      </trkpt>
      <trkpt lat="59.194153" lon="18.141542">
        <ele>40</ele>
        <time>2020-01-22T08:44:05Z</time>
      </trkpt>
      <trkpt lat="59.194121" lon="18.141572">
        <ele>40</ele>
        <time>2020-01-22T08:44:06Z</time>
      </trkpt>
      <trkpt lat="59.194089" lon="18.141603">
        <ele>40</ele>
        <time>2020-01-22T08:44:07Z</time>
      </trkpt>
      <trkpt lat="59.19406" lon="18.141633">
        <ele>40</ele>
        <time>2020-01-22T08:44:08Z</time>
      </trkpt>
      <trkpt lat="59.194027" lon="18.141664">
        <ele>40</ele>
        <time>2020-01-22T08:44:09Z</time>
      </trkpt>
      <trkpt lat="59.193994" lon="18.141697">
        <ele>41</ele>
        <time>2020-01-22T08:44:10Z</time>
      </trkpt>
      <trkpt lat="59.193958" lon="18.141735">
        <ele>41</ele>
        <time>2020-01-22T08:44:11Z</time>
      </trkpt>
      <trkpt lat="59.19392" lon="18.141773">
        <ele>41</ele>
        <time>2020-01-22T08:44:12Z</time>
      </trkpt>
      <trkpt lat="59.193882" lon="18.141811">
        <ele>41</ele>
        <time>2020-01-22T08:44:13Z</time>
      </trkpt>
      <trkpt lat="59.193845" lon="18.141851">
        <ele>41</ele>
        <time>2020-01-22T08:44:14Z</time>
      </trkpt>
      <trkpt lat="59.193807" lon="18.141888">
        <ele>41</ele>
        <time>2020-01-22T08:44:15Z</time>
      </trkpt>
      <trkpt lat="59.193769" lon="18.141925">
        <ele>41</ele>
        <time>2020-01-22T08:44:16Z</time>
      </trkpt>
      <trkpt lat="59.193731" lon="18.141961">
        <ele>41</ele>
        <time>2020-01-22T08:44:17Z</time>
      </trkpt>
      <trkpt lat="59.193692" lon="18.142">
        <ele>42</ele>
        <time>2020-01-22T08:44:18Z</time>
      </trkpt>
      <trkpt lat="59.193654" lon="18.142043">
        <ele>42</ele>
        <time>2020-01-22T08:44:19Z</time>
      </trkpt>
      <trkpt lat="59.193616" lon="18.142084">
        <ele>42</ele>
        <time>2020-01-22T08:44:20Z</time>
      </trkpt>
      <trkpt lat="59.193575" lon="18.14212">
        <ele>42</ele>
        <time>2020-01-22T08:44:21Z</time>
      </trkpt>
      <trkpt lat="59.19353" lon="18.142156">
        <ele>42</ele>
        <time>2020-01-22T08:44:22Z</time>
      </trkpt>
      <trkpt lat="59.193485" lon="18.142194">
        <ele>42</ele>
        <time>2020-01-22T08:44:23Z</time>
      </trkpt>
      <trkpt lat="59.193438" lon="18.142231">
        <ele>42</ele>
        <time>2020-01-22T08:44:24Z</time>
      </trkpt>
      <trkpt lat="59.19339" lon="18.142265">
        <ele>42</ele>
        <time>2020-01-22T08:44:25Z</time>
      </trkpt>
      <trkpt lat="59.19334" lon="18.142297">
        <ele>42</ele>
        <time>2020-01-22T08:44:26Z</time>
      </trkpt>
      <trkpt lat="59.193289" lon="18.14233">
        <ele>42</ele>
        <time>2020-01-22T08:44:27Z</time>
      </trkpt>
      <trkpt lat="59.193238" lon="18.142365">
        <ele>42</ele>
        <time>2020-01-22T08:44:28Z</time>
      </trkpt>
      <trkpt lat="59.193186" lon="18.142401">
        <ele>42</ele>
        <time>2020-01-22T08:44:29Z</time>
      </trkpt>
      <trkpt lat="59.193134" lon="18.142441">
        <ele>42</ele>
        <time>2020-01-22T08:44:30Z</time>
      </trkpt>
      <trkpt lat="59.193081" lon="18.142486">
        <ele>42</ele>
        <time>2020-01-22T08:44:31Z</time>
      </trkpt>
      <trkpt lat="59.193028" lon="18.142535">
        <ele>42</ele>
        <time>2020-01-22T08:44:32Z</time>
      </trkpt>
      <trkpt lat="59.192975" lon="18.142587">
        <ele>42</ele>
        <time>2020-01-22T08:44:33Z</time>
      </trkpt>
      <trkpt lat="59.192922" lon="18.142637">
        <ele>42</ele>
        <time>2020-01-22T08:44:34Z</time>
      </trkpt>
      <trkpt lat="59.192871" lon="18.142692">
        <ele>42</ele>
        <time>2020-01-22T08:44:35Z</time>
      </trkpt>
      <trkpt lat="59.192816" lon="18.14275">
        <ele>42</ele>
        <time>2020-01-22T08:44:36Z</time>
      </trkpt>
      <trkpt lat="59.19276" lon="18.142809">
        <ele>41</ele>
        <time>2020-01-22T08:44:37Z</time>
      </trkpt>
      <trkpt lat="59.192703" lon="18.142867">
        <ele>41</ele>
        <time>2020-01-22T08:44:38Z</time>
      </trkpt>
      <trkpt lat="59.192646" lon="18.142928">
        <ele>41</ele>
        <time>2020-01-22T08:44:39Z</time>
      </trkpt>
      <trkpt lat="59.192588" lon="18.142986">
        <ele>41</ele>
        <time>2020-01-22T08:44:40Z</time>
      </trkpt>
      <trkpt lat="59.192529" lon="18.143044">
        <ele>41</ele>
        <time>2020-01-22T08:44:41Z</time>
      </trkpt>
      <trkpt lat="59.192465" lon="18.143108">
        <ele>41</ele>
        <time>2020-01-22T08:44:42Z</time>
      </trkpt>
      <trkpt lat="59.192397" lon="18.143176">
        <ele>41</ele>
        <time>2020-01-22T08:44:43Z</time>
      </trkpt>
      <trkpt lat="59.192327" lon="18.143248">
        <ele>41</ele>
        <time>2020-01-22T08:44:44Z</time>
      </trkpt>
      <trkpt lat="59.192253" lon="18.143322">
        <ele>41</ele>
        <time>2020-01-22T08:44:45Z</time>
      </trkpt>
      <trkpt lat="59.192177" lon="18.1434">
        <ele>41</ele>
        <time>2020-01-22T08:44:46Z</time>
      </trkpt>
      <trkpt lat="59.1921" lon="18.143482">
        <ele>41</ele>
        <time>2020-01-22T08:44:47Z</time>
      </trkpt>
      <trkpt lat="59.192024" lon="18.143564">
        <ele>41</ele>
        <time>2020-01-22T08:44:48Z</time>
      </trkpt>
      <trkpt lat="59.191945" lon="18.143641">
        <ele>41</ele>
        <time>2020-01-22T08:44:49Z</time>
      </trkpt>
      <trkpt lat="59.191865" lon="18.143714">
        <ele>40</ele>
        <time>2020-01-22T08:44:50Z</time>
      </trkpt>
      <trkpt lat="59.191783" lon="18.143782">
        <ele>40</ele>
        <time>2020-01-22T08:44:51Z</time>
      </trkpt>
      <trkpt lat="59.191698" lon="18.143846">
        <ele>39</ele>
        <time>2020-01-22T08:44:52Z</time>
      </trkpt>
      <trkpt lat="59.19161" lon="18.143907">
        <ele>39</ele>
        <time>2020-01-22T08:44:53Z</time>
      </trkpt>
      <trkpt lat="59.191519" lon="18.143964">
        <ele>38</ele>
        <time>2020-01-22T08:44:54Z</time>
      </trkpt>
      <trkpt lat="59.191425" lon="18.144013">
        <ele>38</ele>
        <time>2020-01-22T08:44:55Z</time>
      </trkpt>
      <trkpt lat="59.191326" lon="18.144056">
        <ele>37</ele>
        <time>2020-01-22T08:44:56Z</time>
      </trkpt>
      <trkpt lat="59.191225" lon="18.144095">
        <ele>36</ele>
        <time>2020-01-22T08:44:57Z</time>
      </trkpt>
      <trkpt lat="59.191124" lon="18.14413">
        <ele>36</ele>
        <time>2020-01-22T08:44:58Z</time>
      </trkpt>
      <trkpt lat="59.191022" lon="18.144161">
        <ele>35</ele>
        <time>2020-01-22T08:44:59Z</time>
      </trkpt>
      <trkpt lat="59.19092" lon="18.144186">
        <ele>35</ele>
        <time>2020-01-22T08:45:00Z</time>
      </trkpt>
      <trkpt lat="59.190818" lon="18.144208">
        <ele>34</ele>
        <time>2020-01-22T08:45:01Z</time>
      </trkpt>
      <trkpt lat="59.190715" lon="18.144226">
        <ele>33</ele>
        <time>2020-01-22T08:45:02Z</time>
      </trkpt>
      <trkpt lat="59.190611" lon="18.144243">
        <ele>33</ele>
        <time>2020-01-22T08:45:03Z</time>
      </trkpt>
      <trkpt lat="59.190508" lon="18.144258">
        <ele>32</ele>
        <time>2020-01-22T08:45:04Z</time>
      </trkpt>
      <trkpt lat="59.190408" lon="18.144286">
        <ele>31</ele>
        <time>2020-01-22T08:45:05Z</time>
      </trkpt>
      <trkpt lat="59.190311" lon="18.144327">
        <ele>31</ele>
        <time>2020-01-22T08:45:06Z</time>
      </trkpt>
      <trkpt lat="59.190217" lon="18.144378">
        <ele>31</ele>
        <time>2020-01-22T08:45:07Z</time>
      </trkpt>
      <trkpt lat="59.190132" lon="18.14444">
        <ele>30</ele>
        <time>2020-01-22T08:45:08Z</time>
      </trkpt>
      <trkpt lat="59.190045" lon="18.144499">
        <ele>30</ele>
        <time>2020-01-22T08:45:09Z</time>
      </trkpt>
      <trkpt lat="59.189882" lon="18.144542">
        <ele>30</ele>
        <time>2020-01-22T08:45:11Z</time>
      </trkpt>
      <trkpt lat="59.189793" lon="18.144568">
        <ele>30</ele>
        <time>2020-01-22T08:45:12Z</time>
      </trkpt>
      <trkpt lat="59.189634" lon="18.144574">
        <ele>30</ele>
        <time>2020-01-22T08:45:14Z</time>
      </trkpt>
      <trkpt lat="59.189577" lon="18.144599">
        <ele>30</ele>
        <time>2020-01-22T08:45:15Z</time>
      </trkpt>
      <trkpt lat="59.189509" lon="18.144636">
        <ele>31</ele>
        <time>2020-01-22T08:45:16Z</time>
      </trkpt>
      <trkpt lat="59.189445" lon="18.144674">
        <ele>31</ele>
        <time>2020-01-22T08:45:17Z</time>
      </trkpt>
      <trkpt lat="59.189383" lon="18.144718">
        <ele>31</ele>
        <time>2020-01-22T08:45:18Z</time>
      </trkpt>
      <trkpt lat="59.189327" lon="18.144764">
        <ele>30</ele>
        <time>2020-01-22T08:45:19Z</time>
      </trkpt>
      <trkpt lat="59.189272" lon="18.144815">
        <ele>31</ele>
        <time>2020-01-22T08:45:20Z</time>
      </trkpt>
      <trkpt lat="59.189223" lon="18.144868">
        <ele>31</ele>
        <time>2020-01-22T08:45:21Z</time>
      </trkpt>
      <trkpt lat="59.189173" lon="18.144926">
        <ele>31</ele>
        <time>2020-01-22T08:45:22Z</time>
      </trkpt>
      <trkpt lat="59.189123" lon="18.14499">
        <ele>31</ele>
        <time>2020-01-22T08:45:23Z</time>
      </trkpt>
      <trkpt lat="59.189075" lon="18.14506">
        <ele>31</ele>
        <time>2020-01-22T08:45:24Z</time>
      </trkpt>
      <trkpt lat="59.189026" lon="18.145136">
        <ele>31</ele>
        <time>2020-01-22T08:45:25Z</time>
      </trkpt>
      <trkpt lat="59.188974" lon="18.145213">
        <ele>31</ele>
        <time>2020-01-22T08:45:26Z</time>
      </trkpt>
      <trkpt lat="59.188921" lon="18.145284">
        <ele>31</ele>
        <time>2020-01-22T08:45:27Z</time>
      </trkpt>
      <trkpt lat="59.188867" lon="18.145352">
        <ele>30</ele>
        <time>2020-01-22T08:45:28Z</time>
      </trkpt>
      <trkpt lat="59.188812" lon="18.145423">
        <ele>30</ele>
        <time>2020-01-22T08:45:29Z</time>
      </trkpt>
      <trkpt lat="59.188757" lon="18.145494">
        <ele>30</ele>
        <time>2020-01-22T08:45:30Z</time>
      </trkpt>
      <trkpt lat="59.1887" lon="18.145562">
        <ele>30</ele>
        <time>2020-01-22T08:45:31Z</time>
      </trkpt>
      <trkpt lat="59.188641" lon="18.145626">
        <ele>29</ele>
        <time>2020-01-22T08:45:32Z</time>
      </trkpt>
      <trkpt lat="59.188579" lon="18.145687">
        <ele>29</ele>
        <time>2020-01-22T08:45:33Z</time>
      </trkpt>
      <trkpt lat="59.188516" lon="18.145743">
        <ele>29</ele>
        <time>2020-01-22T08:45:34Z</time>
      </trkpt>
      <trkpt lat="59.18845" lon="18.145796">
        <ele>29</ele>
        <time>2020-01-22T08:45:35Z</time>
      </trkpt>
      <trkpt lat="59.188384" lon="18.145848">
        <ele>28</ele>
        <time>2020-01-22T08:45:36Z</time>
      </trkpt>
      <trkpt lat="59.188318" lon="18.145898">
        <ele>28</ele>
        <time>2020-01-22T08:45:37Z</time>
      </trkpt>
      <trkpt lat="59.188251" lon="18.145945">
        <ele>28</ele>
        <time>2020-01-22T08:45:38Z</time>
      </trkpt>
      <trkpt lat="59.188183" lon="18.145992">
        <ele>28</ele>
        <time>2020-01-22T08:45:39Z</time>
      </trkpt>
      <trkpt lat="59.188115" lon="18.146039">
        <ele>28</ele>
        <time>2020-01-22T08:45:40Z</time>
      </trkpt>
      <trkpt lat="59.188045" lon="18.146075">
        <ele>28</ele>
        <time>2020-01-22T08:45:41Z</time>
      </trkpt>
      <trkpt lat="59.187975" lon="18.146122">
        <ele>28</ele>
        <time>2020-01-22T08:45:42Z</time>
      </trkpt>
      <trkpt lat="59.187908" lon="18.146177">
        <ele>28</ele>
        <time>2020-01-22T08:45:43Z</time>
      </trkpt>
      <trkpt lat="59.187841" lon="18.146232">
        <ele>27</ele>
        <time>2020-01-22T08:45:44Z</time>
      </trkpt>
      <trkpt lat="59.187772" lon="18.146283">
        <ele>27</ele>
        <time>2020-01-22T08:45:45Z</time>
      </trkpt>
      <trkpt lat="59.187703" lon="18.146333">
        <ele>27</ele>
        <time>2020-01-22T08:45:46Z</time>
      </trkpt>
      <trkpt lat="59.187633" lon="18.14638">
        <ele>27</ele>
        <time>2020-01-22T08:45:47Z</time>
      </trkpt>
      <trkpt lat="59.187562" lon="18.14642">
        <ele>27</ele>
        <time>2020-01-22T08:45:48Z</time>
      </trkpt>
      <trkpt lat="59.18749" lon="18.146453">
        <ele>27</ele>
        <time>2020-01-22T08:45:49Z</time>
      </trkpt>
      <trkpt lat="59.187419" lon="18.146481">
        <ele>26</ele>
        <time>2020-01-22T08:45:50Z</time>
      </trkpt>
      <trkpt lat="59.187347" lon="18.146505">
        <ele>26</ele>
        <time>2020-01-22T08:45:51Z</time>
      </trkpt>
      <trkpt lat="59.187276" lon="18.146524">
        <ele>26</ele>
        <time>2020-01-22T08:45:52Z</time>
      </trkpt>
      <trkpt lat="59.187207" lon="18.146541">
        <ele>26</ele>
        <time>2020-01-22T08:45:53Z</time>
      </trkpt>
      <trkpt lat="59.187139" lon="18.146557">
        <ele>26</ele>
        <time>2020-01-22T08:45:54Z</time>
      </trkpt>
      <trkpt lat="59.187072" lon="18.146574">
        <ele>26</ele>
        <time>2020-01-22T08:45:55Z</time>
      </trkpt>
      <trkpt lat="59.187006" lon="18.146591">
        <ele>26</ele>
        <time>2020-01-22T08:45:56Z</time>
      </trkpt>
      <trkpt lat="59.186942" lon="18.146608">
        <ele>26</ele>
        <time>2020-01-22T08:45:57Z</time>
      </trkpt>
      <trkpt lat="59.186878" lon="18.146624">
        <ele>26</ele>
        <time>2020-01-22T08:45:58Z</time>
      </trkpt>
      <trkpt lat="59.186814" lon="18.146639">
        <ele>26</ele>
        <time>2020-01-22T08:45:59Z</time>
      </trkpt>
      <trkpt lat="59.186753" lon="18.146656">
        <ele>26</ele>
        <time>2020-01-22T08:46:00Z</time>
      </trkpt>
      <trkpt lat="59.186692" lon="18.146674">
        <ele>26</ele>
        <time>2020-01-22T08:46:01Z</time>
      </trkpt>
      <trkpt lat="59.186632" lon="18.14669">
        <ele>26</ele>
        <time>2020-01-22T08:46:02Z</time>
      </trkpt>
      <trkpt lat="59.186573" lon="18.146705">
        <ele>26</ele>
        <time>2020-01-22T08:46:03Z</time>
      </trkpt>
      <trkpt lat="59.186513" lon="18.14672">
        <ele>26</ele>
        <time>2020-01-22T08:46:04Z</time>
      </trkpt>
      <trkpt lat="59.186454" lon="18.146736">
        <ele>26</ele>
        <time>2020-01-22T08:46:05Z</time>
      </trkpt>
      <trkpt lat="59.186395" lon="18.146752">
        <ele>26</ele>
        <time>2020-01-22T08:46:06Z</time>
      </trkpt>
      <trkpt lat="59.186337" lon="18.146766">
        <ele>26</ele>
        <time>2020-01-22T08:46:07Z</time>
      </trkpt>
      <trkpt lat="59.186279" lon="18.14678">
        <ele>26</ele>
        <time>2020-01-22T08:46:08Z</time>
      </trkpt>
      <trkpt lat="59.186221" lon="18.146792">
        <ele>25</ele>
        <time>2020-01-22T08:46:09Z</time>
      </trkpt>
      <trkpt lat="59.186162" lon="18.146803">
        <ele>25</ele>
        <time>2020-01-22T08:46:10Z</time>
      </trkpt>
      <trkpt lat="59.186103" lon="18.146811">
        <ele>25</ele>
        <time>2020-01-22T08:46:11Z</time>
      </trkpt>
      <trkpt lat="59.186044" lon="18.146812">
        <ele>25</ele>
        <time>2020-01-22T08:46:12Z</time>
      </trkpt>
      <trkpt lat="59.185987" lon="18.146812">
        <ele>25</ele>
        <time>2020-01-22T08:46:13Z</time>
      </trkpt>
      <trkpt lat="59.18593" lon="18.146819">
        <ele>25</ele>
        <time>2020-01-22T08:46:14Z</time>
      </trkpt>
      <trkpt lat="59.185873" lon="18.146832">
        <ele>25</ele>
        <time>2020-01-22T08:46:15Z</time>
      </trkpt>
      <trkpt lat="59.185817" lon="18.146846">
        <ele>25</ele>
        <time>2020-01-22T08:46:16Z</time>
      </trkpt>
      <trkpt lat="59.185761" lon="18.146859">
        <ele>25</ele>
        <time>2020-01-22T08:46:17Z</time>
      </trkpt>
      <trkpt lat="59.185704" lon="18.146871">
        <ele>25</ele>
        <time>2020-01-22T08:46:18Z</time>
      </trkpt>
      <trkpt lat="59.185645" lon="18.146883">
        <ele>25</ele>
        <time>2020-01-22T08:46:19Z</time>
      </trkpt>
      <trkpt lat="59.185587" lon="18.146896">
        <ele>25</ele>
        <time>2020-01-22T08:46:20Z</time>
      </trkpt>
      <trkpt lat="59.185531" lon="18.146909">
        <ele>25</ele>
        <time>2020-01-22T08:46:21Z</time>
      </trkpt>
      <trkpt lat="59.18548" lon="18.14692">
        <ele>25</ele>
        <time>2020-01-22T08:46:22Z</time>
      </trkpt>
      <trkpt lat="59.185431" lon="18.146929">
        <ele>25</ele>
        <time>2020-01-22T08:46:23Z</time>
      </trkpt>
      <trkpt lat="59.185385" lon="18.146925">
        <ele>25</ele>
        <time>2020-01-22T08:46:24Z</time>
      </trkpt>
      <trkpt lat="59.185346" lon="18.146893">
        <ele>25</ele>
        <time>2020-01-22T08:46:25Z</time>
      </trkpt>
      <trkpt lat="59.185319" lon="18.146839">
        <ele>25</ele>
        <time>2020-01-22T08:46:26Z</time>
      </trkpt>
      <trkpt lat="59.185295" lon="18.146782">
        <ele>26</ele>
        <time>2020-01-22T08:46:27Z</time>
      </trkpt>
      <trkpt lat="59.185267" lon="18.14674">
        <ele>26</ele>
        <time>2020-01-22T08:46:28Z</time>
      </trkpt>
      <trkpt lat="59.185233" lon="18.146724">
        <ele>26</ele>
        <time>2020-01-22T08:46:29Z</time>
      </trkpt>
      <trkpt lat="59.185198" lon="18.146726">
        <ele>26</ele>
        <time>2020-01-22T08:46:30Z</time>
      </trkpt>
      <trkpt lat="59.185161" lon="18.14674">
        <ele>26</ele>
        <time>2020-01-22T08:46:31Z</time>
      </trkpt>
      <trkpt lat="59.185126" lon="18.14676">
        <ele>27</ele>
        <time>2020-01-22T08:46:32Z</time>
      </trkpt>
      <trkpt lat="59.185091" lon="18.146787">
        <ele>27</ele>
        <time>2020-01-22T08:46:33Z</time>
      </trkpt>
      <trkpt lat="59.185056" lon="18.146818">
        <ele>27</ele>
        <time>2020-01-22T08:46:34Z</time>
      </trkpt>
      <trkpt lat="59.185021" lon="18.14685">
        <ele>27</ele>
        <time>2020-01-22T08:46:35Z</time>
      </trkpt>
      <trkpt lat="59.184985" lon="18.14688">
        <ele>27</ele>
        <time>2020-01-22T08:46:36Z</time>
      </trkpt>
      <trkpt lat="59.184949" lon="18.146907">
        <ele>27</ele>
        <time>2020-01-22T08:46:37Z</time>
      </trkpt>
      <trkpt lat="59.184914" lon="18.146933">
        <ele>28</ele>
        <time>2020-01-22T08:46:38Z</time>
      </trkpt>
      <trkpt lat="59.184878" lon="18.146958">
        <ele>28</ele>
        <time>2020-01-22T08:46:39Z</time>
      </trkpt>
      <trkpt lat="59.184843" lon="18.146982">
        <ele>28</ele>
        <time>2020-01-22T08:46:40Z</time>
      </trkpt>
      <trkpt lat="59.184809" lon="18.147004">
        <ele>28</ele>
        <time>2020-01-22T08:46:41Z</time>
      </trkpt>
      <trkpt lat="59.184774" lon="18.147022">
        <ele>28</ele>
        <time>2020-01-22T08:46:42Z</time>
      </trkpt>
      <trkpt lat="59.184737" lon="18.147038">
        <ele>28</ele>
        <time>2020-01-22T08:46:43Z</time>
      </trkpt>
      <trkpt lat="59.1847" lon="18.147049">
        <ele>28</ele>
        <time>2020-01-22T08:46:44Z</time>
      </trkpt>
      <trkpt lat="59.184662" lon="18.147058">
        <ele>28</ele>
        <time>2020-01-22T08:46:45Z</time>
      </trkpt>
      <trkpt lat="59.184623" lon="18.147067">
        <ele>29</ele>
        <time>2020-01-22T08:46:46Z</time>
      </trkpt>
      <trkpt lat="59.184585" lon="18.147076">
        <ele>29</ele>
        <time>2020-01-22T08:46:47Z</time>
      </trkpt>
      <trkpt lat="59.184545" lon="18.147086">
        <ele>29</ele>
        <time>2020-01-22T08:46:48Z</time>
      </trkpt>
      <trkpt lat="59.184505" lon="18.147097">
        <ele>29</ele>
        <time>2020-01-22T08:46:49Z</time>
      </trkpt>
      <trkpt lat="59.184464" lon="18.147106">
        <ele>29</ele>
        <time>2020-01-22T08:46:50Z</time>
      </trkpt>
      <trkpt lat="59.184423" lon="18.147112">
        <ele>29</ele>
        <time>2020-01-22T08:46:51Z</time>
      </trkpt>
      <trkpt lat="59.184381" lon="18.14712">
        <ele>29</ele>
        <time>2020-01-22T08:46:52Z</time>
      </trkpt>
      <trkpt lat="59.18434" lon="18.147129">
        <ele>29</ele>
        <time>2020-01-22T08:46:53Z</time>
      </trkpt>
      <trkpt lat="59.184301" lon="18.147138">
        <ele>29</ele>
        <time>2020-01-22T08:46:54Z</time>
      </trkpt>
      <trkpt lat="59.184264" lon="18.147146">
        <ele>30</ele>
        <time>2020-01-22T08:46:55Z</time>
      </trkpt>
      <trkpt lat="59.184227" lon="18.147155">
        <ele>30</ele>
        <time>2020-01-22T08:46:56Z</time>
      </trkpt>
      <trkpt lat="59.18419" lon="18.147162">
        <ele>30</ele>
        <time>2020-01-22T08:46:57Z</time>
      </trkpt>
      <trkpt lat="59.184155" lon="18.147169">
        <ele>30</ele>
        <time>2020-01-22T08:46:58Z</time>
      </trkpt>
      <trkpt lat="59.184119" lon="18.147176">
        <ele>30</ele>
        <time>2020-01-22T08:46:59Z</time>
      </trkpt>
      <trkpt lat="59.184083" lon="18.147182">
        <ele>30</ele>
        <time>2020-01-22T08:47:00Z</time>
      </trkpt>
      <trkpt lat="59.184047" lon="18.14719">
        <ele>30</ele>
        <time>2020-01-22T08:47:01Z</time>
      </trkpt>
      <trkpt lat="59.18401" lon="18.147197">
        <ele>31</ele>
        <time>2020-01-22T08:47:02Z</time>
      </trkpt>
      <trkpt lat="59.18397" lon="18.147204">
        <ele>31</ele>
        <time>2020-01-22T08:47:03Z</time>
      </trkpt>
      <trkpt lat="59.183929" lon="18.147213">
        <ele>31</ele>
        <time>2020-01-22T08:47:04Z</time>
      </trkpt>
      <trkpt lat="59.183887" lon="18.147223">
        <ele>31</ele>
        <time>2020-01-22T08:47:05Z</time>
      </trkpt>
      <trkpt lat="59.183845" lon="18.14723">
        <ele>31</ele>
        <time>2020-01-22T08:47:06Z</time>
      </trkpt>
      <trkpt lat="59.183804" lon="18.147234">
        <ele>31</ele>
        <time>2020-01-22T08:47:07Z</time>
      </trkpt>
      <trkpt lat="59.183762" lon="18.147237">
        <ele>31</ele>
        <time>2020-01-22T08:47:08Z</time>
      </trkpt>
      <trkpt lat="59.18372" lon="18.14724">
        <ele>32</ele>
        <time>2020-01-22T08:47:09Z</time>
      </trkpt>
      <trkpt lat="59.18368" lon="18.147247">
        <ele>32</ele>
        <time>2020-01-22T08:47:10Z</time>
      </trkpt>
      <trkpt lat="59.18364" lon="18.147257">
        <ele>32</ele>
        <time>2020-01-22T08:47:11Z</time>
      </trkpt>
      <trkpt lat="59.183602" lon="18.147275">
        <ele>32</ele>
        <time>2020-01-22T08:47:12Z</time>
      </trkpt>
      <trkpt lat="59.183564" lon="18.147299">
        <ele>32</ele>
        <time>2020-01-22T08:47:13Z</time>
      </trkpt>
      <trkpt lat="59.183527" lon="18.147323">
        <ele>33</ele>
        <time>2020-01-22T08:47:14Z</time>
      </trkpt>
      <trkpt lat="59.183487" lon="18.147336">
        <ele>33</ele>
        <time>2020-01-22T08:47:15Z</time>
      </trkpt>
      <trkpt lat="59.183447" lon="18.147334">
        <ele>33</ele>
        <time>2020-01-22T08:47:16Z</time>
      </trkpt>
      <trkpt lat="59.183407" lon="18.147326">
        <ele>33</ele>
        <time>2020-01-22T08:47:17Z</time>
      </trkpt>
      <trkpt lat="59.183366" lon="18.147307">
        <ele>33</ele>
        <time>2020-01-22T08:47:18Z</time>
      </trkpt>
      <trkpt lat="59.183329" lon="18.147274">
        <ele>33</ele>
        <time>2020-01-22T08:47:19Z</time>
      </trkpt>
      <trkpt lat="59.183296" lon="18.147238">
        <ele>34</ele>
        <time>2020-01-22T08:47:20Z</time>
      </trkpt>
      <trkpt lat="59.183265" lon="18.147208">
        <ele>34</ele>
        <time>2020-01-22T08:47:21Z</time>
      </trkpt>
      <trkpt lat="59.183231" lon="18.147186">
        <ele>34</ele>
        <time>2020-01-22T08:47:22Z</time>
      </trkpt>
      <trkpt lat="59.183189" lon="18.147166">
        <ele>34</ele>
        <time>2020-01-22T08:47:23Z</time>
      </trkpt>
      <trkpt lat="59.183148" lon="18.147149">
        <ele>34</ele>
        <time>2020-01-22T08:47:24Z</time>
      </trkpt>
      <trkpt lat="59.183108" lon="18.147136">
        <ele>34</ele>
        <time>2020-01-22T08:47:25Z</time>
      </trkpt>
      <trkpt lat="59.183066" lon="18.147121">
        <ele>34</ele>
        <time>2020-01-22T08:47:26Z</time>
      </trkpt>
      <trkpt lat="59.183023" lon="18.147108">
        <ele>34</ele>
        <time>2020-01-22T08:47:27Z</time>
      </trkpt>
      <trkpt lat="59.182984" lon="18.147092">
        <ele>34</ele>
        <time>2020-01-22T08:47:28Z</time>
      </trkpt>
      <trkpt lat="59.182948" lon="18.147077">
        <ele>34</ele>
        <time>2020-01-22T08:47:29Z</time>
      </trkpt>
      <trkpt lat="59.182916" lon="18.147062">
        <ele>35</ele>
        <time>2020-01-22T08:47:30Z</time>
      </trkpt>
      <trkpt lat="59.182884" lon="18.147044">
        <ele>35</ele>
        <time>2020-01-22T08:47:31Z</time>
      </trkpt>
      <trkpt lat="59.182854" lon="18.147023">
        <ele>35</ele>
        <time>2020-01-22T08:47:32Z</time>
      </trkpt>
      <trkpt lat="59.182823" lon="18.147">
        <ele>35</ele>
        <time>2020-01-22T08:47:33Z</time>
      </trkpt>
      <trkpt lat="59.182793" lon="18.146978">
        <ele>35</ele>
        <time>2020-01-22T08:47:34Z</time>
      </trkpt>
      <trkpt lat="59.182766" lon="18.146954">
        <ele>35</ele>
        <time>2020-01-22T08:47:35Z</time>
      </trkpt>
      <trkpt lat="59.182736" lon="18.146927">
        <ele>35</ele>
        <time>2020-01-22T08:47:36Z</time>
      </trkpt>
      <trkpt lat="59.18271" lon="18.146903">
        <ele>35</ele>
        <time>2020-01-22T08:47:37Z</time>
      </trkpt>
      <trkpt lat="59.182683" lon="18.146879">
        <ele>36</ele>
        <time>2020-01-22T08:47:38Z</time>
      </trkpt>
      <trkpt lat="59.182651" lon="18.146855">
        <ele>36</ele>
        <time>2020-01-22T08:47:39Z</time>
      </trkpt>
      <trkpt lat="59.182622" lon="18.146826">
        <ele>36</ele>
        <time>2020-01-22T08:47:40Z</time>
      </trkpt>
      <trkpt lat="59.182592" lon="18.1468">
        <ele>36</ele>
        <time>2020-01-22T08:47:41Z</time>
      </trkpt>
      <trkpt lat="59.18256" lon="18.146772">
        <ele>36</ele>
        <time>2020-01-22T08:47:42Z</time>
      </trkpt>
      <trkpt lat="59.182534" lon="18.146746">
        <ele>37</ele>
        <time>2020-01-22T08:47:43Z</time>
      </trkpt>
      <trkpt lat="59.18251" lon="18.146722">
        <ele>37</ele>
        <time>2020-01-22T08:47:44Z</time>
      </trkpt>
      <trkpt lat="59.182483" lon="18.146692">
        <ele>37</ele>
        <time>2020-01-22T08:47:45Z</time>
      </trkpt>
      <trkpt lat="59.182449" lon="18.146656">
        <ele>38</ele>
        <time>2020-01-22T08:47:46Z</time>
      </trkpt>
      <trkpt lat="59.182409" lon="18.146622">
        <ele>38</ele>
        <time>2020-01-22T08:47:47Z</time>
      </trkpt>
      <trkpt lat="59.182373" lon="18.146587">
        <ele>38</ele>
        <time>2020-01-22T08:47:48Z</time>
      </trkpt>
      <trkpt lat="59.182339" lon="18.146553">
        <ele>38</ele>
        <time>2020-01-22T08:47:49Z</time>
      </trkpt>
      <trkpt lat="59.182302" lon="18.146523">
        <ele>38</ele>
        <time>2020-01-22T08:47:50Z</time>
      </trkpt>
      <trkpt lat="59.182268" lon="18.14649">
        <ele>38</ele>
        <time>2020-01-22T08:47:51Z</time>
      </trkpt>
      <trkpt lat="59.182229" lon="18.146464">
        <ele>38</ele>
        <time>2020-01-22T08:47:52Z</time>
      </trkpt>
      <trkpt lat="59.182191" lon="18.146432">
        <ele>38</ele>
        <time>2020-01-22T08:47:53Z</time>
      </trkpt>
      <trkpt lat="59.182162" lon="18.146387">
        <ele>38</ele>
        <time>2020-01-22T08:47:54Z</time>
      </trkpt>
      <trkpt lat="59.18213" lon="18.146344">
        <ele>38</ele>
        <time>2020-01-22T08:47:55Z</time>
      </trkpt>
      <trkpt lat="59.182098" lon="18.146301">
        <ele>38</ele>
        <time>2020-01-22T08:47:56Z</time>
      </trkpt>
      <trkpt lat="59.18206" lon="18.146256">
        <ele>38</ele>
        <time>2020-01-22T08:47:57Z</time>
      </trkpt>
      <trkpt lat="59.182022" lon="18.146209">
        <ele>38</ele>
        <time>2020-01-22T08:47:58Z</time>
      </trkpt>
      <trkpt lat="59.181987" lon="18.14616">
        <ele>39</ele>
        <time>2020-01-22T08:47:59Z</time>
      </trkpt>
      <trkpt lat="59.181951" lon="18.146112">
        <ele>39</ele>
        <time>2020-01-22T08:48:00Z</time>
      </trkpt>
      <trkpt lat="59.181912" lon="18.146065">
        <ele>39</ele>
        <time>2020-01-22T08:48:01Z</time>
      </trkpt>
      <trkpt lat="59.181866" lon="18.14602">
        <ele>39</ele>
        <time>2020-01-22T08:48:02Z</time>
      </trkpt>
      <trkpt lat="59.181823" lon="18.145971">
        <ele>39</ele>
        <time>2020-01-22T08:48:03Z</time>
      </trkpt>
      <trkpt lat="59.18178" lon="18.145925">
        <ele>39</ele>
        <time>2020-01-22T08:48:04Z</time>
      </trkpt>
      <trkpt lat="59.181735" lon="18.145881">
        <ele>39</ele>
        <time>2020-01-22T08:48:05Z</time>
      </trkpt>
      <trkpt lat="59.181701" lon="18.145833">
        <ele>39</ele>
        <time>2020-01-22T08:48:06Z</time>
      </trkpt>
      <trkpt lat="59.181668" lon="18.145784">
        <ele>39</ele>
        <time>2020-01-22T08:48:07Z</time>
      </trkpt>
      <trkpt lat="59.181636" lon="18.145739">
        <ele>39</ele>
        <time>2020-01-22T08:48:08Z</time>
      </trkpt>
      <trkpt lat="59.181606" lon="18.145698">
        <ele>39</ele>
        <time>2020-01-22T08:48:09Z</time>
      </trkpt>
      <trkpt lat="59.181572" lon="18.145658">
        <ele>39</ele>
        <time>2020-01-22T08:48:10Z</time>
      </trkpt>
      <trkpt lat="59.181536" lon="18.145616">
        <ele>39</ele>
        <time>2020-01-22T08:48:11Z</time>
      </trkpt>
      <trkpt lat="59.1815" lon="18.145575">
        <ele>39</ele>
        <time>2020-01-22T08:48:12Z</time>
      </trkpt>
      <trkpt lat="59.181468" lon="18.145534">
        <ele>39</ele>
        <time>2020-01-22T08:48:13Z</time>
      </trkpt>
      <trkpt lat="59.181436" lon="18.145494">
        <ele>39</ele>
        <time>2020-01-22T08:48:14Z</time>
      </trkpt>
      <trkpt lat="59.181391" lon="18.145452">
        <ele>39</ele>
        <time>2020-01-22T08:48:15Z</time>
      </trkpt>
      <trkpt lat="59.181338" lon="18.145405">
        <ele>39</ele>
        <time>2020-01-22T08:48:16Z</time>
      </trkpt>
      <trkpt lat="59.181281" lon="18.145355">
        <ele>38</ele>
        <time>2020-01-22T08:48:17Z</time>
      </trkpt>
      <trkpt lat="59.181225" lon="18.145308">
        <ele>38</ele>
        <time>2020-01-22T08:48:18Z</time>
      </trkpt>
      <trkpt lat="59.181174" lon="18.145262">
        <ele>38</ele>
        <time>2020-01-22T08:48:19Z</time>
      </trkpt>
      <trkpt lat="59.181123" lon="18.145214">
        <ele>38</ele>
        <time>2020-01-22T08:48:20Z</time>
      </trkpt>
      <trkpt lat="59.181074" lon="18.145165">
        <ele>37</ele>
        <time>2020-01-22T08:48:21Z</time>
      </trkpt>
      <trkpt lat="59.181025" lon="18.145115">
        <ele>37</ele>
        <time>2020-01-22T08:48:22Z</time>
      </trkpt>
      <trkpt lat="59.180978" lon="18.145062">
        <ele>37</ele>
        <time>2020-01-22T08:48:23Z</time>
      </trkpt>
      <trkpt lat="59.18093" lon="18.145008">
        <ele>37</ele>
        <time>2020-01-22T08:48:24Z</time>
      </trkpt>
      <trkpt lat="59.180881" lon="18.144956">
        <ele>37</ele>
        <time>2020-01-22T08:48:25Z</time>
      </trkpt>
      <trkpt lat="59.180834" lon="18.144905">
        <ele>37</ele>
        <time>2020-01-22T08:48:26Z</time>
      </trkpt>
      <trkpt lat="59.180785" lon="18.144858">
        <ele>37</ele>
        <time>2020-01-22T08:48:27Z</time>
      </trkpt>
      <trkpt lat="59.180738" lon="18.144808">
        <ele>37</ele>
        <time>2020-01-22T08:48:28Z</time>
      </trkpt>
      <trkpt lat="59.180692" lon="18.14475">
        <ele>37</ele>
        <time>2020-01-22T08:48:29Z</time>
      </trkpt>
      <trkpt lat="59.180648" lon="18.144685">
        <ele>37</ele>
        <time>2020-01-22T08:48:30Z</time>
      </trkpt>
      <trkpt lat="59.180606" lon="18.144617">
        <ele>37</ele>
        <time>2020-01-22T08:48:31Z</time>
      </trkpt>
      <trkpt lat="59.180562" lon="18.144548">
        <ele>36</ele>
        <time>2020-01-22T08:48:32Z</time>
      </trkpt>
      <trkpt lat="59.180518" lon="18.144481">
        <ele>36</ele>
        <time>2020-01-22T08:48:33Z</time>
      </trkpt>
      <trkpt lat="59.18047" lon="18.144418">
        <ele>36</ele>
        <time>2020-01-22T08:48:34Z</time>
      </trkpt>
      <trkpt lat="59.18042" lon="18.144357">
        <ele>36</ele>
        <time>2020-01-22T08:48:35Z</time>
      </trkpt>
      <trkpt lat="59.18037" lon="18.144295">
        <ele>36</ele>
        <time>2020-01-22T08:48:36Z</time>
      </trkpt>
      <trkpt lat="59.18032" lon="18.144234">
        <ele>36</ele>
        <time>2020-01-22T08:48:38Z</time>
      </trkpt>
      <trkpt lat="59.180269" lon="18.14417">
        <ele>36</ele>
        <time>2020-01-22T08:48:38Z</time>
      </trkpt>
      <trkpt lat="59.180218" lon="18.144106">
        <ele>36</ele>
        <time>2020-01-22T08:48:39Z</time>
      </trkpt>
      <trkpt lat="59.180168" lon="18.144045">
        <ele>36</ele>
        <time>2020-01-22T08:48:40Z</time>
      </trkpt>
      <trkpt lat="59.180114" lon="18.143985">
        <ele>36</ele>
        <time>2020-01-22T08:48:41Z</time>
      </trkpt>
      <trkpt lat="59.18006" lon="18.143926">
        <ele>36</ele>
        <time>2020-01-22T08:48:42Z</time>
      </trkpt>
      <trkpt lat="59.180005" lon="18.143871">
        <ele>36</ele>
        <time>2020-01-22T08:48:43Z</time>
      </trkpt>
      <trkpt lat="59.179951" lon="18.143817">
        <ele>36</ele>
        <time>2020-01-22T08:48:44Z</time>
      </trkpt>
      <trkpt lat="59.179894" lon="18.143766">
        <ele>36</ele>
        <time>2020-01-22T08:48:45Z</time>
      </trkpt>
      <trkpt lat="59.179836" lon="18.143718">
        <ele>35</ele>
        <time>2020-01-22T08:48:46Z</time>
      </trkpt>
      <trkpt lat="59.179776" lon="18.143674">
        <ele>36</ele>
        <time>2020-01-22T08:48:47Z</time>
      </trkpt>
      <trkpt lat="59.179718" lon="18.143634">
        <ele>35</ele>
        <time>2020-01-22T08:48:48Z</time>
      </trkpt>
      <trkpt lat="59.179661" lon="18.143606">
        <ele>35</ele>
        <time>2020-01-22T08:48:49Z</time>
      </trkpt>
      <trkpt lat="59.179602" lon="18.143599">
        <ele>35</ele>
        <time>2020-01-22T08:48:50Z</time>
      </trkpt>
      <trkpt lat="59.17954" lon="18.143607">
        <ele>36</ele>
        <time>2020-01-22T08:48:51Z</time>
      </trkpt>
      <trkpt lat="59.179476" lon="18.143621">
        <ele>36</ele>
        <time>2020-01-22T08:48:52Z</time>
      </trkpt>
      <trkpt lat="59.179412" lon="18.143639">
        <ele>36</ele>
        <time>2020-01-22T08:48:53Z</time>
      </trkpt>
      <trkpt lat="59.179352" lon="18.143653">
        <ele>36</ele>
        <time>2020-01-22T08:48:54Z</time>
      </trkpt>
      <trkpt lat="59.1793" lon="18.143647">
        <ele>36</ele>
        <time>2020-01-22T08:48:55Z</time>
      </trkpt>
      <trkpt lat="59.17925" lon="18.143606">
        <ele>36</ele>
        <time>2020-01-22T08:48:56Z</time>
      </trkpt>
      <trkpt lat="59.179201" lon="18.143542">
        <ele>35</ele>
        <time>2020-01-22T08:48:57Z</time>
      </trkpt>
      <trkpt lat="59.179158" lon="18.143474">
        <ele>35</ele>
        <time>2020-01-22T08:48:58Z</time>
      </trkpt>
      <trkpt lat="59.179118" lon="18.143415">
        <ele>35</ele>
        <time>2020-01-22T08:48:59Z</time>
      </trkpt>
      <trkpt lat="59.179086" lon="18.143372">
        <ele>35</ele>
        <time>2020-01-22T08:49:00Z</time>
      </trkpt>
      <trkpt lat="59.179057" lon="18.143343">
        <ele>35</ele>
        <time>2020-01-22T08:49:01Z</time>
      </trkpt>
      <trkpt lat="59.17903" lon="18.143321">
        <ele>35</ele>
        <time>2020-01-22T08:49:02Z</time>
      </trkpt>
      <trkpt lat="59.179" lon="18.143298">
        <ele>35</ele>
        <time>2020-01-22T08:49:03Z</time>
      </trkpt>
      <trkpt lat="59.178969" lon="18.143274">
        <ele>35</ele>
        <time>2020-01-22T08:49:04Z</time>
      </trkpt>
      <trkpt lat="59.178933" lon="18.143247">
        <ele>35</ele>
        <time>2020-01-22T08:49:05Z</time>
      </trkpt>
      <trkpt lat="59.178896" lon="18.14322">
        <ele>35</ele>
        <time>2020-01-22T08:49:06Z</time>
      </trkpt>
      <trkpt lat="59.178857" lon="18.143189">
        <ele>35</ele>
        <time>2020-01-22T08:49:07Z</time>
      </trkpt>
      <trkpt lat="59.178816" lon="18.143157">
        <ele>35</ele>
        <time>2020-01-22T08:49:08Z</time>
      </trkpt>
      <trkpt lat="59.178771" lon="18.143124">
        <ele>35</ele>
        <time>2020-01-22T08:49:09Z</time>
      </trkpt>
      <trkpt lat="59.178723" lon="18.143092">
        <ele>34</ele>
        <time>2020-01-22T08:49:10Z</time>
      </trkpt>
      <trkpt lat="59.178673" lon="18.143058">
        <ele>34</ele>
        <time>2020-01-22T08:49:11Z</time>
      </trkpt>
      <trkpt lat="59.178623" lon="18.143022">
        <ele>34</ele>
        <time>2020-01-22T08:49:12Z</time>
      </trkpt>
      <trkpt lat="59.178572" lon="18.142985">
        <ele>34</ele>
        <time>2020-01-22T08:49:13Z</time>
      </trkpt>
      <trkpt lat="59.178521" lon="18.142949">
        <ele>34</ele>
        <time>2020-01-22T08:49:14Z</time>
      </trkpt>
      <trkpt lat="59.178469" lon="18.142913">
        <ele>34</ele>
        <time>2020-01-22T08:49:15Z</time>
      </trkpt>
      <trkpt lat="59.178416" lon="18.142873">
        <ele>34</ele>
        <time>2020-01-22T08:49:16Z</time>
      </trkpt>
      <trkpt lat="59.178365" lon="18.142836">
        <ele>34</ele>
        <time>2020-01-22T08:49:17Z</time>
      </trkpt>
      <trkpt lat="59.178315" lon="18.142801">
        <ele>34</ele>
        <time>2020-01-22T08:49:18Z</time>
      </trkpt>
      <trkpt lat="59.178265" lon="18.142767">
        <ele>34</ele>
        <time>2020-01-22T08:49:19Z</time>
      </trkpt>
      <trkpt lat="59.178216" lon="18.142732">
        <ele>34</ele>
        <time>2020-01-22T08:49:20Z</time>
      </trkpt>
      <trkpt lat="59.178167" lon="18.1427">
        <ele>35</ele>
        <time>2020-01-22T08:49:21Z</time>
      </trkpt>
      <trkpt lat="59.17812" lon="18.142672">
        <ele>35</ele>
        <time>2020-01-22T08:49:22Z</time>
      </trkpt>
      <trkpt lat="59.178073" lon="18.142649">
        <ele>35</ele>
        <time>2020-01-22T08:49:23Z</time>
      </trkpt>
      <trkpt lat="59.178024" lon="18.142633">
        <ele>35</ele>
        <time>2020-01-22T08:49:24Z</time>
      </trkpt>
      <trkpt lat="59.177974" lon="18.142633">
        <ele>35</ele>
        <time>2020-01-22T08:49:25Z</time>
      </trkpt>
      <trkpt lat="59.177923" lon="18.142643">
        <ele>35</ele>
        <time>2020-01-22T08:49:26Z</time>
      </trkpt>
      <trkpt lat="59.177868" lon="18.142657">
        <ele>35</ele>
        <time>2020-01-22T08:49:27Z</time>
      </trkpt>
      <trkpt lat="59.177811" lon="18.142674">
        <ele>34</ele>
        <time>2020-01-22T08:49:28Z</time>
      </trkpt>
      <trkpt lat="59.17775" lon="18.142691">
        <ele>34</ele>
        <time>2020-01-22T08:49:29Z</time>
      </trkpt>
      <trkpt lat="59.177687" lon="18.14271">
        <ele>34</ele>
        <time>2020-01-22T08:49:30Z</time>
      </trkpt>
      <trkpt lat="59.177625" lon="18.142728">
        <ele>34</ele>
        <time>2020-01-22T08:49:31Z</time>
      </trkpt>
      <trkpt lat="59.177566" lon="18.142742">
        <ele>34</ele>
        <time>2020-01-22T08:49:32Z</time>
      </trkpt>
      <trkpt lat="59.177508" lon="18.142749">
        <ele>35</ele>
        <time>2020-01-22T08:49:33Z</time>
      </trkpt>
      <trkpt lat="59.177454" lon="18.142752">
        <ele>35</ele>
        <time>2020-01-22T08:49:34Z</time>
      </trkpt>
      <trkpt lat="59.177411" lon="18.14275">
        <ele>35</ele>
        <time>2020-01-22T08:49:35Z</time>
      </trkpt>
      <trkpt lat="59.177369" lon="18.14275">
        <ele>35</ele>
        <time>2020-01-22T08:49:36Z</time>
      </trkpt>
      <trkpt lat="59.177325" lon="18.142752">
        <ele>35</ele>
        <time>2020-01-22T08:49:37Z</time>
      </trkpt>
      <trkpt lat="59.177282" lon="18.142758">
        <ele>35</ele>
        <time>2020-01-22T08:49:38Z</time>
      </trkpt>
      <trkpt lat="59.177242" lon="18.142762">
        <ele>36</ele>
        <time>2020-01-22T08:49:39Z</time>
      </trkpt>
      <trkpt lat="59.177201" lon="18.142766">
        <ele>36</ele>
        <time>2020-01-22T08:49:40Z</time>
      </trkpt>
      <trkpt lat="59.177165" lon="18.142765">
        <ele>36</ele>
        <time>2020-01-22T08:49:41Z</time>
      </trkpt>
      <trkpt lat="59.177128" lon="18.142767">
        <ele>36</ele>
        <time>2020-01-22T08:49:42Z</time>
      </trkpt>
      <trkpt lat="59.177089" lon="18.142768">
        <ele>36</ele>
        <time>2020-01-22T08:49:43Z</time>
      </trkpt>
      <trkpt lat="59.177052" lon="18.142764">
        <ele>36</ele>
        <time>2020-01-22T08:49:44Z</time>
      </trkpt>
      <trkpt lat="59.177013" lon="18.142758">
        <ele>37</ele>
        <time>2020-01-22T08:49:45Z</time>
      </trkpt>
      <trkpt lat="59.176976" lon="18.142749">
        <ele>37</ele>
        <time>2020-01-22T08:49:46Z</time>
      </trkpt>
      <trkpt lat="59.176939" lon="18.142739">
        <ele>37</ele>
        <time>2020-01-22T08:49:47Z</time>
      </trkpt>
      <trkpt lat="59.176903" lon="18.142734">
        <ele>37</ele>
        <time>2020-01-22T08:49:48Z</time>
      </trkpt>
      <trkpt lat="59.176866" lon="18.142725">
        <ele>37</ele>
        <time>2020-01-22T08:49:49Z</time>
      </trkpt>
      <trkpt lat="59.176829" lon="18.142713">
        <ele>37</ele>
        <time>2020-01-22T08:49:50Z</time>
      </trkpt>
      <trkpt lat="59.176791" lon="18.142699">
        <ele>37</ele>
        <time>2020-01-22T08:49:51Z</time>
      </trkpt>
      <trkpt lat="59.176752" lon="18.142684">
        <ele>37</ele>
        <time>2020-01-22T08:49:52Z</time>
      </trkpt>
      <trkpt lat="59.176713" lon="18.142668">
        <ele>38</ele>
        <time>2020-01-22T08:49:53Z</time>
      </trkpt>
      <trkpt lat="59.176672" lon="18.142652">
        <ele>38</ele>
        <time>2020-01-22T08:49:54Z</time>
      </trkpt>
      <trkpt lat="59.176634" lon="18.142634">
        <ele>38</ele>
        <time>2020-01-22T08:49:55Z</time>
      </trkpt>
      <trkpt lat="59.176598" lon="18.142614">
        <ele>38</ele>
        <time>2020-01-22T08:49:56Z</time>
      </trkpt>
      <trkpt lat="59.176563" lon="18.142592">
        <ele>38</ele>
        <time>2020-01-22T08:49:57Z</time>
      </trkpt>
      <trkpt lat="59.176529" lon="18.142571">
        <ele>39</ele>
        <time>2020-01-22T08:49:58Z</time>
      </trkpt>
      <trkpt lat="59.176491" lon="18.142547">
        <ele>39</ele>
        <time>2020-01-22T08:49:59Z</time>
      </trkpt>
      <trkpt lat="59.17645" lon="18.142527">
        <ele>39</ele>
        <time>2020-01-22T08:50:00Z</time>
      </trkpt>
      <trkpt lat="59.176412" lon="18.142508">
        <ele>39</ele>
        <time>2020-01-22T08:50:01Z</time>
      </trkpt>
      <trkpt lat="59.176371" lon="18.142481">
        <ele>39</ele>
        <time>2020-01-22T08:50:02Z</time>
      </trkpt>
      <trkpt lat="59.176333" lon="18.142455">
        <ele>39</ele>
        <time>2020-01-22T08:50:03Z</time>
      </trkpt>
      <trkpt lat="59.176296" lon="18.142426">
        <ele>39</ele>
        <time>2020-01-22T08:50:04Z</time>
      </trkpt>
      <trkpt lat="59.176259" lon="18.142395">
        <ele>40</ele>
        <time>2020-01-22T08:50:05Z</time>
      </trkpt>
      <trkpt lat="59.176218" lon="18.142369">
        <ele>40</ele>
        <time>2020-01-22T08:50:06Z</time>
      </trkpt>
      <trkpt lat="59.176194" lon="18.142321">
        <ele>40</ele>
        <time>2020-01-22T08:50:07Z</time>
      </trkpt>
      <trkpt lat="59.176171" lon="18.142263">
        <ele>40</ele>
        <time>2020-01-22T08:50:08Z</time>
      </trkpt>
      <trkpt lat="59.176137" lon="18.142216">
        <ele>41</ele>
        <time>2020-01-22T08:50:09Z</time>
      </trkpt>
      <trkpt lat="59.176122" lon="18.142157">
        <ele>41</ele>
        <time>2020-01-22T08:50:10Z</time>
      </trkpt>
      <trkpt lat="59.176109" lon="18.142088">
        <ele>41</ele>
        <time>2020-01-22T08:50:11Z</time>
      </trkpt>
      <trkpt lat="59.176098" lon="18.142024">
        <ele>41</ele>
        <time>2020-01-22T08:50:12Z</time>
      </trkpt>
      <trkpt lat="59.176091" lon="18.141974">
        <ele>41</ele>
        <time>2020-01-22T08:50:13Z</time>
      </trkpt>
      <trkpt lat="59.176083" lon="18.141918">
        <ele>41</ele>
        <time>2020-01-22T08:50:15Z</time>
      </trkpt>
      <trkpt lat="59.176074" lon="18.141862">
        <ele>41</ele>
        <time>2020-01-22T08:50:17Z</time>
      </trkpt>
      <trkpt lat="59.176071" lon="18.141826">
        <ele>41</ele>
        <time>2020-01-22T08:50:18Z</time>
      </trkpt>
      <trkpt lat="59.176066" lon="18.141785">
        <ele>41</ele>
        <time>2020-01-22T08:50:19Z</time>
      </trkpt>
      <trkpt lat="59.176054" lon="18.141736">
        <ele>42</ele>
        <time>2020-01-22T08:50:20Z</time>
      </trkpt>
      <trkpt lat="59.176041" lon="18.141678">
        <ele>42</ele>
        <time>2020-01-22T08:50:21Z</time>
      </trkpt>
      <trkpt lat="59.176029" lon="18.141612">
        <ele>42</ele>
        <time>2020-01-22T08:50:22Z</time>
      </trkpt>
      <trkpt lat="59.176016" lon="18.141543">
        <ele>42</ele>
        <time>2020-01-22T08:50:23Z</time>
      </trkpt>
      <trkpt lat="59.176001" lon="18.141472">
        <ele>42</ele>
        <time>2020-01-22T08:50:24Z</time>
      </trkpt>
      <trkpt lat="59.175985" lon="18.141399">
        <ele>42</ele>
        <time>2020-01-22T08:50:25Z</time>
      </trkpt>
      <trkpt lat="59.175967" lon="18.141331">
        <ele>42</ele>
        <time>2020-01-22T08:50:26Z</time>
      </trkpt>
      <trkpt lat="59.175943" lon="18.141278">
        <ele>42</ele>
        <time>2020-01-22T08:50:27Z</time>
      </trkpt>
      <trkpt lat="59.175912" lon="18.141249">
        <ele>42</ele>
        <time>2020-01-22T08:50:28Z</time>
      </trkpt>
      <trkpt lat="59.175878" lon="18.141232">
        <ele>42</ele>
        <time>2020-01-22T08:50:29Z</time>
      </trkpt>
      <trkpt lat="59.175842" lon="18.141217">
        <ele>42</ele>
        <time>2020-01-22T08:50:30Z</time>
      </trkpt>
      <trkpt lat="59.175806" lon="18.141201">
        <ele>41</ele>
        <time>2020-01-22T08:50:31Z</time>
      </trkpt>
      <trkpt lat="59.175769" lon="18.141188">
        <ele>41</ele>
        <time>2020-01-22T08:50:32Z</time>
      </trkpt>
      <trkpt lat="59.175732" lon="18.141183">
        <ele>41</ele>
        <time>2020-01-22T08:50:33Z</time>
      </trkpt>
      <trkpt lat="59.175696" lon="18.141184">
        <ele>41</ele>
        <time>2020-01-22T08:50:34Z</time>
      </trkpt>
      <trkpt lat="59.175664" lon="18.141192">
        <ele>41</ele>
        <time>2020-01-22T08:50:35Z</time>
      </trkpt>
      <trkpt lat="59.175639" lon="18.141201">
        <ele>41</ele>
        <time>2020-01-22T08:50:36Z</time>
      </trkpt>
      <trkpt lat="59.175608" lon="18.141223">
        <ele>41</ele>
        <time>2020-01-22T08:50:38Z</time>
      </trkpt>
      <trkpt lat="59.175595" lon="18.141255">
        <ele>41</ele>
        <time>2020-01-22T08:50:39Z</time>
      </trkpt>
      <trkpt lat="59.175577" lon="18.141301">
        <ele>41</ele>
        <time>2020-01-22T08:50:40Z</time>
      </trkpt>
      <trkpt lat="59.175557" lon="18.141353">
        <ele>41</ele>
        <time>2020-01-22T08:50:41Z</time>
      </trkpt>
      <trkpt lat="59.175537" lon="18.141408">
        <ele>42</ele>
        <time>2020-01-22T08:50:42Z</time>
      </trkpt>
      <trkpt lat="59.175513" lon="18.141466">
        <ele>42</ele>
        <time>2020-01-22T08:50:43Z</time>
      </trkpt>
      <trkpt lat="59.175487" lon="18.141529">
        <ele>42</ele>
        <time>2020-01-22T08:50:44Z</time>
      </trkpt>
      <trkpt lat="59.175461" lon="18.141594">
        <ele>42</ele>
        <time>2020-01-22T08:50:45Z</time>
      </trkpt>
      <trkpt lat="59.175433" lon="18.141656">
        <ele>42</ele>
        <time>2020-01-22T08:50:46Z</time>
      </trkpt>
      <trkpt lat="59.175403" lon="18.141707">
        <ele>42</ele>
        <time>2020-01-22T08:50:47Z</time>
      </trkpt>
      <trkpt lat="59.175373" lon="18.141745">
        <ele>42</ele>
        <time>2020-01-22T08:50:48Z</time>
      </trkpt>
      <trkpt lat="59.175338" lon="18.141771">
        <ele>42</ele>
        <time>2020-01-22T08:50:49Z</time>
      </trkpt>
      <trkpt lat="59.175301" lon="18.141788">
        <ele>42</ele>
        <time>2020-01-22T08:50:50Z</time>
      </trkpt>
      <trkpt lat="59.175261" lon="18.1418">
        <ele>42</ele>
        <time>2020-01-22T08:50:51Z</time>
      </trkpt>
      <trkpt lat="59.17522" lon="18.141811">
        <ele>42</ele>
        <time>2020-01-22T08:50:52Z</time>
      </trkpt>
      <trkpt lat="59.175179" lon="18.141822">
        <ele>42</ele>
        <time>2020-01-22T08:50:53Z</time>
      </trkpt>
      <trkpt lat="59.175139" lon="18.141836">
        <ele>42</ele>
        <time>2020-01-22T08:50:54Z</time>
      </trkpt>
      <trkpt lat="59.175097" lon="18.141844">
        <ele>42</ele>
        <time>2020-01-22T08:50:55Z</time>
      </trkpt>
      <trkpt lat="59.175055" lon="18.141846">
        <ele>42</ele>
        <time>2020-01-22T08:50:56Z</time>
      </trkpt>
      <trkpt lat="59.175015" lon="18.14185">
        <ele>42</ele>
        <time>2020-01-22T08:50:57Z</time>
      </trkpt>
      <trkpt lat="59.174976" lon="18.141863">
        <ele>42</ele>
        <time>2020-01-22T08:50:58Z</time>
      </trkpt>
      <trkpt lat="59.174937" lon="18.141891">
        <ele>43</ele>
        <time>2020-01-22T08:50:59Z</time>
      </trkpt>
      <trkpt lat="59.1749" lon="18.141925">
        <ele>43</ele>
        <time>2020-01-22T08:51:00Z</time>
      </trkpt>
      <trkpt lat="59.174866" lon="18.141956">
        <ele>43</ele>
        <time>2020-01-22T08:51:01Z</time>
      </trkpt>
      <trkpt lat="59.17484" lon="18.14198">
        <ele>43</ele>
        <time>2020-01-22T08:51:02Z</time>
      </trkpt>
      <trkpt lat="59.17482" lon="18.141999">
        <ele>43</ele>
        <time>2020-01-22T08:51:03Z</time>
      </trkpt>
      <trkpt lat="59.174794" lon="18.142036">
        <ele>43</ele>
        <time>2020-01-22T08:51:05Z</time>
      </trkpt>
      <trkpt lat="59.17478" lon="18.142069">
        <ele>43</ele>
        <time>2020-01-22T08:51:06Z</time>
      </trkpt>
      <trkpt lat="59.174764" lon="18.142111">
        <ele>43</ele>
        <time>2020-01-22T08:51:07Z</time>
      </trkpt>
      <trkpt lat="59.174746" lon="18.142159">
        <ele>43</ele>
        <time>2020-01-22T08:51:08Z</time>
      </trkpt>
      <trkpt lat="59.174725" lon="18.142209">
        <ele>44</ele>
        <time>2020-01-22T08:51:09Z</time>
      </trkpt>
      <trkpt lat="59.174697" lon="18.14225">
        <ele>44</ele>
        <time>2020-01-22T08:51:10Z</time>
      </trkpt>
      <trkpt lat="59.17466" lon="18.142277">
        <ele>43</ele>
        <time>2020-01-22T08:51:11Z</time>
      </trkpt>
      <trkpt lat="59.174619" lon="18.142293">
        <ele>43</ele>
        <time>2020-01-22T08:51:12Z</time>
      </trkpt>
      <trkpt lat="59.174579" lon="18.142301">
        <ele>44</ele>
        <time>2020-01-22T08:51:13Z</time>
      </trkpt>
      <trkpt lat="59.174541" lon="18.142302">
        <ele>44</ele>
        <time>2020-01-22T08:51:14Z</time>
      </trkpt>
      <trkpt lat="59.174505" lon="18.142299">
        <ele>44</ele>
        <time>2020-01-22T08:51:15Z</time>
      </trkpt>
      <trkpt lat="59.174469" lon="18.142294">
        <ele>44</ele>
        <time>2020-01-22T08:51:16Z</time>
      </trkpt>
      <trkpt lat="59.174434" lon="18.142292">
        <ele>44</ele>
        <time>2020-01-22T08:51:17Z</time>
      </trkpt>
      <trkpt lat="59.1744" lon="18.142288">
        <ele>44</ele>
        <time>2020-01-22T08:51:18Z</time>
      </trkpt>
      <trkpt lat="59.174368" lon="18.142284">
        <ele>44</ele>
        <time>2020-01-22T08:51:19Z</time>
      </trkpt>
      <trkpt lat="59.174336" lon="18.14228">
        <ele>45</ele>
        <time>2020-01-22T08:51:20Z</time>
      </trkpt>
      <trkpt lat="59.174303" lon="18.142281">
        <ele>45</ele>
        <time>2020-01-22T08:51:21Z</time>
      </trkpt>
      <trkpt lat="59.174271" lon="18.142289">
        <ele>45</ele>
        <time>2020-01-22T08:51:22Z</time>
      </trkpt>
      <trkpt lat="59.174244" lon="18.142305">
        <ele>45</ele>
        <time>2020-01-22T08:51:23Z</time>
      </trkpt>
      <trkpt lat="59.174219" lon="18.142327">
        <ele>45</ele>
        <time>2020-01-22T08:51:24Z</time>
      </trkpt>
      <trkpt lat="59.174198" lon="18.142352">
        <ele>45</ele>
        <time>2020-01-22T08:51:25Z</time>
      </trkpt>
      <trkpt lat="59.174177" lon="18.142378">
        <ele>46</ele>
        <time>2020-01-22T08:51:26Z</time>
      </trkpt>
      <trkpt lat="59.174154" lon="18.142404">
        <ele>46</ele>
        <time>2020-01-22T08:51:27Z</time>
      </trkpt>
      <trkpt lat="59.174128" lon="18.142433">
        <ele>46</ele>
        <time>2020-01-22T08:51:28Z</time>
      </trkpt>
      <trkpt lat="59.174102" lon="18.142461">
        <ele>46</ele>
        <time>2020-01-22T08:51:29Z</time>
      </trkpt>
      <trkpt lat="59.174076" lon="18.142486">
        <ele>46</ele>
        <time>2020-01-22T08:51:30Z</time>
      </trkpt>
      <trkpt lat="59.174055" lon="18.142511">
        <ele>47</ele>
        <time>2020-01-22T08:51:31Z</time>
      </trkpt>
      <trkpt lat="59.17404" lon="18.142542">
        <ele>47</ele>
        <time>2020-01-22T08:51:32Z</time>
      </trkpt>
      <trkpt lat="59.174032" lon="18.142577">
        <ele>47</ele>
        <time>2020-01-22T08:51:33Z</time>
      </trkpt>
      <trkpt lat="59.174029" lon="18.142622">
        <ele>47</ele>
        <time>2020-01-22T08:51:34Z</time>
      </trkpt>
      <trkpt lat="59.174027" lon="18.142672">
        <ele>48</ele>
        <time>2020-01-22T08:51:35Z</time>
      </trkpt>
      <trkpt lat="59.174022" lon="18.142725">
        <ele>48</ele>
        <time>2020-01-22T08:51:36Z</time>
      </trkpt>
      <trkpt lat="59.174017" lon="18.142773">
        <ele>49</ele>
        <time>2020-01-22T08:51:37Z</time>
      </trkpt>
      <trkpt lat="59.173995" lon="18.142819">
        <ele>49</ele>
        <time>2020-01-22T08:51:38Z</time>
      </trkpt>
      <trkpt lat="59.173977" lon="18.142859">
        <ele>49</ele>
        <time>2020-01-22T08:51:39Z</time>
      </trkpt>
      <trkpt lat="59.173965" lon="18.142901">
        <ele>50</ele>
        <time>2020-01-22T08:51:40Z</time>
      </trkpt>
      <trkpt lat="59.173958" lon="18.142949">
        <ele>50</ele>
        <time>2020-01-22T08:51:41Z</time>
      </trkpt>
      <trkpt lat="59.17395" lon="18.143">
        <ele>50</ele>
        <time>2020-01-22T08:51:42Z</time>
      </trkpt>
      <trkpt lat="59.173926" lon="18.143072">
        <ele>50</ele>
        <time>2020-01-22T08:51:43Z</time>
      </trkpt>
      <trkpt lat="59.173912" lon="18.143142">
        <ele>50</ele>
        <time>2020-01-22T08:51:44Z</time>
      </trkpt>
      <trkpt lat="59.173903" lon="18.143213">
        <ele>50</ele>
        <time>2020-01-22T08:51:45Z</time>
      </trkpt>
      <trkpt lat="59.173894" lon="18.143285">
        <ele>50</ele>
        <time>2020-01-22T08:51:46Z</time>
      </trkpt>
      <trkpt lat="59.173883" lon="18.143353">
        <ele>50</ele>
        <time>2020-01-22T08:51:47Z</time>
      </trkpt>
      <trkpt lat="59.173861" lon="18.143401">
        <ele>51</ele>
        <time>2020-01-22T08:51:48Z</time>
      </trkpt>
      <trkpt lat="59.173835" lon="18.143426">
        <ele>51</ele>
        <time>2020-01-22T08:51:49Z</time>
      </trkpt>
      <trkpt lat="59.173806" lon="18.143429">
        <ele>51</ele>
        <time>2020-01-22T08:51:50Z</time>
      </trkpt>
      <trkpt lat="59.173778" lon="18.143425">
        <ele>51</ele>
        <time>2020-01-22T08:51:51Z</time>
      </trkpt>
      <trkpt lat="59.173743" lon="18.143429">
        <ele>51</ele>
        <time>2020-01-22T08:51:52Z</time>
      </trkpt>
      <trkpt lat="59.173704" lon="18.14344">
        <ele>51</ele>
        <time>2020-01-22T08:51:53Z</time>
      </trkpt>
      <trkpt lat="59.173667" lon="18.143447">
        <ele>51</ele>
        <time>2020-01-22T08:51:54Z</time>
      </trkpt>
      <trkpt lat="59.173629" lon="18.143453">
        <ele>52</ele>
        <time>2020-01-22T08:51:55Z</time>
      </trkpt>
      <trkpt lat="59.173592" lon="18.143455">
        <ele>52</ele>
        <time>2020-01-22T08:51:56Z</time>
      </trkpt>
      <trkpt lat="59.173565" lon="18.143448">
        <ele>52</ele>
        <time>2020-01-22T08:51:57Z</time>
      </trkpt>
      <trkpt lat="59.173545" lon="18.143433">
        <ele>52</ele>
        <time>2020-01-22T08:51:58Z</time>
      </trkpt>
    </trkseg>
  </trk>
</gpx>